# Wetter Temperatur Luftdruck Luftfeuchtigkeit Sichtweite Windgeschwindigkeit Windrichtung Zeit
1 Clouds 9 1012 40 10000 3.6 260 20:24 02.04.2020
2 Clouds 10 1012 40 10000 3.6 260 19:57 02.04.2020
3 Clouds 10 1012 40 10000 3.6 260 19:38 02.04.2020
4 Clouds 11 1012 37 10000 5.1 270 19:19 02.04.2020
5 Clouds 12 1012 37 10000 5.1 270 18:42 02.04.2020
6 Clouds 12 1013 35 10000 2.6 250 18:21 02.04.2020
7 Clouds 13 1013 35 10000 2.6 250 17:59 02.04.2020
8 Clouds 13 1013 35 10000 2.6 250 17:59 02.04.2020
9 Clouds 13 1013 35 10000 2.6 250 17:40 02.04.2020
10 Clouds 13 1012 51 10000 3.1 230 17:22 02.04.2020
11 Clouds 13 1012 51 10000 3.1 230 17:22 02.04.2020
12 Clouds 13 1013 51 10000 4.1 280 16:57 02.04.2020
13 Clouds 13 1013 51 10000 4.1 280 16:39 02.04.2020
14 Clouds 13 1013 43 10000 3.6 240 16:21 02.04.2020
15 Clouds 13 1014 44 10000 3.1 200 15:56 02.04.2020
16 Clouds 12 1014 44 10000 3.1 200 15:38 02.04.2020
17 Clouds 12 1014 44 10000 3.1 200 15:38 02.04.2020
18 Clouds 13 1014 47 10000 3.6 210 15:18 02.04.2020
19 Clouds 13 1014 47 10000 3.6 210 15:18 02.04.2020
20 Clouds 12 1014 47 10000 3.6 210 14:55 02.04.2020
21 Clouds 12 1014 47 10000 3.6 210 14:37 02.04.2020
22 Clouds 12 1014 47 10000 3.6 210 14:18 02.04.2020
23 Clouds 12 1014 43 10000 3.1 190 13:40 02.04.2020
24 Clouds 12 1014 43 10000 4.1 220 13:21 02.04.2020
25 Clouds 12 1015 46 10000 1.5 0 12:57 02.04.2020
26 Clouds 12 1015 46 10000 1.5 0 12:39 02.04.2020
27 Clouds 11 1014 46 10000 4.1 170 12:19 02.04.2020
28 Clouds 11 1014 46 10000 4.1 170 12:19 02.04.2020
29 Clouds 11 1014 46 10000 4.1 170 12:19 02.04.2020
30 Clouds 11 1014 46 10000 4.1 170 12:19 02.04.2020
31 Clouds 11 1014 46 10000 4.1 170 12:19 02.04.2020
32 Clouds 11 1014 46 10000 4.1 170 11:57 02.04.2020
33 Clouds 11 1014 46 10000 4.6 190 11:38 02.04.2020
34 Clear 10 1015 49 10000 2.1 360 11:19 02.04.2020
35 Clear 10 1015 49 10000 2.1 360 11:19 02.04.2020
36 Clear 10 1015 49 10000 2.1 360 11:19 02.04.2020
37 Clear 10 1015 49 10000 2.1 360 10:55 02.04.2020
38 Clear 10 1015 49 10000 2.1 360 10:37 02.04.2020
39 Clear 9 1014 61 10000 1.5 310 10:19 02.04.2020
40 Clear 8 1014 61 10000 1.5 310 09:55 02.04.2020
41 Clear 8 1015 74 10000 2.1 350 09:37 02.04.2020
42 Clear 6 1015 80 10000 1.5 0 09:18 02.04.2020
43 Clear 5 1015 80 10000 1.5 0 08:45 02.04.2020
44 Clear 4 1015 80 10000 1.5 0 08:26 02.04.2020
45 Clear 3 1014 69 10000 1.5 20 07:45 02.04.2020
46 Clear 3 1014 69 10000 0.5 70 07:20 02.04.2020
47 Clear 3 1014 69 10000 1 50 06:58 02.04.2020
48 Clear 3 1014 69 10000 1 0 06:21 02.04.2020
49 Clear 3 1014 69 10000 1 80 05:45 02.04.2020
50 Clear 3 1015 64 10000 3.1 50 04:35 02.04.2020
51 Clear 4 1015 59 10000 2.6 40 01:51 02.04.2020
52 Clear 5 1016 55 10000 2.1 50 00:50 02.04.2020
53 Clear 5 1016 55 10000 2.1 50 00:50 02.04.2020
54 Clear 5 1016 55 10000 2.1 50 00:28 02.04.2020
55 Clear 5 1015 45 10000 2.6 60 23:57 01.04.2020
56 Clear 5 1015 45 10000 2.6 60 23:37 01.04.2020
57 Clear 6 1015 45 10000 2.6 60 23:18 01.04.2020
58 Clear 6 1015 45 10000 2.6 60 23:18 01.04.2020
59 Clear 6 1015 45 10000 1.5 20 22:40 01.04.2020
60 Clear 6 1015 45 10000 1.5 20 22:22 01.04.2020
61 Clear 6 1015 45 10000 3.1 20 21:55 01.04.2020
62 Clear 7 1015 42 10000 2.6 40 21:37 01.04.2020
63 Clear 8 1015 36 10000 2.1 340 21:18 01.04.2020
64 Clear 8 1015 36 10000 2.1 340 21:18 01.04.2020
65 Clear 8 1015 36 10000 2.1 340 20:54 01.04.2020
66 Clear 8 1015 36 10000 2.1 340 20:54 01.04.2020
67 Clear 8 1015 36 10000 2.1 340 20:36 01.04.2020
68 Clear 9 1014 32 10000 6.7 350 20:18 01.04.2020
69 Clear 10 1014 32 10000 6.7 350 19:42 01.04.2020
70 Clear 11 1014 34 10000 4.6 350 19:21 01.04.2020
71 Clear 11 1015 32 10000 5.1 350 18:47 01.04.2020
72 Clear 11 1015 32 10000 5.1 350 18:27 01.04.2020
73 Clear 12 1015 32 10000 5.1 350 17:59 01.04.2020
74 Clear 12 1015 30 10000 5.1 10 17:39 01.04.2020
75 Clear 12 1014 30 10000 3.6 20 17:21 01.04.2020
76 Clear 12 1014 30 10000 3.6 20 17:21 01.04.2020
77 Clear 13 1015 35 10000 3.1 10 16:59 01.04.2020
78 Clear 13 1015 35 10000 3.1 10 16:41 01.04.2020
79 Clear 12 1015 30 10000 3.6 20 16:22 01.04.2020
80 Clear 12 1015 30 10000 3.6 20 15:58 01.04.2020
81 Clear 12 1015 30 10000 3.6 20 15:38 01.04.2020
82 Clear 12 1015 30 10000 3.6 20 15:38 01.04.2020
83 Clear 12 1015 32 10000 4.6 40 15:20 01.04.2020
84 Clear 12 1016 32 10000 4.6 340 14:57 01.04.2020
85 Clear 12 1016 32 10000 4.6 340 14:57 01.04.2020
86 Clear 12 1016 32 10000 4.6 340 14:38 01.04.2020
87 Clear 12 1016 32 10000 6.7 360 14:19 01.04.2020
88 Clear 12 1016 32 10000 6.7 360 14:19 01.04.2020
89 Clear 12 1016 32 10000 6.7 360 13:57 01.04.2020
90 Clear 11 1016 32 10000 6.7 360 13:37 01.04.2020
91 Clear 11 1016 29 10000 5.7 20 13:18 01.04.2020
92 Clear 11 1016 29 10000 5.7 20 12:54 01.04.2020
93 Clear 11 1016 29 10000 5.7 20 12:36 01.04.2020
94 Clouds 10 1016 29 10000 6.7 40 12:18 01.04.2020
95 Clouds 10 1016 34 10000 6.2 40 11:40 01.04.2020
96 Clouds 9 1016 34 10000 6.2 40 11:21 01.04.2020
97 Clouds 9 1017 36 10000 6.7 20 10:58 01.04.2020
98 Clouds 9 1017 36 10000 6.7 20 10:37 01.04.2020
99 Clouds 8 1017 48 10000 8.2 360 10:18 01.04.2020
100 Clouds 7 1017 48 10000 8.2 360 09:55 01.04.2020
101 Clouds 7 1017 48 10000 8.2 360 09:37 01.04.2020
102 Clear 5 1016 52 10000 6.2 350 09:18 01.04.2020
103 Clear 5 1016 52 10000 6.2 350 08:40 01.04.2020
104 Clear 5 1015 51 10000 5.1 20 08:18 01.04.2020
105 Clouds 4 1015 51 10000 8.2 20 07:43 01.04.2020
106 Clouds 4 1015 48 10000 8.7 20 07:21 01.04.2020
107 Clear 3 1014 48 10000 7.7 20 06:48 01.04.2020
108 Clear 4 1014 48 10000 7.2 30 06:24 01.04.2020
109 Clear 4 1014 48 10000 7.2 30 05:56 01.04.2020
110 Clear 5 1015 48 10000 3.6 10 04:30 01.04.2020
111 Clear 5 1014 51 10000 4.6 30 03:28 01.04.2020
112 Clouds 5 1015 52 10000 4.6 30 02:49 01.04.2020
113 Clouds 6 1015 56 10000 6.7 20 01:57 01.04.2020
114 Clouds 6 1015 56 10000 4.6 30 01:37 01.04.2020
115 Clouds 6 1015 60 10000 4.6 30 01:18 01.04.2020
116 Clouds 6 1015 56 10000 5.7 40 00:43 01.04.2020
117 Clouds 7 1015 60 10000 5.7 20 00:18 01.04.2020
118 Clouds 7 1015 59 10000 4.6 20 23:42 31.03.2020
119 Clouds 7 1015 65 10000 4.1 30 23:23 31.03.2020
120 Clouds 7 1015 70 10000 4.1 30 22:57 31.03.2020
121 Clouds 7 1015 70 10000 4.1 30 22:36 31.03.2020
122 Clouds 7 1015 70 10000 4.6 30 22:18 31.03.2020
123 Clouds 8 1015 70 10000 5.1 30 21:55 31.03.2020
124 Clouds 8 1015 70 10000 5.1 30 21:55 31.03.2020
125 Clouds 8 1015 70 10000 5.1 30 21:37 31.03.2020
126 Clouds 8 1015 66 10000 4.1 360 21:19 31.03.2020
127 Clouds 9 1015 66 10000 4.1 360 20:54 31.03.2020
128 Clouds 9 1015 70 10000 4.1 40 20:36 31.03.2020
129 Clouds 9 1015 66 10000 5.7 360 20:18 31.03.2020
130 Clouds 10 1015 66 10000 5.7 360 19:41 31.03.2020
131 Clouds 10 1015 66 10000 5.7 360 19:22 31.03.2020
132 Clouds 11 1015 66 10000 5.7 350 18:55 31.03.2020
133 Clouds 11 1015 66 10000 5.7 350 18:37 31.03.2020
134 Clouds 11 1015 66 10000 5.7 350 18:18 31.03.2020
135 Clouds 12 1014 62 10000 7.7 10 17:54 31.03.2020
136 Clouds 13 1014 62 10000 7.7 10 17:36 31.03.2020
137 Clouds 13 1014 62 10000 5.1 10 17:18 31.03.2020
138 Clouds 14 1014 62 10000 5.1 10 16:38 31.03.2020
139 Rain 14 1015 58 10000 7.2 350 16:19 31.03.2020
140 Rain 15 1015 58 10000 7.2 350 15:57 31.03.2020
141 Rain 15 1015 58 10000 7.2 350 15:38 31.03.2020
142 Clouds 16 1015 55 10000 1 0 15:19 31.03.2020
143 Clouds 16 1015 55 10000 1 0 14:56 31.03.2020
144 Clouds 16 1015 55 10000 1 0 14:38 31.03.2020
145 Clouds 15 1015 51 10000 4.1 340 14:18 31.03.2020
146 Clouds 16 1015 51 10000 4.1 340 13:42 31.03.2020
147 Rain 16 1015 62 10000 3.1 350 13:19 31.03.2020
148 Rain 15 1015 62 10000 3.1 350 12:55 31.03.2020
149 Rain 15 1015 62 10000 3.1 350 12:37 31.03.2020
150 Clear 14 1016 67 10000 4.1 40 12:18 31.03.2020
151 Clear 14 1016 67 10000 4.1 40 11:38 31.03.2020
152 Clear 13 1016 87 10000 3.6 20 11:19 31.03.2020
153 Clear 13 1016 87 10000 3.6 20 10:57 31.03.2020
154 Clear 12 1016 87 10000 3.6 20 10:39 31.03.2020
155 Clear 12 1015 76 10000 3.6 20 10:21 31.03.2020
156 Clear 11 1015 100 10000 2.98 345 09:56 31.03.2020
157 Clear 10 1015 100 10000 2.98 345 09:37 31.03.2020
158 Clear 10 1015 100 10000 2.98 345 09:37 31.03.2020
159 Clouds 10 1014 87 10000 3.1 50 09:19 31.03.2020
160 Clouds 9 1014 87 10000 3.1 50 08:55 31.03.2020
161 Clouds 9 1015 100 10000 2.58 357 08:37 31.03.2020
162 Clouds 8 1014 87 10000 2.6 70 08:18 31.03.2020
163 Clouds 7 1014 93 10000 2.6 50 07:44 31.03.2020
164 Clouds 7 1014 93 10000 2.6 50 07:44 31.03.2020
165 Clouds 7 1014 100 10000 1.5 40 07:25 31.03.2020
166 Clouds 7 1014 100 10000 1.5 40 06:59 31.03.2020
167 Clouds 7 1014 93 10000 0.5 0 06:41 31.03.2020
168 Clouds 7 1014 100 10000 1 40 05:44 31.03.2020
169 Clouds 7 1014 100 10000 0.5 0 05:24 31.03.2020
170 Clouds 8 1014 100 10000 1.5 70 02:56 31.03.2020
171 Clouds 8 1013 93 10000 0.5 0 01:47 31.03.2020
172 Clouds 8 1013 100 10000 0.5 0 01:22 31.03.2020
173 Clouds 9 1013 93 10000 1.5 290 00:43 31.03.2020
174 Clouds 9 1013 93 10000 1.5 290 00:23 31.03.2020
175 Clouds 10 1013 87 10000 1.5 190 23:40 30.03.2020
176 Clouds 10 1013 87 10000 1.5 190 23:20 30.03.2020
177 Clouds 10 1013 87 10000 1.5 190 22:58 30.03.2020
178 Clouds 10 1013 87 10000 2.1 200 22:38 30.03.2020
179 Clouds 10 1013 81 10000 1 220 22:19 30.03.2020
180 Clouds 11 1013 81 10000 1 220 21:57 30.03.2020
181 Clouds 11 1013 76 10000 1.5 330 21:38 30.03.2020
182 Clouds 11 1012 67 10000 2.6 50 21:20 30.03.2020
183 Clouds 11 1012 67 10000 2.6 50 20:58 30.03.2020
184 Clouds 11 1012 67 10000 2.6 50 20:38 30.03.2020
185 Clouds 12 1012 58 10000 4.6 140 20:19 30.03.2020
186 Clouds 13 1012 58 10000 4.6 140 19:54 30.03.2020
187 Clouds 13 1012 58 10000 4.6 140 19:36 30.03.2020
188 Clouds 13 1011 63 10000 3.1 280 19:18 30.03.2020
189 Clouds 14 1011 63 10000 3.1 280 18:41 30.03.2020
190 Rain 14 1011 62 10000 3.1 280 18:23 30.03.2020
191 Clouds 14 1011 55 10000 3.6 250 17:57 30.03.2020
192 Clouds 14 1011 55 10000 3.6 250 17:39 30.03.2020
193 Clouds 14 1011 63 10000 3.1 260 17:19 30.03.2020
194 Clouds 15 1011 63 10000 3.1 260 16:57 30.03.2020
195 Clouds 15 1011 63 10000 3.1 260 16:39 30.03.2020
196 Clouds 16 1012 59 10000 4.1 260 16:20 30.03.2020
197 Clouds 16 1012 59 10000 4.1 260 15:55 30.03.2020
198 Clouds 16 1012 59 10000 4.1 260 15:37 30.03.2020
199 Clouds 16 1012 55 10000 2.1 190 15:18 30.03.2020
200 Clouds 16 1012 55 10000 2.1 190 14:55 30.03.2020
201 Clouds 16 1012 55 10000 2.1 190 14:36 30.03.2020
202 Rain 16 1012 55 10000 3.99 247 14:18 30.03.2020
203 Rain 16 1012 55 10000 3.99 247 13:44 30.03.2020
204 Clouds 16 1012 67 10000 2.1 230 13:21 30.03.2020
205 Clouds 16 1013 63 10000 3.99 247 12:59 30.03.2020
206 Clouds 16 1013 63 10000 3.99 247 12:41 30.03.2020
207 Clouds 15 1013 82 10000 1.5 0 12:19 30.03.2020
208 Clouds 15 1013 82 10000 1.5 0 11:57 30.03.2020
209 Clouds 15 1013 82 10000 1.5 0 11:38 30.03.2020
210 Clouds 14 1013 93 8000 1 0 11:20 30.03.2020
211 Clouds 14 1013 93 8000 1 0 10:41 30.03.2020
212 Clouds 14 1013 93 8000 1 0 10:22 30.03.2020
213 Mist 13 1012 100 5000 2.1 360 09:57 30.03.2020
214 Mist 12 1012 100 5000 2.1 360 09:38 30.03.2020
215 Mist 10 1012 100 5000 1 0 09:19 30.03.2020
216 Mist 10 1012 100 5000 1 0 08:42 30.03.2020
217 Clouds 9 1011 87 10000 1.5 30 08:22 30.03.2020
218 Clouds 8 1011 87 10000 2.1 100 07:50 30.03.2020
219 Clouds 8 1011 87 10000 2.1 100 07:31 30.03.2020
220 Fog 8 1011 100 3000 1 30 06:57 30.03.2020
221 Fog 8 1011 93 3000 1 10 06:33 30.03.2020
222 Fog 8 1011 100 4000 1 360 05:55 30.03.2020
223 Fog 8 1011 100 4000 1 360 05:33 30.03.2020
224 Mist 9 1011 100 5000 1 340 04:24 30.03.2020
225 Mist 9 1012 93 5000 1 0 03:44 30.03.2020
226 Mist 9 1012 93 5000 1 0 02:42 30.03.2020
227 Clouds 10 1012 93 10000 1.5 70 01:44 30.03.2020
228 Clouds 10 1013 87 10000 1.5 80 00:50 30.03.2020
229 Clouds 10 1013 87 10000 1.5 80 00:23 30.03.2020
230 Clouds 11 1013 87 10000 1 0 23:42 29.03.2020
231 Clouds 11 1013 87 10000 1 0 23:24 29.03.2020
232 Clouds 11 1013 87 10000 1 0 22:58 29.03.2020
233 Clouds 11 1013 87 10000 2.1 200 22:38 29.03.2020
234 Clouds 11 1013 87 10000 1 0 22:19 29.03.2020
235 Clouds 11 1013 87 10000 1 0 21:56 29.03.2020
236 Clouds 11 1013 81 10000 2.1 210 21:36 29.03.2020
237 Rain 12 1013 81 10000 1.5 220 21:18 29.03.2020
238 Rain 12 1013 81 10000 1.5 220 21:18 29.03.2020
239 Rain 12 1013 81 10000 1.5 220 20:55 29.03.2020
240 Rain 12 1012 81 10000 1.5 280 20:36 29.03.2020
241 Rain 12 1012 67 10000 2.1 250 20:18 29.03.2020
242 Rain 13 1012 67 10000 2.1 250 19:42 29.03.2020
243 Rain 13 1012 67 10000 2.1 250 19:42 29.03.2020
244 Clouds 13 1011 71 10000 3.1 270 19:24 29.03.2020
245 Rain 14 1011 63 10000 5.1 270 18:58 29.03.2020
246 Rain 14 1011 63 10000 5.1 270 18:40 29.03.2020
247 Rain 14 1011 63 10000 5.1 270 18:20 29.03.2020
248 Rain 14 1011 63 10000 5.1 270 18:20 29.03.2020
249 Rain 14 1011 63 10000 5.7 250 17:57 29.03.2020
250 Rain 14 1011 63 10000 5.7 250 17:39 29.03.2020
251 Clouds 15 1011 59 10000 4.6 260 17:20 29.03.2020
252 Clouds 15 1011 59 10000 4.6 260 16:58 29.03.2020
253 Clouds 15 1011 59 10000 4.6 260 16:39 29.03.2020
254 Clouds 15 1011 59 10000 4.6 260 16:39 29.03.2020
255 Clouds 15 1012 59 10000 5.1 230 16:20 29.03.2020
256 Clouds 16 1013 52 10000 4.1 280 15:43 29.03.2020
257 Clouds 16 1013 52 10000 4.1 280 15:25 29.03.2020
258 Clouds 16 1013 59 10000 1.5 0 14:59 29.03.2020
259 Clouds 16 1013 59 10000 1.5 0 14:40 29.03.2020
260 Clouds 16 1013 59 10000 1.5 0 14:21 29.03.2020
261 Clouds 15 1013 59 10000 1.5 0 13:59 29.03.2020
262 Clouds 15 1013 55 10000 1 0 13:41 29.03.2020
263 Clouds 16 1013 55 10000 1 0 13:21 29.03.2020
264 Rain 15 1014 63 10000 2.6 220 12:57 29.03.2020
265 Rain 15 1014 63 10000 2.6 220 12:38 29.03.2020
266 Clear 15 1014 63 10000 2.6 220 12:19 29.03.2020
267 Clear 14 1014 63 10000 2.6 220 11:57 29.03.2020
268 Clear 14 1014 63 10000 2.6 220 11:57 29.03.2020
269 Clear 14 1014 72 10000 0.5 0 11:37 29.03.2020
270 Clear 14 1014 93 10000 0.5 0 11:19 29.03.2020
271 Clear 13 1014 93 10000 0.5 0 10:39 29.03.2020
272 Clear 12 1014 100 10000 2.6 360 10:19 29.03.2020
273 Clear 11 1014 100 10000 2.6 360 09:54 29.03.2020
274 Clear 11 1014 100 10000 2.6 360 09:36 29.03.2020
275 Clouds 10 1014 100 7000 2.1 360 09:18 29.03.2020
276 Clouds 9 1014 100 7000 2.1 360 08:41 29.03.2020
277 Clouds 9 1013 87 10000 0.5 0 08:22 29.03.2020
278 Clouds 7 1013 87 10000 1.5 140 07:45 29.03.2020
279 Fog 7 1013 100 3000 1 60 07:22 29.03.2020
280 Fog 8 1014 100 8000 1 60 05:59 29.03.2020
281 Clouds 8 1014 93 10000 1 30 04:56 29.03.2020
282 Clouds 9 1014 87 8000 1 0 03:37 29.03.2020
283 Rain 9 1014 87 9000 0.5 180 01:57 29.03.2020
284 Rain 10 1015 87 9000 0.5 0 01:37 29.03.2020
285 Rain 9 1015 93 9000 1 80 01:19 29.03.2020
286 Rain 10 1015 87 9000 1 100 00:39 29.03.2020
287 Clouds 10 1014 81 10000 1.5 130 23:59 28.03.2020
288 Clouds 10 1014 81 10000 1.5 130 23:40 28.03.2020
289 Clouds 10 1014 81 10000 1.5 130 23:40 28.03.2020
290 Clouds 10 1014 81 10000 1.5 130 23:22 28.03.2020
291 Rain 10 1014 87 10000 1.5 120 22:42 28.03.2020
292 Clouds 11 1014 81 10000 1 140 22:22 28.03.2020
293 Clouds 11 1014 81 10000 1 140 21:57 28.03.2020
294 Clouds 11 1014 81 10000 1 150 21:39 28.03.2020
295 Rain 11 1014 76 10000 1 170 21:19 28.03.2020
296 Rain 11 1014 76 10000 1 170 20:55 28.03.2020
297 Rain 11 1014 71 10000 1 0 20:37 28.03.2020
298 Clouds 11 1014 76 10000 1.5 190 20:18 28.03.2020
299 Clouds 11 1014 76 10000 1.5 190 19:55 28.03.2020
300 Clouds 11 1013 76 10000 1.5 210 19:36 28.03.2020
301 Clouds 11 1013 76 10000 2.1 220 19:18 28.03.2020
302 Clouds 11 1013 76 10000 2.1 220 19:18 28.03.2020
303 Clouds 12 1013 76 10000 3.1 210 18:39 28.03.2020
304 Clouds 12 1013 62 10000 2.6 230 18:20 28.03.2020
305 Clouds 13 1013 62 10000 2.6 230 17:40 28.03.2020
306 Clouds 13 1013 62 10000 2.6 230 17:22 28.03.2020
307 Clouds 13 1013 62 10000 2.6 230 16:59 28.03.2020
308 Clouds 13 1012 67 10000 3.1 200 16:38 28.03.2020
309 Clouds 13 1013 45 10000 1 0 16:18 28.03.2020
310 Clouds 14 1013 45 10000 1 0 15:40 28.03.2020
311 Clouds 14 1013 55 10000 1.5 0 15:19 28.03.2020
312 Clouds 14 1013 55 10000 1.5 0 14:57 28.03.2020
313 Clouds 14 1013 55 10000 1.5 0 14:39 28.03.2020
314 Rain 13 1013 62 10000 1 0 14:20 28.03.2020
315 Rain 14 1013 62 10000 1 0 13:43 28.03.2020
316 Clouds 14 1013 67 10000 2.1 230 13:23 28.03.2020
317 Clouds 14 1013 62 10000 2.68 243 12:41 28.03.2020
318 Rain 14 1013 71 10000 1 0 12:22 28.03.2020
319 Rain 13 1013 71 10000 1 0 11:43 28.03.2020
320 Rain 13 1013 71 10000 1 0 11:24 28.03.2020
321 Clouds 13 1013 87 10000 1 0 10:58 28.03.2020
322 Clouds 13 1013 87 10000 1 0 10:38 28.03.2020
323 Clouds 12 1013 93 10000 1 0 10:19 28.03.2020
324 Clouds 11 1013 93 10000 1 0 09:43 28.03.2020
325 Clouds 11 1013 93 10000 1 0 09:24 28.03.2020
326 Clouds 10 1013 100 10000 0.62 61 08:57 28.03.2020
327 Clouds 10 1013 100 10000 0.79 94 08:39 28.03.2020
328 Clouds 10 1013 100 10000 0.62 61 08:39 28.03.2020
329 Clouds 10 1012 87 10000 1.5 10 08:20 28.03.2020
330 Clouds 9 1012 93 10000 2.1 30 07:44 28.03.2020
331 Clouds 9 1013 93 10000 1.5 80 06:59 28.03.2020
332 Clouds 8 1012 87 10000 1.5 30 06:36 28.03.2020
333 Clouds 8 1012 87 10000 1.5 30 05:43 28.03.2020
334 Clouds 8 1012 87 10000 2.1 30 05:21 28.03.2020
335 Clouds 9 1013 87 10000 2.6 40 04:41 28.03.2020
336 Clouds 9 1013 93 10000 1.5 350 03:54 28.03.2020
337 Clouds 9 1013 93 10000 1 0 02:21 28.03.2020
338 Clouds 9 1013 93 10000 1.5 360 01:30 28.03.2020
339 Clouds 9 1013 93 10000 1.5 10 00:59 28.03.2020
340 Clouds 9 1013 87 10000 2.6 20 00:37 28.03.2020
341 Clouds 9 1013 87 10000 1 0 23:57 27.03.2020
342 Clouds 9 1013 87 10000 1 0 23:39 27.03.2020
343 Clouds 9 1013 87 10000 1 0 23:21 27.03.2020
344 Clouds 9 1013 87 10000 1.5 80 22:56 27.03.2020
345 Clouds 9 1013 87 10000 1.5 80 22:37 27.03.2020
346 Clouds 10 1013 87 10000 2.1 80 22:19 27.03.2020
347 Clouds 10 1013 87 10000 1.5 60 21:44 27.03.2020
348 Clouds 10 1013 87 10000 1.5 60 21:25 27.03.2020
349 Clouds 10 1013 87 10000 1.5 60 21:25 27.03.2020
350 Clouds 10 1012 87 10000 2.1 70 20:59 27.03.2020
351 Clouds 10 1012 87 10000 2.1 80 20:41 27.03.2020
352 Clouds 10 1012 76 10000 1.5 110 20:21 27.03.2020
353 Clouds 10 1012 76 10000 1.5 110 19:58 27.03.2020
354 Clouds 11 1011 71 10000 2.1 230 19:40 27.03.2020
355 Clouds 11 1011 71 10000 2.1 230 19:21 27.03.2020
356 Clouds 11 1010 71 10000 2.1 220 18:45 27.03.2020
357 Clouds 12 1010 66 10000 3.1 190 18:25 27.03.2020
358 Rain 12 1010 87 10000 2.6 200 17:59 27.03.2020
359 Rain 12 1010 87 10000 2.6 200 17:40 27.03.2020
360 Rain 12 1010 87 10000 2.6 200 17:20 27.03.2020
361 Clouds 13 1010 76 10000 2.6 210 16:44 27.03.2020
362 Rain 13 1009 67 9000 3.1 200 16:26 27.03.2020
363 Rain 13 1009 67 9000 3.1 200 15:56 27.03.2020
364 Rain 13 1009 67 9000 3.1 200 15:38 27.03.2020
365 Clouds 15 1008 62 10000 7.7 170 15:20 27.03.2020
366 Clouds 16 1009 62 10000 4.6 200 14:45 27.03.2020
367 Clouds 16 1009 62 10000 4.6 200 14:24 27.03.2020
368 Clouds 16 1008 58 10000 6.7 180 13:56 27.03.2020
369 Clouds 16 1008 63 10000 4.6 220 13:37 27.03.2020
370 Clouds 16 1008 63 10000 4.6 220 13:18 27.03.2020
371 Clouds 16 1008 59 10000 4.1 230 12:45 27.03.2020
372 Clouds 16 1008 59 10000 4.1 230 12:20 27.03.2020
373 Clouds 15 1008 55 10000 2.1 100 11:59 27.03.2020
374 Clouds 15 1008 55 10000 2.1 100 11:41 27.03.2020
375 Clouds 15 1008 55 10000 2.1 100 11:41 27.03.2020
376 Clouds 15 1008 55 10000 2.1 100 11:22 27.03.2020
377 Clouds 15 1007 71 10000 3.1 120 10:54 27.03.2020
378 Clouds 15 1007 71 10000 3.1 120 10:54 27.03.2020
379 Clouds 15 1007 71 10000 3.1 120 10:36 27.03.2020
380 Clouds 14 1007 71 10000 1 0 10:18 27.03.2020
381 Rain 14 1006 76 10000 1.5 0 09:55 27.03.2020
382 Rain 14 1006 76 10000 1.5 0 09:36 27.03.2020
383 Clouds 13 1006 81 10000 2.6 40 09:18 27.03.2020
384 Clouds 12 1006 81 10000 2.6 40 08:54 27.03.2020
385 Rain 12 1006 93 10000 1.5 0 08:36 27.03.2020
386 Clouds 12 1005 87 10000 1.5 340 08:18 27.03.2020
387 Clouds 11 1005 87 10000 1.5 0 07:43 27.03.2020
388 Clouds 10 1005 93 10000 1 30 07:21 27.03.2020
389 Clouds 9 1004 93 10000 1.5 40 06:41 27.03.2020
390 Clouds 9 1004 93 10000 1.5 180 06:18 27.03.2020
391 Clouds 9 1004 87 10000 0.5 0 03:42 27.03.2020
392 Rain 9 1004 93 10000 1 0 02:25 27.03.2020
393 Rain 10 1004 81 10000 1 0 01:21 27.03.2020
394 Rain 10 1004 81 10000 0.5 0 00:45 27.03.2020
395 Clouds 10 1004 81 10000 0.5 0 00:21 27.03.2020
396 Clouds 10 1004 87 10000 1.5 260 23:42 26.03.2020
397 Rain 10 1004 81 10000 1 0 23:19 26.03.2020
398 Rain 10 1004 81 10000 1.5 330 22:58 26.03.2020
399 Rain 10 1004 81 10000 1.5 330 22:58 26.03.2020
400 Rain 10 1004 81 10000 1.5 330 22:37 26.03.2020
401 Rain 10 1003 81 10000 1.5 140 22:18 26.03.2020
402 Rain 10 1003 81 10000 1 0 21:40 26.03.2020
403 Rain 10 1003 76 10000 2.6 10 21:22 26.03.2020
404 Clouds 10 1002 81 10000 0.5 0 20:59 26.03.2020
405 Clouds 10 1002 81 10000 0.5 0 20:40 26.03.2020
406 Clouds 10 1002 81 10000 0.5 0 20:22 26.03.2020
407 Clouds 10 1002 81 10000 2.1 10 19:58 26.03.2020
408 Clouds 11 1001 76 10000 2.6 70 19:40 26.03.2020
409 Clouds 10 1001 87 10000 2.6 360 19:21 26.03.2020
410 Clouds 11 1001 87 10000 2.6 360 18:58 26.03.2020
411 Clouds 10 1001 81 10000 2.1 40 18:40 26.03.2020
412 Clouds 11 1001 76 10000 3.6 30 18:22 26.03.2020
413 Rain 11 1001 93 10000 2.1 10 17:45 26.03.2020
414 Rain 11 1001 93 10000 2.1 10 17:20 26.03.2020
415 Rain 11 1001 81 8000 1 0 16:57 26.03.2020
416 Rain 11 1001 81 8000 1 0 16:38 26.03.2020
417 Rain 11 1000 76 6000 4.1 110 16:20 26.03.2020
418 Rain 11 1000 76 6000 4.1 110 15:56 26.03.2020
419 Rain 11 1000 81 10000 1 0 15:38 26.03.2020
420 Rain 11 1000 81 6000 1 0 15:18 26.03.2020
421 Rain 11 1000 81 10000 1 0 14:43 26.03.2020
422 Rain 11 1000 81 10000 1 0 14:24 26.03.2020
423 Rain 10 999 87 10000 2.1 30 13:56 26.03.2020
424 Rain 10 999 87 10000 2.1 30 13:56 26.03.2020
425 Rain 10 1000 76 10000 1 0 13:38 26.03.2020
426 Rain 10 1000 87 10000 3.1 10 13:19 26.03.2020
427 Rain 9 1000 87 6000 2.6 30 12:39 26.03.2020
428 Rain 10 1001 62 10000 1 0 12:20 26.03.2020
429 Rain 9 1001 57 10000 1 0 11:46 26.03.2020
430 Rain 9 1001 57 10000 1 0 11:23 26.03.2020
431 Clouds 8 1002 66 10000 1 0 10:59 26.03.2020
432 Clouds 9 1002 66 10000 1 0 10:41 26.03.2020
433 Clouds 8 1001 81 10000 1 0 10:20 26.03.2020
434 Rain 8 1002 65 10000 3.1 10 09:45 26.03.2020
435 Rain 7 1002 87 10000 1 0 09:21 26.03.2020
436 Rain 7 1002 70 10000 3.1 10 08:57 26.03.2020
437 Rain 7 1002 70 10000 3.1 10 08:57 26.03.2020
438 Clouds 6 1002 70 10000 3.1 10 08:38 26.03.2020
439 Rain 6 1002 93 10000 0.5 0 08:19 26.03.2020
440 Rain 6 1002 93 6000 0.5 0 07:45 26.03.2020
441 Rain 5 1002 93 6000 1 0 07:23 26.03.2020
442 Rain 5 1002 93 6000 1 0 06:57 26.03.2020
443 Rain 6 999 92 0 0.89 30 06:32 26.03.2020
444 Rain 6 1000 91 0 1.34 351 05:29 26.03.2020
445 Rain 6 1000 89 0 6.07 351 03:45 26.03.2020
446 Rain 6 1001 88 0 1.79 320 02:56 26.03.2020
447 Rain 6 1002 88 0 1.79 317 01:51 26.03.2020
448 Rain 6 1003 86 0 0.89 320 00:56 26.03.2020
449 Rain 6 1004 85 0 1.79 318 00:22 26.03.2020
450 Rain 7 1008 75 10000 1 0 23:41 25.03.2020
451 Rain 7 1008 75 10000 1 0 23:22 25.03.2020
452 Drizzle 8 1008 75 10000 1 0 22:42 25.03.2020
453 Rain 8 1008 75 10000 3.1 310 22:22 25.03.2020
454 Rain 8 1008 75 10000 3.1 310 21:56 25.03.2020
455 Drizzle 8 1008 75 10000 3.1 310 21:38 25.03.2020
456 Drizzle 8 1009 58 10000 3.1 100 21:20 25.03.2020
457 Drizzle 8 1009 58 10000 3.1 100 20:56 25.03.2020
458 Drizzle 9 1009 52 10000 1.5 140 20:37 25.03.2020
459 Clouds 9 1009 52 10000 2.6 120 20:18 25.03.2020
460 Clouds 10 1009 45 10000 4.1 110 19:43 25.03.2020
461 Clouds 10 1009 45 10000 4.1 110 19:43 25.03.2020
462 Clouds 10 1009 42 10000 1 0 19:23 25.03.2020
463 Rain 10 1009 42 10000 2.1 180 18:58 25.03.2020
464 Rain 10 1009 42 10000 2.1 180 18:40 25.03.2020
465 Clouds 10 1009 39 10000 2.1 0 18:21 25.03.2020
466 Clouds 11 1009 27 10000 4.6 70 17:55 25.03.2020
467 Clouds 11 1009 27 10000 4.6 70 17:55 25.03.2020
468 Clouds 11 1009 27 10000 4.6 70 17:37 25.03.2020
469 Clouds 11 1009 27 10000 4.6 70 17:19 25.03.2020
470 Clouds 12 1009 26 10000 1.5 0 16:43 25.03.2020
471 Clouds 12 1009 32 10000 3.6 270 16:24 25.03.2020
472 Clouds 13 1010 20 10000 1 0 15:59 25.03.2020
473 Clouds 14 1010 20 10000 1 0 15:40 25.03.2020
474 Clouds 13 1009 22 10000 1.5 0 15:19 25.03.2020
475 Clouds 13 1009 22 10000 1.5 0 15:19 25.03.2020
476 Clouds 13 1010 24 10000 3.1 330 14:42 25.03.2020
477 Clouds 13 1010 23 10000 3.6 270 14:22 25.03.2020
478 Clouds 13 1010 23 10000 3.6 270 13:56 25.03.2020
479 Clouds 13 1011 25 10000 2.6 60 13:38 25.03.2020
480 Clouds 13 1011 32 10000 1.5 0 13:19 25.03.2020
481 Clear 13 1012 25 10000 3.1 140 12:37 25.03.2020
482 Clear 12 1012 25 10000 3.1 140 12:19 25.03.2020
483 Clear 12 1012 31 10000 2.1 110 11:55 25.03.2020
484 Clear 11 1012 31 10000 2.1 110 11:36 25.03.2020
485 Clouds 10 1012 31 10000 2.1 110 11:18 25.03.2020
486 Clouds 9 1013 39 10000 2.1 40 10:55 25.03.2020
487 Clouds 9 1013 39 10000 2.1 40 10:36 25.03.2020
488 Clouds 8 1012 42 10000 4.1 30 10:18 25.03.2020
489 Clouds 7 1014 52 10000 4.1 30 09:42 25.03.2020
490 Clouds 7 1014 52 10000 4.1 30 09:22 25.03.2020
491 Clouds 5 1013 51 10000 4.6 20 08:56 25.03.2020
492 Clouds 5 1014 69 10000 3.6 360 08:38 25.03.2020
493 Clouds 5 1014 69 10000 3.6 360 08:38 25.03.2020
494 Clear 4 1013 69 10000 4.1 30 08:19 25.03.2020
495 Clear 3 1013 74 10000 3.6 40 07:39 25.03.2020
496 Clear 3 1014 80 10000 3.6 60 07:20 25.03.2020
497 Clear 2 1011 72 0 2.24 23 06:47 25.03.2020
498 Clear 2 1011 73 0 2.24 48 06:26 25.03.2020
499 Clear 1 1011 74 0 0.89 28 05:53 25.03.2020
500 Clouds 2 1011 74 0 1.34 40 04:59 25.03.2020
501 Clouds 2 1011 73 0 1.79 35 04:39 25.03.2020
502 Clouds 2 1012 73 0 2.24 44 03:36 25.03.2020
503 Rain 3 1013 70 0 2.24 36 01:58 25.03.2020
504 Rain 3 1013 70 0 1.34 69 01:21 25.03.2020
505 Rain 3 1013 69 0 1.79 41 00:48 25.03.2020
506 Rain 3 1017 59 10000 3.6 40 00:19 25.03.2020
507 Rain 4 1017 59 10000 3.6 40 23:45 24.03.2020
508 Rain 4 1017 59 10000 3.6 40 23:25 24.03.2020
509 Clear 4 1017 59 10000 4.1 50 22:56 24.03.2020
510 Clear 4 1017 59 10000 4.1 50 22:37 24.03.2020
511 Clear 4 1018 59 10000 4.6 40 22:19 24.03.2020
512 Clear 4 1018 59 10000 4.6 40 21:55 24.03.2020
513 Clear 5 1018 55 10000 4.1 30 21:37 24.03.2020
514 Clear 5 1018 55 10000 4.1 30 21:18 24.03.2020
515 Clear 6 1018 52 10000 5.7 30 20:43 24.03.2020
516 Clear 6 1018 52 10000 6.2 20 20:24 24.03.2020
517 Clouds 6 1018 52 10000 6.2 20 19:59 24.03.2020
518 Clouds 7 1017 48 10000 6.7 20 19:41 24.03.2020
519 Clouds 7 1017 48 10000 7.7 10 19:19 24.03.2020
520 Clouds 7 1017 48 10000 7.7 10 18:55 24.03.2020
521 Clouds 8 1017 42 10000 8.2 10 18:36 24.03.2020
522 Clouds 8 1017 39 10000 7.7 10 18:18 24.03.2020
523 Clouds 9 1018 39 10000 6.2 350 17:42 24.03.2020
524 Clouds 9 1018 39 10000 6.2 350 17:23 24.03.2020
525 Clouds 8 1017 39 10000 7.2 360 16:58 24.03.2020
526 Clouds 9 1017 39 10000 7.2 360 16:40 24.03.2020
527 Clouds 9 1017 39 10000 8.2 360 16:22 24.03.2020
528 Clouds 9 1017 39 10000 8.2 360 15:58 24.03.2020
529 Clouds 9 1017 39 10000 7.2 10 15:37 24.03.2020
530 Clouds 9 1018 39 10000 7.2 10 15:19 24.03.2020
531 Clouds 9 1018 39 10000 7.7 20 14:43 24.03.2020
532 Clouds 10 1018 39 10000 6.7 350 14:19 24.03.2020
533 Clouds 9 1020 45 10000 6.2 350 13:44 24.03.2020
534 Clouds 9 1019 42 10000 6.2 350 13:24 24.03.2020
535 Clouds 9 1019 42 10000 6.2 350 12:57 24.03.2020
536 Clouds 9 1021 49 10000 7.2 330 12:37 24.03.2020
537 Clouds 8 1021 49 10000 7.2 330 12:19 24.03.2020
538 Clouds 9 1021 45 10000 7.2 360 11:40 24.03.2020
539 Clouds 7 1021 45 10000 7.2 360 11:20 24.03.2020
540 Clear 7 1020 48 10000 7.2 360 10:43 24.03.2020
541 Clear 7 1020 52 10000 7.7 20 10:20 24.03.2020
542 Clear 7 1020 52 10000 7.7 20 10:20 24.03.2020
543 Clear 6 1020 52 10000 7.7 20 09:59 24.03.2020
544 Clear 6 1020 48 10000 8.7 20 09:41 24.03.2020
545 Clear 6 1020 48 10000 8.7 20 09:22 24.03.2020
546 Clear 5 1020 48 10000 7.2 20 08:39 24.03.2020
547 Clear 4 1020 51 10000 4.6 20 08:21 24.03.2020
548 Clear 3 1020 51 10000 2.1 60 07:50 24.03.2020
549 Clear 2 1021 55 10000 2.1 50 07:25 24.03.2020
550 Clear 2 1021 55 10000 2.1 50 06:58 24.03.2020
551 Clear 2 1021 55 10000 2.1 50 06:58 24.03.2020
552 Clear 1 1021 55 10000 4.1 20 06:32 24.03.2020
553 Clear 2 1022 44 10000 5.7 20 05:27 24.03.2020
554 Clear 2 1022 47 10000 4.1 30 04:31 24.03.2020
555 Clear 3 1021 40 10000 4.6 20 03:18 24.03.2020
556 Clouds 3 1021 37 10000 5.7 40 01:49 24.03.2020
557 Clear 4 1021 32 10000 7.2 30 00:49 24.03.2020
558 Clear 4 1021 32 10000 7.2 30 00:26 24.03.2020
559 Clear 4 1021 30 10000 7.2 30 23:46 23.03.2020
560 Clouds 4 1020 27 10000 6.2 40 23:26 23.03.2020
561 Clouds 4 1020 27 10000 7.2 50 22:56 23.03.2020
562 Clouds 5 1020 27 10000 7.2 50 22:37 23.03.2020
563 Clouds 5 1020 27 10000 6.2 40 22:19 23.03.2020
564 Clouds 6 1020 28 10000 5.1 50 21:44 23.03.2020
565 Clouds 6 1019 30 10000 6.7 60 21:21 23.03.2020
566 Clouds 5 1019 30 10000 6.7 60 20:58 23.03.2020
567 Clear 6 1019 36 10000 5.7 50 20:40 23.03.2020
568 Clear 6 1019 38 10000 4.6 30 20:22 23.03.2020
569 Clear 6 1018 35 10000 7.7 20 19:54 23.03.2020
570 Clear 7 1018 35 10000 7.7 20 19:36 23.03.2020
571 Clear 7 1017 33 10000 7.2 20 19:18 23.03.2020
572 Clear 7 1017 33 10000 8.7 20 18:42 23.03.2020
573 Clear 8 1017 31 10000 8.2 10 18:22 23.03.2020
574 Clear 9 1017 31 10000 7.7 360 17:56 23.03.2020
575 Clear 9 1017 31 10000 7.7 360 17:38 23.03.2020
576 Clear 10 1018 29 10000 9.8 10 17:18 23.03.2020
577 Clear 11 1016 31 10000 8.2 350 16:43 23.03.2020
578 Clear 11 1016 29 10000 8.7 360 16:24 23.03.2020
579 Clear 12 1016 27 10000 8.7 10 15:43 23.03.2020
580 Clear 12 1017 32 10000 7.2 360 15:21 23.03.2020
581 Clear 11 1017 32 10000 7.2 360 14:57 23.03.2020
582 Clear 11 1017 30 10000 7.7 10 14:37 23.03.2020
583 Clear 12 1017 27 10000 8.2 10 14:18 23.03.2020
584 Clear 12 1017 30 10000 8.2 360 13:41 23.03.2020
585 Clear 12 1017 30 10000 8.7 360 13:22 23.03.2020
586 Clear 12 1017 30 10000 8.7 360 12:58 23.03.2020
587 Clear 12 1017 30 10000 8.7 360 12:58 23.03.2020
588 Clear 12 1018 28 10000 7.7 10 12:40 23.03.2020
589 Clear 12 1019 27 10000 9.8 360 12:21 23.03.2020
590 Clear 12 1018 35 10000 7.7 20 11:42 23.03.2020
591 Clear 12 1019 30 10000 9.3 350 11:21 23.03.2020
592 Clear 12 1018 40 10000 6.7 20 10:58 23.03.2020
593 Clear 12 1018 40 10000 6.7 20 10:39 23.03.2020
594 Clear 11 1018 43 10000 8.2 20 10:21 23.03.2020
595 Clear 11 1018 43 10000 8.2 20 09:57 23.03.2020
596 Clear 11 1018 46 10000 7.7 20 09:37 23.03.2020
597 Clear 10 1018 49 10000 7.7 20 09:18 23.03.2020
598 Clear 10 1018 49 10000 6.7 30 08:37 23.03.2020
599 Clouds 9 1018 52 10000 4.6 30 08:19 23.03.2020
600 Clouds 9 1018 49 10000 5.1 30 07:50 23.03.2020
601 Clouds 8 1017 52 10000 5.1 30 07:31 23.03.2020
602 Clouds 8 1017 49 10000 6.7 20 06:53 23.03.2020
603 Clouds 8 1016 70 10000 6.7 20 06:25 23.03.2020
604 Clouds 9 1017 46 10000 6.2 30 05:34 23.03.2020
605 Clouds 9 1016 57 10000 4.6 30 03:45 23.03.2020
606 Clouds 9 1016 61 10000 5.7 30 02:40 23.03.2020
607 Clouds 10 1016 61 10000 5.1 30 01:34 23.03.2020
608 Clouds 10 1016 62 10000 5.1 30 00:43 23.03.2020
609 Clouds 11 1016 71 10000 3.6 20 23:54 22.03.2020
610 Clouds 11 1016 71 10000 3.6 20 23:27 22.03.2020
611 Clouds 11 1015 66 10000 3.1 110 22:59 22.03.2020
612 Clouds 11 1015 71 10000 2.1 110 22:39 22.03.2020
613 Clouds 11 1015 71 10000 2.6 90 22:18 22.03.2020
614 Clouds 11 1015 71 10000 2.6 130 21:40 22.03.2020
615 Clouds 12 1015 71 10000 2.6 160 21:20 22.03.2020
616 Clouds 12 1015 71 10000 2.6 160 20:58 22.03.2020
617 Clouds 12 1015 71 10000 3.1 160 20:39 22.03.2020
618 Clouds 12 1014 71 10000 3.6 170 20:21 22.03.2020
619 Clouds 12 1014 71 10000 3.6 170 19:55 22.03.2020
620 Clouds 13 1014 71 10000 3.6 180 19:37 22.03.2020
621 Rain 13 1014 81 10000 5.7 200 19:18 22.03.2020
622 Rain 13 1014 66 8000 3.1 170 18:56 22.03.2020
623 Rain 13 1014 66 8000 3.1 170 18:37 22.03.2020
624 Rain 14 1014 58 10000 1.5 190 18:18 22.03.2020
625 Clouds 15 1013 51 10000 4.1 220 17:56 22.03.2020
626 Clouds 15 1013 51 10000 4.1 220 17:36 22.03.2020
627 Clouds 15 1013 51 10000 4.1 220 17:36 22.03.2020
628 Clouds 15 1013 51 10000 4.1 220 17:36 22.03.2020
629 Clouds 16 1012 44 10000 4.1 230 17:18 22.03.2020
630 Clouds 16 1012 44 10000 4.6 230 16:54 22.03.2020
631 Clouds 16 1012 44 10000 4.6 230 16:36 22.03.2020
632 Clouds 17 1012 45 10000 4.1 250 16:18 22.03.2020
633 Clouds 18 1012 42 10000 4.6 270 15:39 22.03.2020
634 Clouds 18 1012 48 10000 3.6 260 14:48 22.03.2020
635 Clouds 18 1012 42 10000 3.1 310 14:20 22.03.2020
636 Clouds 18 1012 42 10000 3.1 310 13:58 22.03.2020
637 Clouds 18 1012 42 10000 3.1 310 13:58 22.03.2020
638 Clouds 18 1012 39 10000 3.1 310 13:40 22.03.2020
639 Clouds 17 1012 45 10000 3.1 330 13:19 22.03.2020
640 Rain 17 1013 45 10000 2.1 290 12:44 22.03.2020
641 Rain 17 1013 45 10000 2.1 290 12:44 22.03.2020
642 Rain 17 1013 45 10000 1.5 0 12:22 22.03.2020
643 Rain 17 1013 45 10000 1.5 0 12:22 22.03.2020
644 Rain 17 1013 48 10000 2.1 270 11:58 22.03.2020
645 Rain 17 1013 48 10000 2.1 270 11:39 22.03.2020
646 Clouds 16 1013 48 10000 1.5 0 11:21 22.03.2020
647 Clouds 16 1013 51 10000 1 0 10:43 22.03.2020
648 Clouds 16 1013 67 8000 1 0 10:24 22.03.2020
649 Clouds 15 1013 67 8000 1 0 09:55 22.03.2020
650 Clouds 15 1013 58 10000 2.1 360 09:36 22.03.2020
651 Clouds 14 1013 62 10000 2.1 30 09:18 22.03.2020
652 Clouds 13 1012 62 10000 1.5 30 08:41 22.03.2020
653 Clouds 12 1012 62 10000 1.5 30 08:21 22.03.2020
654 Clouds 10 1012 76 10000 0.5 0 07:50 22.03.2020
655 Clouds 9 1012 75 10000 1 90 07:22 22.03.2020
656 Clouds 9 1012 93 10000 1.5 30 05:57 22.03.2020
657 Clouds 9 1012 100 10000 1 30 05:21 22.03.2020
658 Clouds 9 1012 100 10000 1.5 60 02:58 22.03.2020
659 Clouds 10 1013 100 10000 1.5 100 01:22 22.03.2020
660 Clouds 10 1013 100 10000 1 40 00:41 22.03.2020
661 Clouds 10 1013 93 10000 1.5 50 00:23 22.03.2020
662 Clouds 11 1013 93 10000 1 340 23:42 21.03.2020
663 Clouds 11 1013 50 10000 2.1 100 23:19 21.03.2020
664 Clouds 11 1013 58 10000 2.1 90 22:39 21.03.2020
665 Clouds 11 1013 58 10000 1.5 90 22:20 21.03.2020
666 Clouds 11 1013 58 10000 1.5 90 21:59 21.03.2020
667 Clouds 11 1013 62 10000 1 90 21:41 21.03.2020
668 Clouds 11 1013 62 10000 1 90 21:22 21.03.2020
669 Clouds 11 1013 62 10000 1 90 21:22 21.03.2020
670 Clouds 12 1013 62 10000 1 90 20:56 21.03.2020
671 Clouds 12 1013 58 10000 0.5 0 20:38 21.03.2020
672 Clouds 12 1013 58 10000 0.5 0 20:18 21.03.2020
673 Clouds 13 1013 62 10000 1 320 19:43 21.03.2020
674 Clouds 13 1013 62 10000 1 320 19:23 21.03.2020
675 Clouds 13 1013 62 10000 1.5 280 18:55 21.03.2020
676 Clouds 14 1013 62 10000 1.5 280 18:37 21.03.2020
677 Clouds 15 1012 58 10000 1.5 310 18:19 21.03.2020
678 Clouds 15 1013 58 10000 2.6 270 17:43 21.03.2020
679 Clouds 15 1013 58 10000 2.6 270 17:43 21.03.2020
680 Clouds 15 1013 58 10000 2.6 270 17:43 21.03.2020
681 Clouds 15 1013 55 10000 3.1 300 17:24 21.03.2020
682 Clouds 16 1013 48 10000 2.6 240 16:57 21.03.2020
683 Clouds 16 1013 48 10000 2.6 240 16:39 21.03.2020
684 Clouds 16 1013 42 10000 3.1 270 16:18 21.03.2020
685 Clouds 17 1013 45 10000 3.1 260 15:43 21.03.2020
686 Clouds 17 1013 45 10000 3.1 260 15:23 21.03.2020
687 Clouds 17 1013 42 10000 3.6 270 14:58 21.03.2020
688 Clouds 17 1014 45 10000 3.6 240 14:40 21.03.2020
689 Clouds 17 1014 48 10000 3.6 260 14:20 21.03.2020
690 Clouds 17 1014 48 10000 3.6 260 13:59 21.03.2020
691 Clouds 17 1014 45 10000 2.6 250 13:40 21.03.2020
692 Clouds 17 1015 48 10000 2.6 240 13:22 21.03.2020
693 Clouds 17 1015 48 10000 2.6 240 12:59 21.03.2020
694 Clouds 17 1015 45 10000 1.5 260 12:38 21.03.2020
695 Clouds 17 1015 36 10000 2.1 230 12:19 21.03.2020
696 Clouds 17 1015 51 10000 1.5 0 11:56 21.03.2020
697 Clouds 16 1015 51 10000 1.5 0 11:38 21.03.2020
698 Clouds 16 1016 48 10000 0.25 248 11:19 21.03.2020
699 Clouds 16 1016 58 10000 1 0 10:57 21.03.2020
700 Clouds 16 1016 58 10000 1 0 10:38 21.03.2020
701 Clouds 15 1016 54 10000 1.5 10 10:19 21.03.2020
702 Clouds 15 1016 54 10000 1.5 10 09:56 21.03.2020
703 Clouds 14 1016 66 10000 1.5 40 09:37 21.03.2020
704 Clouds 13 1016 71 10000 1.5 30 09:19 21.03.2020
705 Clouds 12 1016 66 10000 1 0 08:43 21.03.2020
706 Clear 11 1016 66 10000 1 0 08:24 21.03.2020
707 Clear 9 1017 70 10000 0.5 0 07:45 21.03.2020
708 Clear 8 1017 70 10000 0.5 0 07:27 21.03.2020
709 Fog 8 1017 93 8000 1.5 80 06:48 21.03.2020
710 Fog 7 1017 93 8000 1.5 80 06:28 21.03.2020
711 Fog 8 1017 100 8000 2.1 80 05:48 21.03.2020
712 Fog 7 1018 93 8000 1.5 90 04:47 21.03.2020
713 Clear 8 1018 93 8000 1.5 70 02:55 21.03.2020
714 Clear 8 1018 93 10000 1 80 02:33 21.03.2020
715 Clear 8 1019 93 10000 2.1 90 01:33 21.03.2020
716 Clear 9 1019 87 10000 2.1 110 00:56 21.03.2020
717 Clear 9 1019 93 10000 2.1 90 00:37 21.03.2020
718 Clear 9 1020 87 10000 2.1 90 23:53 20.03.2020
719 Clear 9 1020 87 10000 2.1 90 23:28 20.03.2020
720 Clear 9 1020 66 10000 0.5 0 22:59 20.03.2020
721 Clear 9 1020 66 10000 0.5 0 22:59 20.03.2020
722 Clear 10 1020 71 10000 0.5 200 22:40 20.03.2020
723 Clear 10 1020 71 10000 0.5 0 22:21 20.03.2020
724 Clear 10 1020 71 10000 0.5 0 21:56 20.03.2020
725 Clear 11 1020 62 10000 1 0 21:38 20.03.2020
726 Clear 11 1020 62 10000 1 170 21:18 20.03.2020
727 Clear 11 1020 62 10000 1 170 20:57 20.03.2020
728 Clear 11 1020 62 10000 1.5 240 20:38 20.03.2020
729 Clear 12 1020 58 10000 1 240 20:18 20.03.2020
730 Clear 12 1020 58 10000 1 200 19:45 20.03.2020
731 Clear 13 1020 54 10000 1.5 230 19:19 20.03.2020
732 Clear 14 1020 54 10000 2.1 220 18:55 20.03.2020
733 Clear 14 1020 54 10000 2.1 220 18:37 20.03.2020
734 Clear 15 1021 47 10000 2.6 240 18:19 20.03.2020
735 Clear 15 1021 47 10000 2.6 240 18:19 20.03.2020
736 Clear 16 1021 44 10000 2.6 250 17:39 20.03.2020
737 Clear 17 1020 34 10000 3.1 220 17:21 20.03.2020
738 Clear 17 1021 39 10000 3.6 240 16:58 20.03.2020
739 Clear 17 1021 39 10000 3.6 240 16:58 20.03.2020
740 Clear 17 1021 39 10000 3.6 240 16:40 20.03.2020
741 Clear 18 1021 45 10000 3.1 250 16:18 20.03.2020
742 Clear 18 1021 48 10000 3.6 250 15:42 20.03.2020
743 Clear 18 1021 45 10000 4.1 250 15:22 20.03.2020
744 Clear 18 1021 45 10000 4.1 250 14:56 20.03.2020
745 Clear 18 1021 42 10000 4.1 250 14:37 20.03.2020
746 Clear 18 1021 42 10000 3.6 240 14:18 20.03.2020
747 Clear 19 1022 42 10000 3.6 230 13:43 20.03.2020
748 Clear 18 1022 48 10000 4.1 260 13:19 20.03.2020
749 Clear 18 1022 45 10000 3.1 210 12:41 20.03.2020
750 Clear 18 1023 34 10000 2.1 240 12:23 20.03.2020
751 Clear 18 1023 48 10000 2.1 260 11:58 20.03.2020
752 Clear 17 1023 48 10000 2.1 260 11:38 20.03.2020
753 Clear 17 1023 51 10000 0.49 345 11:19 20.03.2020
754 Clear 16 1023 62 10000 2.1 240 10:42 20.03.2020
755 Clear 15 1023 67 10000 2.1 270 10:21 20.03.2020
756 Clear 15 1023 67 10000 2.1 270 09:59 20.03.2020
757 Clear 15 1023 67 10000 2.1 270 09:59 20.03.2020
758 Clear 14 1023 71 10000 1.5 250 09:41 20.03.2020
759 Clear 13 1023 76 10000 1.5 290 09:19 20.03.2020
760 Clear 12 1023 71 10000 1 0 08:43 20.03.2020
761 Clear 10 1023 81 10000 0.5 0 08:22 20.03.2020
762 Clear 10 1023 81 10000 0.5 0 08:22 20.03.2020
763 Clear 9 1023 81 10000 0.5 0 07:55 20.03.2020
764 Clear 9 1023 87 10000 1 20 07:37 20.03.2020
765 Fog 8 1023 93 7000 1 340 07:18 20.03.2020
766 Fog 8 1023 100 7000 0.5 0 06:41 20.03.2020
767 Fog 8 1023 100 8000 2.1 100 04:54 20.03.2020
768 Fog 8 1023 100 7000 1.5 80 03:50 20.03.2020
769 Clear 9 1024 100 8000 0.5 90 02:21 20.03.2020
770 Fog 9 1024 93 7000 0.5 50 01:33 20.03.2020
771 Fog 9 1024 100 8000 1 60 00:33 20.03.2020
772 Clear 9 1024 100 8000 1.5 50 23:49 19.03.2020
773 Clear 10 1024 100 8000 1.5 50 23:30 19.03.2020
774 Clear 10 1024 66 10000 0.5 0 22:58 19.03.2020
775 Clear 10 1024 66 10000 0.5 0 22:38 19.03.2020
776 Clear 10 1024 71 10000 0.5 0 22:20 19.03.2020
777 Clear 10 1024 71 10000 0.5 0 21:55 19.03.2020
778 Clear 10 1024 71 10000 1 160 21:37 19.03.2020
779 Clear 11 1024 76 10000 0.5 170 21:18 19.03.2020
780 Clear 12 1024 71 10000 0.5 0 20:42 19.03.2020
781 Clear 12 1023 71 10000 1.5 230 20:23 19.03.2020
782 Clear 12 1023 71 10000 1.5 230 19:57 19.03.2020
783 Clear 13 1023 67 10000 2.1 200 19:38 19.03.2020
784 Clear 14 1023 67 10000 2.1 220 19:20 19.03.2020
785 Clear 14 1023 67 10000 2.1 220 18:56 19.03.2020
786 Clear 15 1023 62 10000 1.5 240 18:38 19.03.2020
787 Clear 15 1023 62 10000 1.5 240 18:38 19.03.2020
788 Clear 16 1023 59 10000 2.6 240 18:19 19.03.2020
789 Clear 17 1023 55 10000 3.1 240 17:42 19.03.2020
790 Clear 17 1023 42 10000 3.6 230 17:19 19.03.2020
791 Clear 18 1023 39 10000 3.6 220 16:45 19.03.2020
792 Clear 18 1023 39 10000 4.1 240 16:25 19.03.2020
793 Clear 19 1023 39 10000 4.1 240 15:55 19.03.2020
794 Clear 19 1023 39 10000 4.1 230 15:36 19.03.2020
795 Clear 19 1023 39 10000 4.6 260 15:18 19.03.2020
796 Clear 19 1024 42 10000 4.6 260 14:43 19.03.2020
797 Clear 20 1024 39 10000 4.6 260 14:21 19.03.2020
798 Clear 20 1024 32 10000 4.1 250 13:41 19.03.2020
799 Clear 19 1024 26 10000 1.17 242 13:19 19.03.2020
800 Clear 19 1024 32 10000 5.1 220 12:57 19.03.2020
801 Clear 19 1024 32 10000 5.1 220 12:39 19.03.2020
802 Clear 19 1025 37 10000 1 0 12:21 19.03.2020
803 Clear 18 1025 34 10000 3.1 230 11:42 19.03.2020
804 Clear 18 1025 48 10000 1 0 11:23 19.03.2020
805 Clear 17 1025 55 10000 2.1 350 10:57 19.03.2020
806 Clear 17 1025 55 10000 2.1 350 10:38 19.03.2020
807 Clear 16 1025 62 10000 1 0 10:19 19.03.2020
808 Clear 15 1025 66 10000 1 0 09:45 19.03.2020
809 Clear 15 1025 66 10000 1 0 09:27 19.03.2020
810 Clear 13 1025 71 10000 2.1 30 08:58 19.03.2020
811 Clear 13 1025 71 10000 1.5 10 08:40 19.03.2020
812 Clear 10 1024 81 10000 1 360 08:19 19.03.2020
813 Clear 9 1024 81 10000 1 0 07:44 19.03.2020
814 Clear 9 1024 93 10000 1.5 40 07:23 19.03.2020
815 Clear 8 1024 93 10000 2.1 70 06:32 19.03.2020
816 Clear 8 1024 93 10000 1.5 70 05:46 19.03.2020
817 Clear 8 1024 93 10000 1.5 100 04:53 19.03.2020
818 Clear 8 1024 93 10000 1.5 100 04:34 19.03.2020
819 Clear 9 1024 100 8000 2.1 70 02:34 19.03.2020
820 Clear 9 1024 93 8000 0.5 0 00:57 19.03.2020
821 Clear 10 1024 87 10000 1.5 60 00:21 19.03.2020
822 Clear 10 1024 100 9000 1 70 23:46 18.03.2020
823 Clear 10 1024 66 10000 2.1 150 23:26 18.03.2020
824 Clear 11 1024 62 10000 3.1 100 22:44 18.03.2020
825 Clear 11 1024 66 10000 1.5 150 22:24 18.03.2020
826 Clear 11 1024 66 10000 1.5 150 21:59 18.03.2020
827 Clear 11 1024 66 10000 0.5 0 21:41 18.03.2020
828 Clear 12 1024 66 10000 1 160 21:21 18.03.2020
829 Clear 12 1024 66 10000 1 160 20:57 18.03.2020
830 Clear 12 1024 66 10000 1.5 160 20:38 18.03.2020
831 Clouds 13 1024 66 10000 1.5 170 20:19 18.03.2020
832 Clouds 13 1024 62 10000 1.5 230 19:45 18.03.2020
833 Clouds 14 1023 62 10000 1.5 260 19:21 18.03.2020
834 Clouds 14 1023 62 10000 1.5 260 18:59 18.03.2020
835 Clouds 14 1023 62 10000 1.5 260 18:40 18.03.2020
836 Clouds 15 1023 55 10000 2.1 290 18:20 18.03.2020
837 Clouds 16 1023 63 10000 2.6 300 17:57 18.03.2020
838 Clouds 16 1023 63 10000 2.6 300 17:39 18.03.2020
839 Clouds 16 1023 63 10000 2.6 300 17:39 18.03.2020
840 Clouds 17 1023 45 10000 3.6 220 17:19 18.03.2020
841 Clouds 17 1023 59 10000 3.1 270 16:54 18.03.2020
842 Clouds 17 1023 59 10000 3.1 270 16:36 18.03.2020
843 Clouds 18 1023 59 10000 2.6 250 16:18 18.03.2020
844 Clouds 18 1023 59 10000 3.1 250 15:44 18.03.2020
845 Clouds 18 1024 55 10000 3.6 240 15:20 18.03.2020
846 Clouds 18 1024 55 10000 4.1 270 14:44 18.03.2020
847 Clouds 18 1024 45 10000 3.6 220 14:21 18.03.2020
848 Clear 18 1025 48 10000 2.6 280 13:42 18.03.2020
849 Clear 18 1025 39 10000 1 0 13:20 18.03.2020
850 Clear 18 1025 39 10000 1 0 12:59 18.03.2020
851 Clouds 17 1025 55 10000 2.6 300 12:41 18.03.2020
852 Clouds 17 1026 48 10000 1 0 12:19 18.03.2020
853 Clear 17 1025 59 10000 1.5 270 11:39 18.03.2020
854 Clear 16 1026 51 10000 1 0 11:20 18.03.2020
855 Clear 15 1026 66 10000 1 0 10:58 18.03.2020
856 Clear 15 1026 66 10000 1 0 10:38 18.03.2020
857 Clear 15 1026 71 10000 2.1 10 10:20 18.03.2020
858 Clear 13 1026 76 10000 1.5 30 09:43 18.03.2020
859 Clear 13 1026 76 10000 2.6 20 09:25 18.03.2020
860 Clear 11 1026 81 10000 2.1 40 08:56 18.03.2020
861 Clear 11 1026 81 10000 2.1 40 08:38 18.03.2020
862 Clouds 9 1026 87 10000 1.5 40 08:20 18.03.2020
863 Clouds 8 1026 87 10000 1.5 60 07:44 18.03.2020
864 Clouds 8 1027 93 10000 2.1 30 07:26 18.03.2020
865 Fog 7 1026 100 6000 0.5 60 06:44 18.03.2020
866 Clouds 7 1026 100 8000 1 30 06:20 18.03.2020
867 Clouds 8 1027 93 8000 2.1 50 05:34 18.03.2020
868 Clouds 8 1027 100 10000 1 50 04:25 18.03.2020
869 Clouds 8 1027 100 10000 0.5 0 02:44 18.03.2020
870 Clouds 9 1028 100 10000 1.5 350 01:48 18.03.2020
871 Clouds 9 1028 87 10000 2.1 350 01:26 18.03.2020
872 Clouds 9 1028 93 10000 1 20 00:24 18.03.2020
873 Clouds 9 1029 100 8000 0.5 0 23:48 17.03.2020
874 Clouds 10 1028 76 10000 1 180 23:27 17.03.2020
875 Clouds 10 1029 87 10000 1 170 22:57 17.03.2020
876 Clouds 10 1029 87 10000 1 170 22:37 17.03.2020
877 Clouds 10 1029 81 10000 1 140 22:19 17.03.2020
878 Clouds 11 1029 81 10000 1.5 110 21:39 17.03.2020
879 Clouds 11 1029 81 10000 1 0 21:21 17.03.2020
880 Clouds 11 1029 87 10000 0.5 0 20:40 17.03.2020
881 Clouds 12 1029 82 10000 0.5 0 20:22 17.03.2020
882 Clouds 12 1029 82 10000 0.5 0 19:59 17.03.2020
883 Clouds 12 1028 82 10000 1 240 19:40 17.03.2020
884 Clouds 12 1028 82 10000 1.5 240 19:18 17.03.2020
885 Clouds 13 1028 71 10000 1.5 290 18:56 17.03.2020
886 Clouds 13 1028 71 10000 1.5 290 18:37 17.03.2020
887 Clouds 14 1028 76 10000 2.6 260 18:19 17.03.2020
888 Clouds 15 1028 72 10000 2.6 260 17:40 17.03.2020
889 Clouds 15 1028 72 10000 2.6 260 17:40 17.03.2020
890 Clouds 15 1028 59 10000 4.1 260 17:21 17.03.2020
891 Clouds 15 1028 59 10000 2.6 280 16:55 17.03.2020
892 Clouds 16 1028 59 10000 2.6 280 16:37 17.03.2020
893 Clouds 16 1028 59 10000 3.6 270 16:18 17.03.2020
894 Clouds 17 1028 59 10000 3.1 280 15:43 17.03.2020
895 Clouds 17 1028 59 10000 3.6 250 15:20 17.03.2020
896 Clouds 16 1029 51 10000 2.1 310 14:42 17.03.2020
897 Clouds 16 1029 48 10000 2.6 0 14:21 17.03.2020
898 Clear 16 1029 51 10000 1.5 280 13:44 17.03.2020
899 Clear 16 1030 55 10000 2.1 0 13:26 17.03.2020
900 Clouds 16 1030 55 10000 2.1 0 12:58 17.03.2020
901 Clouds 16 1030 51 10000 2.1 280 12:40 17.03.2020
902 Clear 16 1030 51 10000 0.5 0 12:21 17.03.2020
903 Clear 16 1030 54 10000 1 0 11:46 17.03.2020
904 Clear 16 1030 54 10000 1 0 11:46 17.03.2020
905 Clear 16 1031 67 10000 2.1 350 11:28 17.03.2020
906 Clouds 15 1030 66 10000 2.1 30 10:58 17.03.2020
907 Clouds 15 1030 66 10000 2.1 30 10:38 17.03.2020
908 Clouds 14 1030 62 10000 2.1 40 10:20 17.03.2020
909 Clouds 14 1030 66 10000 2.1 30 09:57 17.03.2020
910 Clear 14 1030 66 10000 2.1 30 09:39 17.03.2020
911 Clear 12 1030 71 10000 2.6 40 09:18 17.03.2020
912 Clear 11 1030 76 10000 2.6 30 08:43 17.03.2020
913 Clear 10 1029 81 10000 1.5 20 08:21 17.03.2020
914 Clear 9 1029 81 10000 1.5 40 07:50 17.03.2020
915 Clear 8 1029 81 10000 1.5 40 07:26 17.03.2020
916 Clear 7 1029 87 10000 2.1 60 06:58 17.03.2020
917 Clear 7 1029 87 10000 2.1 90 06:33 17.03.2020
918 Clear 7 1029 87 10000 1.5 80 05:46 17.03.2020
919 Clear 8 1028 81 10000 1.5 100 03:40 17.03.2020
920 Clear 8 1028 81 10000 2.6 90 02:45 17.03.2020
921 Clear 8 1028 75 10000 1.5 60 01:42 17.03.2020
922 Clear 8 1028 75 10000 1.5 60 01:24 17.03.2020
923 Clear 8 1028 87 10000 1 30 00:31 17.03.2020
924 Clear 9 1028 81 10000 1.5 50 23:45 16.03.2020
925 Clear 9 1027 62 10000 2.1 80 23:25 16.03.2020
926 Clear 9 1027 62 10000 3.1 80 22:40 16.03.2020
927 Clear 10 1027 62 10000 2.1 60 22:22 16.03.2020
928 Clear 10 1027 62 10000 2.1 60 21:57 16.03.2020
929 Clear 10 1027 62 10000 2.1 60 21:57 16.03.2020
930 Clear 10 1027 58 10000 1.5 80 21:38 16.03.2020
931 Clear 10 1027 62 10000 1.5 100 21:20 16.03.2020
932 Clear 10 1026 58 10000 1 110 20:55 16.03.2020
933 Clear 10 1026 58 10000 1 110 20:37 16.03.2020
934 Clear 11 1026 58 10000 1 160 20:18 16.03.2020
935 Clear 11 1026 58 10000 1 160 20:18 16.03.2020
936 Clear 12 1026 54 10000 1 230 19:40 16.03.2020
937 Clear 13 1026 54 10000 1.5 260 19:20 16.03.2020
938 Clear 13 1025 54 10000 2.1 250 18:41 16.03.2020
939 Clear 14 1025 54 10000 2.6 250 18:20 16.03.2020
940 Clear 15 1025 54 10000 3.6 260 17:47 16.03.2020
941 Clear 15 1025 51 10000 3.6 250 17:26 16.03.2020
942 Clear 16 1025 51 10000 3.6 250 16:59 16.03.2020
943 Clear 16 1024 48 10000 4.1 240 16:41 16.03.2020
944 Clear 16 1024 51 10000 4.6 240 16:22 16.03.2020
945 Clear 17 1024 48 10000 4.1 270 15:44 16.03.2020
946 Clear 17 1024 48 10000 4.1 270 15:25 16.03.2020
947 Clear 17 1024 51 10000 4.1 220 14:49 16.03.2020
948 Clear 17 1024 51 10000 4.1 220 14:25 16.03.2020
949 Clear 17 1024 42 10000 1.5 0 13:55 16.03.2020
950 Clear 17 1024 42 10000 1.5 0 13:37 16.03.2020
951 Clear 17 1024 42 10000 2.1 0 13:18 16.03.2020
952 Clear 16 1024 41 10000 2.6 330 12:42 16.03.2020
953 Clear 16 1025 38 10000 1.5 0 12:23 16.03.2020
954 Clear 16 1024 44 10000 1.5 360 11:45 16.03.2020
955 Clear 15 1025 41 10000 1 0 11:26 16.03.2020
956 Clear 14 1024 50 10000 3.6 10 10:47 16.03.2020
957 Clear 14 1024 50 10000 3.6 10 10:25 16.03.2020
958 Clear 13 1024 47 10000 3.6 20 09:59 16.03.2020
959 Clear 13 1024 58 10000 2.1 20 09:40 16.03.2020
960 Clear 12 1024 66 10000 2.1 20 09:20 16.03.2020
961 Clear 10 1023 70 10000 2.1 40 08:43 16.03.2020
962 Clear 9 1023 75 10000 2.1 30 08:23 16.03.2020
963 Clear 8 1023 81 10000 1 40 07:44 16.03.2020
964 Clear 7 1023 70 10000 2.6 60 07:21 16.03.2020
965 Clear 6 1023 75 10000 3.1 50 06:46 16.03.2020
966 Clear 6 1022 75 10000 1.5 40 06:22 16.03.2020
967 Clear 7 1022 75 10000 1 80 04:53 16.03.2020
968 Clouds 8 1021 70 10000 1.5 70 01:49 16.03.2020
969 Clouds 9 1021 75 10000 1.5 60 00:48 16.03.2020
970 Clouds 9 1021 75 10000 1.5 60 00:28 16.03.2020
971 Clouds 10 1020 76 10000 1.5 60 23:41 15.03.2020
972 Clouds 10 1021 81 10000 2.6 40 23:19 15.03.2020
973 Clouds 10 1020 76 10000 2.1 50 22:42 15.03.2020
974 Clouds 10 1020 76 10000 2.1 50 22:42 15.03.2020
975 Clouds 11 1020 71 10000 1.5 50 22:22 15.03.2020
976 Clouds 11 1020 66 10000 0.5 0 21:40 15.03.2020
977 Clouds 11 1020 76 10000 1.5 130 21:22 15.03.2020
978 Clouds 11 1020 76 10000 1.5 130 20:58 15.03.2020
979 Clouds 11 1020 76 10000 1.5 130 20:58 15.03.2020
980 Clouds 11 1020 76 10000 2.1 190 20:40 15.03.2020
981 Clouds 11 1020 76 10000 2.6 200 20:20 15.03.2020
982 Clouds 11 1020 76 10000 2.6 200 19:56 15.03.2020
983 Clouds 12 1019 76 10000 2.6 200 19:38 15.03.2020
984 Clouds 12 1019 71 10000 2.6 200 19:19 15.03.2020
985 Clouds 13 1019 71 10000 2.6 220 18:55 15.03.2020
986 Clouds 13 1019 71 10000 2.6 220 18:36 15.03.2020
987 Clouds 14 1019 67 10000 3.1 220 18:18 15.03.2020
988 Clouds 15 1019 62 10000 4.1 220 17:40 15.03.2020
989 Clouds 15 1018 51 10000 4.1 230 17:20 15.03.2020
990 Clouds 16 1018 59 10000 5.1 220 16:56 15.03.2020
991 Clouds 16 1018 59 10000 5.1 220 16:37 15.03.2020
992 Clouds 16 1018 63 10000 4.6 240 16:18 15.03.2020
993 Clouds 17 1018 55 10000 5.1 230 15:43 15.03.2020
994 Clouds 17 1018 55 10000 5.1 230 15:25 15.03.2020
995 Clouds 17 1018 63 10000 4.1 230 14:47 15.03.2020
996 Clouds 17 1018 63 10000 4.1 230 14:28 15.03.2020
997 Clouds 17 1018 59 10000 3.6 230 13:59 15.03.2020
998 Clouds 17 1018 63 10000 2.6 280 13:40 15.03.2020
999 Clouds 17 1018 59 10000 1.5 310 13:21 15.03.2020
1000 Clouds 17 1018 59 10000 1.5 320 12:58 15.03.2020
1001 Clouds 16 1018 59 10000 1.5 320 12:38 15.03.2020
1002 Clouds 16 1018 42 10000 2.1 340 12:20 15.03.2020
1003 Clouds 15 1018 58 10000 2.6 20 11:42 15.03.2020
1004 Clouds 15 1019 44 10000 5.1 30 11:22 15.03.2020
1005 Clouds 15 1018 62 10000 3.1 40 10:57 15.03.2020
1006 Clouds 14 1018 62 10000 3.1 40 10:38 15.03.2020
1007 Clouds 14 1018 62 10000 4.1 40 10:20 15.03.2020
1008 Clear 13 1018 66 10000 4.6 40 09:42 15.03.2020
1009 Clouds 12 1018 66 10000 4.1 40 09:22 15.03.2020
1010 Clouds 12 1018 66 10000 4.1 40 08:58 15.03.2020
1011 Clouds 11 1018 71 10000 3.6 60 08:39 15.03.2020
1012 Clouds 10 1017 76 10000 3.1 60 08:18 15.03.2020
1013 Clouds 9 1017 76 10000 3.1 70 07:44 15.03.2020
1014 Clear 9 1016 76 10000 3.6 20 06:55 15.03.2020
1015 Clear 9 1016 76 10000 3.6 20 06:34 15.03.2020
1016 Clear 9 1016 76 10000 3.6 20 05:43 15.03.2020
1017 Clouds 9 1016 87 10000 2.6 320 04:47 15.03.2020
1018 Clouds 10 1016 87 10000 2.6 320 04:28 15.03.2020
1019 Clouds 10 1016 81 10000 2.6 30 03:55 15.03.2020
1020 Clouds 10 1016 81 10000 2.6 360 02:48 15.03.2020
1021 Clouds 11 1016 87 10000 2.6 320 01:50 15.03.2020
1022 Clouds 11 1016 87 10000 2.1 330 00:51 15.03.2020
1023 Clouds 11 1016 87 10000 2.1 330 00:51 15.03.2020
1024 Clouds 11 1015 93 10000 2.6 340 00:28 15.03.2020
1025 Clouds 11 1016 93 10000 2.1 330 23:58 14.03.2020
1026 Clouds 11 1016 93 10000 2.1 330 23:37 14.03.2020
1027 Clouds 12 1015 87 10000 0.5 0 23:18 14.03.2020
1028 Clouds 12 1015 87 10000 1.5 320 22:44 14.03.2020
1029 Clouds 12 1015 82 10000 1.5 300 22:26 14.03.2020
1030 Clouds 12 1015 82 8000 1.5 300 21:57 14.03.2020
1031 Clouds 12 1015 82 8000 1.5 300 21:36 14.03.2020
1032 Clouds 12 1015 87 10000 1.5 300 21:18 14.03.2020
1033 Clouds 12 1015 87 10000 1.5 300 20:59 14.03.2020
1034 Clouds 12 1015 87 10000 1 280 20:40 14.03.2020
1035 Clouds 12 1015 82 10000 0.5 0 20:19 14.03.2020
1036 Clouds 12 1015 82 10000 0.5 0 19:56 14.03.2020
1037 Clouds 12 1014 82 10000 1 90 19:38 14.03.2020
1038 Clouds 12 1014 82 10000 1 90 19:19 14.03.2020
1039 Clouds 13 1014 87 10000 1.5 80 18:37 14.03.2020
1040 Clouds 14 1014 82 10000 2.1 60 18:19 14.03.2020
1041 Clouds 14 1014 76 10000 1.5 50 17:39 14.03.2020
1042 Clouds 14 1014 77 10000 1 0 17:20 14.03.2020
1043 Clouds 14 1014 82 10000 2.1 40 16:41 14.03.2020
1044 Clouds 14 1014 87 10000 2.6 30 16:23 14.03.2020
1045 Clouds 14 1014 87 10000 2.6 30 16:23 14.03.2020
1046 Clouds 14 1014 87 10000 2.6 30 15:59 14.03.2020
1047 Clouds 14 1014 82 10000 2.6 10 15:27 14.03.2020
1048 Clouds 14 1014 82 10000 2.6 360 14:59 14.03.2020
1049 Clouds 14 1014 82 10000 2.1 310 14:37 14.03.2020
1050 Clouds 14 1015 76 10000 2.6 300 14:19 14.03.2020
1051 Clouds 14 1015 76 10000 2.6 300 13:54 14.03.2020
1052 Clouds 14 1015 76 10000 2.6 260 13:36 14.03.2020
1053 Clouds 14 1016 82 7000 3.1 260 13:18 14.03.2020
1054 Clouds 14 1015 82 10000 3.1 290 12:42 14.03.2020
1055 Clouds 14 1016 87 8000 1.5 0 12:23 14.03.2020
1056 Clouds 13 1015 82 10000 2.6 250 11:43 14.03.2020
1057 Clouds 13 1015 87 7000 1 0 11:24 14.03.2020
1058 Clouds 14 1015 82 10000 2.1 250 10:47 14.03.2020
1059 Clouds 14 1015 82 10000 1 0 10:28 14.03.2020
1060 Clouds 13 1015 76 10000 0.5 0 09:59 14.03.2020
1061 Clouds 13 1015 76 10000 0.5 0 09:40 14.03.2020
1062 Clouds 13 1015 87 10000 1 0 09:20 14.03.2020
1063 Clouds 12 1015 87 10000 1 10 08:46 14.03.2020
1064 Clouds 12 1015 93 10000 1 0 08:26 14.03.2020
1065 Clouds 12 1015 93 10000 1 0 07:40 14.03.2020
1066 Clouds 11 1015 93 7000 1 80 07:21 14.03.2020
1067 Clouds 11 1015 93 7000 0.5 50 06:45 14.03.2020
1068 Clouds 11 1015 87 10000 1.5 110 06:26 14.03.2020
1069 Clouds 11 1015 93 10000 1.5 80 04:53 14.03.2020
1070 Clouds 11 1015 93 10000 1 90 03:34 14.03.2020
1071 Clouds 11 1015 93 10000 1 90 02:43 14.03.2020
1072 Clouds 12 1016 93 10000 1.5 100 01:42 14.03.2020
1073 Clouds 12 1016 100 10000 1 70 00:23 14.03.2020
1074 Clouds 12 1016 100 10000 0.5 190 23:42 13.03.2020
1075 Clouds 12 1016 93 8000 1.5 220 23:22 13.03.2020
1076 Clouds 12 1016 93 8000 1.5 220 22:41 13.03.2020
1077 Clouds 12 1016 93 10000 0.5 0 22:22 13.03.2020
1078 Clouds 12 1016 87 10000 0.5 0 21:40 13.03.2020
1079 Clouds 12 1016 87 10000 0.66 267 21:18 13.03.2020
1080 Clouds 12 1016 87 10000 0.5 240 20:42 13.03.2020
1081 Clouds 13 1016 87 10000 1.5 280 20:22 13.03.2020
1082 Clouds 13 1016 87 10000 1.5 260 19:55 13.03.2020
1083 Clouds 13 1016 87 10000 1.5 260 19:36 13.03.2020
1084 Clouds 13 1015 87 10000 2.6 220 19:18 13.03.2020
1085 Clouds 14 1015 93 10000 2.1 270 18:39 13.03.2020
1086 Clouds 14 1016 82 10000 2.6 260 18:21 13.03.2020
1087 Clouds 14 1016 82 10000 2.6 300 17:42 13.03.2020
1088 Clouds 14 1016 82 10000 3.6 290 17:21 13.03.2020
1089 Clouds 15 1016 87 10000 3.1 300 16:56 13.03.2020
1090 Clouds 15 1016 87 10000 3.1 300 16:38 13.03.2020
1091 Clouds 15 1016 82 10000 2.6 260 16:19 13.03.2020
1092 Clouds 15 1016 82 10000 2.6 250 15:42 13.03.2020
1093 Clouds 15 1016 82 10000 3.1 250 15:21 13.03.2020
1094 Clouds 15 1016 82 10000 2.6 250 14:55 13.03.2020
1095 Clouds 16 1016 82 10000 2.6 250 14:36 13.03.2020
1096 Clouds 16 1016 87 9000 4.1 240 14:18 13.03.2020
1097 Clouds 16 1017 72 10000 3.1 230 13:42 13.03.2020
1098 Clouds 16 1017 77 10000 3.1 220 13:21 13.03.2020
1099 Clouds 16 1017 77 10000 3.1 220 12:57 13.03.2020
1100 Clouds 16 1017 77 10000 2.6 200 12:38 13.03.2020
1101 Clouds 16 1018 77 10000 2.54 212 12:19 13.03.2020
1102 Clouds 15 1018 72 10000 0.5 0 11:46 13.03.2020
1103 Clouds 14 1019 87 8000 1 0 11:26 13.03.2020
1104 Clouds 14 1018 81 10000 1 20 10:59 13.03.2020
1105 Clouds 14 1018 81 10000 1 20 10:41 13.03.2020
1106 Clouds 13 1018 81 10000 1 0 10:23 13.03.2020
1107 Clouds 13 1019 81 10000 1 0 09:45 13.03.2020
1108 Clouds 12 1018 81 10000 1 0 09:26 13.03.2020
1109 Clouds 11 1018 87 10000 1.5 20 08:48 13.03.2020
1110 Clouds 11 1018 87 10000 1.5 20 08:48 13.03.2020
1111 Clouds 10 1018 87 10000 1 0 08:24 13.03.2020
1112 Clouds 9 1018 87 10000 1 0 07:59 13.03.2020
1113 Clouds 9 1018 93 8000 1.5 80 07:38 13.03.2020
1114 Clouds 9 1018 100 10000 1 80 07:20 13.03.2020
1115 Clouds 9 1018 93 8000 2.1 80 06:45 13.03.2020
1116 Clouds 8 1018 87 10000 2.1 80 06:19 13.03.2020
1117 Clouds 8 1018 100 8000 1.5 90 05:43 13.03.2020
1118 Clouds 9 1018 100 7000 1.5 90 04:39 13.03.2020
1119 Clouds 8 1018 100 7000 1.5 120 03:50 13.03.2020
1120 Clouds 8 1020 100 7000 2.1 70 01:48 13.03.2020
1121 Clouds 8 1020 93 8000 1.5 100 01:19 13.03.2020
1122 Clouds 9 1020 93 8000 1.5 100 00:56 13.03.2020
1123 Clouds 9 1020 100 8000 2.6 80 00:37 13.03.2020
1124 Clouds 9 1021 87 10000 1.5 90 00:18 13.03.2020
1125 Clouds 9 1021 81 10000 0.5 0 23:29 12.03.2020
1126 Clouds 10 1021 81 10000 0.5 0 22:59 12.03.2020
1127 Clouds 10 1021 76 10000 1.5 170 22:41 12.03.2020
1128 Clouds 10 1021 76 10000 1.5 160 22:23 12.03.2020
1129 Clouds 10 1021 87 10000 1 220 21:54 12.03.2020
1130 Clouds 10 1021 87 10000 1 220 21:36 12.03.2020
1131 Clouds 10 1021 81 10000 1 190 21:18 12.03.2020
1132 Clouds 11 1021 81 10000 1.5 200 20:41 12.03.2020
1133 Clouds 11 1021 81 10000 1.5 200 20:41 12.03.2020
1134 Clouds 12 1021 87 10000 1.5 220 20:19 12.03.2020
1135 Clouds 12 1021 87 10000 2.1 210 19:42 12.03.2020
1136 Clouds 13 1021 76 10000 2.1 220 19:21 12.03.2020
1137 Clouds 13 1021 76 10000 2.1 220 19:21 12.03.2020
1138 Clouds 13 1021 76 10000 2.1 230 18:45 12.03.2020
1139 Clouds 14 1021 71 10000 2.1 230 18:25 12.03.2020
1140 Clouds 15 1021 67 10000 3.1 240 17:57 12.03.2020
1141 Clouds 15 1021 67 10000 3.1 240 17:39 12.03.2020
1142 Clouds 16 1021 59 10000 2.6 230 17:21 12.03.2020
1143 Clouds 16 1021 67 10000 3.6 230 16:58 12.03.2020
1144 Clouds 16 1021 67 10000 3.6 230 16:38 12.03.2020
1145 Clouds 16 1021 72 10000 4.1 240 16:19 12.03.2020
1146 Clouds 16 1022 67 10000 3.6 240 15:45 12.03.2020
1147 Clouds 17 1022 67 10000 3.6 240 15:27 12.03.2020
1148 Clouds 18 1022 63 10000 4.6 240 14:42 12.03.2020
1149 Clouds 17 1022 63 10000 4.6 240 14:24 12.03.2020
1150 Clear 18 1022 63 10000 4.6 230 13:57 12.03.2020
1151 Clear 18 1023 59 10000 4.1 250 13:37 12.03.2020
1152 Clear 17 1023 59 10000 4.1 250 13:19 12.03.2020
1153 Clear 18 1024 59 10000 4.1 250 12:41 12.03.2020
1154 Clouds 17 1024 59 10000 1 0 12:22 12.03.2020
1155 Clear 17 1024 51 10000 4.6 230 11:57 12.03.2020
1156 Clear 17 1024 51 10000 4.6 230 11:39 12.03.2020
1157 Clouds 16 1024 59 10000 3.1 260 11:20 12.03.2020
1158 Clear 16 1024 51 10000 4.1 240 10:59 12.03.2020
1159 Clear 16 1024 51 10000 4.1 240 10:40 12.03.2020
1160 Clear 16 1024 51 10000 4.1 240 10:40 12.03.2020
1161 Clear 15 1024 58 10000 3.6 240 10:22 12.03.2020
1162 Clear 14 1024 62 10000 3.1 240 09:47 12.03.2020
1163 Clear 13 1024 62 10000 3.1 240 09:28 12.03.2020
1164 Clear 11 1023 76 10000 1.5 230 08:46 12.03.2020
1165 Clear 10 1023 100 9000 2.1 90 08:21 12.03.2020
1166 Clear 9 1023 100 9000 2.1 90 07:59 12.03.2020
1167 Clear 9 1023 81 10000 2.1 160 07:41 12.03.2020
1168 Clear 8 1023 100 10000 2.1 80 07:21 12.03.2020
1169 Fog 8 1023 100 8000 1.5 70 05:55 12.03.2020
1170 Fog 8 1023 100 8000 1.5 80 05:26 12.03.2020
1171 Clear 8 1024 93 7000 2.1 50 02:43 12.03.2020
1172 Fog 9 1024 100 6000 1 100 01:38 12.03.2020
1173 Fog 9 1024 100 6000 1 120 01:20 12.03.2020
1174 Fog 9 1024 100 6000 0.5 0 00:41 12.03.2020
1175 Clouds 9 1023 93 7000 1.5 100 23:56 11.03.2020
1176 Clouds 10 1023 76 10000 0.5 0 23:26 11.03.2020
1177 Clear 10 1023 81 10000 0.5 0 22:55 11.03.2020
1178 Clear 10 1023 81 10000 0.5 0 22:37 11.03.2020
1179 Clear 10 1023 87 10000 0.5 290 22:18 11.03.2020
1180 Clear 10 1023 81 10000 0.5 0 21:41 11.03.2020
1181 Clear 10 1023 87 10000 1 220 21:23 11.03.2020
1182 Clear 11 1023 87 10000 1 220 21:23 11.03.2020
1183 Clear 11 1023 87 10000 1 220 20:59 11.03.2020
1184 Clear 11 1023 81 10000 1 0 20:40 11.03.2020
1185 Clear 11 1023 87 10000 1.5 200 20:20 11.03.2020
1186 Clear 11 1023 87 10000 1.5 200 19:58 11.03.2020
1187 Clear 12 1023 87 10000 2.1 210 19:39 11.03.2020
1188 Clear 13 1023 76 10000 2.1 240 19:21 11.03.2020
1189 Clear 13 1022 67 10000 2.1 250 18:44 11.03.2020
1190 Clear 14 1022 67 10000 2.6 260 18:25 11.03.2020
1191 Clear 15 1022 67 10000 2.6 260 17:59 11.03.2020
1192 Clear 15 1022 62 10000 3.1 260 17:40 11.03.2020
1193 Clear 15 1021 51 10000 4.1 300 17:21 11.03.2020
1194 Clear 17 1021 51 10000 4.6 280 16:48 11.03.2020
1195 Clear 17 1021 51 10000 4.6 280 16:24 11.03.2020
1196 Clear 17 1021 45 10000 4.1 290 15:59 11.03.2020
1197 Clear 17 1021 45 10000 4.1 290 15:59 11.03.2020
1198 Clear 18 1021 48 10000 4.6 280 15:41 11.03.2020
1199 Clear 17 1021 51 10000 4.6 280 15:22 11.03.2020
1200 Clear 18 1021 45 10000 4.1 280 14:44 11.03.2020
1201 Clear 17 1021 45 10000 4.1 280 14:23 11.03.2020
1202 Clear 18 1021 31 10000 1.5 360 13:57 11.03.2020
1203 Clear 18 1021 38 10000 3.1 340 13:38 11.03.2020
1204 Clear 17 1021 38 10000 2.6 330 13:20 11.03.2020
1205 Clear 17 1021 38 10000 2.6 10 12:40 11.03.2020
1206 Clear 16 1021 38 10000 2.1 10 12:21 11.03.2020
1207 Clear 16 1021 38 10000 2.1 10 11:56 11.03.2020
1208 Clear 16 1021 44 10000 1 0 11:37 11.03.2020
1209 Clear 15 1021 44 10000 1.5 10 11:19 11.03.2020
1210 Clear 14 1021 58 10000 2.6 40 10:43 11.03.2020
1211 Clear 14 1021 62 10000 2.1 20 10:19 11.03.2020
1212 Clear 12 1021 71 10000 2.1 30 09:43 11.03.2020
1213 Clear 12 1021 71 10000 2.1 30 09:25 11.03.2020
1214 Clear 10 1021 76 10000 2.1 30 08:58 11.03.2020
1215 Clear 10 1020 70 10000 1.5 40 08:40 11.03.2020
1216 Clouds 8 1020 81 10000 1.5 70 08:19 11.03.2020
1217 Clouds 7 1020 81 10000 1.5 20 07:43 11.03.2020
1218 Clouds 6 1020 93 10000 2.1 100 07:19 11.03.2020
1219 Clouds 6 1020 100 10000 2.1 100 06:44 11.03.2020
1220 Clouds 7 1019 93 10000 1.5 90 05:36 11.03.2020
1221 Clouds 6 1019 100 10000 1.5 80 04:50 11.03.2020
1222 Clouds 7 1019 93 10000 1.5 310 02:30 11.03.2020
1223 Clouds 7 1019 87 10000 1 40 01:30 11.03.2020
1224 Clouds 8 1018 87 10000 2.1 70 00:47 11.03.2020
1225 Clouds 8 1019 81 10000 2.1 20 00:18 11.03.2020
1226 Clouds 8 1018 81 10000 2.6 10 23:40 10.03.2020
1227 Clouds 8 1018 81 10000 1.5 170 23:21 10.03.2020
1228 Clouds 9 1018 76 10000 2.1 200 22:40 10.03.2020
1229 Clouds 9 1018 71 10000 1.5 170 22:20 10.03.2020
1230 Clouds 9 1018 71 10000 1.5 170 21:57 10.03.2020
1231 Clouds 10 1018 76 10000 1.5 170 21:39 10.03.2020
1232 Clouds 9 1018 76 10000 1.5 170 21:39 10.03.2020
1233 Clouds 10 1018 71 10000 2.1 170 21:20 10.03.2020
1234 Clouds 10 1018 71 10000 2.1 170 20:59 10.03.2020
1235 Clouds 10 1018 66 10000 2.1 180 20:41 10.03.2020
1236 Clouds 11 1017 66 10000 2.6 190 20:18 10.03.2020
1237 Clouds 11 1017 66 10000 2.6 190 19:57 10.03.2020
1238 Clouds 12 1017 62 10000 2.1 180 19:38 10.03.2020
1239 Clouds 12 1017 62 10000 2.1 180 19:38 10.03.2020
1240 Clouds 12 1017 66 10000 2.1 210 19:20 10.03.2020
1241 Clouds 12 1017 58 10000 2.6 260 18:45 10.03.2020
1242 Clouds 13 1017 58 10000 2.6 260 18:26 10.03.2020
1243 Clouds 14 1017 50 10000 4.1 270 17:57 10.03.2020
1244 Clouds 14 1016 47 10000 3.1 270 17:39 10.03.2020
1245 Clouds 14 1016 47 10000 3.1 270 17:21 10.03.2020
1246 Clouds 15 1016 47 10000 3.6 260 16:39 10.03.2020
1247 Clouds 15 1016 51 10000 4.1 270 16:19 10.03.2020
1248 Clouds 15 1016 51 10000 4.1 270 15:57 10.03.2020
1249 Clouds 15 1016 47 10000 4.1 280 15:39 10.03.2020
1250 Clouds 15 1016 36 10000 1.5 0 15:19 10.03.2020
1251 Clouds 15 1016 31 10000 2.6 280 14:41 10.03.2020
1252 Clouds 15 1016 40 10000 2.1 0 14:20 10.03.2020
1253 Clouds 15 1016 40 10000 2.1 0 13:59 10.03.2020
1254 Clouds 15 1016 40 10000 1.5 240 13:41 10.03.2020
1255 Clouds 15 1016 40 10000 1.5 240 13:22 10.03.2020
1256 Clouds 15 1017 41 10000 2.1 290 12:42 10.03.2020
1257 Clouds 15 1017 36 10000 1 0 12:21 10.03.2020
1258 Clouds 15 1017 44 10000 1.5 20 11:58 10.03.2020
1259 Clouds 15 1017 44 10000 1.5 20 11:40 10.03.2020
1260 Clouds 14 1017 43 10000 2.1 30 11:22 10.03.2020
1261 Clouds 13 1017 50 10000 2.1 50 10:43 10.03.2020
1262 Clouds 12 1017 57 10000 3.1 30 10:23 10.03.2020
1263 Clouds 12 1017 57 10000 3.1 30 09:58 10.03.2020
1264 Clouds 11 1016 61 10000 2.6 40 09:40 10.03.2020
1265 Clouds 10 1016 65 10000 3.1 30 09:19 10.03.2020
1266 Clouds 10 1016 65 10000 3.1 30 09:19 10.03.2020
1267 Clouds 9 1016 70 10000 3.1 20 08:51 10.03.2020
1268 Clouds 8 1016 70 10000 3.1 20 08:32 10.03.2020
1269 Clear 8 1016 70 10000 3.1 20 08:32 10.03.2020
1270 Clear 6 1015 70 10000 3.6 80 07:51 10.03.2020
1271 Clear 6 1015 70 10000 3.6 80 07:32 10.03.2020
1272 Clear 5 1014 68 10000 2.6 30 06:48 10.03.2020
1273 Clear 5 1014 68 10000 2.6 30 06:30 10.03.2020
1274 Clear 6 1013 75 10000 3.6 40 05:42 10.03.2020
1275 Clouds 6 1013 70 10000 1 0 04:49 10.03.2020
1276 Clouds 6 1012 87 10000 2.1 50 04:20 10.03.2020
1277 Clouds 6 1012 87 10000 1 0 02:41 10.03.2020
1278 Clouds 7 1011 75 10000 1.5 60 01:30 10.03.2020
1279 Clouds 7 1011 81 10000 1.5 50 00:44 10.03.2020
1280 Clouds 7 1011 76 10000 2.1 50 00:26 10.03.2020
1281 Clouds 8 1011 76 10000 2.6 70 23:41 09.03.2020
1282 Clouds 8 1011 76 10000 2.6 80 23:21 09.03.2020
1283 Clouds 9 1011 76 10000 3.1 80 22:43 09.03.2020
1284 Clouds 9 1011 76 10000 3.1 80 22:23 09.03.2020
1285 Clouds 9 1010 66 10000 2.6 100 21:59 09.03.2020
1286 Clouds 9 1010 53 10000 2.1 130 21:40 09.03.2020
1287 Clouds 9 1010 61 10000 1 0 21:21 09.03.2020
1288 Clouds 9 1010 61 10000 1 0 20:56 09.03.2020
1289 Clouds 9 1010 61 10000 3.1 190 20:38 09.03.2020
1290 Clouds 10 1010 71 10000 3.1 180 20:20 09.03.2020
1291 Clouds 10 1010 76 10000 3.6 190 19:45 09.03.2020
1292 Clouds 10 1010 76 10000 3.6 190 19:25 09.03.2020
1293 Clouds 10 1010 87 10000 3.6 220 19:25 09.03.2020
1294 Clouds 10 1010 87 10000 3.6 220 18:58 09.03.2020
1295 Clouds 10 1010 87 10000 3.6 220 18:58 09.03.2020
1296 Clouds 11 1010 71 10000 4.6 200 18:38 09.03.2020
1297 Clouds 11 1009 87 10000 3.6 220 18:20 09.03.2020
1298 Clouds 11 1009 71 10000 3.6 210 17:57 09.03.2020
1299 Clouds 12 1009 71 10000 3.6 210 17:38 09.03.2020
1300 Clouds 12 1009 62 10000 3.1 230 17:20 09.03.2020
1301 Clouds 12 1010 58 10000 3.6 230 16:58 09.03.2020
1302 Clouds 13 1010 58 10000 3.6 230 16:39 09.03.2020
1303 Clouds 13 1010 47 10000 2.6 210 16:21 09.03.2020
1304 Clouds 13 1010 47 10000 2.6 210 15:58 09.03.2020
1305 Clouds 13 1010 47 10000 2.6 210 15:38 09.03.2020
1306 Clouds 13 1010 50 10000 1.5 0 15:20 09.03.2020
1307 Clouds 14 1011 47 10000 2.1 0 14:55 09.03.2020
1308 Clouds 14 1011 47 10000 2.1 0 14:37 09.03.2020
1309 Clouds 14 1011 51 10000 3.1 230 14:18 09.03.2020
1310 Clouds 14 1012 58 10000 2.6 280 13:55 09.03.2020
1311 Clouds 14 1012 58 10000 2.6 280 13:36 09.03.2020
1312 Clouds 14 1013 38 10000 4.1 240 13:18 09.03.2020
1313 Clouds 14 1014 44 10000 1 0 12:41 09.03.2020
1314 Clouds 14 1014 44 10000 1 0 12:21 09.03.2020
1315 Clouds 13 1013 37 10000 2.1 250 11:41 09.03.2020
1316 Clouds 12 1014 43 10000 1.05 51 11:22 09.03.2020
1317 Clouds 12 1014 34 10000 1 0 10:59 09.03.2020
1318 Clouds 11 1015 61 10000 1.5 0 10:40 09.03.2020
1319 Clouds 11 1015 61 10000 1.5 0 10:20 09.03.2020
1320 Clouds 10 1014 61 10000 1.5 30 09:57 09.03.2020
1321 Clouds 9 1014 61 10000 1.5 30 09:37 09.03.2020
1322 Clouds 8 1005 75 10000 1.5 0 09:19 09.03.2020
1323 Clouds 6 1015 75 10000 2.1 70 08:42 09.03.2020
1324 Clouds 6 1016 86 10000 1.5 0 08:23 09.03.2020
1325 Clouds 5 1015 64 10000 1.5 60 07:41 09.03.2020
1326 Clouds 4 1015 64 10000 1.5 70 07:21 09.03.2020
1327 Clouds 4 1015 80 10000 1.5 90 06:43 09.03.2020
1328 Clouds 4 1015 80 10000 1 0 06:24 09.03.2020
1329 Clouds 4 1015 80 10000 1 290 05:47 09.03.2020
1330 Clouds 4 1016 80 10000 1.5 10 05:22 09.03.2020
1331 Clouds 4 1016 66 10000 1.5 360 04:43 09.03.2020
1332 Clouds 4 1016 66 10000 2.1 80 04:21 09.03.2020
1333 Clouds 5 1017 70 10000 2.6 70 02:59 09.03.2020
1334 Clear 5 1017 64 10000 2.1 70 01:26 09.03.2020
1335 Clear 5 1017 64 10000 2.1 70 01:26 09.03.2020
1336 Clear 6 1017 52 10000 2.6 40 00:38 09.03.2020
1337 Clear 6 1017 52 10000 2.6 40 00:20 09.03.2020
1338 Clear 6 1017 52 10000 3.1 10 23:47 08.03.2020
1339 Clear 7 1017 52 10000 3.1 350 23:22 08.03.2020
1340 Clear 7 1018 49 10000 2.6 40 22:56 08.03.2020
1341 Clear 7 1018 49 10000 2.6 40 22:38 08.03.2020
1342 Clear 8 1017 45 10000 3.6 60 22:18 08.03.2020
1343 Clear 8 1017 45 10000 3.1 60 21:54 08.03.2020
1344 Clear 8 1017 43 10000 3.6 30 21:36 08.03.2020
1345 Clear 9 1017 43 10000 3.6 30 21:18 08.03.2020
1346 Clear 9 1017 40 10000 4.6 360 20:39 08.03.2020
1347 Clear 9 1017 40 10000 4.6 360 20:21 08.03.2020
1348 Clouds 10 1017 37 10000 5.1 360 19:54 08.03.2020
1349 Clouds 10 1017 37 10000 5.1 360 19:36 08.03.2020
1350 Clouds 11 1017 40 10000 4.6 350 19:18 08.03.2020
1351 Clouds 11 1016 46 10000 5.1 360 18:40 08.03.2020
1352 Clouds 12 1016 46 10000 5.1 360 18:22 08.03.2020
1353 Clouds 13 1016 41 10000 4.6 360 17:56 08.03.2020
1354 Clouds 13 1016 41 10000 5.1 360 17:37 08.03.2020
1355 Clouds 14 1016 41 10000 5.1 360 17:18 08.03.2020
1356 Clouds 15 1016 41 10000 5.1 360 16:43 08.03.2020
1357 Clouds 15 1016 41 10000 5.1 360 16:25 08.03.2020
1358 Clouds 15 1016 38 10000 3.6 350 15:56 08.03.2020
1359 Clouds 15 1016 38 10000 0.5 10 15:37 08.03.2020
1360 Clouds 15 1016 38 10000 0.5 10 15:18 08.03.2020
1361 Clouds 15 1017 38 10000 4.1 360 14:40 08.03.2020
1362 Clouds 15 1017 38 10000 4.1 360 14:21 08.03.2020
1363 Clouds 15 1016 38 10000 2.6 340 13:56 08.03.2020
1364 Clouds 15 1016 38 10000 2.6 340 13:56 08.03.2020
1365 Clouds 15 1017 42 10000 2.6 360 13:37 08.03.2020
1366 Clouds 15 1017 36 10000 1.5 0 13:18 08.03.2020
1367 Clouds 14 1017 42 10000 3.1 350 12:38 08.03.2020
1368 Clouds 14 1017 41 10000 3.6 340 12:19 08.03.2020
1369 Clouds 14 1017 44 10000 3.1 50 11:44 08.03.2020
1370 Clear 14 1017 44 10000 5.1 30 11:24 08.03.2020
1371 Clear 12 1017 47 10000 5.1 30 10:58 08.03.2020
1372 Clear 13 1017 47 10000 5.1 30 10:40 08.03.2020
1373 Clear 12 1017 47 10000 5.1 30 10:21 08.03.2020
1374 Clear 11 1017 66 10000 4.6 40 09:40 08.03.2020
1375 Clear 11 1017 66 10000 4.6 40 09:22 08.03.2020
1376 Clear 10 1016 70 10000 4.1 60 08:49 08.03.2020
1377 Clear 10 1016 70 10000 4.1 60 08:49 08.03.2020
1378 Clouds 8 1016 75 10000 3.1 60 08:24 08.03.2020
1379 Clouds 8 1016 75 10000 3.1 60 07:50 08.03.2020
1380 Clouds 7 1015 86 10000 2.6 70 07:28 08.03.2020
1381 Clouds 6 1015 80 10000 2.6 40 06:51 08.03.2020
1382 Clouds 6 1014 75 10000 3.1 60 06:33 08.03.2020
1383 Clouds 6 1014 81 10000 3.1 90 05:49 08.03.2020
1384 Clouds 6 1014 81 10000 2.6 40 04:24 08.03.2020
1385 Clouds 6 1014 87 10000 1 0 03:19 08.03.2020
1386 Clouds 7 1014 81 10000 1.5 60 01:55 08.03.2020
1387 Clouds 7 1014 75 10000 2.1 50 01:20 08.03.2020
1388 Clouds 7 1014 75 10000 2.1 50 00:41 08.03.2020
1389 Clouds 7 1013 81 10000 1.5 360 23:59 07.03.2020
1390 Clouds 7 1013 81 10000 1.5 360 23:41 07.03.2020
1391 Clouds 7 1013 81 10000 2.1 30 23:20 07.03.2020
1392 Clouds 8 1012 76 10000 1.5 350 22:38 07.03.2020
1393 Clouds 8 1012 76 10000 1.5 350 22:20 07.03.2020
1394 Clouds 9 1011 66 10000 3.1 10 21:45 07.03.2020
1395 Clouds 9 1011 71 10000 3.1 100 21:24 07.03.2020
1396 Clouds 9 1011 71 10000 4.1 50 20:41 07.03.2020
1397 Clouds 10 1010 71 10000 3.6 50 20:22 07.03.2020
1398 Rain 10 1010 71 10000 3.6 50 20:22 07.03.2020
1399 Clouds 10 1010 76 10000 3.1 360 19:55 07.03.2020
1400 Clouds 10 1010 76 10000 3.1 360 19:37 07.03.2020
1401 Clouds 10 1010 81 10000 1 0 19:18 07.03.2020
1402 Rain 10 1009 76 10000 1.5 210 18:40 07.03.2020
1403 Rain 11 1009 76 10000 1.5 210 18:21 07.03.2020
1404 Rain 12 1009 66 8000 2.1 320 17:42 07.03.2020
1405 Rain 12 1008 67 10000 2.1 320 17:21 07.03.2020
1406 Clouds 13 1008 66 10000 3.1 160 16:59 07.03.2020
1407 Clouds 13 1008 66 10000 3.1 160 16:41 07.03.2020
1408 Clouds 13 1008 51 10000 1.5 0 16:22 07.03.2020
1409 Rain 13 1008 62 10000 5.1 80 15:57 07.03.2020
1410 Rain 13 1008 54 10000 3.6 250 15:37 07.03.2020
1411 Rain 14 1008 54 10000 3.6 250 15:19 07.03.2020
1412 Clouds 14 1007 51 10000 4.6 290 14:46 07.03.2020
1413 Clouds 14 1008 54 10000 4.6 290 14:25 07.03.2020
1414 Clouds 13 1007 51 10000 4.1 320 13:58 07.03.2020
1415 Clouds 13 1008 67 10000 2.6 260 13:38 07.03.2020
1416 Clouds 13 1008 67 10000 2.6 260 13:19 07.03.2020
1417 Clouds 13 1008 47 10000 2.1 0 12:41 07.03.2020
1418 Clouds 13 1008 58 10000 2.1 360 12:20 07.03.2020
1419 Clouds 13 1008 50 10000 2.6 10 11:57 07.03.2020
1420 Clouds 13 1008 62 10000 0.5 0 11:39 07.03.2020
1421 Clouds 13 1008 62 10000 0.5 0 11:20 07.03.2020
1422 Clouds 12 1008 81 10000 2.1 350 10:41 07.03.2020
1423 Clouds 12 1008 81 10000 2.1 350 10:20 07.03.2020
1424 Rain 11 1007 71 10000 2.1 70 09:56 07.03.2020
1425 Rain 11 1007 93 10000 0.5 0 09:37 07.03.2020
1426 Rain 11 1007 93 10000 0.5 0 09:18 07.03.2020
1427 Rain 10 1007 81 10000 1.5 360 08:44 07.03.2020
1428 Rain 9 1006 87 10000 0.5 0 08:21 07.03.2020
1429 Rain 7 1006 87 10000 1.5 50 07:51 07.03.2020
1430 Clouds 7 1006 81 10000 3.6 120 07:23 07.03.2020
1431 Rain 7 1003 88 0 1.34 344 06:56 07.03.2020
1432 Rain 7 1003 88 0 2.62 72 06:29 07.03.2020
1433 Rain 7 1002 87 0 0.89 41 05:52 07.03.2020
1434 Clouds 7 1004 87 10000 1 0 04:42 07.03.2020
1435 Clouds 8 1004 76 10000 2.6 150 02:47 07.03.2020
1436 Rain 8 1005 81 10000 3.1 150 02:24 07.03.2020
1437 Rain 8 1004 81 10000 3.1 160 01:26 07.03.2020
1438 Rain 9 1004 81 10000 2.1 180 00:38 07.03.2020
1439 Rain 9 1004 81 10000 2.1 180 00:20 07.03.2020
1440 Clouds 9 1004 76 10000 2.1 180 23:44 06.03.2020
1441 Clouds 9 1004 76 10000 2.1 230 23:25 06.03.2020
1442 Clouds 9 1004 76 10000 2.6 230 22:48 06.03.2020
1443 Clouds 9 1005 76 10000 2.1 220 22:21 06.03.2020
1444 Clouds 9 1004 76 10000 2.6 220 21:55 06.03.2020
1445 Clouds 10 1004 76 10000 2.6 210 21:37 06.03.2020
1446 Clouds 10 1004 76 10000 3.1 210 21:18 06.03.2020
1447 Clouds 11 1004 76 10000 3.1 200 20:37 06.03.2020
1448 Clouds 11 1004 76 10000 3.1 200 20:19 06.03.2020
1449 Clouds 11 1004 76 10000 3.1 200 19:45 06.03.2020
1450 Clouds 11 1004 76 10000 1.5 230 19:26 06.03.2020
1451 Clouds 11 1003 71 10000 3.1 240 18:44 06.03.2020
1452 Clouds 11 1003 66 10000 5.7 250 18:22 06.03.2020
1453 Clouds 12 1003 66 10000 4.1 230 17:59 06.03.2020
1454 Clouds 12 1003 66 10000 4.1 230 17:41 06.03.2020
1455 Clouds 12 1003 66 10000 4.1 230 17:41 06.03.2020
1456 Clouds 12 1002 62 10000 3.6 250 17:22 06.03.2020
1457 Clouds 13 1002 58 10000 5.7 220 16:59 06.03.2020
1458 Clouds 13 1002 58 10000 5.7 220 16:40 06.03.2020
1459 Clouds 13 1002 58 10000 5.7 220 16:19 06.03.2020
1460 Clouds 13 1001 62 10000 5.7 240 15:44 06.03.2020
1461 Clouds 13 1001 62 10000 5.7 240 15:24 06.03.2020
1462 Rain 13 1002 66 10000 7.2 260 14:45 06.03.2020
1463 Clouds 14 1001 63 10000 7.2 230 14:25 06.03.2020
1464 Clouds 14 1002 62 10000 5.7 230 13:59 06.03.2020
1465 Clouds 14 1002 62 10000 5.7 230 13:40 06.03.2020
1466 Clouds 14 1001 72 10000 2.6 170 13:21 06.03.2020
1467 Clouds 14 1002 71 10000 5.1 210 12:56 06.03.2020
1468 Clouds 13 1002 71 10000 5.1 210 12:37 06.03.2020
1469 Clouds 13 1002 67 10000 3.1 180 12:18 06.03.2020
1470 Drizzle 13 1002 71 8000 5.7 210 11:56 06.03.2020
1471 Clouds 13 1002 71 10000 3.1 190 11:37 06.03.2020
1472 Clouds 13 1002 71 10000 3.1 190 11:19 06.03.2020
1473 Clouds 13 1002 71 8000 4.1 200 10:37 06.03.2020
1474 Clouds 13 1002 71 8000 4.1 200 10:19 06.03.2020
1475 Clouds 12 1002 71 10000 5.1 220 09:43 06.03.2020
1476 Clouds 12 1002 71 10000 3.6 180 09:24 06.03.2020
1477 Clouds 12 1003 81 10000 3.6 210 08:58 06.03.2020
1478 Clouds 12 1002 82 10000 2.6 160 08:40 06.03.2020
1479 Clouds 11 1002 82 10000 2.6 160 08:22 06.03.2020
1480 Rain 11 1002 81 10000 3.1 190 07:47 06.03.2020
1481 Rain 11 1002 81 10000 3.1 190 07:26 06.03.2020
1482 Rain 11 1002 87 10000 2.1 210 06:51 06.03.2020
1483 Clouds 11 1002 87 10000 3.6 250 06:32 06.03.2020
1484 Clouds 11 1002 93 10000 6.2 240 05:39 06.03.2020
1485 Clouds 12 1001 100 8000 6.2 220 05:20 06.03.2020
1486 Clouds 12 1001 93 7000 6.7 230 04:41 06.03.2020
1487 Rain 10 1004 87 7000 8.2 170 01:45 06.03.2020
1488 Rain 10 1004 87 8000 9.8 170 01:26 06.03.2020
1489 Rain 10 1004 76 8000 7.7 180 00:57 06.03.2020
1490 Clouds 10 1005 71 8000 9.8 170 00:31 06.03.2020
1491 Clouds 11 1005 71 10000 9.3 170 23:44 05.03.2020
1492 Clouds 11 1006 66 10000 9.8 170 23:25 05.03.2020
1493 Clouds 11 1006 66 10000 9.3 180 22:56 05.03.2020
1494 Clouds 11 1006 66 10000 9.3 180 22:37 05.03.2020
1495 Clouds 11 1006 66 10000 8.2 180 22:18 05.03.2020
1496 Clouds 11 1006 62 10000 7.7 170 21:55 05.03.2020
1497 Clouds 11 1006 62 10000 7.7 170 21:37 05.03.2020
1498 Clouds 11 1007 62 10000 6.2 170 21:19 05.03.2020
1499 Clouds 11 1008 66 10000 6.2 170 20:43 05.03.2020
1500 Clouds 11 1008 66 10000 5.7 180 20:21 05.03.2020
1501 Clouds 11 1009 66 10000 5.1 170 19:59 05.03.2020
1502 Clouds 11 1009 62 10000 4.6 180 19:40 05.03.2020
1503 Clouds 11 1009 62 10000 4.6 180 19:22 05.03.2020
1504 Clouds 11 1009 58 10000 3.6 200 18:59 05.03.2020
1505 Clouds 11 1009 58 10000 3.6 200 18:37 05.03.2020
1506 Clouds 11 1009 54 10000 4.1 190 18:19 05.03.2020
1507 Clouds 12 1009 50 10000 4.6 190 17:57 05.03.2020
1508 Clouds 12 1009 50 10000 4.6 190 17:39 05.03.2020
1509 Clouds 12 1010 43 10000 2.13 196 17:21 05.03.2020
1510 Clouds 13 1010 43 10000 4.6 210 16:42 05.03.2020
1511 Clouds 13 1010 49 10000 3.1 250 16:24 05.03.2020
1512 Clouds 13 1010 35 10000 4.6 230 15:58 05.03.2020
1513 Clouds 13 1010 35 10000 4.6 230 15:58 05.03.2020
1514 Clouds 13 1010 30 10000 4.6 220 15:38 05.03.2020
1515 Clouds 13 1010 30 10000 4.6 220 15:20 05.03.2020
1516 Clouds 14 1010 47 10000 5.1 220 14:42 05.03.2020
1517 Clouds 14 1010 36 10000 3.1 240 14:23 05.03.2020
1518 Clouds 14 1011 47 10000 4.1 230 13:58 05.03.2020
1519 Clouds 14 1011 47 10000 4.1 230 13:40 05.03.2020
1520 Clouds 14 1011 36 10000 1 0 13:20 05.03.2020
1521 Clouds 14 1011 35 10000 3.6 220 12:55 05.03.2020
1522 Clouds 14 1012 44 10000 3.1 240 12:37 05.03.2020
1523 Clouds 14 1012 44 10000 3.1 240 12:18 05.03.2020
1524 Clouds 14 1012 58 10000 2.1 250 11:56 05.03.2020
1525 Clouds 13 1012 58 10000 1 0 11:36 05.03.2020
1526 Clouds 13 1012 58 10000 1 0 11:18 05.03.2020
1527 Clouds 12 1012 66 10000 1 0 10:55 05.03.2020
1528 Clouds 12 1013 70 10000 2.1 350 10:37 05.03.2020
1529 Clouds 11 1013 70 10000 2.1 350 10:19 05.03.2020
1530 Clouds 10 1012 75 10000 3.1 30 09:41 05.03.2020
1531 Clouds 9 1013 81 10000 1 0 09:22 05.03.2020
1532 Clouds 7 1012 87 10000 2.6 40 08:43 05.03.2020
1533 Clouds 7 1013 93 10000 1 0 08:25 05.03.2020
1534 Clouds 5 1012 86 10000 2.6 30 07:46 05.03.2020
1535 Clouds 5 1012 86 10000 2.6 60 07:22 05.03.2020
1536 Clouds 5 1012 86 10000 3.1 50 06:46 05.03.2020
1537 Clouds 4 1012 86 10000 2.1 30 06:21 05.03.2020
1538 Clouds 4 1012 86 10000 1 0 05:39 05.03.2020
1539 Clouds 5 1012 86 10000 3.1 60 04:26 05.03.2020
1540 Clouds 5 1012 81 10000 2.6 60 03:59 05.03.2020
1541 Clouds 5 1012 87 10000 2.1 60 03:19 05.03.2020
1542 Clear 6 1012 81 10000 2.6 30 01:29 05.03.2020
1543 Clear 6 1012 81 10000 2.6 10 00:58 05.03.2020
1544 Clear 6 1012 81 10000 2.1 40 00:23 05.03.2020
1545 Clear 6 1012 75 10000 1.5 90 23:41 04.03.2020
1546 Clear 7 1012 81 10000 2.1 50 23:22 04.03.2020
1547 Clear 7 1012 70 10000 2.6 60 22:57 04.03.2020
1548 Clear 7 1012 70 10000 3.1 60 22:38 04.03.2020
1549 Clear 7 1012 70 10000 3.1 60 22:19 04.03.2020
1550 Clear 8 1012 70 10000 1.5 60 21:57 04.03.2020
1551 Clear 8 1012 70 10000 1.5 60 21:38 04.03.2020
1552 Clear 8 1012 70 10000 2.6 360 21:19 04.03.2020
1553 Clear 8 1011 70 10000 3.1 350 20:42 04.03.2020
1554 Clouds 9 1011 62 10000 2.1 320 20:24 04.03.2020
1555 Clouds 10 1011 62 10000 1 0 19:59 04.03.2020
1556 Clouds 10 1011 62 10000 1 0 19:41 04.03.2020
1557 Clouds 10 1011 62 10000 1.5 310 19:22 04.03.2020
1558 Rain 11 1010 66 10000 4.1 360 18:43 04.03.2020
1559 Clouds 11 1010 58 10000 3.6 300 18:24 04.03.2020
1560 Rain 12 1010 54 10000 5.7 340 17:59 04.03.2020
1561 Clouds 13 1010 50 10000 5.1 320 17:40 04.03.2020
1562 Clouds 13 1010 50 10000 5.1 320 17:21 04.03.2020
1563 Clouds 14 1009 54 10000 2.6 350 16:58 04.03.2020
1564 Clouds 14 1009 47 10000 3.1 350 16:38 04.03.2020
1565 Clouds 14 1009 47 10000 3.1 350 16:20 04.03.2020
1566 Clouds 14 1009 47 10000 5.1 350 15:55 04.03.2020
1567 Clouds 14 1009 47 10000 5.1 360 15:36 04.03.2020
1568 Clouds 14 1009 47 10000 5.1 360 15:18 04.03.2020
1569 Clouds 14 1009 44 10000 5.1 340 14:41 04.03.2020
1570 Clouds 14 1009 51 10000 4.1 10 14:21 04.03.2020
1571 Clouds 14 1009 50 10000 4.1 360 13:58 04.03.2020
1572 Clouds 14 1009 50 10000 4.1 360 13:39 04.03.2020
1573 Clouds 14 1009 54 10000 4.1 30 13:21 04.03.2020
1574 Clear 14 1009 58 10000 4.1 350 12:56 04.03.2020
1575 Clouds 13 1010 54 10000 3.6 350 12:38 04.03.2020
1576 Clouds 13 1010 54 10000 3.6 350 12:20 04.03.2020
1577 Clear 13 1009 62 10000 2.6 20 11:54 04.03.2020
1578 Clear 13 1010 66 10000 3.1 10 11:36 04.03.2020
1579 Clear 12 1010 66 10000 3.1 10 11:18 04.03.2020
1580 Clear 11 1009 71 10000 2.6 30 10:41 04.03.2020
1581 Clear 11 1009 76 10000 3.1 40 10:22 04.03.2020
1582 Clear 9 1008 75 10000 3.1 30 09:44 04.03.2020
1583 Clear 9 1009 93 10000 3.08 5 09:22 04.03.2020
1584 Clear 7 1008 87 10000 2.1 20 08:58 04.03.2020
1585 Clear 7 1008 87 10000 2.1 20 08:40 04.03.2020
1586 Clouds 6 1008 100 10000 2.53 17 08:21 04.03.2020
1587 Clouds 5 1007 86 10000 2.1 70 07:41 04.03.2020
1588 Clouds 5 1006 93 10000 1.5 80 07:23 04.03.2020
1589 Clouds 4 1006 86 10000 1.5 30 06:49 04.03.2020
1590 Clouds 4 1005 93 10000 1.5 50 06:25 04.03.2020
1591 Clouds 5 1005 93 10000 1 10 05:54 04.03.2020
1592 -273 0 0 0 0 0 04:58 04.03.2020
1593 Clouds 5 1004 86 10000 1.5 60 04:57 04.03.2020
1594 Clouds 6 1004 87 10000 3.1 20 03:49 04.03.2020
1595 Clouds 6 1004 81 10000 3.1 20 03:30 04.03.2020
1596 Clouds 6 1004 75 10000 2.6 30 02:58 04.03.2020
1597 Clouds 6 1004 81 10000 3.6 60 02:23 04.03.2020
1598 Clouds 6 1004 75 10000 2.6 40 01:56 04.03.2020
1599 Clouds 7 1004 66 10000 4.1 110 01:22 04.03.2020
1600 Clouds 7 1004 75 10000 3.1 90 00:36 04.03.2020
1601 Clouds 7 1004 75 10000 3.1 90 00:18 04.03.2020
1602 Clouds 7 1004 75 10000 4.6 120 23:40 03.03.2020
1603 Clouds 7 1004 75 10000 1.5 170 23:22 03.03.2020
1604 Clouds 7 1004 75 10000 2.6 220 22:41 03.03.2020
1605 Clouds 8 1003 70 10000 4.1 130 22:20 03.03.2020
1606 Clouds 8 1003 70 10000 4.6 140 21:59 03.03.2020
1607 Clouds 8 1003 70 10000 4.6 140 21:40 03.03.2020
1608 Clouds 8 1003 70 10000 4.6 140 21:40 03.03.2020
1609 Clouds 8 1003 70 10000 3.1 150 21:21 03.03.2020
1610 Clouds 8 1003 70 10000 4.1 150 20:56 03.03.2020
1611 Clouds 8 1002 70 10000 3.6 150 20:38 03.03.2020
1612 Clouds 8 1002 70 10000 3.6 150 20:18 03.03.2020
1613 Clouds 8 1002 76 10000 4.1 150 19:55 03.03.2020
1614 Clouds 8 1002 66 10000 2.6 170 19:36 03.03.2020
1615 Clouds 9 1002 66 10000 2.6 170 19:18 03.03.2020
1616 Clouds 9 1002 62 10000 3.1 190 18:55 03.03.2020
1617 Clouds 9 1002 62 10000 3.1 190 18:37 03.03.2020
1618 Clouds 9 1002 62 10000 3.6 200 18:18 03.03.2020
1619 Clouds 10 1002 62 10000 3.6 230 17:40 03.03.2020
1620 Rain 10 1002 71 6000 2.1 230 17:21 03.03.2020
1621 -273 0 0 0 0 0 16:59 03.03.2020
1622 Rain 11 1002 71 6000 4.1 180 16:38 03.03.2020
1623 Clouds 11 1002 66 10000 5.7 230 16:38 03.03.2020
1624 Rain 11 1002 71 6000 4.1 180 16:20 03.03.2020
1625 Rain 11 1002 71 5000 5.7 230 15:57 03.03.2020
1626 Rain 11 1002 71 5000 5.7 230 15:39 03.03.2020
1627 Clouds 11 1002 58 8000 5.7 230 15:20 03.03.2020
1628 Clouds 11 1003 62 10000 7.2 250 14:43 03.03.2020
1629 Clouds 11 1002 58 9000 7.7 230 14:20 03.03.2020
1630 Clouds 11 1003 66 10000 7.7 240 13:58 03.03.2020
1631 Clouds 12 1003 66 10000 7.7 240 13:40 03.03.2020
1632 Clouds 11 1002 54 10000 7.2 230 13:21 03.03.2020
1633 Rain 11 1003 81 8000 5.1 240 12:47 03.03.2020
1634 Clouds 11 1003 58 7000 8.7 230 12:26 03.03.2020
1635 Clouds 11 1003 66 10000 7.7 230 11:58 03.03.2020
1636 Clouds 11 1003 54 9000 8.2 230 11:37 03.03.2020
1637 Clouds 11 1003 54 9000 8.2 230 11:18 03.03.2020
1638 Clouds 11 1003 54 9000 8.2 230 11:18 03.03.2020
1639 Rain 11 1003 66 10000 6.7 240 10:56 03.03.2020
1640 Clouds 11 1003 54 9000 6.2 230 10:37 03.03.2020
1641 Clouds 11 1003 54 9000 6.2 230 10:18 03.03.2020
1642 Clouds 11 1003 66 10000 5.1 250 09:44 03.03.2020
1643 Rain 11 1002 62 8000 5.1 220 09:22 03.03.2020
1644 Clouds 11 1003 66 10000 5.7 230 08:57 03.03.2020
1645 Clouds 11 1003 66 10000 5.7 230 08:39 03.03.2020
1646 Clouds 11 1002 62 8000 5.1 210 08:20 03.03.2020
1647 Clouds 10 1002 71 8000 5.1 220 07:43 03.03.2020
1648 Clouds 10 1002 71 8000 4.6 220 07:20 03.03.2020
1649 Clouds 10 1002 71 10000 4.1 210 06:43 03.03.2020
1650 Clouds 10 1002 71 10000 4.6 210 06:23 03.03.2020
1651 Clouds 10 1001 71 10000 10.8 230 05:47 03.03.2020
1652 Rain 10 1002 76 10000 5.1 220 05:18 03.03.2020
1653 Rain 10 1001 76 10000 8.7 240 04:24 03.03.2020
1654 Clouds 11 1001 76 10000 3.1 220 01:40 03.03.2020
1655 Clouds 11 1000 76 10000 3.1 230 00:49 03.03.2020
1656 Clouds 11 1000 81 10000 4.6 230 00:27 03.03.2020
1657 Clouds 11 1000 93 10000 4.1 190 23:57 02.03.2020
1658 Clouds 11 1000 93 10000 4.1 190 23:38 02.03.2020
1659 Clouds 11 999 93 10000 4.6 190 23:19 02.03.2020
1660 Rain 11 999 93 7000 4.6 240 22:54 02.03.2020
1661 Rain 11 999 87 6000 7.2 260 22:36 02.03.2020
1662 Rain 12 999 87 6000 7.2 260 22:18 02.03.2020
1663 Rain 13 998 87 7000 9.3 190 21:41 02.03.2020
1664 Rain 13 999 87 8000 9.3 190 21:23 02.03.2020
1665 Rain 13 999 87 10000 9.3 190 20:58 02.03.2020
1666 Rain 13 999 87 10000 9.3 190 20:39 02.03.2020
1667 Clouds 13 999 87 10000 9.8 180 20:20 02.03.2020
1668 Clouds 13 1000 93 10000 10.3 190 19:56 02.03.2020
1669 Clouds 13 1000 93 10000 10.3 190 19:56 02.03.2020
1670 Rain 13 1000 93 8000 10.3 190 19:37 02.03.2020
1671 Rain 13 1000 93 8000 10.3 190 19:19 02.03.2020
1672 Rain 12 1000 93 6000 11.3 190 18:45 02.03.2020
1673 Rain 13 1000 93 5000 11.8 190 18:20 02.03.2020
1674 Rain 13 1001 87 6000 10.8 190 17:59 02.03.2020
1675 Drizzle 13 1001 87 10000 6.2 180 17:41 02.03.2020
1676 Drizzle 13 1001 87 10000 6.2 180 17:21 02.03.2020
1677 Drizzle 13 1001 87 10000 6.2 180 17:21 02.03.2020
1678 Rain 13 1002 93 8000 8.7 190 16:56 02.03.2020
1679 Rain 12 1002 93 8000 8.7 190 16:37 02.03.2020
1680 Drizzle 12 1003 87 6000 7.2 160 16:19 02.03.2020
1681 Rain 13 1003 82 8000 8.2 170 15:44 02.03.2020
1682 Drizzle 13 1004 82 6000 7.2 170 15:20 02.03.2020
1683 Rain 13 1004 77 8000 7.7 160 14:56 02.03.2020
1684 Rain 14 1005 77 10000 5.7 170 14:36 02.03.2020
1685 Clouds 14 1005 77 10000 5.7 170 14:18 02.03.2020
1686 Clouds 15 1005 72 10000 9.8 180 13:40 02.03.2020
1687 Clouds 15 1005 67 10000 7.7 160 13:19 02.03.2020
1688 Clouds 15 1007 72 10000 9.3 190 12:54 02.03.2020
1689 Clouds 15 1007 67 10000 6.7 170 12:36 02.03.2020
1690 Clouds 15 1007 67 10000 6.7 170 12:18 02.03.2020
1691 Clouds 15 1007 67 10000 7.2 160 11:37 02.03.2020
1692 Clouds 15 1007 67 10000 7.2 160 11:19 02.03.2020
1693 Clouds 15 1008 72 10000 7.7 180 10:55 02.03.2020
1694 Clouds 15 1008 67 10000 6.7 170 10:36 02.03.2020
1695 Clouds 15 1008 67 10000 6.7 170 10:18 02.03.2020
1696 Clouds 14 1008 72 10000 8.2 170 09:42 02.03.2020
1697 Clouds 14 1009 76 10000 4.6 160 09:24 02.03.2020
1698 Clouds 13 1009 82 10000 6.2 180 08:47 02.03.2020
1699 Clouds 12 1008 87 10000 1.5 0 08:22 02.03.2020
1700 Clouds 11 1009 81 10000 3.6 180 07:43 02.03.2020
1701 Clouds 11 1009 81 10000 3.6 150 07:20 02.03.2020
1702 Clouds 11 1009 81 10000 3.1 170 06:45 02.03.2020
1703 Clouds 11 1010 81 10000 3.1 180 05:53 02.03.2020
1704 Clouds 11 1010 82 10000 3.6 190 04:25 02.03.2020
1705 Clouds 11 1010 87 10000 3.1 180 03:23 02.03.2020
1706 Clouds 11 1010 82 10000 3.6 170 02:48 02.03.2020
1707 Clouds 12 1010 87 10000 2.6 200 01:49 02.03.2020
1708 Clouds 12 1010 87 10000 3.1 200 01:30 02.03.2020
1709 Clouds 12 1010 87 10000 2.6 220 00:23 02.03.2020
1710 Clouds 12 1010 87 10000 3.6 230 23:57 01.03.2020
1711 Clouds 12 1010 87 10000 4.1 210 23:39 01.03.2020
1712 Clouds 12 1010 87 10000 4.1 210 23:19 01.03.2020
1713 Clouds 12 1009 87 10000 3.6 220 22:43 01.03.2020
1714 Clouds 12 1009 87 10000 4.1 210 22:20 01.03.2020
1715 Clouds 12 1009 93 10000 5.1 200 21:56 01.03.2020
1716 Clouds 12 1009 93 10000 5.1 200 21:38 01.03.2020
1717 Clouds 12 1008 93 10000 4.6 220 21:19 01.03.2020
1718 Clouds 12 1008 93 10000 5.1 200 20:43 01.03.2020
1719 Rain 12 1008 93 7000 5.1 190 20:25 01.03.2020
1720 Rain 12 1008 93 5000 4.1 220 19:55 01.03.2020
1721 Rain 12 1008 93 5000 5.7 190 19:37 01.03.2020
1722 Rain 13 1008 93 5000 5.7 190 19:18 01.03.2020
1723 Rain 13 1008 93 5000 5.1 190 18:40 01.03.2020
1724 Rain 13 1007 93 5000 5.1 190 18:20 01.03.2020
1725 Rain 13 1007 87 2000 5.1 190 17:58 01.03.2020
1726 Rain 13 1007 93 6000 3.1 180 17:40 01.03.2020
1727 Rain 13 1007 93 6000 3.1 180 17:21 01.03.2020
1728 Rain 13 1007 87 4000 5.7 180 16:57 01.03.2020
1729 Rain 13 1007 87 4000 5.7 180 16:39 01.03.2020
1730 Rain 13 1008 82 10000 5.1 160 16:18 01.03.2020
1731 Rain 13 1008 82 10000 5.1 160 16:18 01.03.2020
1732 Rain 14 1008 77 6000 7.2 190 15:57 01.03.2020
1733 Rain 14 1008 77 6000 7.2 190 15:38 01.03.2020
1734 Rain 15 1008 67 10000 5.7 200 15:20 01.03.2020
1735 Clouds 15 1007 72 10000 10.8 170 14:57 01.03.2020
1736 Clouds 15 1007 72 10000 10.8 170 14:38 01.03.2020
1737 Clouds 15 1008 72 10000 6.7 180 14:20 01.03.2020
1738 Clouds 15 1008 72 10000 7.2 170 13:56 01.03.2020
1739 Clouds 15 1009 63 10000 6.2 170 13:37 01.03.2020
1740 Clouds 15 1009 63 10000 6.2 170 13:37 01.03.2020
1741 Clouds 15 1009 63 10000 6.2 170 13:18 01.03.2020
1742 Clouds 15 1009 67 10000 9.3 180 12:42 01.03.2020
1743 Clouds 15 1010 67 10000 7.7 170 12:21 01.03.2020
1744 Clouds 15 1009 63 10000 7.7 180 11:44 01.03.2020
1745 Clouds 15 1011 62 10000 3.1 120 11:26 01.03.2020
1746 Clouds 14 1009 63 10000 9.3 170 10:58 01.03.2020
1747 Clouds 14 1011 58 10000 5.1 120 10:38 01.03.2020
1748 Clouds 14 1011 58 10000 5.1 120 10:20 01.03.2020
1749 Clouds 14 1011 58 10000 5.1 120 10:20 01.03.2020
1750 Clouds 14 1010 71 10000 9.3 160 09:59 01.03.2020
1751 Clouds 14 1010 71 10000 9.3 160 09:41 01.03.2020
1752 Clouds 13 1011 71 10000 4.1 130 09:21 01.03.2020
1753 Clouds 13 1011 67 10000 8.7 160 08:43 01.03.2020
1754 Clouds 13 1012 66 10000 3.1 120 08:25 01.03.2020
1755 Clouds 12 1011 71 10000 6.2 160 07:43 01.03.2020
1756 Clouds 12 1011 66 10000 5.7 150 07:24 01.03.2020
1757 Clouds 12 1011 66 10000 7.7 150 06:58 01.03.2020
1758 Clouds 12 1011 66 10000 7.7 150 06:39 01.03.2020
1759 Clouds 11 1012 76 10000 7.7 160 04:39 01.03.2020
1760 Clouds 11 1013 82 10000 6.7 140 02:58 01.03.2020
1761 Clouds 11 1015 87 10000 7.7 120 02:18 01.03.2020
1762 Clouds 10 1014 87 10000 6.2 120 01:34 01.03.2020
1763 Clouds 10 1015 71 10000 3.6 160 00:48 01.03.2020
1764 Clouds 10 1015 71 10000 4.1 150 00:25 01.03.2020
1765 Clouds 10 1015 71 10000 5.1 160 23:54 29.02.2020
1766 Clouds 10 1015 71 10000 5.7 170 23:35 29.02.2020
1767 Clouds 10 1016 71 10000 4.6 170 22:46 29.02.2020
1768 Clouds 10 1015 66 10000 4.1 160 22:26 29.02.2020
1769 Clouds 10 1015 66 10000 5.1 170 21:57 29.02.2020
1770 Clouds 10 1015 66 10000 5.1 170 21:38 29.02.2020
1771 Clouds 10 1015 71 10000 5.1 160 21:19 29.02.2020
1772 Clouds 10 1016 71 10000 4.1 160 20:41 29.02.2020
1773 Clouds 10 1016 66 10000 4.6 170 20:20 29.02.2020
1774 Clouds 10 1016 66 10000 4.6 170 19:54 29.02.2020
1775 Clouds 11 1016 66 10000 4.1 180 19:36 29.02.2020
1776 Clouds 11 1016 66 10000 4.1 180 19:18 29.02.2020
1777 Clouds 11 1016 58 10000 6.2 170 18:39 29.02.2020
1778 Clouds 12 1016 58 10000 6.2 170 18:19 29.02.2020
1779 Clouds 12 1016 54 10000 6.2 180 17:55 29.02.2020
1780 Clouds 13 1016 54 10000 3.1 190 17:37 29.02.2020
1781 Clouds 13 1016 54 10000 3.1 190 17:19 29.02.2020
1782 Clouds 14 1016 50 10000 6.2 180 16:43 29.02.2020
1783 Clouds 14 1016 47 10000 5.1 160 16:19 29.02.2020
1784 Clouds 14 1017 47 10000 6.7 180 15:56 29.02.2020
1785 Clouds 14 1017 48 10000 5.7 160 15:36 29.02.2020
1786 Clouds 14 1017 48 10000 5.7 160 15:18 29.02.2020
1787 Clouds 14 1018 51 10000 5.1 210 14:39 29.02.2020
1788 Clouds 14 1018 51 10000 5.1 210 14:21 29.02.2020
1789 Clouds 14 1018 51 10000 7.2 190 13:45 29.02.2020
1790 Clouds 14 1018 47 10000 5.1 180 13:26 29.02.2020
1791 Clouds 14 1019 44 10000 6.7 180 12:56 29.02.2020
1792 Clouds 14 1019 44 10000 5.1 160 12:37 29.02.2020
1793 Clouds 14 1019 44 10000 5.1 160 12:19 29.02.2020
1794 Clouds 14 1019 44 10000 7.2 170 11:44 29.02.2020
1795 Clouds 14 1020 54 10000 5.1 180 11:26 29.02.2020
1796 Clouds 12 1019 50 10000 6.2 180 10:51 29.02.2020
1797 Clouds 12 1020 65 10000 1.5 0 10:30 29.02.2020
1798 Rain 12 1019 45 10000 6.2 180 09:52 29.02.2020
1799 Rain 11 1019 45 10000 4.6 180 09:28 29.02.2020
1800 Rain 10 1019 37 10000 4.6 170 08:58 29.02.2020
1801 Clouds 9 1019 43 10000 3.6 170 08:39 29.02.2020
1802 Clouds 8 1019 43 10000 3.6 170 08:20 29.02.2020
1803 Clouds 7 1019 60 10000 1 0 07:47 29.02.2020
1804 Clouds 6 1019 64 10000 1.5 340 07:22 29.02.2020
1805 Clouds 6 1019 64 10000 1.5 0 06:54 29.02.2020
1806 Clouds 6 1020 49 10000 0.5 0 06:28 29.02.2020
1807 Clouds 6 1020 52 10000 0.5 0 05:49 29.02.2020
1808 Clouds 6 1020 56 10000 1.5 0 05:30 29.02.2020
1809 Clouds 6 1020 56 10000 1 0 03:53 29.02.2020
1810 Clouds 6 1020 60 10000 1.5 350 03:23 29.02.2020
1811 Clouds 6 1020 48 10000 1.5 0 02:51 29.02.2020
1812 Clear 7 1020 48 10000 1 0 01:49 29.02.2020
1813 Clear 7 1020 42 10000 1.5 0 00:46 29.02.2020
1814 Clear 8 1020 42 10000 2.1 20 00:26 29.02.2020
1815 Clear 8 1020 36 10000 2.1 30 23:39 28.02.2020
1816 Clear 8 1019 36 10000 1.5 0 23:20 28.02.2020
1817 Clear 8 1019 36 10000 1.5 270 22:42 28.02.2020
1818 Clear 9 1019 34 10000 2.6 60 22:22 28.02.2020
1819 Clear 9 1018 34 10000 2.1 90 21:42 28.02.2020
1820 Clear 9 1018 31 10000 2.6 40 21:21 28.02.2020
1821 Clear 9 1018 29 10000 3.1 60 20:57 28.02.2020
1822 Clear 9 1018 25 10000 2.1 70 20:38 28.02.2020
1823 Clear 10 1018 25 10000 2.1 70 20:20 28.02.2020
1824 Clear 10 1018 25 10000 2.1 350 19:56 28.02.2020
1825 Clear 11 1018 25 10000 2.1 350 19:38 28.02.2020
1826 Clear 11 1017 27 10000 2.6 360 19:19 28.02.2020
1827 Clear 12 1017 26 10000 3.1 10 18:46 28.02.2020
1828 Clear 13 1016 24 10000 4.6 360 18:24 28.02.2020
1829 Clear 14 1016 22 10000 5.7 340 17:56 28.02.2020
1830 Clear 14 1015 21 10000 5.1 340 17:36 28.02.2020
1831 Clear 15 1015 21 10000 5.1 340 17:18 28.02.2020
1832 Clear 16 1015 20 10000 6.2 350 16:38 28.02.2020
1833 Clear 16 1015 20 10000 6.2 350 16:38 28.02.2020
1834 Clear 16 1015 20 10000 6.2 350 16:19 28.02.2020
1835 Clear 16 1014 23 10000 7.2 360 15:56 28.02.2020
1836 Clear 16 1014 23 10000 7.2 360 15:37 28.02.2020
1837 Clear 17 1015 21 10000 4.6 350 15:18 28.02.2020
1838 Clear 16 1014 25 10000 6.7 10 14:45 28.02.2020
1839 Clear 16 1014 23 10000 6.2 10 14:19 28.02.2020
1840 Clear 16 1013 29 10000 9.3 10 13:58 28.02.2020
1841 Clear 16 1013 29 10000 9.3 10 13:40 28.02.2020
1842 Clear 16 1014 29 10000 6.7 10 13:19 28.02.2020
1843 Clear 15 1014 33 10000 7.2 10 12:44 28.02.2020
1844 Clear 15 1014 28 10000 7.7 360 12:26 28.02.2020
1845 Clear 15 1013 30 10000 10.3 20 11:56 28.02.2020
1846 Clear 15 1014 30 10000 6.7 350 11:37 28.02.2020
1847 Clear 14 1014 30 10000 6.7 350 11:19 28.02.2020
1848 Clear 14 1013 43 10000 9.3 10 10:43 28.02.2020
1849 Clear 13 1012 47 10000 8.2 360 10:23 28.02.2020
1850 Clear 13 1013 43 10000 8.2 350 09:47 28.02.2020
1851 Clear 13 1012 66 10000 3.1 350 09:22 28.02.2020
1852 Clear 12 1011 76 10000 4.1 330 08:58 28.02.2020
1853 Clear 12 1011 76 10000 4.1 330 08:40 28.02.2020
1854 Rain 11 1010 93 10000 3.6 290 08:20 28.02.2020
1855 Clouds 11 1010 81 10000 3.1 340 07:42 28.02.2020
1856 Clouds 11 1009 76 10000 4.6 340 07:24 28.02.2020
1857 Clouds 11 1009 87 10000 1.5 270 06:47 28.02.2020
1858 Clouds 11 1009 87 10000 0.5 0 06:26 28.02.2020
1859 Clouds 12 1008 87 10000 2.1 210 04:50 28.02.2020
1860 Clouds 12 1008 82 8000 1.5 220 04:20 28.02.2020
1861 Clouds 11 1008 82 8000 3.6 250 02:47 28.02.2020
1862 Clouds 11 1009 82 8000 3.6 240 02:28 28.02.2020
1863 Rain 10 1009 81 8000 4.1 200 01:26 28.02.2020
1864 Clouds 10 1010 81 10000 5.7 180 00:30 28.02.2020
1865 Rain 10 1010 87 8000 5.1 180 23:42 27.02.2020
1866 Rain 9 1011 81 8000 5.1 180 23:21 27.02.2020
1867 Rain 9 1011 87 8000 4.6 190 22:46 27.02.2020
1868 Rain 10 1011 87 8000 3.1 190 22:27 27.02.2020
1869 Rain 9 1011 81 8000 3.1 190 21:59 27.02.2020
1870 Rain 9 1011 81 8000 3.1 190 21:41 27.02.2020
1871 Rain 9 1012 81 8000 4.1 200 21:19 27.02.2020
1872 Rain 10 1012 66 10000 4.1 210 20:58 27.02.2020
1873 Rain 10 1012 66 10000 4.1 210 20:39 27.02.2020
1874 Clouds 10 1012 62 10000 4.1 180 20:20 27.02.2020
1875 Clouds 10 1012 57 10000 4.6 180 19:56 27.02.2020
1876 Clouds 10 1012 57 10000 4.6 180 19:37 27.02.2020
1877 Clouds 10 1012 57 10000 4.6 180 19:37 27.02.2020
1878 Clouds 10 1012 57 10000 3.6 180 19:18 27.02.2020
1879 Clouds 10 1013 53 10000 4.1 200 18:42 27.02.2020
1880 Clouds 10 1013 53 10000 4.1 200 18:24 27.02.2020
1881 Clouds 10 1013 50 10000 5.1 200 17:58 27.02.2020
1882 Clouds 11 1013 46 10000 6.2 210 17:40 27.02.2020
1883 Clouds 11 1013 46 10000 6.2 210 17:19 27.02.2020
1884 Clouds 11 1014 46 10000 4.6 230 16:57 27.02.2020
1885 Clouds 12 1014 35 10000 3.6 240 16:38 27.02.2020
1886 Clouds 12 1014 35 10000 3.6 240 16:18 27.02.2020
1887 Clouds 12 1014 37 10000 3.6 250 15:56 27.02.2020
1888 Clouds 13 1014 30 10000 4.1 220 15:37 27.02.2020
1889 Clouds 13 1014 30 10000 4.1 220 15:18 27.02.2020
1890 Clouds 13 1014 32 10000 3.6 230 14:42 27.02.2020
1891 Clouds 13 1014 28 10000 5.1 260 14:23 27.02.2020
1892 Clouds 13 1014 28 10000 5.1 260 14:23 27.02.2020
1893 Clouds 13 1014 28 10000 1.5 330 13:57 27.02.2020
1894 Clouds 12 1014 28 10000 1.5 330 13:39 27.02.2020
1895 Clear 13 1015 24 10000 1.76 189 13:20 27.02.2020
1896 Clear 12 1015 25 10000 2.6 360 12:45 27.02.2020
1897 Clear 12 1015 25 10000 2.6 360 12:45 27.02.2020
1898 Clear 12 1015 25 10000 1.5 0 12:23 27.02.2020
1899 Clear 12 1015 34 10000 2.6 50 11:57 27.02.2020
1900 Clear 11 1015 34 10000 2.6 50 11:38 27.02.2020
1901 Clear 11 1015 39 10000 1.5 0 11:20 27.02.2020
1902 Clear 10 1015 52 10000 3.1 10 10:42 27.02.2020
1903 Clear 9 1015 65 10000 1.5 0 10:20 27.02.2020
1904 Clear 7 1014 44 10000 3.6 70 09:46 27.02.2020
1905 Clear 7 1015 80 10000 1.5 0 09:28 27.02.2020
1906 Clear 6 1014 80 10000 1 0 08:56 27.02.2020
1907 Clear 6 1014 80 10000 1 0 08:56 27.02.2020
1908 Clear 6 1014 93 10000 2.6 10 08:38 27.02.2020
1909 Clear 4 1014 93 10000 2.6 10 08:18 27.02.2020
1910 Clear 3 1013 66 10000 1.5 360 07:42 27.02.2020
1911 Clear 3 1012 66 10000 2.1 50 07:24 27.02.2020
1912 Clear 3 1012 66 10000 2.1 360 06:31 27.02.2020
1913 Clear 4 1011 66 10000 1.5 40 05:24 27.02.2020
1914 Clear 5 1009 48 10000 2.6 30 03:21 27.02.2020
1915 Clouds 5 1008 33 10000 3.1 320 02:19 27.02.2020
1916 Clouds 5 1007 70 10000 1.5 200 00:43 27.02.2020
1917 Clouds 5 1006 70 10000 1.5 130 00:22 27.02.2020
1918 Clouds 6 1006 70 10000 2.6 210 23:38 26.02.2020
1919 Clouds 5 1006 70 10000 2.1 240 23:18 26.02.2020
1920 Clouds 6 1006 70 10000 2.1 240 22:56 26.02.2020
1921 Rain 6 1005 65 10000 4.6 320 22:38 26.02.2020
1922 Rain 6 1005 65 10000 4.6 320 22:19 26.02.2020
1923 Clouds 6 1006 70 10000 6.2 360 21:40 26.02.2020
1924 Clouds 6 1005 70 10000 2.1 0 21:20 26.02.2020
1925 Clouds 6 1004 75 10000 1.5 350 20:57 26.02.2020
1926 Rain 6 1004 81 10000 1.5 0 20:38 26.02.2020
1927 Rain 6 1004 81 10000 1.5 0 20:19 26.02.2020
1928 Rain 6 1005 87 6000 6.7 330 19:57 26.02.2020
1929 Rain 7 1005 65 10000 12.9 320 19:38 26.02.2020
1930 Rain 7 1005 65 10000 12.9 320 19:19 26.02.2020
1931 Thunderstorm 9 1004 57 10000 9.8 310 18:57 26.02.2020
1932 Thunderstorm 9 1004 57 10000 9.8 310 18:37 26.02.2020
1933 Clouds 11 1001 58 10000 6.7 260 18:19 26.02.2020
1934 Clouds 13 1002 54 10000 6.2 260 17:41 26.02.2020
1935 Clouds 14 1001 47 10000 5.1 260 17:20 26.02.2020
1936 Clouds 14 1002 54 10000 5.1 260 16:57 26.02.2020
1937 Clouds 14 1002 54 10000 5.1 260 16:38 26.02.2020
1938 Clouds 15 1002 41 10000 6.2 250 16:20 26.02.2020
1939 Clouds 15 1003 51 10000 4.6 270 15:45 26.02.2020
1940 Clouds 15 1003 33 10000 6.7 260 15:27 26.02.2020
1941 Clouds 15 1003 48 10000 5.7 280 14:55 26.02.2020
1942 Clouds 15 1003 36 10000 5.7 250 14:37 26.02.2020
1943 Clouds 15 1003 36 10000 5.7 250 14:18 26.02.2020
1944 Clouds 15 1003 59 10000 4.6 240 13:41 26.02.2020
1945 Clouds 15 1003 59 10000 4.6 240 13:19 26.02.2020
1946 Clouds 14 1004 67 10000 5.7 210 12:39 26.02.2020
1947 Rain 14 1004 67 10000 4.6 200 12:19 26.02.2020
1948 Clouds 14 1004 67 10000 3.6 220 11:56 26.02.2020
1949 Clouds 14 1004 72 8000 2.1 190 11:37 26.02.2020
1950 Clouds 14 1004 72 8000 2.1 190 11:19 26.02.2020
1951 Clouds 14 1005 76 8000 3.6 200 10:41 26.02.2020
1952 Clouds 13 1005 82 8000 2.6 160 10:22 26.02.2020
1953 Clouds 13 1005 87 8000 3.6 190 09:56 26.02.2020
1954 Clouds 13 1005 87 8000 3.6 190 09:38 26.02.2020
1955 Clouds 12 1005 76 8000 2.6 170 09:18 26.02.2020
1956 Clouds 12 1005 82 10000 4.1 180 08:38 26.02.2020
1957 Clouds 11 1005 82 8000 3.6 160 08:19 26.02.2020
1958 Clouds 11 1005 87 10000 4.1 180 07:50 26.02.2020
1959 Clouds 10 1005 87 10000 4.1 180 07:29 26.02.2020
1960 Clouds 10 1005 81 10000 4.1 170 06:54 26.02.2020
1961 Clouds 10 1006 81 10000 3.1 180 06:36 26.02.2020
1962 Clouds 10 1006 81 10000 3.1 180 06:18 26.02.2020
1963 Clouds 10 1006 81 10000 4.1 180 05:43 26.02.2020
1964 Rain 10 1006 76 10000 5.1 170 04:49 26.02.2020
1965 Clouds 10 1007 87 10000 5.7 140 02:51 26.02.2020
1966 Clouds 9 1008 87 10000 3.6 150 01:49 26.02.2020
1967 Clouds 9 1009 76 10000 4.1 210 00:51 26.02.2020
1968 Clouds 10 1009 76 10000 4.1 190 00:27 26.02.2020
1969 Clouds 10 1009 76 10000 4.1 190 00:27 26.02.2020
1970 Clouds 10 1009 76 10000 5.7 170 23:57 25.02.2020
1971 Clouds 9 1009 76 10000 6.2 170 23:38 25.02.2020
1972 Clouds 9 1009 76 10000 6.2 170 23:20 25.02.2020
1973 Clouds 10 1010 81 10000 5.1 170 22:42 25.02.2020
1974 Clouds 10 1010 76 10000 4.6 190 22:20 25.02.2020
1975 Clouds 10 1010 76 10000 4.6 180 21:58 25.02.2020
1976 Clouds 10 1011 76 10000 4.6 190 21:37 25.02.2020
1977 Clouds 10 1011 76 10000 4.6 190 21:18 25.02.2020
1978 Clouds 10 1011 76 10000 3.6 190 20:55 25.02.2020
1979 Clouds 10 1011 76 10000 4.6 190 20:36 25.02.2020
1980 Clouds 11 1011 76 10000 4.6 190 20:18 25.02.2020
1981 Clouds 12 1011 76 10000 5.7 190 19:42 25.02.2020
1982 Clouds 11 1011 76 10000 5.7 190 19:20 25.02.2020
1983 Clouds 12 1011 82 10000 6.2 190 18:58 25.02.2020
1984 Clouds 12 1011 82 10000 6.2 190 18:38 25.02.2020
1985 Clouds 12 1011 71 10000 5.7 190 18:19 25.02.2020
1986 Clouds 13 1011 62 10000 6.2 180 17:39 25.02.2020
1987 Clouds 13 1011 62 10000 6.2 180 17:39 25.02.2020
1988 Clear 15 1012 59 10000 3.6 180 17:20 25.02.2020
1989 Clear 15 1012 63 10000 6.2 180 16:59 25.02.2020
1990 Clear 15 1012 63 10000 6.2 180 16:41 25.02.2020
1991 Clear 16 1012 55 10000 4.1 180 16:22 25.02.2020
1992 Clear 16 1012 55 10000 4.1 180 16:22 25.02.2020
1993 Clouds 16 1013 63 10000 7.2 190 15:59 25.02.2020
1994 Clouds 16 1013 63 10000 7.2 190 15:59 25.02.2020
1995 Clouds 16 1013 63 10000 7.2 190 15:41 25.02.2020
1996 Clear 16 1013 52 10000 5.1 210 15:20 25.02.2020
1997 Clouds 16 1013 55 10000 7.2 190 14:58 25.02.2020
1998 Clouds 16 1013 55 10000 7.2 190 14:38 25.02.2020
1999 Clouds 16 1014 59 10000 5.1 160 14:18 25.02.2020
2000 Clouds 16 1014 59 10000 6.2 180 13:56 25.02.2020
2001 Clouds 16 1014 59 10000 6.2 180 13:38 25.02.2020
2002 Clouds 16 1015 55 10000 4.1 170 13:19 25.02.2020
2003 Clouds 15 1015 59 10000 4.6 180 12:42 25.02.2020
2004 Clouds 15 1016 63 10000 3.1 170 12:22 25.02.2020
2005 Clouds 15 1016 59 10000 6.2 170 11:58 25.02.2020
2006 Clouds 15 1016 59 10000 6.2 170 11:39 25.02.2020
2007 Clouds 15 1017 67 10000 3.6 170 11:19 25.02.2020
2008 Clouds 14 1017 71 10000 5.1 180 10:59 25.02.2020
2009 Clouds 14 1017 71 10000 5.1 180 10:40 25.02.2020
2010 Clouds 14 1017 72 10000 4.1 170 10:21 25.02.2020
2011 Clouds 13 1017 82 10000 4.6 170 09:41 25.02.2020
2012 Clouds 13 1017 87 10000 2.1 150 09:22 25.02.2020
2013 Clouds 12 1017 82 10000 3.1 190 08:47 25.02.2020
2014 Clouds 11 1017 93 8000 0.5 0 08:28 25.02.2020
2015 Clouds 11 1017 87 10000 3.1 180 07:58 25.02.2020
2016 Clouds 10 1017 87 10000 3.1 180 07:39 25.02.2020
2017 Clouds 10 1017 87 10000 3.6 200 07:18 25.02.2020
2018 Clouds 10 1017 93 10000 2.6 170 06:32 25.02.2020
2019 Clouds 10 1018 93 10000 3.1 200 05:27 25.02.2020
2020 Clouds 11 1019 87 10000 2.6 180 03:30 25.02.2020
2021 Clouds 12 1020 82 10000 1 0 01:32 25.02.2020
2022 Clouds 12 1020 82 10000 0.5 0 00:43 25.02.2020
2023 Clouds 12 1020 82 10000 1 0 00:25 25.02.2020
2024 Clouds 12 1020 87 10000 2.6 190 23:42 24.02.2020
2025 Clouds 12 1020 82 10000 3.6 200 23:20 24.02.2020
2026 Clouds 12 1020 82 10000 2.6 190 22:41 24.02.2020
2027 Clouds 12 1020 82 10000 3.1 180 22:20 24.02.2020
2028 Clouds 12 1020 82 10000 3.1 170 21:57 24.02.2020
2029 Clouds 12 1020 82 10000 3.1 170 21:39 24.02.2020
2030 Clouds 12 1020 87 10000 3.6 180 21:19 24.02.2020
2031 Clouds 11 1020 87 10000 4.1 190 20:58 24.02.2020
2032 Clouds 11 1020 87 10000 4.1 190 20:39 24.02.2020
2033 Clear 12 1020 87 10000 4.6 200 20:19 24.02.2020
2034 Clear 12 1020 87 10000 5.1 200 19:56 24.02.2020
2035 Clear 12 1020 87 10000 5.7 210 19:38 24.02.2020
2036 Clear 12 1020 87 10000 5.7 210 19:19 24.02.2020
2037 Clear 13 1020 82 10000 4.1 210 18:42 24.02.2020
2038 Clear 13 1020 82 10000 4.1 210 18:42 24.02.2020
2039 Clear 13 1020 76 10000 4.1 220 18:24 24.02.2020
2040 Clear 14 1020 72 10000 3.6 220 17:58 24.02.2020
2041 Clear 15 1020 63 10000 2.6 230 17:39 24.02.2020
2042 Clear 15 1020 63 10000 2.6 230 17:20 24.02.2020
2043 Clear 16 1020 67 10000 4.1 220 16:57 24.02.2020
2044 Clear 16 1020 59 10000 4.1 220 16:38 24.02.2020
2045 Clear 16 1020 59 10000 4.1 220 16:20 24.02.2020
2046 Clear 17 1021 67 10000 4.1 200 15:57 24.02.2020
2047 Clear 17 1021 67 10000 4.1 200 15:38 24.02.2020
2048 Clear 17 1020 48 10000 0.5 0 15:20 24.02.2020
2049 Clouds 17 1021 67 10000 3.6 220 14:55 24.02.2020
2050 Clear 17 1021 52 10000 1.5 0 14:36 24.02.2020
2051 Clouds 17 1021 52 10000 1.5 0 14:18 24.02.2020
2052 Clouds 16 1021 67 10000 3.1 190 13:41 24.02.2020
2053 Clouds 16 1022 55 10000 1 0 13:23 24.02.2020
2054 Clouds 16 1022 67 10000 3.1 230 12:59 24.02.2020
2055 Clouds 16 1022 67 10000 3.1 230 12:41 24.02.2020
2056 Clouds 16 1023 63 10000 1 0 12:23 24.02.2020
2057 Clouds 15 1022 72 10000 2.1 220 11:50 24.02.2020
2058 Clouds 15 1023 71 10000 2.1 10 11:31 24.02.2020
2059 Clouds 14 1023 71 10000 2.6 50 10:54 24.02.2020
2060 Clouds 14 1024 71 10000 0.5 0 10:36 24.02.2020
2061 Clouds 13 1024 71 10000 0.5 0 10:18 24.02.2020
2062 Clouds 13 1023 76 10000 3.1 50 09:40 24.02.2020
2063 Clouds 12 1024 81 10000 1.5 0 09:19 24.02.2020
2064 Clouds 12 1024 81 10000 1.5 0 09:19 24.02.2020
2065 Clouds 11 1023 81 10000 2.1 60 08:48 24.02.2020
2066 Clouds 10 1024 93 10000 1 0 08:28 24.02.2020
2067 Clouds 9 1023 81 10000 2.1 100 07:54 24.02.2020
2068 Clouds 9 1023 81 10000 1 0 07:32 24.02.2020
2069 Clouds 9 1023 87 10000 1 0 06:49 24.02.2020
2070 Clouds 9 1023 87 10000 1.5 250 06:22 24.02.2020
2071 Clouds 9 1023 87 10000 1.5 240 05:41 24.02.2020
2072 Clouds 10 1024 81 10000 1.5 220 05:23 24.02.2020
2073 Clouds 10 1025 81 10000 2.1 210 02:57 24.02.2020
2074 Clouds 10 1025 81 10000 2.1 180 01:53 24.02.2020
2075 Clouds 10 1025 81 10000 2.6 190 01:28 24.02.2020
2076 Clouds 10 1025 81 10000 2.6 190 01:28 24.02.2020
2077 Clouds 10 1026 81 10000 2.6 190 00:38 24.02.2020
2078 Clouds 10 1026 82 10000 2.1 180 00:19 24.02.2020
2079 Clouds 11 1026 82 10000 2.6 190 23:42 23.02.2020
2080 Clouds 11 1026 82 10000 2.6 190 23:22 23.02.2020
2081 Clouds 10 1026 87 10000 2.6 170 22:58 23.02.2020
2082 Clouds 11 1026 87 10000 2.6 170 22:40 23.02.2020
2083 Clouds 10 1027 87 10000 2.1 170 22:20 23.02.2020
2084 Clouds 11 1027 87 10000 2.6 170 21:46 23.02.2020
2085 Clouds 11 1027 87 10000 2.1 160 21:20 23.02.2020
2086 Clouds 11 1027 87 10000 3.1 190 20:57 23.02.2020
2087 Clouds 11 1027 87 10000 3.1 190 20:39 23.02.2020
2088 -273 0 0 0 0 0 20:21 23.02.2020
2089 Clear 11 1028 81 10000 2.1 180 19:59 23.02.2020
2090 Clear 11 1028 81 10000 2.1 180 19:40 23.02.2020
2091 Clear 11 1028 81 10000 2.6 170 19:19 23.02.2020
2092 Clear 11 1028 81 10000 2.6 200 18:58 23.02.2020
2093 Clear 11 1028 71 10000 2.1 220 18:37 23.02.2020
2094 Clear 12 1028 71 10000 2.1 220 18:19 23.02.2020
2095 Clear 12 1028 71 10000 2.6 250 17:57 23.02.2020
2096 Clear 13 1028 71 10000 2.6 250 17:39 23.02.2020
2097 Clear 14 1028 62 10000 3.1 240 17:20 23.02.2020
2098 Clear 14 1028 71 10000 3.6 270 16:46 23.02.2020
2099 Clear 14 1028 62 10000 3.6 240 16:28 23.02.2020
2100 Clear 15 1028 58 10000 4.1 280 15:59 23.02.2020
2101 Clear 15 1028 51 10000 4.1 270 15:39 23.02.2020
2102 Clear 16 1028 51 10000 4.1 270 15:20 23.02.2020
2103 Clear 16 1029 55 10000 3.6 280 14:58 23.02.2020
2104 Clear 16 1029 55 10000 3.6 280 14:58 23.02.2020
2105 Clear 16 1029 55 10000 3.6 280 14:40 23.02.2020
2106 Clouds 16 1029 45 10000 1.5 0 14:21 23.02.2020
2107 Clouds 16 1029 45 10000 1.5 0 14:21 23.02.2020
2108 Clouds 16 1029 51 10000 1 0 13:57 23.02.2020
2109 Clouds 16 1030 55 10000 1.5 0 13:38 23.02.2020
2110 Clear 16 1030 55 10000 1.5 0 13:20 23.02.2020
2111 Clear 15 1030 58 10000 1.5 0 12:42 23.02.2020
2112 Clouds 15 1031 67 8000 0.5 0 12:22 23.02.2020
2113 Clear 15 1031 71 10000 1.5 290 11:56 23.02.2020
2114 Clear 14 1031 66 10000 0.5 0 11:37 23.02.2020
2115 Clear 13 1031 66 10000 0.5 0 11:18 23.02.2020
2116 Clear 13 1031 76 10000 1.5 360 10:42 23.02.2020
2117 Clear 12 1031 81 10000 2.6 360 10:24 23.02.2020
2118 Clear 11 1031 93 10000 2.1 350 10:00 23.02.2020
2119 Clear 11 1031 93 10000 2.1 350 09:39 23.02.2020
2120 Clouds 10 1031 100 8000 1 60 09:21 23.02.2020
2121 Clouds 9 1031 93 6000 2.1 40 08:51 23.02.2020
2122 Fog 8 1030 100 6000 1 30 08:30 23.02.2020
2123 Fog 6 1030 100 6000 2.1 60 07:58 23.02.2020
2124 Fog 6 1030 100 6000 2.1 60 07:39 23.02.2020
2125 Clouds 6 1030 100 10000 1 40 06:39 23.02.2020
2126 Clouds 6 1030 100 10000 1 70 05:48 23.02.2020
2127 Clouds 7 1030 93 10000 1 20 04:36 23.02.2020
2128 Clouds 6 1031 93 10000 1.5 50 03:21 23.02.2020
2129 Clouds 7 1032 100 10000 1.5 90 02:26 23.02.2020
2130 Clouds 7 1032 100 10000 1 170 01:24 23.02.2020
2131 Clouds 8 1032 93 10000 1 200 00:47 23.02.2020
2132 Clouds 8 1032 93 10000 0.5 0 00:25 23.02.2020
2133 Clouds 8 1032 93 10000 1.5 210 23:45 22.02.2020
2134 Clouds 8 1032 93 10000 1.5 200 23:27 22.02.2020
2135 Clear 8 1032 93 10000 1.5 210 22:57 22.02.2020
2136 Clear 8 1032 93 10000 1.5 210 22:38 22.02.2020
2137 Clear 9 1031 93 10000 2.1 190 22:18 22.02.2020
2138 Clear 9 1032 100 10000 0.5 60 21:40 22.02.2020
2139 Clouds 9 1031 93 10000 2.1 20 21:22 22.02.2020
2140 Clear 9 1032 87 10000 1 0 20:46 22.02.2020
2141 Clear 10 1031 81 10000 1.5 160 20:24 22.02.2020
2142 Clear 11 1031 81 10000 1.5 190 19:56 22.02.2020
2143 Clear 11 1031 81 10000 1.5 190 19:37 22.02.2020
2144 Clear 11 1031 81 10000 3.1 310 19:18 22.02.2020
2145 Clear 11 1031 76 10000 1.5 290 18:39 22.02.2020
2146 Clear 12 1030 71 10000 2.6 270 18:21 22.02.2020
2147 Clear 13 1030 62 10000 2.6 310 17:57 22.02.2020
2148 Clear 13 1030 58 10000 4.1 260 17:39 22.02.2020
2149 Clear 14 1030 58 10000 4.1 260 17:21 22.02.2020
2150 Clear 15 1030 54 10000 3.6 290 16:57 22.02.2020
2151 Clear 15 1030 51 10000 4.1 270 16:38 22.02.2020
2152 Clear 15 1030 51 10000 4.1 270 16:19 22.02.2020
2153 Clear 15 1030 51 10000 3.6 290 15:43 22.02.2020
2154 Clear 16 1030 45 10000 2.6 220 15:24 22.02.2020
2155 Clouds 16 1030 44 10000 2.6 300 14:43 22.02.2020
2156 Clear 16 1031 45 10000 2.6 310 14:23 22.02.2020
2157 Clouds 15 1031 47 10000 2.6 340 13:58 22.02.2020
2158 Clouds 15 1032 44 10000 1 0 13:40 22.02.2020
2159 Clouds 15 1032 44 10000 1 0 13:18 22.02.2020
2160 Clouds 15 1031 47 10000 1.5 0 12:42 22.02.2020
2161 Clouds 15 1032 41 10000 1.55 300 12:23 22.02.2020
2162 Clouds 15 1031 47 10000 1.5 40 11:47 22.02.2020
2163 Clouds 14 1032 58 10000 1.5 0 11:28 22.02.2020
2164 Clouds 13 1031 62 10000 2.1 30 10:57 22.02.2020
2165 Clouds 12 1032 76 10000 1 0 10:39 22.02.2020
2166 Clouds 12 1032 76 10000 1 0 10:19 22.02.2020
2167 Clouds 12 1032 76 10000 1 0 10:19 22.02.2020
2168 Clouds 11 1031 81 10000 1.5 20 09:57 22.02.2020
2169 Clouds 11 1030 81 10000 1 0 09:38 22.02.2020
2170 Clouds 9 1031 93 10000 2.1 350 09:20 22.02.2020
2171 Clouds 9 1030 81 10000 1.5 40 08:46 22.02.2020
2172 Clouds 7 1030 100 10000 1.5 0 08:27 22.02.2020
2173 Clouds 7 1030 100 10000 1.5 0 08:27 22.02.2020
2174 Clouds 5 1028 86 10000 1 0 07:48 22.02.2020
2175 Clouds 5 1028 93 10000 1 0 07:19 22.02.2020
2176 Clouds 6 1028 87 10000 2.1 60 06:47 22.02.2020
2177 Clouds 5 1027 86 10000 1.5 50 06:28 22.02.2020
2178 Clouds 5 1027 86 10000 1.5 60 04:33 22.02.2020
2179 Clouds 5 1026 86 10000 2.1 30 03:21 22.02.2020
2180 Clouds 6 1026 87 10000 1 0 02:28 22.02.2020
2181 Clouds 6 1026 81 10000 1.5 150 01:43 22.02.2020
2182 Clouds 6 1026 81 10000 2.1 150 01:24 22.02.2020
2183 Clouds 7 1026 87 10000 2.6 150 00:43 22.02.2020
2184 Clouds 7 1026 81 10000 2.1 150 00:24 22.02.2020
2185 Clear 6 1025 100 10000 1 60 23:45 21.02.2020
2186 Clear 6 1025 100 10000 1 60 23:21 21.02.2020
2187 Clear 7 1025 100 10000 1 50 22:45 21.02.2020
2188 Clear 7 1025 100 10000 1 50 22:27 21.02.2020
2189 Clear 7 1024 100 10000 2.1 30 21:59 21.02.2020
2190 Clear 8 1024 100 10000 2.1 30 21:40 21.02.2020
2191 Clear 8 1024 100 10000 2.1 30 21:22 21.02.2020
2192 Clear 8 1024 76 10000 1.5 170 20:48 21.02.2020
2193 Clouds 9 1024 76 10000 1.5 170 20:29 21.02.2020
2194 Clear 10 1024 76 10000 1.5 190 19:42 21.02.2020
2195 Clear 10 1024 71 10000 1 220 19:23 21.02.2020
2196 Clear 10 1024 71 10000 1 0 18:56 21.02.2020
2197 Clear 11 1024 66 10000 2.6 280 18:38 21.02.2020
2198 Clear 12 1024 66 10000 2.6 280 18:19 21.02.2020
2199 Clouds 13 1023 66 10000 3.6 300 17:40 21.02.2020
2200 Clear 14 1023 54 10000 2.6 270 17:21 21.02.2020
2201 Clear 14 1023 54 10000 3.6 290 16:57 21.02.2020
2202 Clear 15 1023 54 10000 3.6 290 16:39 21.02.2020
2203 Clouds 15 1023 51 10000 3.6 280 16:20 21.02.2020
2204 Clouds 15 1023 44 10000 2.1 300 15:45 21.02.2020
2205 Clear 15 1023 41 10000 1.5 0 15:19 21.02.2020
2206 Clear 15 1023 41 10000 1.5 350 14:57 21.02.2020
2207 Clear 15 1023 41 10000 1.5 350 14:39 21.02.2020
2208 Clear 16 1024 41 10000 2.1 20 14:19 21.02.2020
2209 Clouds 15 1024 41 10000 1 0 13:42 21.02.2020
2210 Clear 15 1024 47 10000 2.6 340 13:42 21.02.2020
2211 Clouds 15 1024 41 10000 1 0 13:23 21.02.2020
2212 Clear 14 1024 41 10000 2.1 340 12:54 21.02.2020
2213 Clear 15 1025 44 10000 0.88 284 12:36 21.02.2020
2214 Clear 14 1025 44 10000 0.88 284 12:18 21.02.2020
2215 Clear 13 1025 47 10000 1 0 11:40 21.02.2020
2216 Clear 12 1020 50 10000 1.17 49 11:21 21.02.2020
2217 Clear 11 1025 62 10000 1.5 20 10:56 21.02.2020
2218 Clear 11 1025 62 10000 1.5 20 10:38 21.02.2020
2219 Clear 11 1025 62 10000 1.5 20 10:38 21.02.2020
2220 Clear 10 1025 65 10000 0.5 0 10:19 21.02.2020
2221 Clear 9 1025 65 10000 2.1 40 09:43 21.02.2020
2222 Clear 8 1025 80 10000 1.5 0 09:25 21.02.2020
2223 Clear 7 1025 50 10000 2.6 20 08:58 21.02.2020
2224 Clear 6 1025 50 10000 1 0 08:40 21.02.2020
2225 Clear 5 1025 66 10000 1 0 08:21 21.02.2020
2226 Clear 4 1023 74 10000 1 40 07:57 21.02.2020
2227 Clear 4 1023 74 10000 1 40 07:39 21.02.2020
2228 Clear 3 1023 74 10000 1.5 60 07:18 21.02.2020
2229 Clear 4 1023 74 10000 0.5 0 06:42 21.02.2020
2230 Clear 4 1023 74 10000 0.5 0 06:24 21.02.2020
2231 Clear 4 1023 69 10000 0.5 0 05:42 21.02.2020
2232 Clear 4 1023 69 10000 1 0 04:32 21.02.2020
2233 Clear 5 1024 65 10000 0.5 0 03:57 21.02.2020
2234 Clear 5 1024 65 10000 0.5 0 03:22 21.02.2020
2235 Clear 5 1024 69 10000 1 0 01:50 21.02.2020
2236 Clear 5 1024 56 10000 1.5 160 01:23 21.02.2020
2237 Clear 6 1024 52 10000 0.5 0 00:41 21.02.2020
2238 Clear 6 1024 52 10000 1.5 170 00:21 21.02.2020
2239 Clear 6 1024 56 10000 1 0 23:43 20.02.2020
2240 Clear 6 1024 56 10000 1 0 23:43 20.02.2020
2241 Clear 6 1024 52 10000 1 150 23:22 20.02.2020
2242 Clear 6 1024 52 10000 1 150 23:22 20.02.2020
2243 Clear 6 1024 49 10000 1.5 160 22:56 20.02.2020
2244 Clear 7 1023 52 10000 0.5 0 22:37 20.02.2020
2245 Clear 7 1023 52 10000 0.5 0 22:18 20.02.2020
2246 Clear 7 1024 70 10000 0.5 0 21:55 20.02.2020
2247 Clear 7 1023 81 10000 2.6 360 21:36 20.02.2020
2248 Clear 7 1023 81 10000 2.6 360 21:18 20.02.2020
2249 Clear 8 1023 43 10000 1 0 20:54 20.02.2020
2250 Clear 8 1023 43 10000 1 0 20:54 20.02.2020
2251 Clear 8 1023 46 10000 1 0 20:36 20.02.2020
2252 Clear 9 1023 46 10000 1 0 20:18 20.02.2020
2253 Clear 9 1023 46 10000 1 0 20:18 20.02.2020
2254 Clear 9 1023 37 10000 1.5 20 19:42 20.02.2020
2255 Clear 10 1023 64 10000 0.5 0 19:24 20.02.2020
2256 Clear 11 1023 64 10000 1 0 18:59 20.02.2020
2257 Clear 11 1023 64 10000 1 0 18:38 20.02.2020
2258 Clear 11 1022 41 10000 1.5 320 18:19 20.02.2020
2259 Clear 13 1022 29 10000 3.6 360 17:40 20.02.2020
2260 Clear 14 1022 29 10000 3.6 360 17:22 20.02.2020
2261 Clear 14 1022 38 10000 4.6 290 16:58 20.02.2020
2262 Clear 14 1022 21 10000 3.6 320 16:39 20.02.2020
2263 Clear 15 1022 21 10000 3.6 320 16:19 20.02.2020
2264 Clear 15 1022 29 10000 3.1 340 15:57 20.02.2020
2265 Clear 15 1022 29 10000 3.1 340 15:39 20.02.2020
2266 Clear 15 1022 27 10000 2.6 330 15:20 20.02.2020
2267 Clear 15 1022 30 10000 3.1 350 14:54 20.02.2020
2268 Clear 15 1022 29 10000 2.1 20 14:36 20.02.2020
2269 Clear 15 1022 29 10000 2.1 20 14:36 20.02.2020
2270 Clear 15 1022 29 10000 2.1 20 14:18 20.02.2020
2271 Clear 15 1022 39 10000 3.1 20 13:42 20.02.2020
2272 Clear 15 1023 37 10000 3.1 340 13:19 20.02.2020
2273 Clear 14 1022 47 10000 4.1 30 12:43 20.02.2020
2274 Clear 14 1023 33 10000 3.1 20 12:22 20.02.2020
2275 Clear 13 1023 66 10000 4.1 40 11:59 20.02.2020
2276 Clear 13 1023 66 10000 4.1 40 11:41 20.02.2020
2277 Clear 13 1023 66 10000 4.1 40 11:41 20.02.2020
2278 Clear 12 1023 46 10000 4.6 20 11:22 20.02.2020
2279 Clear 11 1023 76 10000 3.6 70 10:57 20.02.2020
2280 Clear 11 1023 66 10000 1.5 0 10:38 20.02.2020
2281 Clear 11 1023 66 10000 1.5 0 10:20 20.02.2020
2282 Clear 9 1023 81 10000 4.6 40 09:44 20.02.2020
2283 Clear 9 1023 87 10000 3.1 10 09:24 20.02.2020
2284 Clear 8 1022 93 10000 2.6 40 08:57 20.02.2020
2285 Clear 8 1022 93 10000 2.6 40 08:57 20.02.2020
2286 Clear 8 1022 93 10000 2.6 40 08:37 20.02.2020
2287 Clouds 6 1022 100 6000 0.5 0 08:19 20.02.2020
2288 Clouds 6 1021 100 8000 3.1 40 07:44 20.02.2020
2289 Clouds 6 1021 100 8000 3.1 40 07:44 20.02.2020
2290 Clouds 5 1021 100 8000 2.6 70 07:20 20.02.2020
2291 Clear 5 1021 100 10000 2.1 20 06:44 20.02.2020
2292 Clear 5 1021 93 10000 2.6 60 06:25 20.02.2020
2293 Clear 5 1020 93 10000 3.6 60 05:44 20.02.2020
2294 Clear 6 1020 100 10000 1.5 60 04:50 20.02.2020
2295 Clear 5 1020 100 10000 2.6 40 03:57 20.02.2020
2296 Clear 5 1020 100 10000 5.1 30 03:20 20.02.2020
2297 Clear 6 1020 93 10000 2.6 70 01:52 20.02.2020
2298 Clear 6 1020 93 10000 1 90 00:56 20.02.2020
2299 Clear 6 1020 100 10000 1 0 00:26 20.02.2020
2300 Clear 6 1020 100 10000 1 0 23:49 19.02.2020
2301 Clear 6 1020 93 10000 0.5 0 23:22 19.02.2020
2302 Clear 7 1020 100 10000 1 0 22:44 19.02.2020
2303 Clear 7 1020 100 10000 1 0 22:26 19.02.2020
2304 Clouds 7 1020 93 10000 1.5 60 21:59 19.02.2020
2305 Clouds 7 1020 93 10000 1.5 60 21:40 19.02.2020
2306 Clouds 7 1019 93 10000 1 80 21:19 19.02.2020
2307 Clear 8 1019 93 10000 1 40 20:58 19.02.2020
2308 Clear 8 1019 93 10000 1 0 20:39 19.02.2020
2309 Rain 8 1019 93 10000 1 0 20:20 19.02.2020
2310 Rain 9 1019 93 10000 1.5 20 19:58 19.02.2020
2311 Rain 9 1019 93 10000 1.5 20 19:38 19.02.2020
2312 Rain 9 1018 93 10000 1.5 330 19:20 19.02.2020
2313 Rain 9 1018 93 10000 1.5 30 18:58 19.02.2020
2314 Rain 9 1018 93 10000 1.5 30 18:40 19.02.2020
2315 Clouds 9 1018 87 10000 2.1 50 18:21 19.02.2020
2316 Clouds 10 1018 87 10000 1.5 30 17:56 19.02.2020
2317 Rain 10 1018 81 8000 5.7 340 17:38 19.02.2020
2318 Rain 11 1018 81 8000 5.7 340 17:18 19.02.2020
2319 Thunderstorm 12 1018 87 10000 5.1 310 16:42 19.02.2020
2320 Thunderstorm 12 1017 76 6000 5.1 250 16:19 19.02.2020
2321 Thunderstorm 13 1018 62 10000 5.1 240 15:56 19.02.2020
2322 Thunderstorm 13 1018 62 10000 5.1 240 15:37 19.02.2020
2323 Clouds 13 1018 67 10000 5.1 230 15:19 19.02.2020
2324 Clouds 13 1018 62 8000 5.1 220 14:41 19.02.2020
2325 Mist 13 1021 76 2500 3.6 250 14:22 19.02.2020
2326 Clouds 13 1020 76 10000 4.6 270 13:43 19.02.2020
2327 Mist 13 1021 87 2500 0.5 0 13:23 19.02.2020
2328 Clouds 13 1021 82 10000 1.5 320 12:58 19.02.2020
2329 Mist 13 1022 93 2500 1.5 0 12:37 19.02.2020
2330 Mist 13 1022 93 2500 1.5 0 12:18 19.02.2020
2331 Clouds 12 1021 82 10000 1 0 11:39 19.02.2020
2332 Mist 12 1022 100 2000 2.1 50 11:20 19.02.2020
2333 Mist 11 1022 100 2000 1.5 0 10:59 19.02.2020
2334 Mist 11 1022 100 2000 1.5 0 10:39 19.02.2020
2335 Fog 10 1022 100 300 2.6 10 10:20 19.02.2020
2336 Mist 10 1022 100 3500 2.1 100 09:59 19.02.2020
2337 Mist 10 1022 100 3500 2.1 100 09:39 19.02.2020
2338 Fog 9 1022 100 500 2.1 10 09:20 19.02.2020
2339 Fog 9 1022 100 400 1.5 40 08:48 19.02.2020
2340 Fog 8 1022 100 200 2.1 360 08:24 19.02.2020
2341 Fog 7 1021 100 500 0.5 0 07:57 19.02.2020
2342 Fog 7 1021 100 500 0.5 0 07:38 19.02.2020
2343 Fog 7 1021 100 900 1 0 07:18 19.02.2020
2344 Fog 7 1021 100 900 1 0 07:18 19.02.2020
2345 Mist 7 1022 100 4000 1 0 06:42 19.02.2020
2346 Fog 7 1021 87 300 2.1 40 05:26 19.02.2020
2347 Clouds 7 1022 93 6000 1.5 70 03:52 19.02.2020
2348 Clear 7 1022 93 10000 1 70 02:36 19.02.2020
2349 Clouds 8 1022 87 10000 0.5 0 01:41 19.02.2020
2350 Clouds 8 1023 87 9000 1 160 01:22 19.02.2020
2351 Clouds 8 1023 87 9000 1 160 00:39 19.02.2020
2352 Clouds 9 1023 87 9000 1 0 00:19 19.02.2020
2353 Clouds 9 1023 87 9000 2.1 150 23:39 18.02.2020
2354 Clouds 10 1023 87 7000 1 160 23:19 18.02.2020
2355 Clouds 10 1023 87 7000 2.1 120 22:55 18.02.2020
2356 Clouds 10 1023 93 8000 0.5 0 22:36 18.02.2020
2357 Clouds 10 1023 93 8000 0.5 0 22:18 18.02.2020
2358 Clouds 10 1023 93 8000 0.5 0 21:39 18.02.2020
2359 Clouds 10 1023 93 8000 0.5 0 21:21 18.02.2020
2360 Clouds 11 1023 93 8000 1.5 220 21:00 18.02.2020
2361 Clouds 10 1022 93 8000 2.1 220 20:40 18.02.2020
2362 Clouds 11 1022 93 8000 2.1 220 20:22 18.02.2020
2363 Clouds 11 1023 87 10000 2.6 210 19:58 18.02.2020
2364 Clouds 11 1023 87 10000 2.6 210 19:40 18.02.2020
2365 Clouds 12 1022 87 10000 3.1 200 19:19 18.02.2020
2366 Clouds 12 1022 87 10000 2.6 210 18:55 18.02.2020
2367 Clouds 12 1022 82 10000 2.1 220 18:37 18.02.2020
2368 Clouds 12 1022 82 10000 2.1 220 18:18 18.02.2020
2369 Clouds 13 1022 67 10000 2.1 170 17:40 18.02.2020
2370 Clouds 13 1022 67 10000 2.1 170 17:19 18.02.2020
2371 Clouds 14 1022 76 10000 4.1 210 16:40 18.02.2020
2372 Clouds 14 1022 72 10000 3.1 200 16:21 18.02.2020
2373 -273 0 0 0 0 0 15:55 18.02.2020
2374 Clouds 15 1022 55 10000 1.5 0 15:37 18.02.2020
2375 Clouds 15 1022 55 10000 1.5 0 15:18 18.02.2020
2376 Clouds 15 1023 72 10000 3.6 220 14:55 18.02.2020
2377 Clouds 15 1023 76 10000 3.1 240 14:37 18.02.2020
2378 Clouds 15 1023 76 10000 3.1 240 14:18 18.02.2020
2379 Clouds 15 1024 55 10000 1 0 13:41 18.02.2020
2380 Clouds 15 1024 55 10000 1 0 13:21 18.02.2020
2381 Clouds 14 1024 71 10000 2.6 210 12:49 18.02.2020
2382 Clouds 14 1025 71 10000 1.13 162 12:30 18.02.2020
2383 Clouds 14 1025 66 10000 1 0 11:59 18.02.2020
2384 Clouds 14 1025 66 10000 1 0 11:59 18.02.2020
2385 Clouds 13 1025 66 10000 1 0 11:41 18.02.2020
2386 Clouds 13 1025 76 10000 1.13 162 11:23 18.02.2020
2387 Clouds 12 1025 76 10000 1 0 10:46 18.02.2020
2388 Clouds 11 1025 81 10000 1 0 10:25 18.02.2020
2389 Clouds 11 1025 81 10000 1.5 50 09:58 18.02.2020
2390 Clouds 11 1025 81 10000 1.5 50 09:58 18.02.2020
2391 Clouds 10 1025 81 10000 1.5 50 09:58 18.02.2020
2392 Clouds 10 1026 87 10000 2.1 300 09:39 18.02.2020
2393 Clouds 9 1026 87 10000 2.1 300 09:20 18.02.2020
2394 Clouds 8 1025 81 10000 2.6 60 08:59 18.02.2020
2395 Clouds 8 1025 81 10000 2.6 60 08:40 18.02.2020
2396 Clouds 7 1026 93 10000 1.5 0 08:20 18.02.2020
2397 Clouds 6 1025 93 10000 1.5 10 07:55 18.02.2020
2398 Clouds 6 1025 93 10000 1.5 10 07:55 18.02.2020
2399 Clear 6 1024 93 10000 0.5 0 07:29 18.02.2020
2400 Clouds 6 1024 81 10000 3.1 100 06:55 18.02.2020
2401 Clouds 7 1024 87 10000 2.6 100 06:32 18.02.2020
2402 Clouds 7 1025 87 10000 1.5 90 05:56 18.02.2020
2403 Clouds 6 1025 93 10000 0.5 0 05:23 18.02.2020
2404 Clear 6 1025 87 10000 1 0 03:57 18.02.2020
2405 Clear 6 1025 87 10000 1.5 140 02:58 18.02.2020
2406 Clouds 6 1026 81 10000 1.5 150 01:45 18.02.2020
2407 Clouds 6 1026 75 10000 1 160 00:45 18.02.2020
2408 Clouds 7 1026 70 10000 2.1 160 00:19 18.02.2020
2409 Clouds 7 1026 66 10000 1 170 23:44 17.02.2020
2410 Clouds 7 1026 75 10000 1 0 23:25 17.02.2020
2411 Clouds 7 1026 75 10000 1.5 150 22:59 17.02.2020
2412 Clouds 8 1026 75 10000 1.5 150 22:40 17.02.2020
2413 Clouds 8 1026 76 10000 1.5 160 22:20 17.02.2020
2414 Clouds 8 1026 87 10000 1.5 160 21:40 17.02.2020
2415 Clouds 8 1026 87 10000 2.6 160 21:19 17.02.2020
2416 Clouds 8 1026 87 10000 2.6 170 20:57 17.02.2020
2417 Clouds 9 1026 81 10000 1.5 170 20:38 17.02.2020
2418 Clouds 9 1026 81 10000 1.5 170 20:20 17.02.2020
2419 Clouds 9 1026 76 10000 2.1 210 19:55 17.02.2020
2420 Clouds 10 1026 76 10000 2.1 200 19:36 17.02.2020
2421 Clouds 10 1026 76 10000 2.1 200 19:18 17.02.2020
2422 Clouds 11 1026 71 10000 2.6 220 18:37 17.02.2020
2423 Clouds 11 1026 71 10000 2.6 220 18:37 17.02.2020
2424 Clouds 11 1026 71 10000 2.6 220 18:19 17.02.2020
2425 Clouds 12 1026 62 10000 2.1 240 17:55 17.02.2020
2426 Clouds 13 1026 47 10000 4.1 260 17:36 17.02.2020
2427 Clouds 14 1026 47 10000 4.1 260 17:18 17.02.2020
2428 Clouds 15 1026 54 10000 3.1 240 16:43 17.02.2020
2429 Clouds 15 1026 45 10000 4.6 260 16:23 17.02.2020
2430 Clouds 16 1026 58 10000 3.6 230 15:58 17.02.2020
2431 Clouds 16 1026 34 10000 1.5 0 15:40 17.02.2020
2432 Clouds 16 1026 34 10000 1.5 0 15:21 17.02.2020
2433 Clouds 16 1026 51 10000 2.1 270 14:45 17.02.2020
2434 Clouds 16 1027 29 10000 2.1 220 14:26 17.02.2020
2435 Clouds 16 1027 36 10000 1.5 0 13:59 17.02.2020
2436 Clouds 15 1028 38 10000 1.28 203 13:39 17.02.2020
2437 Clouds 15 1028 38 10000 1.24 204 13:19 17.02.2020
2438 Clouds 15 1028 41 10000 1 0 12:47 17.02.2020
2439 Clouds 15 1028 41 10000 1 0 12:47 17.02.2020
2440 Clouds 15 1029 66 10000 1.24 204 12:26 17.02.2020
2441 Clouds 14 1029 54 10000 1 0 11:59 17.02.2020
2442 Clouds 14 1029 54 10000 1 0 11:41 17.02.2020
2443 Clouds 13 1030 93 10000 0.96 31 11:22 17.02.2020
2444 Clouds 12 1029 62 10000 0.5 0 10:56 17.02.2020
2445 Clouds 12 1029 76 10000 1 0 10:37 17.02.2020
2446 Mist 11 1029 100 1500 1.5 0 10:19 17.02.2020
2447 Fog 10 1030 100 150 2.6 350 09:42 17.02.2020
2448 Fog 9 1030 100 150 2.6 350 09:23 17.02.2020
2449 Clouds 9 1029 75 10000 1 0 08:59 17.02.2020
2450 Fog 8 1029 100 200 1.5 0 08:41 17.02.2020
2451 Fog 6 1029 100 200 1.5 0 08:21 17.02.2020
2452 Fog 6 1029 100 200 1.5 0 08:21 17.02.2020
2453 Clouds 6 1028 65 10000 0.5 0 07:54 17.02.2020
2454 Clouds 5 1029 80 10000 1 40 07:26 17.02.2020
2455 Clouds 6 1029 70 10000 1 50 06:53 17.02.2020
2456 Clouds 6 1029 78 7000 1 0 06:33 17.02.2020
2457 Mist 6 1029 81 3000 0.5 130 05:59 17.02.2020
2458 Clouds 6 1029 75 6000 1 0 05:38 17.02.2020
2459 Clouds 6 1029 70 10000 0.5 0 03:24 17.02.2020
2460 Clouds 6 1029 65 10000 1 160 01:59 17.02.2020
2461 Clouds 7 1029 70 10000 1 170 00:51 17.02.2020
2462 Clouds 7 1029 70 10000 1.5 150 00:22 17.02.2020
2463 Clouds 7 1029 70 10000 1 160 23:54 16.02.2020
2464 Clouds 7 1029 75 10000 1.5 160 23:33 16.02.2020
2465 Clear 8 1029 76 10000 2.6 150 22:58 16.02.2020
2466 Clear 8 1030 81 8000 2.1 160 22:39 16.02.2020
2467 Clear 8 1030 81 8000 2.1 160 22:21 16.02.2020
2468 Clear 8 1030 81 8000 1.5 170 21:59 16.02.2020
2469 Clear 8 1030 81 8000 1.5 170 21:40 16.02.2020
2470 Clear 9 1029 87 10000 1.5 200 21:22 16.02.2020
2471 Clear 9 1029 87 10000 2.1 200 20:58 16.02.2020
2472 Clear 9 1029 87 10000 2.1 200 20:58 16.02.2020
2473 Clear 9 1029 81 10000 2.6 190 20:40 16.02.2020
2474 Clear 10 1029 81 10000 2.6 190 20:22 16.02.2020
2475 Clear 10 1029 76 10000 2.1 190 19:58 16.02.2020
2476 Clear 10 1029 76 10000 2.1 190 19:39 16.02.2020
2477 Clear 11 1029 76 10000 2.1 200 19:19 16.02.2020
2478 Clear 11 1029 66 10000 2.1 210 18:45 16.02.2020
2479 Clear 12 1028 66 10000 3.1 270 18:27 16.02.2020
2480 Clear 13 1028 58 10000 3.6 270 17:59 16.02.2020
2481 Clear 14 1028 58 10000 3.6 270 17:40 16.02.2020
2482 Clear 14 1028 59 10000 4.1 270 17:20 16.02.2020
2483 Clear 15 1028 36 10000 1 0 16:56 16.02.2020
2484 Clear 16 1028 39 10000 1.5 330 16:38 16.02.2020
2485 Clear 16 1028 39 10000 1.5 330 16:19 16.02.2020
2486 Clear 16 1028 36 10000 1.5 310 15:42 16.02.2020
2487 Clear 16 1028 36 10000 2.1 350 15:23 16.02.2020
2488 Clear 16 1029 39 10000 2.1 330 14:59 16.02.2020
2489 Clear 16 1029 36 10000 1 0 14:38 16.02.2020
2490 Clear 16 1029 36 10000 1 0 14:19 16.02.2020
2491 Clear 16 1029 51 10000 1.5 0 13:45 16.02.2020
2492 Clear 15 1029 44 10000 0.72 284 13:24 16.02.2020
2493 Clear 15 1030 58 10000 1 0 12:54 16.02.2020
2494 Clear 15 1030 54 10000 1 0 12:36 16.02.2020
2495 Clear 15 1030 54 10000 1 0 12:18 16.02.2020
2496 Clear 14 1030 62 10000 1.5 20 11:38 16.02.2020
2497 Clear 13 1030 66 10000 2.6 350 11:18 16.02.2020
2498 Clear 13 1030 71 10000 2.1 30 10:56 16.02.2020
2499 Clear 12 1030 81 10000 2.6 20 10:37 16.02.2020
2500 Clear 11 1030 81 10000 2.6 20 10:19 16.02.2020
2501 Clear 11 1029 76 10000 1 0 09:54 16.02.2020
2502 Clear 11 1029 81 10000 1 0 09:36 16.02.2020
2503 Clear 10 1029 81 10000 1 0 09:18 16.02.2020
2504 Clear 8 1029 80 10000 0.5 0 08:41 16.02.2020
2505 Clear 6 1028 80 10000 1 70 08:20 16.02.2020
2506 Clear 5 1029 86 10000 1.5 70 07:49 16.02.2020
2507 Clear 5 1029 86 10000 1.5 90 07:26 16.02.2020
2508 Clear 5 1029 86 10000 1 70 06:33 16.02.2020
2509 Clear 6 1027 80 10000 1 0 04:42 16.02.2020
2510 Clear 6 1028 70 10000 0.5 0 03:25 16.02.2020
2511 Clear 6 1028 65 10000 1 170 02:31 16.02.2020
2512 Clear 6 1028 75 10000 2.35 12 01:42 16.02.2020
2513 Clear 6 1028 75 10000 2.36 5 01:22 16.02.2020
2514 Clear 6 1028 70 10000 0.5 0 00:52 16.02.2020
2515 Clear 7 1028 75 10000 1 160 00:31 16.02.2020
2516 Clear 7 1027 70 10000 0.5 0 23:46 15.02.2020
2517 Clear 7 1027 70 10000 0.5 0 23:26 15.02.2020
2518 Clear 7 1027 70 10000 1.5 170 22:59 15.02.2020
2519 Clear 8 1027 66 10000 1.5 140 22:41 15.02.2020
2520 Clear 8 1027 66 10000 1.5 140 22:21 15.02.2020
2521 Clear 8 1027 71 10000 1 0 21:58 15.02.2020
2522 Clear 8 1027 71 10000 1 0 21:39 15.02.2020
2523 Clear 9 1027 66 10000 2.1 160 21:21 15.02.2020
2524 Clear 9 1027 76 10000 2.6 170 20:40 15.02.2020
2525 Clear 9 1027 76 10000 2.1 190 20:21 15.02.2020
2526 Clear 10 1027 76 10000 2.6 190 19:44 15.02.2020
2527 Clear 10 1027 76 10000 1.5 220 19:22 15.02.2020
2528 Clear 11 1026 71 10000 2.6 210 18:45 15.02.2020
2529 Clear 12 1026 66 10000 2.1 230 18:25 15.02.2020
2530 Clear 13 1026 58 10000 2.6 230 17:59 15.02.2020
2531 Clear 13 1026 58 10000 2.6 230 17:41 15.02.2020
2532 Clear 15 1025 51 10000 3.1 250 17:22 15.02.2020
2533 Clouds 15 1025 58 10000 4.1 220 16:55 15.02.2020
2534 Clear 16 1026 23 10000 1.06 305 16:37 15.02.2020
2535 Clear 16 1026 23 10000 1.06 305 16:18 15.02.2020
2536 Clouds 16 1025 48 10000 2.1 260 15:41 15.02.2020
2537 Clear 16 1025 27 10000 1 0 15:23 15.02.2020
2538 Clouds 16 1025 29 10000 2.1 350 14:45 15.02.2020
2539 Clear 16 1026 27 10000 1.34 35 14:21 15.02.2020
2540 Clouds 16 1026 39 10000 1 0 13:56 15.02.2020
2541 Clouds 16 1026 39 10000 1 0 13:38 15.02.2020
2542 Clear 16 1026 33 10000 1 0 13:38 15.02.2020
2543 Clear 16 1026 33 10000 1 0 13:20 15.02.2020
2544 Clear 16 1026 36 10000 2.1 30 12:42 15.02.2020
2545 Clear 15 1026 41 10000 1 0 12:24 15.02.2020
2546 Clear 15 1026 47 10000 2.6 40 11:52 15.02.2020
2547 Clear 15 1026 50 10000 2.1 40 11:33 15.02.2020
2548 Clear 13 1026 53 10000 2.6 50 10:58 15.02.2020
2549 Clear 13 1026 53 10000 2.6 50 10:58 15.02.2020
2550 Clear 13 1026 61 10000 1.5 0 10:39 15.02.2020
2551 Clear 12 1026 61 10000 1.5 0 10:20 15.02.2020
2552 Clear 12 1026 53 10000 2.1 30 09:44 15.02.2020
2553 Clear 10 1026 56 10000 2.6 60 09:25 15.02.2020
2554 Clear 9 1025 60 10000 1.5 60 08:46 15.02.2020
2555 Clear 7 1025 65 10000 1 0 08:26 15.02.2020
2556 Clear 7 1025 56 10000 2.1 60 07:59 15.02.2020
2557 Clear 6 1025 56 10000 2.1 60 07:39 15.02.2020
2558 Clear 5 1024 56 10000 2.6 50 07:21 15.02.2020
2559 Clear 5 1024 56 10000 3.6 70 06:38 15.02.2020
2560 Clear 6 1024 60 10000 1.5 80 05:56 15.02.2020
2561 Clear 6 1023 56 10000 1.5 90 04:49 15.02.2020
2562 Clear 6 1023 60 10000 1 0 04:21 15.02.2020
2563 Clear 7 1023 52 10000 2.6 70 02:58 15.02.2020
2564 Clear 7 1023 52 10000 2.6 50 02:24 15.02.2020
2565 Clear 8 1023 49 10000 3.1 80 01:45 15.02.2020
2566 Clear 8 1023 52 10000 2.6 30 00:58 15.02.2020
2567 Clear 8 1022 52 10000 2.1 20 00:28 15.02.2020
2568 Clear 8 1022 49 10000 1 0 23:45 14.02.2020
2569 Clear 9 1022 45 10000 1.5 110 23:21 14.02.2020
2570 Clear 9 1022 46 10000 2.1 80 22:55 14.02.2020
2571 Clear 10 1022 50 10000 2.1 70 22:36 14.02.2020
2572 Clear 10 1022 50 10000 2.1 70 22:18 14.02.2020
2573 Clear 10 1021 50 10000 1 0 21:41 14.02.2020
2574 Clear 10 1021 50 10000 1 0 21:23 14.02.2020
2575 Clear 10 1020 53 10000 1.5 260 20:44 14.02.2020
2576 Clear 11 1020 52 10000 2.1 70 20:20 14.02.2020
2577 Clear 12 1019 43 10000 2.6 80 19:58 14.02.2020
2578 Clear 12 1019 43 10000 2.6 80 19:40 14.02.2020
2579 Clear 12 1019 41 10000 4.6 20 19:40 14.02.2020
2580 Clear 12 1019 41 10000 4.6 20 19:20 14.02.2020
2581 Clear 13 1018 44 10000 4.6 20 18:56 14.02.2020
2582 Clear 13 1018 44 10000 4.6 20 18:38 14.02.2020
2583 Clear 14 1017 41 10000 4.6 10 18:19 14.02.2020
2584 Clear 15 1017 38 10000 6.7 10 17:42 14.02.2020
2585 Clear 16 1017 33 10000 6.7 10 17:21 14.02.2020
2586 Clear 16 1016 36 10000 8.2 20 16:58 14.02.2020
2587 Clear 17 1016 36 10000 8.2 20 16:39 14.02.2020
2588 Clear 17 1017 34 10000 7.7 360 16:21 14.02.2020
2589 Clear 17 1017 34 10000 7.7 360 15:56 14.02.2020
2590 Clear 17 1017 34 10000 7.7 360 15:37 14.02.2020
2591 Clear 17 1017 34 10000 7.7 360 15:37 14.02.2020
2592 Clear 17 1017 34 10000 7.7 360 15:37 14.02.2020
2593 Clear 17 1016 36 10000 7.7 10 15:19 14.02.2020
2594 Clear 17 1015 42 10000 9.8 10 14:57 14.02.2020
2595 Clear 17 1015 42 10000 9.8 10 14:38 14.02.2020
2596 Clouds 17 1016 51 10000 5.7 10 14:20 14.02.2020
2597 Clouds 17 1015 55 10000 8.2 20 13:40 14.02.2020
2598 Clouds 17 1016 55 10000 5.1 10 13:21 14.02.2020
2599 Clouds 16 1016 59 10000 8.7 20 12:58 14.02.2020
2600 Clouds 16 1016 67 10000 6.7 20 12:40 14.02.2020
2601 Clouds 16 1016 67 10000 6.7 20 12:21 14.02.2020
2602 Clouds 15 1015 72 10000 4.1 30 11:58 14.02.2020
2603 Clouds 15 1015 72 10000 4.1 30 11:40 14.02.2020
2604 Clouds 14 1016 77 10000 2.6 40 11:20 14.02.2020
2605 Clouds 14 1015 76 10000 3.6 40 10:55 14.02.2020
2606 Clouds 13 1015 87 10000 1.5 0 10:37 14.02.2020
2607 Clouds 13 1015 87 10000 1.5 0 10:19 14.02.2020
2608 Clouds 12 1015 93 10000 1.5 360 09:40 14.02.2020
2609 Clouds 12 1015 93 10000 1 0 09:20 14.02.2020
2610 Mist 11 1016 93 5000 2.1 70 08:43 14.02.2020
2611 Rain 11 1015 93 4000 1.5 0 08:25 14.02.2020
2612 Rain 11 1016 93 3500 2.92 222 07:56 14.02.2020
2613 Rain 11 1015 87 7000 4.6 190 07:38 14.02.2020
2614 Rain 11 1015 87 7000 4.6 190 07:18 14.02.2020
2615 Clouds 10 1015 81 10000 6.2 180 06:29 14.02.2020
2616 Clouds 10 1017 81 10000 4.6 180 05:47 14.02.2020
2617 Clouds 11 1017 71 10000 5.1 190 04:28 14.02.2020
2618 Clouds 11 1018 76 10000 4.6 200 03:29 14.02.2020
2619 Clouds 11 1019 71 10000 4.6 180 02:29 14.02.2020
2620 Clouds 10 1019 66 10000 4.6 180 01:27 14.02.2020
2621 Clouds 10 1019 71 10000 4.1 220 00:43 14.02.2020
2622 Clouds 10 1020 71 10000 4.6 190 00:23 14.02.2020
2623 Clouds 10 1020 66 10000 4.1 180 23:43 13.02.2020
2624 Clouds 10 1020 71 10000 3.6 190 23:21 13.02.2020
2625 Clouds 10 1021 71 10000 3.1 180 22:44 13.02.2020
2626 Clouds 10 1021 71 10000 3.6 190 22:20 13.02.2020
2627 Clouds 10 1021 71 10000 2.6 200 21:59 13.02.2020
2628 Clouds 10 1021 71 10000 2.6 200 21:40 13.02.2020
2629 Clouds 10 1021 66 10000 2.6 190 21:22 13.02.2020
2630 Clouds 10 1021 71 10000 3.1 200 20:56 13.02.2020
2631 Clouds 10 1021 71 10000 3.1 200 20:38 13.02.2020
2632 Clouds 10 1021 66 10000 2.6 200 20:20 13.02.2020
2633 Clouds 10 1021 76 10000 2.1 210 19:55 13.02.2020
2634 Clouds 10 1021 76 10000 2.1 210 19:36 13.02.2020
2635 Clouds 10 1021 76 10000 2.1 210 19:18 13.02.2020
2636 Clouds 10 1021 76 10000 1.5 210 18:42 13.02.2020
2637 Clouds 11 1021 71 10000 2.6 200 18:23 13.02.2020
2638 Clouds 12 1021 66 10000 3.1 200 17:59 13.02.2020
2639 Clouds 12 1021 62 10000 3.1 200 17:40 13.02.2020
2640 Clouds 12 1021 62 10000 3.1 200 17:40 13.02.2020
2641 Clouds 13 1021 62 10000 3.1 200 17:20 13.02.2020
2642 Clouds 14 1021 62 10000 2.6 210 16:58 13.02.2020
2643 Clouds 14 1021 54 10000 5.1 220 16:37 13.02.2020
2644 Clouds 14 1021 54 10000 5.1 220 16:19 13.02.2020
2645 Clouds 14 1021 50 10000 5.7 220 15:56 13.02.2020
2646 Clouds 14 1021 58 10000 5.1 200 15:37 13.02.2020
2647 Clouds 14 1021 58 10000 5.1 200 15:19 13.02.2020
2648 Clouds 15 1021 67 10000 5.7 220 14:55 13.02.2020
2649 Clouds 14 1022 62 10000 5.7 150 14:37 13.02.2020
2650 Clouds 14 1022 62 10000 5.7 150 14:19 13.02.2020
2651 Clouds 14 1021 58 10000 5.1 180 13:42 13.02.2020
2652 Clouds 14 1022 67 10000 4.6 170 13:18 13.02.2020
2653 Clouds 14 1022 62 10000 5.7 180 12:54 13.02.2020
2654 Clouds 14 1022 62 10000 5.7 180 12:54 13.02.2020
2655 Clouds 14 1023 76 10000 3.1 10 12:36 13.02.2020
2656 Clouds 13 1023 76 10000 3.1 10 12:18 13.02.2020
2657 Clouds 13 1022 67 10000 5.7 170 11:43 13.02.2020
2658 Clouds 13 1022 67 10000 5.7 170 11:43 13.02.2020
2659 Clouds 13 1023 76 10000 2.1 350 11:20 13.02.2020
2660 Clouds 13 1023 76 10000 2.1 350 11:20 13.02.2020
2661 Clouds 11 1022 62 10000 5.7 170 10:46 13.02.2020
2662 Clouds 11 1023 93 10000 1.14 104 10:27 13.02.2020
2663 Clouds 9 1022 87 10000 1 0 09:51 13.02.2020
2664 Clouds 8 1023 100 10000 1.14 104 09:28 13.02.2020
2665 Clouds 8 1022 86 10000 1.5 350 08:58 13.02.2020
2666 Clouds 7 1023 100 6000 2.1 350 08:37 13.02.2020
2667 Clouds 6 1023 100 6000 2.1 350 08:18 13.02.2020
2668 Clouds 7 1021 70 10000 1.5 80 07:39 13.02.2020
2669 Clouds 6 1021 81 10000 1 0 07:20 13.02.2020
2670 Clouds 6 1021 81 10000 1 0 06:44 13.02.2020
2671 Clouds 6 1021 81 10000 1.5 60 06:19 13.02.2020
2672 Clouds 6 1021 80 10000 1 0 05:33 13.02.2020
2673 Clouds 6 1021 81 10000 1 0 04:26 13.02.2020
2674 Clouds 7 1021 75 10000 1 0 03:51 13.02.2020
2675 Clouds 7 1021 75 10000 2.1 60 03:20 13.02.2020
2676 Clouds 7 1021 75 10000 0.5 0 02:50 13.02.2020
2677 Clouds 7 1021 70 10000 1 180 02:19 13.02.2020
2678 Clouds 7 1021 81 10000 1 0 01:32 13.02.2020
2679 Clouds 7 1021 75 10000 2.6 160 00:39 13.02.2020
2680 Clouds 7 1021 75 10000 2.6 160 00:21 13.02.2020
2681 Clouds 7 1020 70 10000 2.6 110 23:39 12.02.2020
2682 Clouds 8 1020 70 10000 2.6 110 23:21 12.02.2020
2683 Clouds 8 1020 70 10000 1.5 140 22:45 12.02.2020
2684 Clouds 9 1020 76 10000 2.1 170 22:25 12.02.2020
2685 Clouds 8 1020 76 10000 1.5 190 21:58 12.02.2020
2686 Clouds 9 1020 76 10000 2.1 150 21:40 12.02.2020
2687 Clouds 9 1020 76 10000 2.1 150 21:19 12.02.2020
2688 Clouds 9 1020 71 10000 2.1 140 20:56 12.02.2020
2689 Clouds 9 1020 71 10000 2.1 140 20:56 12.02.2020
2690 Clouds 9 1020 71 10000 1.5 180 20:37 12.02.2020
2691 Clouds 9 1020 71 10000 1.5 180 20:18 12.02.2020
2692 Clouds 9 1020 71 10000 1.5 180 20:18 12.02.2020
2693 Clouds 10 1020 66 10000 1.5 210 19:44 12.02.2020
2694 Clouds 10 1019 66 10000 1.5 240 19:23 12.02.2020
2695 Clouds 11 1019 66 10000 1.5 210 18:55 12.02.2020
2696 Clouds 11 1019 62 10000 1.5 210 18:37 12.02.2020
2697 Clouds 12 1019 62 10000 1.5 210 18:18 12.02.2020
2698 Clouds 13 1018 51 10000 5.7 230 17:42 12.02.2020
2699 Clouds 14 1018 51 10000 5.7 230 17:20 12.02.2020
2700 Clouds 15 1018 54 10000 3.6 260 16:58 12.02.2020
2701 Clouds 15 1018 51 10000 2.6 260 16:38 12.02.2020
2702 Clouds 16 1018 51 10000 2.6 260 16:18 12.02.2020
2703 Clouds 16 1018 51 10000 2.6 260 16:18 12.02.2020
2704 Clouds 16 1018 45 10000 2.6 280 15:41 12.02.2020
2705 Clouds 16 1018 45 10000 2.6 280 15:20 12.02.2020
2706 Clouds 17 1018 51 10000 2.6 260 14:56 12.02.2020
2707 Clouds 17 1018 51 10000 2.6 260 14:38 12.02.2020
2708 Clouds 16 1018 100 10000 2.1 250 14:19 12.02.2020
2709 Clouds 16 1019 51 10000 3.1 260 13:56 12.02.2020
2710 Clouds 16 1019 51 10000 2.1 300 13:37 12.02.2020
2711 Clouds 16 1019 51 10000 2.1 300 13:18 12.02.2020
2712 Clouds 16 1019 51 10000 2.1 300 13:18 12.02.2020
2713 Clouds 16 1019 54 10000 3.1 250 12:55 12.02.2020
2714 Clouds 16 1019 62 10000 1.92 279 12:36 12.02.2020
2715 Clouds 15 1019 62 10000 1.92 279 12:18 12.02.2020
2716 Clouds 15 1019 62 10000 1.92 279 12:18 12.02.2020
2717 Clouds 15 1019 58 10000 2.1 250 11:54 12.02.2020
2718 Clouds 15 1020 76 10000 1.5 0 11:36 12.02.2020
2719 Clouds 14 1020 76 10000 1.5 0 11:18 12.02.2020
2720 Clouds 13 1019 58 10000 2.6 260 10:42 12.02.2020
2721 Clouds 13 1019 100 10000 1 0 10:21 12.02.2020
2722 Clouds 12 1019 58 10000 0.5 0 09:58 12.02.2020
2723 Clouds 12 1019 58 10000 0.5 0 09:40 12.02.2020
2724 Clouds 10 1019 100 10000 1 0 09:20 12.02.2020
2725 Mist 9 1015 100 5000 1 0 08:57 12.02.2020
2726 Mist 8 1018 100 1500 1 0 08:37 12.02.2020
2727 Mist 7 1018 100 1500 1 0 08:19 12.02.2020
2728 Mist 7 1018 100 1500 1 0 08:19 12.02.2020
2729 Clouds 7 1017 70 10000 2.1 80 07:43 12.02.2020
2730 Clouds 7 1017 66 10000 1.5 350 07:23 12.02.2020
2731 Clouds 8 1017 62 10000 2.1 40 06:52 12.02.2020
2732 Clouds 8 1017 62 10000 2.6 40 06:20 12.02.2020
2733 Clouds 8 1016 66 10000 2.6 30 05:36 12.02.2020
2734 Clouds 9 1016 66 10000 2.6 50 04:56 12.02.2020
2735 Clouds 9 1016 66 10000 2.6 50 04:38 12.02.2020
2736 Clouds 9 1016 71 10000 1.5 30 03:31 12.02.2020
2737 Clouds 10 1016 66 10000 1.5 30 02:58 12.02.2020
2738 Clouds 9 1016 62 10000 2.1 360 02:28 12.02.2020
2739 Clouds 10 1016 62 10000 2.6 10 01:42 12.02.2020
2740 Clouds 10 1016 76 10000 2.1 30 00:45 12.02.2020
2741 Clouds 10 1016 76 10000 1 0 00:25 12.02.2020
2742 Clouds 10 1016 76 10000 1.5 80 23:55 11.02.2020
2743 Clouds 10 1016 76 10000 1.5 80 23:55 11.02.2020
2744 Clouds 10 1015 76 10000 1.5 100 23:37 11.02.2020
2745 Clouds 10 1015 76 10000 1.5 100 23:18 11.02.2020
2746 Clouds 10 1015 76 10000 1.5 70 22:42 11.02.2020
2747 Clouds 10 1015 87 10000 2.1 80 22:21 11.02.2020
2748 Clouds 10 1015 81 9000 2.1 110 21:58 11.02.2020
2749 Clouds 10 1015 81 9000 2.1 110 21:39 11.02.2020
2750 Clouds 10 1015 87 9000 2.1 120 21:19 11.02.2020
2751 Clouds 11 1015 87 10000 1 0 20:59 11.02.2020
2752 Clouds 11 1015 87 10000 1 0 20:39 11.02.2020
2753 Clouds 11 1015 87 10000 1 0 20:39 11.02.2020
2754 Clouds 11 1015 81 10000 1.5 130 20:20 11.02.2020
2755 Clouds 12 1015 82 9000 1 0 19:58 11.02.2020
2756 Clouds 12 1015 82 9000 2.6 130 19:40 11.02.2020
2757 Clouds 12 1015 82 9000 2.6 130 19:22 11.02.2020
2758 Clouds 13 1014 76 10000 2.1 180 18:55 11.02.2020
2759 Clouds 13 1014 76 10000 2.1 200 18:37 11.02.2020
2760 Clouds 14 1014 76 10000 2.1 200 18:18 11.02.2020
2761 Clouds 15 1014 67 9000 2.6 220 17:40 11.02.2020
2762 Clouds 15 1014 67 9000 2.6 220 17:21 11.02.2020
2763 Clouds 15 1014 67 9000 2.6 220 17:21 11.02.2020
2764 Clouds 16 1014 72 10000 3.6 190 16:59 11.02.2020
2765 Clouds 16 1014 72 10000 3.6 190 16:40 11.02.2020
2766 Clouds 16 1014 63 9000 3.6 220 16:22 11.02.2020
2767 Clouds 16 1014 67 10000 3.6 200 15:59 11.02.2020
2768 Clouds 17 1014 67 10000 3.6 200 15:41 11.02.2020
2769 Clouds 17 1014 59 10000 2.6 220 15:21 11.02.2020
2770 Clouds 17 1014 59 10000 3.1 200 14:43 11.02.2020
2771 Clouds 17 1014 59 10000 3.1 200 14:19 11.02.2020
2772 Clouds 17 1015 63 10000 3.1 230 13:58 11.02.2020
2773 Clouds 18 1015 63 8000 2.1 220 13:39 11.02.2020
2774 Clouds 17 1015 63 8000 2.1 220 13:20 11.02.2020
2775 Clouds 17 1015 63 8000 2.1 220 13:20 11.02.2020
2776 Clouds 17 1015 67 10000 2.6 210 12:55 11.02.2020
2777 Clouds 17 1015 67 7000 2.6 250 12:36 11.02.2020
2778 Clouds 17 1015 67 7000 2.6 250 12:18 11.02.2020
2779 Clouds 16 1016 67 7000 2.6 230 11:41 11.02.2020
2780 Clouds 16 1016 67 7000 2.6 230 11:20 11.02.2020
2781 Clouds 15 1016 72 10000 2.1 170 10:55 11.02.2020
2782 Mist 14 1016 93 5000 3.02 167 10:36 11.02.2020
2783 Mist 14 1016 93 5000 3.02 167 10:18 11.02.2020
2784 Mist 14 1016 93 5000 3.02 167 10:18 11.02.2020
2785 Clouds 13 1016 82 8000 2.6 140 09:44 11.02.2020
2786 Clouds 12 1016 87 8000 2.6 140 09:22 11.02.2020
2787 Clouds 12 1016 81 8000 2.1 130 08:57 11.02.2020
2788 Clouds 11 1016 81 8000 2.1 130 08:39 11.02.2020
2789 Mist 11 1017 81 4000 2.24 137 08:20 11.02.2020
2790 Clouds 10 1016 87 7000 1.5 170 07:45 11.02.2020
2791 Clouds 10 1016 87 8000 2.6 150 07:24 11.02.2020
2792 Clouds 11 1016 87 9000 3.1 160 06:43 11.02.2020
2793 Clouds 11 1016 87 9000 3.1 150 06:21 11.02.2020
2794 Clouds 11 1017 87 8000 3.6 150 05:47 11.02.2020
2795 Clouds 11 1017 93 8000 3.1 150 05:22 11.02.2020
2796 Clouds 12 1017 87 10000 4.1 150 04:36 11.02.2020
2797 Clouds 12 1018 87 7000 3.6 170 02:44 11.02.2020
2798 Clouds 12 1018 87 10000 4.1 160 02:23 11.02.2020
2799 Clouds 12 1019 87 10000 4.1 170 01:35 11.02.2020
2800 Clouds 12 1020 87 10000 3.1 170 00:38 11.02.2020
2801 Clouds 12 1019 87 10000 4.1 160 23:53 10.02.2020
2802 Clouds 12 1020 87 10000 3.6 170 23:33 10.02.2020
2803 Clouds 12 1020 87 10000 3.6 170 23:33 10.02.2020
2804 Drizzle 12 1020 82 7000 3.1 170 22:58 10.02.2020
2805 Drizzle 12 1020 82 7000 3.1 170 22:39 10.02.2020
2806 Drizzle 12 1020 76 7000 2.6 170 22:20 10.02.2020
2807 Drizzle 12 1020 82 7000 2.1 180 21:43 10.02.2020
2808 Drizzle 12 1021 82 7000 2.1 180 21:25 10.02.2020
2809 Drizzle 12 1021 82 7000 2.1 180 20:58 10.02.2020
2810 Drizzle 12 1021 82 7000 2.6 180 20:39 10.02.2020
2811 Drizzle 12 1021 82 7000 2.6 180 20:20 10.02.2020
2812 Rain 12 1021 82 7000 3.1 180 19:58 10.02.2020
2813 Drizzle 12 1021 82 7000 3.6 190 19:38 10.02.2020
2814 Drizzle 12 1021 82 7000 3.6 190 19:19 10.02.2020
2815 Drizzle 12 1021 82 7000 3.6 180 18:59 10.02.2020
2816 Drizzle 12 1021 82 7000 5.1 160 18:40 10.02.2020
2817 Drizzle 12 1021 82 7000 5.1 160 18:21 10.02.2020
2818 Drizzle 12 1021 82 7000 5.7 150 17:57 10.02.2020
2819 Drizzle 12 1021 82 7000 5.7 150 17:57 10.02.2020
2820 Mist 12 1021 82 5000 5.1 150 17:37 10.02.2020
2821 Mist 12 1021 82 5000 5.1 150 17:19 10.02.2020
2822 Drizzle 12 1021 82 7000 4.6 160 16:58 10.02.2020
2823 Drizzle 12 1021 82 7000 4.6 160 16:39 10.02.2020
2824 Clouds 12 1022 82 6000 3.1 170 16:39 10.02.2020
2825 Clouds 13 1022 82 6000 3.1 170 16:19 10.02.2020
2826 Drizzle 12 1022 82 7000 4.1 170 15:56 10.02.2020
2827 Drizzle 13 1022 82 7000 4.1 170 15:38 10.02.2020
2828 Mist 13 1023 82 5000 4.1 190 15:20 10.02.2020
2829 Clouds 13 1023 82 10000 4.6 160 14:55 10.02.2020
2830 Clouds 12 1023 82 6000 3.6 170 14:36 10.02.2020
2831 Clouds 12 1023 82 6000 3.6 170 14:18 10.02.2020
2832 Clouds 12 1024 82 10000 5.1 160 13:42 10.02.2020
2833 Clouds 12 1025 87 7000 3.1 170 13:23 10.02.2020
2834 Clouds 12 1025 81 10000 3.1 170 12:48 10.02.2020
2835 Clouds 12 1026 82 7000 2.6 170 12:26 10.02.2020
2836 Clouds 12 1026 81 10000 4.1 170 11:56 10.02.2020
2837 Clouds 12 1026 81 10000 4.1 170 11:38 10.02.2020
2838 Clouds 12 1026 87 6000 3.1 160 11:19 10.02.2020
2839 Clouds 11 1027 81 10000 2.6 180 10:46 10.02.2020
2840 Clouds 11 1027 93 7000 3.22 171 10:27 10.02.2020
2841 Clouds 11 1027 81 10000 2.6 180 09:47 10.02.2020
2842 Clouds 11 1027 81 10000 2.6 180 09:47 10.02.2020
2843 Clouds 10 1027 93 6000 1 0 09:26 10.02.2020
2844 Clouds 10 1027 93 6000 1 0 09:26 10.02.2020
2845 Clouds 10 1027 93 6000 1 0 09:26 10.02.2020
2846 Clouds 10 1027 81 10000 2.6 160 08:57 10.02.2020
2847 Clouds 10 1027 93 6000 3.22 171 08:37 10.02.2020
2848 Clouds 9 1027 93 6000 2.62 152 08:18 10.02.2020
2849 Clouds 9 1027 87 10000 2.6 170 07:49 10.02.2020
2850 Clouds 9 1027 87 10000 1.5 180 07:27 10.02.2020
2851 Clouds 9 1027 87 10000 2.1 180 06:20 10.02.2020
2852 Clouds 9 1027 87 10000 2.6 140 04:28 10.02.2020
2853 Clouds 9 1029 87 10000 2.1 180 03:34 10.02.2020
2854 Clouds 10 1029 81 10000 4.1 150 02:54 10.02.2020
2855 Clouds 10 1029 81 10000 4.1 150 01:55 10.02.2020
2856 Rain 9 1030 81 10000 4.6 150 00:49 10.02.2020
2857 Rain 9 1030 87 10000 3.1 170 00:31 10.02.2020
2858 Rain 10 1030 81 10000 3.6 170 23:55 09.02.2020
2859 Rain 10 1030 87 10000 4.1 160 23:36 09.02.2020
2860 Rain 10 1030 87 10000 4.1 160 23:18 09.02.2020
2861 Drizzle 10 1031 76 10000 4.1 150 22:39 09.02.2020
2862 Drizzle 10 1031 76 10000 4.1 150 22:20 09.02.2020
2863 Clouds 10 1031 76 10000 4.1 150 21:42 09.02.2020
2864 Clouds 10 1031 76 10000 4.1 150 21:23 09.02.2020
2865 Clouds 11 1031 71 10000 3.6 150 20:48 09.02.2020
2866 Clouds 11 1031 71 10000 4.6 160 20:27 09.02.2020
2867 Clouds 11 1031 71 10000 4.1 150 19:58 09.02.2020
2868 Clouds 11 1031 71 10000 4.6 150 19:39 09.02.2020
2869 Clouds 11 1031 71 10000 4.6 150 19:21 09.02.2020
2870 Clouds 11 1031 76 10000 4.1 160 18:56 09.02.2020
2871 Clouds 11 1031 71 10000 3.6 160 18:36 09.02.2020
2872 Clouds 11 1031 71 10000 3.6 160 18:18 09.02.2020
2873 Clouds 11 1031 66 10000 2.6 170 17:40 09.02.2020
2874 Clouds 12 1031 58 10000 3.1 190 17:22 09.02.2020
2875 Clouds 12 1031 58 10000 3.1 190 17:21 09.02.2020
2876 Clouds 13 1031 58 10000 4.1 190 16:44 09.02.2020
2877 Clouds 13 1031 54 10000 2.6 170 16:25 09.02.2020
2878 Clouds 13 1031 58 10000 3.6 180 15:59 09.02.2020
2879 Clouds 13 1031 58 10000 3.6 180 15:41 09.02.2020
2880 Clouds 14 1031 54 10000 3.6 160 15:22 09.02.2020
2881 Clouds 14 1031 54 10000 4.1 180 14:57 09.02.2020
2882 Clouds 14 1031 54 10000 4.1 180 14:39 09.02.2020
2883 Clouds 14 1032 51 10000 2.6 160 14:20 09.02.2020
2884 Clouds 14 1032 58 10000 2.6 180 13:44 09.02.2020
2885 Clouds 14 1032 58 10000 2.1 190 13:26 09.02.2020
2886 Clouds 14 1032 58 10000 3.1 170 12:56 09.02.2020
2887 Clouds 13 1033 50 10000 1.5 0 12:38 09.02.2020
2888 Clouds 13 1033 50 10000 1.5 0 12:18 09.02.2020
2889 Clouds 13 1032 58 10000 3.6 140 11:41 09.02.2020
2890 Clouds 12 1033 61 10000 2.1 340 11:22 09.02.2020
2891 Clouds 11 1032 58 10000 3.6 140 10:59 09.02.2020
2892 Clouds 10 1033 53 10000 2.6 10 10:40 09.02.2020
2893 Clouds 10 1033 53 10000 2.6 10 10:21 09.02.2020
2894 Clouds 10 1032 66 10000 3.1 130 09:45 09.02.2020
2895 Clouds 8 1031 76 10000 1.5 110 09:25 09.02.2020
2896 Clouds 5 1031 86 10000 1 70 08:45 09.02.2020
2897 Clouds 4 1032 52 10000 2.1 350 08:27 09.02.2020
2898 Clouds 3 1031 86 10000 2.6 90 07:58 09.02.2020
2899 Clouds 3 1031 80 10000 2.6 110 07:34 09.02.2020
2900 Clouds 4 1030 80 10000 3.1 110 06:47 09.02.2020
2901 Clouds 4 1030 80 10000 3.1 110 06:26 09.02.2020
2902 Clouds 4 1030 75 10000 1.5 110 05:38 09.02.2020
2903 Clouds 4 1030 62 10000 3.1 100 05:18 09.02.2020
2904 Clouds 5 1030 56 10000 2.1 110 03:52 09.02.2020
2905 Clouds 4 1030 75 10000 2.6 100 02:44 09.02.2020
2906 Clouds 4 1030 75 10000 2.6 100 02:25 09.02.2020
2907 Clouds 4 1030 75 10000 2.1 90 01:35 09.02.2020
2908 Clouds 4 1030 75 10000 2.1 100 00:42 09.02.2020
2909 Clouds 5 1030 75 10000 3.1 100 00:23 09.02.2020
2910 Clouds 5 1030 75 10000 2.1 100 23:42 08.02.2020
2911 Clouds 5 1030 75 10000 2.1 100 23:20 08.02.2020
2912 Clouds 5 1030 75 10000 2.1 100 22:42 08.02.2020
2913 Clouds 5 1029 75 10000 2.1 100 22:22 08.02.2020
2914 Clouds 6 1029 81 10000 2.6 100 21:58 08.02.2020
2915 Clouds 6 1029 81 10000 2.1 110 21:40 08.02.2020
2916 Clouds 6 1029 81 10000 2.1 110 21:20 08.02.2020
2917 Clouds 6 1029 81 10000 2.1 100 20:56 08.02.2020
2918 Clouds 6 1029 81 10000 2.1 100 20:38 08.02.2020
2919 Clouds 7 1029 81 10000 2.6 130 20:19 08.02.2020
2920 Clouds 7 1029 75 10000 2.1 150 19:54 08.02.2020
2921 Clouds 7 1029 70 10000 2.1 150 19:36 08.02.2020
2922 Clouds 8 1029 70 10000 2.1 150 19:18 08.02.2020
2923 Clouds 8 1029 66 10000 2.1 170 18:42 08.02.2020
2924 Clouds 8 1029 66 10000 2.1 170 18:42 08.02.2020
2925 Clouds 9 1028 61 10000 2.6 190 18:23 08.02.2020
2926 Clouds 11 1028 54 10000 2.6 190 17:43 08.02.2020
2927 Clouds 12 1028 33 10000 3.6 240 17:21 08.02.2020
2928 Clouds 13 1027 44 10000 2.6 210 16:58 08.02.2020
2929 Clouds 13 1027 44 10000 2.6 210 16:39 08.02.2020
2930 Clouds 14 1028 19 10000 1.5 0 16:20 08.02.2020
2931 Clouds 14 1027 33 10000 2.1 190 15:42 08.02.2020
2932 Clouds 14 1028 18 10000 1.5 0 15:19 08.02.2020
2933 Clouds 14 1027 33 10000 1.5 290 14:58 08.02.2020
2934 Clouds 14 1027 33 10000 1.5 290 14:39 08.02.2020
2935 Clear 14 1028 26 10000 0.5 0 14:18 08.02.2020
2936 Clear 14 1028 41 10000 1.5 0 13:43 08.02.2020
2937 Clear 13 1029 32 10000 0.7 128 13:23 08.02.2020
2938 Clear 13 1028 36 10000 1.5 280 12:57 08.02.2020
2939 Clear 13 1029 37 10000 0.7 128 12:37 08.02.2020
2940 Clear 12 1029 37 10000 0.7 128 12:19 08.02.2020
2941 Clear 11 1029 43 10000 0.5 0 11:41 08.02.2020
2942 Clear 10 1029 52 10000 1.5 0 11:21 08.02.2020
2943 Clear 10 1029 52 10000 1.5 320 10:43 08.02.2020
2944 Clear 8 1029 69 10000 1 0 10:25 08.02.2020
2945 Clear 8 1028 55 10000 1 350 09:55 08.02.2020
2946 Clear 7 1028 55 10000 1 0 09:36 08.02.2020
2947 Clear 7 1028 55 10000 1 0 09:18 08.02.2020
2948 Clear 5 1028 59 10000 1.5 360 08:40 08.02.2020
2949 Clear 2 1029 92 10000 2.51 13 08:22 08.02.2020
2950 Clear 2 1027 59 10000 2.6 30 07:50 08.02.2020
2951 Clear 2 1027 64 10000 1.5 10 07:32 08.02.2020
2952 Clear 2 1027 64 10000 1 0 06:41 08.02.2020
2953 Clear 2 1027 64 10000 0.5 0 06:18 08.02.2020
2954 Clear 2 1027 64 10000 1.5 360 05:32 08.02.2020
2955 Clear 2 1026 59 10000 1.5 60 04:53 08.02.2020
2956 Clear 2 1026 59 10000 1.5 60 04:18 08.02.2020
2957 Clear 3 1027 51 10000 2.1 100 03:20 08.02.2020
2958 Clear 3 1027 51 10000 1.5 90 02:28 08.02.2020
2959 Clear 3 1027 48 10000 2.6 90 01:28 08.02.2020
2960 Clear 4 1027 44 10000 1.5 80 00:46 08.02.2020
2961 Clear 3 1027 51 10000 2.6 90 00:25 08.02.2020
2962 Clear 4 1027 56 10000 2.6 100 23:57 07.02.2020
2963 Clear 4 1027 56 10000 2.6 100 23:38 07.02.2020
2964 Clear 4 1027 64 10000 3.1 120 23:19 07.02.2020
2965 Clear 5 1027 65 10000 2.6 110 22:41 07.02.2020
2966 Clear 5 1027 65 10000 2.6 110 22:19 07.02.2020
2967 Clear 5 1027 65 10000 2.6 110 22:19 07.02.2020
2968 Clear 5 1027 65 10000 3.1 110 21:57 07.02.2020
2969 Clear 5 1027 65 10000 2.6 110 21:39 07.02.2020
2970 Clear 5 1027 65 10000 2.6 110 21:19 07.02.2020
2971 Clear 6 1026 60 10000 3.1 120 20:39 07.02.2020
2972 Clear 6 1026 60 10000 3.1 120 20:19 07.02.2020
2973 Clear 6 1026 56 10000 3.1 130 19:54 07.02.2020
2974 Clear 7 1026 52 10000 2.1 130 19:36 07.02.2020
2975 Clear 7 1026 52 10000 2.1 130 19:18 07.02.2020
2976 Clear 8 1026 49 10000 1 160 18:43 07.02.2020
2977 Clear 9 1025 45 10000 1 190 18:24 07.02.2020
2978 Clear 10 1025 40 10000 1.5 250 17:44 07.02.2020
2979 Clear 11 1025 37 10000 3.1 260 17:22 07.02.2020
2980 Clear 11 1025 37 10000 3.1 260 17:22 07.02.2020
2981 Clear 12 1025 24 10000 3.6 270 16:59 07.02.2020
2982 Clear 13 1025 24 10000 3.6 270 16:41 07.02.2020
2983 Clear 13 1025 22 10000 3.6 250 16:22 07.02.2020
2984 Clear 13 1025 20 10000 3.1 320 15:53 07.02.2020
2985 Clear 13 1026 15 10000 1 0 15:28 07.02.2020
2986 Clear 13 1025 18 10000 3.1 330 14:55 07.02.2020
2987 Clear 13 1026 17 10000 0.3 359 14:37 07.02.2020
2988 Clear 13 1026 17 10000 0.96 356 14:19 07.02.2020
2989 Clear 13 1026 23 10000 2.1 310 13:56 07.02.2020
2990 Clear 13 1026 23 10000 2.1 310 13:37 07.02.2020
2991 Clear 12 1027 18 10000 1.5 0 13:18 07.02.2020
2992 Clear 12 1028 29 10000 1.5 0 12:41 07.02.2020
2993 Clear 12 1028 29 10000 1.5 0 12:22 07.02.2020
2994 Clear 10 1027 36 10000 2.1 30 11:45 07.02.2020
2995 Clear 10 1028 36 10000 1.5 0 11:22 07.02.2020
2996 Clear 8 1027 41 10000 2.1 360 10:57 07.02.2020
2997 Clear 8 1029 51 10000 1.99 14 10:38 07.02.2020
2998 Clear 7 1029 51 10000 1.99 14 10:19 07.02.2020
2999 Clear 7 1027 44 10000 2.1 20 09:40 07.02.2020
3000 Clear 5 1029 37 10000 1.99 14 09:22 07.02.2020
3001 Clear 4 1027 55 10000 2.6 20 08:44 07.02.2020
3002 Clear 2 1027 50 10000 1.5 30 08:21 07.02.2020
3003 Clear 2 1027 50 10000 1.5 30 08:21 07.02.2020
3004 Clear 1 1027 52 10000 2.1 30 07:53 07.02.2020
3005 Clear 1 1027 52 10000 2.1 20 07:32 07.02.2020
3006 Clear 2 1027 52 10000 1.5 10 06:57 07.02.2020
3007 Clear 1 1027 52 10000 2.6 360 06:38 07.02.2020
3008 Clear 2 1027 52 10000 2.6 360 06:18 07.02.2020
3009 Clear 2 1026 51 10000 4.6 30 05:37 07.02.2020
3010 Clear 2 1027 47 10000 2.6 40 03:43 07.02.2020
3011 Clear 3 1027 47 10000 1 0 01:53 07.02.2020
3012 Clear 3 1027 47 10000 2.1 20 00:59 07.02.2020
3013 Clear 3 1027 47 10000 1 0 00:26 07.02.2020
3014 Clear 3 1027 44 10000 2.1 30 23:38 06.02.2020
3015 Clear 3 1027 44 10000 2.1 30 23:19 06.02.2020
3016 Clear 4 1026 41 10000 0.5 0 22:47 06.02.2020
3017 Clear 4 1026 44 10000 2.1 40 22:26 06.02.2020
3018 Clear 4 1026 47 10000 1.5 90 21:57 06.02.2020
3019 Clear 5 1026 38 10000 2.1 100 21:36 06.02.2020
3020 Clear 5 1026 38 10000 2.1 100 21:18 06.02.2020
3021 Clear 5 1026 35 10000 2.6 50 20:55 06.02.2020
3022 Clear 5 1025 33 10000 2.1 20 20:36 06.02.2020
3023 Clear 6 1025 33 10000 2.1 20 20:18 06.02.2020
3024 Clear 6 1025 38 10000 4.1 340 19:56 06.02.2020
3025 Clear 6 1025 31 10000 4.6 350 19:37 06.02.2020
3026 Clear 7 1025 31 10000 4.6 350 19:18 06.02.2020
3027 Clear 8 1024 25 10000 4.1 360 18:40 06.02.2020
3028 Clear 8 1024 25 10000 4.1 360 18:22 06.02.2020
3029 Clear 9 1023 29 10000 4.6 330 17:57 06.02.2020
3030 Clear 10 1023 29 10000 4.6 330 17:38 06.02.2020
3031 Clear 11 1024 22 10000 5.1 360 17:19 06.02.2020
3032 Clear 12 1023 22 10000 5.7 340 16:42 06.02.2020
3033 Clear 12 1024 20 10000 5.7 360 16:23 06.02.2020
3034 Clear 12 1023 18 10000 5.1 360 15:43 06.02.2020
3035 Clear 12 1023 17 10000 5.7 360 15:23 06.02.2020
3036 Clear 12 1022 17 10000 5.7 360 14:57 06.02.2020
3037 Clear 12 1023 17 10000 6.7 10 14:39 06.02.2020
3038 Clear 12 1023 17 10000 6.7 10 14:20 06.02.2020
3039 Clear 12 1023 20 10000 6.7 360 13:41 06.02.2020
3040 Clear 11 1024 20 10000 5.7 20 13:22 06.02.2020
3041 Clear 11 1023 21 10000 6.7 360 12:44 06.02.2020
3042 Clear 11 1024 21 10000 8.2 20 12:19 06.02.2020
3043 Clear 11 1024 21 10000 8.2 20 12:19 06.02.2020
3044 Clear 10 1023 24 10000 8.7 360 11:57 06.02.2020
3045 Clear 10 1024 21 10000 7.7 30 11:39 06.02.2020
3046 Clear 9 1024 21 10000 7.7 30 11:19 06.02.2020
3047 Clear 8 1023 26 10000 7.2 360 10:56 06.02.2020
3048 Clear 8 1024 28 10000 7.2 360 10:38 06.02.2020
3049 Clear 8 1024 28 10000 7.2 360 10:20 06.02.2020
3050 Clear 7 1023 33 10000 6.2 350 09:56 06.02.2020
3051 Clear 7 1025 30 10000 3.6 10 09:36 06.02.2020
3052 Clear 6 1025 30 10000 3.6 10 09:18 06.02.2020
3053 Clear 6 1023 35 10000 5.1 10 08:41 06.02.2020
3054 Clear 5 1024 38 10000 5.1 350 08:22 06.02.2020
3055 Clear 4 1022 38 10000 2.6 20 07:47 06.02.2020
3056 Clear 4 1022 35 10000 7.2 10 07:25 06.02.2020
3057 Clear 4 1020 38 10000 6.2 360 06:22 06.02.2020
3058 Clear 4 1020 38 10000 6.2 360 06:22 06.02.2020
3059 Clear 4 1020 38 10000 4.6 360 05:56 06.02.2020
3060 Clear 5 1019 33 10000 6.7 20 04:43 06.02.2020
3061 Clear 6 1018 33 10000 5.1 20 03:20 06.02.2020
3062 Clear 6 1018 30 10000 8.7 10 02:29 06.02.2020
3063 Clear 6 1017 38 10000 9.8 350 01:35 06.02.2020
3064 Clear 7 1017 36 10000 8.7 360 00:58 06.02.2020
3065 Clear 7 1017 45 10000 7.7 360 00:26 06.02.2020
3066 Clear 7 1017 48 10000 8.2 10 23:46 05.02.2020
3067 Clear 7 1017 45 10000 10.3 360 23:28 05.02.2020
3068 Clear 7 1017 56 10000 9.8 10 22:58 05.02.2020
3069 Clear 6 1017 56 10000 9.8 10 22:39 05.02.2020
3070 Clear 6 1017 65 10000 8.2 10 22:21 05.02.2020
3071 Clear 6 1017 60 10000 10.8 360 21:42 05.02.2020
3072 Clear 6 1017 60 10000 9.3 360 21:24 05.02.2020
3073 Clear 6 1017 60 10000 11.8 360 20:59 05.02.2020
3074 Clear 6 1017 60 10000 11.8 360 20:38 05.02.2020
3075 Clear 7 1017 42 10000 10.8 10 20:19 05.02.2020
3076 Clouds 7 1016 25 10000 8.7 350 19:56 05.02.2020
3077 Clouds 8 1016 25 10000 8.7 350 19:38 05.02.2020
3078 Clouds 8 1016 26 10000 8.7 340 19:19 05.02.2020
3079 Clouds 9 1016 25 10000 7.7 350 18:45 05.02.2020
3080 Clouds 9 1015 23 10000 6.7 360 18:21 05.02.2020
3081 Clouds 9 1015 23 10000 6.7 360 18:21 05.02.2020
3082 Clouds 10 1015 21 10000 8.7 360 17:58 05.02.2020
3083 Clear 10 1015 20 10000 6.7 10 17:37 05.02.2020
3084 Clear 11 1015 20 10000 6.7 10 17:18 05.02.2020
3085 Clouds 11 1014 23 10000 10.3 10 16:44 05.02.2020
3086 Clouds 11 1014 19 10000 9.8 20 16:25 05.02.2020
3087 Clouds 12 1013 20 10000 12.3 350 15:59 05.02.2020
3088 Clouds 12 1013 20 10000 12.3 350 15:41 05.02.2020
3089 Clouds 12 1013 17 10000 8.2 360 15:19 05.02.2020
3090 Clouds 12 1012 20 10000 10.3 360 14:55 05.02.2020
3091 Clouds 12 1013 22 10000 7.2 360 14:37 05.02.2020
3092 Clouds 12 1013 22 10000 7.2 360 14:18 05.02.2020
3093 Clouds 12 1014 22 10000 9.3 10 13:40 05.02.2020
3094 Clouds 12 1014 22 10000 9.3 10 13:22 05.02.2020
3095 Clouds 12 1014 29 10000 8.7 350 12:44 05.02.2020
3096 Clouds 12 1015 27 10000 7.2 360 12:24 05.02.2020
3097 Clear 11 1015 34 10000 8.7 340 11:57 05.02.2020
3098 Clear 11 1015 29 10000 6.7 360 11:38 05.02.2020
3099 Clear 10 1015 29 10000 6.7 360 11:20 05.02.2020
3100 Clear 9 1015 39 10000 3.6 30 10:43 05.02.2020
3101 Clear 9 1015 39 10000 3.6 30 10:43 05.02.2020
3102 Clear 9 1015 36 10000 3.1 20 10:24 05.02.2020
3103 Clear 8 1014 45 10000 3.1 50 09:58 05.02.2020
3104 Clear 8 1015 39 10000 4.1 10 09:38 05.02.2020
3105 Clear 7 1015 39 10000 4.1 10 09:20 05.02.2020
3106 Clear 6 1014 48 10000 2.1 30 08:44 05.02.2020
3107 Clouds 5 1014 45 10000 5.1 360 08:24 05.02.2020
3108 Clouds 5 1013 55 10000 1.5 40 07:55 05.02.2020
3109 Clouds 5 1013 55 10000 1.5 40 07:55 05.02.2020
3110 Clouds 5 1012 60 10000 2.6 30 07:33 05.02.2020
3111 Clouds 4 1012 64 10000 2.1 30 06:50 05.02.2020
3112 Clouds 4 1012 64 10000 2.1 10 06:23 05.02.2020
3113 Clouds 5 1012 60 10000 2.6 70 05:58 05.02.2020
3114 Clouds 5 1011 60 10000 2.6 30 05:19 05.02.2020
3115 Clouds 5 1011 56 10000 5.1 350 04:52 05.02.2020
3116 Clouds 5 1011 52 10000 5.1 350 03:52 05.02.2020
3117 Clouds 6 1010 56 10000 10.3 350 02:26 05.02.2020
3118 Clouds 7 1010 56 10000 9.3 350 01:46 05.02.2020
3119 Clouds 7 1009 58 10000 10.3 350 00:43 05.02.2020
3120 Clouds 7 1008 58 10000 8.2 360 23:57 04.02.2020
3121 Clouds 7 1008 58 10000 8.2 360 23:38 04.02.2020
3122 Clouds 8 1007 49 10000 10.3 340 23:18 04.02.2020
3123 Clouds 8 1006 37 10000 5.1 360 22:54 04.02.2020
3124 Clouds 8 1005 37 10000 5.1 320 22:36 04.02.2020
3125 Clouds 8 1005 37 10000 5.1 320 22:18 04.02.2020
3126 Clouds 8 1005 37 10000 6.2 340 21:41 04.02.2020
3127 Clouds 8 1005 37 10000 6.2 340 21:41 04.02.2020
3128 Clouds 9 1005 37 10000 6.7 340 21:19 04.02.2020
3129 Clouds 9 1004 57 10000 4.6 30 20:59 04.02.2020
3130 Clouds 9 1004 57 10000 4.6 30 20:41 04.02.2020
3131 Rain 9 1004 61 10000 10.8 350 20:20 04.02.2020
3132 Rain 9 1005 53 10000 12.3 360 19:57 04.02.2020
3133 Clouds 9 1003 58 10000 12.3 350 19:39 04.02.2020
3134 Clouds 10 1003 58 10000 12.3 350 19:21 04.02.2020
3135 Clouds 11 1002 58 10000 10.3 320 18:55 04.02.2020
3136 Clouds 11 1001 58 10000 6.2 300 18:37 04.02.2020
3137 Clouds 12 1001 58 10000 6.2 300 18:18 04.02.2020
3138 Clouds 14 1002 39 10000 6.7 290 17:42 04.02.2020
3139 Clouds 15 1002 39 10000 6.7 290 17:21 04.02.2020
3140 Clouds 16 1003 34 10000 7.7 310 16:55 04.02.2020
3141 Clouds 16 1003 34 10000 7.7 310 16:36 04.02.2020
3142 Clouds 16 1003 34 10000 7.7 310 16:18 04.02.2020
3143 Clouds 17 1004 67 10000 3.1 210 15:55 04.02.2020
3144 Clouds 17 1004 59 10000 3.1 230 15:37 04.02.2020
3145 Clouds 17 1004 59 10000 3.1 230 15:18 04.02.2020
3146 Clouds 17 1005 67 10000 3.6 190 14:42 04.02.2020
3147 Clouds 17 1005 72 10000 3.6 160 14:23 04.02.2020
3148 Clouds 17 1007 72 10000 4.1 180 13:57 04.02.2020
3149 Clouds 17 1007 72 10000 4.1 180 13:39 04.02.2020
3150 Clouds 16 1008 68 9000 4.6 190 13:19 04.02.2020
3151 Clouds 16 1008 72 10000 5.1 160 12:43 04.02.2020
3152 Clouds 15 1009 72 9000 6.2 160 12:25 04.02.2020
3153 Clouds 15 1010 72 10000 5.7 160 11:58 04.02.2020
3154 Clouds 15 1010 77 9000 3.6 180 11:39 04.02.2020
3155 Clouds 14 1010 77 9000 3.6 180 11:20 04.02.2020
3156 Clouds 13 1011 76 10000 6.2 150 10:50 04.02.2020
3157 Clouds 13 1011 93 10000 1 0 10:30 04.02.2020
3158 Clouds 13 1011 82 10000 6.7 150 09:58 04.02.2020
3159 Mist 12 1012 93 5000 1.5 0 09:40 04.02.2020
3160 Mist 12 1012 93 5000 1.5 0 09:21 04.02.2020
3161 Clouds 11 1012 82 9000 4.1 150 08:50 04.02.2020
3162 Clouds 11 1013 100 7000 2.1 130 08:28 04.02.2020
3163 Clouds 11 1014 93 6000 1.5 360 07:57 04.02.2020
3164 Clouds 11 1014 93 6000 1.5 360 07:37 04.02.2020
3165 Mist 11 1014 93 5000 1.5 90 07:19 04.02.2020
3166 Clouds 11 1014 93 6000 1 0 06:42 04.02.2020
3167 Clouds 11 1016 93 6000 1.5 290 05:37 04.02.2020
3168 Clouds 11 1016 87 6000 3.1 70 04:51 04.02.2020
3169 Clouds 11 1017 93 6000 2.6 130 03:49 04.02.2020
3170 Clouds 11 1018 100 6000 2.6 150 03:30 04.02.2020
3171 Clouds 11 1018 93 6000 0.5 0 02:49 04.02.2020
3172 Clouds 11 1018 93 6000 0.5 0 02:28 04.02.2020
3173 Clouds 11 1018 93 6000 2.6 90 01:47 04.02.2020
3174 Clouds 11 1018 93 6000 1 0 01:19 04.02.2020
3175 Clouds 11 1019 93 6000 1.5 50 00:25 04.02.2020
3176 Clouds 11 1019 100 6000 1 0 23:56 03.02.2020
3177 Mist 11 1019 100 5000 2.6 90 23:38 03.02.2020
3178 Clouds 11 1019 93 7000 1 0 23:18 03.02.2020
3179 Clear 11 1019 93 10000 1 120 22:39 03.02.2020
3180 Clear 11 1019 93 10000 1 120 22:20 03.02.2020
3181 Clear 11 1019 93 10000 0.5 0 21:42 03.02.2020
3182 Clear 12 1019 93 10000 1 0 21:20 03.02.2020
3183 Clear 12 1018 87 10000 1 60 20:57 03.02.2020
3184 Clear 12 1018 87 10000 1 60 20:57 03.02.2020
3185 Clear 12 1018 87 10000 1 120 20:39 03.02.2020
3186 Clear 12 1018 87 10000 1 120 20:18 03.02.2020
3187 Clear 12 1018 87 10000 1 0 19:56 03.02.2020
3188 Clear 13 1018 82 10000 1 0 19:37 03.02.2020
3189 Clear 13 1018 82 10000 1 0 19:18 03.02.2020
3190 Clear 13 1018 87 10000 2.1 200 18:41 03.02.2020
3191 Clear 13 1018 87 10000 2.1 200 18:41 03.02.2020
3192 Clear 13 1017 82 10000 2.6 190 18:22 03.02.2020
3193 Clear 14 1017 77 10000 2.6 200 17:58 03.02.2020
3194 Clear 14 1017 77 10000 2.1 230 17:39 03.02.2020
3195 Clear 15 1017 77 10000 2.1 230 17:19 03.02.2020
3196 Clear 16 1017 67 10000 3.1 190 16:40 03.02.2020
3197 Clear 16 1017 59 10000 1.5 0 16:22 03.02.2020
3198 Clear 17 1017 63 10000 3.6 200 15:59 03.02.2020
3199 Clear 17 1017 63 10000 3.6 200 15:39 03.02.2020
3200 Clouds 17 1017 63 10000 1 0 15:20 03.02.2020
3201 Clear 17 1017 63 10000 3.1 190 14:58 03.02.2020
3202 Clear 18 1018 59 10000 1 0 14:39 03.02.2020
3203 Clouds 18 1018 59 10000 1 0 14:21 03.02.2020
3204 Clouds 17 1018 63 10000 3.1 200 13:43 03.02.2020
3205 Clouds 17 1019 63 10000 1 0 13:21 03.02.2020
3206 Clouds 17 1019 67 10000 1.5 310 12:59 03.02.2020
3207 Clouds 17 1019 67 10000 1.5 310 12:40 03.02.2020
3208 Clouds 17 1020 67 10000 2.1 80 12:21 03.02.2020
3209 Clouds 16 1020 63 10000 2.1 180 11:56 03.02.2020
3210 Clouds 16 1021 76 10000 0.34 118 11:37 03.02.2020
3211 Clouds 15 1021 76 10000 1.6 79 11:18 03.02.2020
3212 Clouds 14 1020 76 10000 2.1 50 10:40 03.02.2020
3213 Clouds 13 1020 100 10000 1 0 10:22 03.02.2020
3214 Clouds 12 1020 81 10000 1.5 80 09:48 03.02.2020
3215 Clouds 11 1020 87 10000 1.5 100 09:24 03.02.2020
3216 Clouds 10 1020 87 10000 0.5 140 08:56 03.02.2020
3217 Clouds 10 1020 87 10000 0.5 140 08:56 03.02.2020
3218 Clouds 10 1020 87 10000 0.5 140 08:37 03.02.2020
3219 Clouds 10 1020 93 10000 0.5 0 08:19 03.02.2020
3220 Clouds 9 1020 87 10000 2.1 100 07:40 03.02.2020
3221 Clouds 10 1021 93 10000 1 0 07:21 03.02.2020
3222 Clouds 9 1020 87 10000 1 0 06:51 03.02.2020
3223 Clouds 10 1020 87 10000 2.6 90 06:28 03.02.2020
3224 Clouds 10 1020 87 10000 2.6 90 06:28 03.02.2020
3225 Clouds 10 1020 93 10000 1 0 05:37 03.02.2020
3226 Clouds 10 1020 93 10000 1 0 05:18 03.02.2020
3227 Clouds 11 1021 81 10000 2.1 130 03:42 03.02.2020
3228 Clouds 11 1021 81 10000 1.5 110 02:35 03.02.2020
3229 Clouds 11 1021 81 10000 2.1 100 01:42 03.02.2020
3230 Clouds 12 1021 76 10000 3.1 140 00:47 03.02.2020
3231 Clouds 12 1022 82 10000 2.6 140 00:24 03.02.2020
3232 Clouds 12 1022 82 10000 2.1 140 23:39 02.02.2020
3233 Clouds 12 1022 82 10000 2.6 150 23:21 02.02.2020
3234 Clouds 12 1022 82 10000 1.5 130 22:57 02.02.2020
3235 Clouds 12 1022 82 10000 1.5 130 22:57 02.02.2020
3236 Clouds 12 1022 82 10000 1.5 130 22:38 02.02.2020
3237 Clouds 12 1022 82 10000 2.6 150 22:19 02.02.2020
3238 Clouds 11 1022 81 10000 1.5 110 21:55 02.02.2020
3239 Clouds 11 1022 87 10000 2.6 150 21:37 02.02.2020
3240 Clouds 12 1022 87 10000 2.6 150 21:18 02.02.2020
3241 Clouds 11 1022 93 10000 2.6 140 20:55 02.02.2020
3242 Clouds 12 1022 87 10000 3.1 140 20:36 02.02.2020
3243 Clouds 12 1022 87 10000 3.1 140 20:18 02.02.2020
3244 Clouds 12 1022 82 10000 2.1 180 19:55 02.02.2020
3245 Clouds 12 1022 82 10000 2.1 180 19:55 02.02.2020
3246 Clouds 12 1022 82 10000 3.1 150 19:36 02.02.2020
3247 Clouds 12 1022 82 10000 3.1 150 19:18 02.02.2020
3248 Clouds 12 1022 82 10000 1.5 170 18:39 02.02.2020
3249 Clouds 13 1022 76 10000 2.6 190 18:21 02.02.2020
3250 Clouds 13 1021 76 10000 3.6 190 17:58 02.02.2020
3251 Clouds 14 1021 72 10000 2.1 230 17:38 02.02.2020
3252 Clouds 14 1021 72 10000 2.1 230 17:19 02.02.2020
3253 Clouds 15 1021 72 10000 3.1 190 16:58 02.02.2020
3254 Clouds 15 1021 72 10000 3.1 190 16:39 02.02.2020
3255 Clouds 15 1021 67 10000 2.6 210 16:19 02.02.2020
3256 Clouds 15 1021 67 10000 3.1 210 15:59 02.02.2020
3257 Clouds 15 1021 67 10000 3.1 210 15:39 02.02.2020
3258 Clouds 15 1022 72 10000 1.5 0 15:20 02.02.2020
3259 Clouds 15 1022 72 10000 1.5 0 15:20 02.02.2020
3260 Clouds 15 1021 63 10000 2.6 210 14:56 02.02.2020
3261 Clouds 15 1021 63 10000 2.6 210 14:38 02.02.2020
3262 Clouds 15 1022 72 10000 1 0 14:18 02.02.2020
3263 Clouds 15 1022 72 10000 2.6 230 13:54 02.02.2020
3264 Clouds 15 1022 93 9000 1.5 0 13:36 02.02.2020
3265 Clouds 15 1022 93 9000 1.5 0 13:18 02.02.2020
3266 Clouds 15 1022 72 10000 2.6 240 12:42 02.02.2020
3267 Clouds 15 1023 82 8000 2.56 175 12:22 02.02.2020
3268 Clouds 15 1023 67 10000 2.1 230 11:56 02.02.2020
3269 Mist 15 1023 93 3500 1.5 0 11:37 02.02.2020
3270 Mist 14 1023 93 3500 1.5 0 11:18 02.02.2020
3271 Clouds 13 1022 82 8000 1.5 200 10:55 02.02.2020
3272 Clouds 13 1022 82 8000 1.5 200 10:55 02.02.2020
3273 Mist 13 1023 100 1600 1 0 10:36 02.02.2020
3274 Mist 13 1023 100 1600 1 0 10:18 02.02.2020
3275 Clouds 12 1022 87 8000 0.5 0 09:40 02.02.2020
3276 Fog 12 1022 100 600 1 0 09:21 02.02.2020
3277 Clouds 11 1022 87 7000 1.5 130 08:56 02.02.2020
3278 Fog 11 1021 100 600 0.5 0 08:38 02.02.2020
3279 Fog 11 1021 100 600 0.5 0 08:19 02.02.2020
3280 Clouds 11 1021 87 8000 1 130 07:44 02.02.2020
3281 Clouds 11 1021 93 10000 1 130 07:25 02.02.2020
3282 Clouds 11 1021 87 10000 1.5 150 06:38 02.02.2020
3283 Clouds 11 1021 87 10000 1.5 150 06:19 02.02.2020
3284 Clouds 11 1020 87 10000 1.5 140 05:36 02.02.2020
3285 Clouds 11 1020 87 8000 1.5 80 04:30 02.02.2020
3286 Clouds 11 1021 87 10000 0.5 160 03:24 02.02.2020
3287 Clouds 11 1021 87 10000 1.5 160 02:22 02.02.2020
3288 Clouds 11 1021 87 10000 1.5 150 01:52 02.02.2020
3289 Clouds 11 1021 87 10000 2.1 150 01:19 02.02.2020
3290 Clouds 11 1021 93 10000 1.5 140 00:39 02.02.2020
3291 Clouds 11 1021 93 10000 1.5 130 00:18 02.02.2020
3292 Clouds 11 1021 93 10000 2.1 120 23:43 01.02.2020
3293 Clouds 11 1021 87 10000 2.1 130 23:21 01.02.2020
3294 Clouds 11 1021 93 10000 1.5 110 22:45 01.02.2020
3295 Clouds 11 1021 93 10000 1.5 120 22:19 01.02.2020
3296 Clouds 11 1021 93 10000 1 0 21:44 01.02.2020
3297 Clouds 11 1021 93 10000 1.5 150 21:19 01.02.2020
3298 Clouds 11 1021 87 9000 2.1 150 20:57 01.02.2020
3299 Clouds 11 1021 93 9000 1.5 170 20:38 01.02.2020
3300 Clouds 12 1021 93 9000 1.5 170 20:19 01.02.2020
3301 Clouds 12 1021 87 9000 1.5 170 19:56 01.02.2020
3302 Clouds 12 1021 87 9000 1.5 190 19:37 01.02.2020
3303 Clouds 12 1021 87 9000 1.5 190 19:19 01.02.2020
3304 Clouds 12 1021 87 9000 2.1 190 18:55 01.02.2020
3305 Clouds 12 1021 87 9000 1.5 190 18:37 01.02.2020
3306 Clouds 12 1021 87 9000 1.5 190 18:19 01.02.2020
3307 Clouds 12 1020 87 9000 1.5 180 17:55 01.02.2020
3308 Fog 12 1021 100 700 1.5 0 17:36 01.02.2020
3309 Fog 13 1021 100 700 1.5 0 17:18 01.02.2020
3310 Clouds 13 1020 82 9000 1.5 180 16:41 01.02.2020
3311 Fog 13 1021 100 700 1 0 16:21 01.02.2020
3312 Fog 13 1021 100 700 1 0 16:21 01.02.2020
3313 Clouds 13 1020 82 8000 2.6 190 15:47 01.02.2020
3314 Fog 13 1021 93 900 1.5 0 15:29 01.02.2020
3315 Clouds 13 1020 76 8000 2.1 190 14:59 01.02.2020
3316 Clouds 13 1020 76 8000 2.1 190 14:59 01.02.2020
3317 Fog 13 1021 100 700 1.5 0 14:39 01.02.2020
3318 Fog 13 1021 100 700 1.5 0 14:20 01.02.2020
3319 Fog 13 1021 93 700 1.5 0 13:45 01.02.2020
3320 Fog 13 1021 93 700 1.5 0 13:45 01.02.2020
3321 Mist 13 1021 100 1400 1 0 13:22 01.02.2020
3322 Clouds 12 1021 76 8000 2.6 160 12:48 01.02.2020
3323 Mist 12 1022 93 2500 1 0 12:30 01.02.2020
3324 Clouds 12 1022 87 8000 2.6 160 11:58 01.02.2020
3325 Mist 12 1022 93 3000 1 0 11:38 01.02.2020
3326 Mist 12 1022 93 3000 1 0 11:19 01.02.2020
3327 Clouds 12 1022 87 8000 2.6 160 10:57 01.02.2020
3328 Clouds 12 1022 87 8000 2.6 160 10:38 01.02.2020
3329 Mist 12 1022 93 3500 1 0 10:20 01.02.2020
3330 Clouds 11 1021 82 8000 2.6 160 09:57 01.02.2020
3331 Clouds 11 1022 100 6000 0.83 87 09:38 01.02.2020
3332 Clouds 11 1022 100 6000 0.83 87 09:19 01.02.2020
3333 Clouds 11 1021 81 8000 1 0 08:41 01.02.2020
3334 Clouds 11 1021 87 10000 0.5 0 07:48 01.02.2020
3335 Clouds 11 1020 87 10000 1 180 07:26 01.02.2020
3336 Clouds 11 1020 87 10000 1 0 06:55 01.02.2020
3337 Clouds 11 1020 87 10000 1 0 06:55 01.02.2020
3338 Clouds 11 1020 87 10000 1 0 06:32 01.02.2020
3339 Clouds 11 1020 87 10000 1 120 05:51 01.02.2020
3340 Clouds 11 1021 87 10000 1 330 03:53 01.02.2020
3341 Clouds 11 1021 87 10000 1 0 03:21 01.02.2020
3342 Clouds 11 1021 87 10000 1 0 02:45 01.02.2020
3343 Clouds 11 1021 87 10000 1 0 02:26 01.02.2020
3344 Clouds 11 1021 81 10000 0.5 0 01:52 01.02.2020
3345 Clouds 11 1021 81 10000 0.5 0 01:31 01.02.2020
3346 Clouds 11 1021 81 10000 1 0 00:30 01.02.2020
3347 Clouds 11 1021 81 10000 1.5 60 23:43 31.01.2020
3348 Clouds 11 1021 81 10000 1.5 80 23:20 31.01.2020
3349 Clouds 11 1021 81 10000 2.1 100 22:59 31.01.2020
3350 Clouds 11 1021 81 10000 2.1 100 22:40 31.01.2020
3351 Clouds 11 1021 81 10000 1.5 120 22:22 31.01.2020
3352 Clouds 11 1021 81 10000 1 0 21:56 31.01.2020
3353 Clouds 11 1021 87 10000 1.5 120 21:38 31.01.2020
3354 Clouds 11 1021 87 10000 1.5 120 21:19 31.01.2020
3355 Clouds 11 1021 87 10000 1.5 120 20:56 31.01.2020
3356 Clouds 11 1021 87 10000 1.5 120 20:37 31.01.2020
3357 Clouds 11 1021 87 10000 1.5 120 20:19 31.01.2020
3358 Clouds 11 1021 81 10000 1.5 110 19:56 31.01.2020
3359 Clouds 11 1021 81 10000 1.5 120 19:37 31.01.2020
3360 Clouds 11 1021 81 10000 1.5 120 19:18 31.01.2020
3361 Clouds 12 1021 76 10000 1.5 10 18:41 31.01.2020
3362 Clouds 12 1021 71 10000 1 0 18:23 31.01.2020
3363 Clouds 12 1021 71 10000 1 0 17:54 31.01.2020
3364 Clouds 12 1021 67 10000 1.5 0 17:36 31.01.2020
3365 Clouds 12 1021 67 10000 1.5 0 17:18 31.01.2020
3366 Clouds 12 1021 71 10000 1.5 40 16:54 31.01.2020
3367 Clouds 12 1021 71 10000 1.5 40 16:54 31.01.2020
3368 Clouds 12 1021 67 10000 1.5 0 16:36 31.01.2020
3369 Clouds 13 1021 67 10000 1.5 0 16:18 31.01.2020
3370 Clouds 13 1021 67 10000 3.1 140 15:41 31.01.2020
3371 Clouds 13 1021 67 10000 1.5 0 15:20 31.01.2020
3372 Clouds 13 1021 67 10000 3.6 130 14:55 31.01.2020
3373 Clouds 13 1021 71 10000 1 0 14:36 31.01.2020
3374 Clouds 13 1021 71 10000 1 0 14:36 31.01.2020
3375 Clouds 13 1021 71 10000 1 0 14:18 31.01.2020
3376 Clouds 12 1021 71 10000 3.6 150 13:43 31.01.2020
3377 Clouds 12 1022 67 10000 1 0 13:24 31.01.2020
3378 Clouds 13 1022 71 10000 3.1 150 12:45 31.01.2020
3379 Clouds 12 1023 71 10000 2.1 100 12:24 31.01.2020
3380 Clouds 12 1022 66 10000 3.1 140 11:56 31.01.2020
3381 Clouds 12 1022 66 10000 3.1 140 11:38 31.01.2020
3382 Clouds 11 1023 76 8000 2.6 110 11:19 31.01.2020
3383 Clouds 11 1022 71 10000 2.1 120 10:55 31.01.2020
3384 Clouds 11 1023 71 8000 2.1 90 10:36 31.01.2020
3385 Clouds 11 1023 71 8000 2.1 90 10:18 31.01.2020
3386 Clouds 10 1022 76 10000 3.1 120 09:42 31.01.2020
3387 Clouds 10 1022 87 8000 1.48 137 09:21 31.01.2020
3388 Clouds 10 1022 76 9000 2.6 150 08:56 31.01.2020
3389 Clouds 10 1022 93 10000 1.48 137 08:38 31.01.2020
3390 Clouds 10 1022 93 10000 1.15 121 08:19 31.01.2020
3391 Clouds 10 1021 76 10000 2.1 160 07:46 31.01.2020
3392 Clouds 10 1021 76 10000 2.6 140 07:18 31.01.2020
3393 Clouds 10 1021 81 10000 1.5 160 06:31 31.01.2020
3394 Clouds 9 1021 81 10000 2.1 150 05:54 31.01.2020
3395 Clouds 10 1021 81 10000 2.1 150 05:54 31.01.2020
3396 Clouds 9 1021 76 10000 1.5 170 05:19 31.01.2020
3397 Clouds 9 1021 81 10000 2.6 130 03:52 31.01.2020
3398 Clouds 9 1022 81 10000 3.6 150 01:54 31.01.2020
3399 Clouds 9 1022 71 10000 1.5 120 01:29 31.01.2020
3400 Clouds 9 1022 76 10000 1.5 110 00:38 31.01.2020
3401 Clouds 9 1022 71 10000 1.5 90 00:20 31.01.2020
3402 Clouds 9 1022 76 10000 1 160 23:39 30.01.2020
3403 Clouds 9 1022 81 10000 2.6 120 23:20 30.01.2020
3404 Clouds 9 1022 76 10000 2.6 130 22:38 30.01.2020
3405 Clouds 10 1022 76 10000 1.5 150 22:19 30.01.2020
3406 Clouds 9 1022 81 10000 2.1 120 21:58 30.01.2020
3407 Clouds 9 1022 81 10000 2.1 120 21:39 30.01.2020
3408 Clouds 9 1022 81 10000 1.5 120 21:18 30.01.2020
3409 Clouds 9 1022 81 10000 2.6 110 20:55 30.01.2020
3410 Clouds 9 1022 81 10000 2.1 120 20:37 30.01.2020
3411 Clouds 9 1022 81 10000 2.1 120 20:18 30.01.2020
3412 Clouds 10 1021 81 10000 1.5 170 19:42 30.01.2020
3413 Clouds 10 1021 81 10000 1.5 170 19:19 30.01.2020
3414 Clouds 10 1021 81 10000 1.5 170 18:43 30.01.2020
3415 Clouds 11 1021 76 10000 2.1 190 18:24 30.01.2020
3416 Clouds 12 1021 71 10000 2.1 200 17:59 30.01.2020
3417 Clouds 12 1021 71 10000 2.1 200 17:40 30.01.2020
3418 Clouds 13 1021 62 10000 3.6 230 17:19 30.01.2020
3419 Clouds 13 1020 67 10000 4.1 210 16:58 30.01.2020
3420 Clouds 13 1020 67 10000 4.1 210 16:39 30.01.2020
3421 Clear 14 1020 54 10000 4.1 230 16:20 30.01.2020
3422 Clear 14 1020 58 10000 3.6 200 15:44 30.01.2020
3423 Clear 15 1020 48 10000 1 0 15:21 30.01.2020
3424 Clear 15 1020 54 10000 3.6 200 14:54 30.01.2020
3425 Clear 15 1021 47 10000 3.31 193 14:36 30.01.2020
3426 Clouds 15 1021 47 10000 1.78 184 14:18 30.01.2020
3427 Clouds 15 1021 51 10000 4.1 180 13:40 30.01.2020
3428 Clouds 15 1021 58 10000 1.7 176 13:22 30.01.2020
3429 Clouds 14 1021 62 10000 1.5 300 12:54 30.01.2020
3430 Clouds 14 1021 62 10000 1 0 12:36 30.01.2020
3431 Clouds 14 1021 62 10000 1 0 12:18 30.01.2020
3432 Clouds 12 1021 71 10000 1 0 11:40 30.01.2020
3433 Clouds 12 1022 76 10000 1.5 0 11:21 30.01.2020
3434 Clouds 11 1021 76 10000 2.1 360 10:57 30.01.2020
3435 Clouds 10 1022 93 10000 1.5 0 10:38 30.01.2020
3436 Clouds 10 1022 93 10000 1.5 0 10:19 30.01.2020
3437 Clouds 9 1021 81 10000 3.1 20 09:43 30.01.2020
3438 Clouds 8 1021 81 10000 3.6 50 09:22 30.01.2020
3439 Clouds 6 1020 86 10000 1.5 60 08:42 30.01.2020
3440 Clouds 6 1020 86 10000 1.5 60 08:22 30.01.2020
3441 Clouds 5 1020 86 10000 2.6 350 07:53 30.01.2020
3442 Clouds 5 1019 86 10000 3.6 40 07:35 30.01.2020
3443 Clouds 5 1019 93 10000 1.5 10 06:49 30.01.2020
3444 Clouds 5 1019 93 10000 1.5 40 06:31 30.01.2020
3445 Clouds 5 1019 93 10000 0.5 0 05:47 30.01.2020
3446 Clouds 6 1019 86 10000 1 0 05:27 30.01.2020
3447 Clear 5 1018 86 10000 1 0 04:23 30.01.2020
3448 Clear 6 1018 87 10000 1 0 03:46 30.01.2020
3449 Clear 6 1018 86 10000 1.5 80 02:54 30.01.2020
3450 Clear 6 1018 81 10000 1.5 110 00:56 30.01.2020
3451 Clear 6 1018 87 10000 1.5 100 00:26 30.01.2020
3452 Clear 7 1017 87 10000 1.5 80 23:51 29.01.2020
3453 Clear 7 1017 81 10000 1.5 120 23:23 29.01.2020
3454 Clear 8 1017 87 10000 0.5 0 22:59 29.01.2020
3455 Clear 8 1017 87 10000 0.5 0 22:40 29.01.2020
3456 Clear 8 1017 76 10000 1 0 22:20 29.01.2020
3457 Clear 8 1016 81 10000 3.1 80 21:59 29.01.2020
3458 Clear 8 1016 87 10000 0.5 0 21:40 29.01.2020
3459 Clear 8 1016 87 10000 0.5 0 21:20 29.01.2020
3460 Clear 8 1016 87 10000 1.5 350 20:59 29.01.2020
3461 Clear 8 1015 87 10000 1.5 120 20:40 29.01.2020
3462 Rain 9 1015 87 10000 1.5 120 20:21 29.01.2020
3463 Rain 9 1015 87 10000 1.5 120 20:21 29.01.2020
3464 Rain 9 1015 87 10000 1.5 120 19:57 29.01.2020
3465 Rain 9 1015 87 10000 1.5 120 19:38 29.01.2020
3466 Rain 10 1014 81 10000 2.6 100 19:20 29.01.2020
3467 Rain 10 1014 81 10000 1.5 100 18:55 29.01.2020
3468 Rain 10 1014 76 10000 0.5 0 18:37 29.01.2020
3469 Rain 11 1014 76 10000 0.5 0 18:18 29.01.2020
3470 Rain 12 1013 71 10000 0.5 0 17:40 29.01.2020
3471 Clouds 13 1013 67 10000 1.5 0 17:22 29.01.2020
3472 Clouds 13 1013 67 10000 1.5 0 17:22 29.01.2020
3473 Clouds 14 1012 67 10000 2.1 250 16:43 29.01.2020
3474 Clouds 14 1013 59 10000 1 0 16:23 29.01.2020
3475 Clouds 14 1013 67 10000 2.1 280 15:59 29.01.2020
3476 Clouds 14 1013 67 10000 2.1 280 15:38 29.01.2020
3477 Clouds 15 1012 59 10000 1.5 0 15:20 29.01.2020
3478 Clouds 15 1013 71 10000 2.6 260 14:45 29.01.2020
3479 Clouds 15 1013 67 10000 1.65 188 14:22 29.01.2020
3480 Clouds 14 1013 71 10000 3.6 270 13:56 29.01.2020
3481 Clouds 14 1013 77 9000 0.5 0 13:38 29.01.2020
3482 Clouds 14 1013 77 9000 0.5 0 13:19 29.01.2020
3483 Clouds 14 1014 71 10000 3.6 260 12:56 29.01.2020
3484 Clouds 14 1014 100 7000 0.5 0 12:37 29.01.2020
3485 Clouds 13 1014 100 7000 0.5 0 12:19 29.01.2020
3486 Clouds 13 1014 82 10000 2.6 190 11:45 29.01.2020
3487 Mist 12 1014 100 3000 0.5 0 11:21 29.01.2020
3488 Clouds 11 1013 76 10000 2.6 180 10:47 29.01.2020
3489 Mist 11 1014 100 2000 1 0 10:27 29.01.2020
3490 Fog 9 1014 100 150 1.5 0 09:58 29.01.2020
3491 Fog 9 1014 100 150 1.5 0 09:40 29.01.2020
3492 Fog 8 1014 100 150 1.5 0 09:20 29.01.2020
3493 Clouds 8 1014 93 10000 2.6 110 08:56 29.01.2020
3494 Fog 8 1014 93 50 1 0 08:38 29.01.2020
3495 Fog 8 1014 93 50 1 0 08:38 29.01.2020
3496 Fog 7 1014 93 50 1 0 08:18 29.01.2020
3497 Clouds 7 1013 93 10000 2.6 100 07:43 29.01.2020
3498 Clouds 7 1013 87 10000 2.1 130 07:23 29.01.2020
3499 Clouds 7 1013 93 10000 2.6 110 06:38 29.01.2020
3500 Clouds 7 1013 93 10000 2.1 120 06:20 29.01.2020
3501 Clouds 8 1013 93 10000 1.5 100 05:54 29.01.2020
3502 Clouds 8 1013 93 10000 2.1 110 05:35 29.01.2020
3503 Clouds 8 1013 93 10000 2.1 140 04:39 29.01.2020
3504 Clouds 9 1012 93 10000 2.6 120 04:18 29.01.2020
3505 Clouds 10 1012 87 10000 2.6 230 02:40 29.01.2020
3506 Clouds 11 1012 76 10000 3.6 290 01:34 29.01.2020
3507 Clouds 11 1013 87 10000 2.6 240 00:39 29.01.2020
3508 Clouds 11 1012 76 10000 5.1 290 00:21 29.01.2020
3509 Clouds 11 1013 81 10000 2.6 180 23:41 28.01.2020
3510 Clouds 12 1013 76 10000 2.6 180 23:20 28.01.2020
3511 Clouds 12 1013 81 10000 2.6 190 22:56 28.01.2020
3512 Clouds 12 1013 82 10000 4.1 190 22:37 28.01.2020
3513 Clouds 12 1013 82 10000 4.1 190 22:18 28.01.2020
3514 Clouds 12 1013 82 10000 4.1 190 22:18 28.01.2020
3515 Clouds 12 1013 82 10000 3.6 170 21:39 28.01.2020
3516 Clouds 12 1013 82 10000 5.1 160 21:20 28.01.2020
3517 Clouds 12 1013 82 10000 4.6 160 20:46 28.01.2020
3518 Clouds 12 1013 82 10000 5.1 160 20:27 28.01.2020
3519 Clouds 12 1014 82 10000 3.6 170 19:58 28.01.2020
3520 Rain 12 1014 82 10000 3.6 160 19:38 28.01.2020
3521 Rain 12 1014 82 10000 3.6 160 19:19 28.01.2020
3522 Rain 12 1014 82 10000 3.6 170 18:54 28.01.2020
3523 Clouds 12 1014 76 10000 4.1 160 18:36 28.01.2020
3524 Clouds 12 1014 76 10000 4.1 160 18:36 28.01.2020
3525 Clouds 12 1014 76 10000 4.1 160 18:18 28.01.2020
3526 Clouds 12 1014 76 10000 4.1 160 17:55 28.01.2020
3527 Clouds 12 1014 87 9000 3.1 160 17:36 28.01.2020
3528 Clouds 12 1014 87 9000 3.1 160 17:18 28.01.2020
3529 Clouds 12 1014 76 10000 3.1 170 16:44 28.01.2020
3530 Clouds 12 1014 76 9000 3.1 180 16:26 28.01.2020
3531 Clouds 12 1014 82 10000 4.1 160 15:59 28.01.2020
3532 Clouds 12 1014 82 10000 4.1 160 15:40 28.01.2020
3533 Rain 12 1015 82 7000 2.6 170 15:18 28.01.2020
3534 Rain 12 1016 93 4000 2.1 40 14:44 28.01.2020
3535 Clouds 12 1015 82 10000 2.1 180 14:20 28.01.2020
3536 Clouds 12 1016 82 9000 3.1 190 13:43 28.01.2020
3537 Clouds 12 1016 82 9000 3.1 190 13:25 28.01.2020
3538 Rain 12 1016 81 10000 3.1 180 12:56 28.01.2020
3539 Rain 12 1017 82 6000 2.6 160 12:38 28.01.2020
3540 Rain 12 1017 82 6000 2.6 160 12:20 28.01.2020
3541 Clouds 12 1017 76 10000 3.6 170 11:41 28.01.2020
3542 Clouds 12 1017 76 10000 3.6 170 11:41 28.01.2020
3543 Clouds 12 1017 87 9000 1.5 0 11:22 28.01.2020
3544 Clouds 12 1017 81 10000 3.6 180 10:55 28.01.2020
3545 Clouds 11 1017 81 9000 1.5 0 10:36 28.01.2020
3546 Clouds 11 1017 81 9000 1.5 0 10:18 28.01.2020
3547 Clouds 11 1017 76 10000 3.6 160 09:42 28.01.2020
3548 Clouds 11 1017 93 9000 1.5 0 09:20 28.01.2020
3549 Clouds 10 1017 81 10000 3.1 150 08:46 28.01.2020
3550 Clouds 10 1017 100 9000 2.1 150 08:26 28.01.2020
3551 Clouds 10 1017 87 10000 2.1 170 07:56 28.01.2020
3552 Clouds 10 1017 87 10000 2.1 160 07:34 28.01.2020
3553 Clouds 10 1018 87 10000 2.1 180 06:48 28.01.2020
3554 Clouds 10 1018 87 10000 2.1 180 06:25 28.01.2020
3555 Clouds 10 1017 93 10000 3.1 160 05:40 28.01.2020
3556 Rain 10 1018 93 10000 2.1 180 05:21 28.01.2020
3557 Clouds 10 1018 87 10000 2.1 170 03:49 28.01.2020
3558 Clouds 10 1019 87 10000 2.1 150 02:48 28.01.2020
3559 Clouds 10 1019 87 10000 2.1 160 02:25 28.01.2020
3560 Clouds 10 1019 93 10000 2.1 160 01:55 28.01.2020
3561 Clouds 10 1019 93 10000 2.1 190 01:22 28.01.2020
3562 Clouds 10 1019 93 10000 2.6 170 00:45 28.01.2020
3563 Rain 10 1020 93 7000 2.1 180 00:22 28.01.2020
3564 Clouds 10 1020 93 10000 2.6 170 23:44 27.01.2020
3565 Clouds 10 1020 93 10000 3.1 170 23:20 27.01.2020
3566 Clouds 10 1020 87 10000 2.6 170 22:45 27.01.2020
3567 Rain 10 1020 93 7000 2.6 170 22:20 27.01.2020
3568 Rain 10 1020 93 7000 2.6 170 22:20 27.01.2020
3569 Rain 10 1020 93 8000 2.6 170 21:58 27.01.2020
3570 Clouds 10 1020 87 10000 2.6 140 21:39 27.01.2020
3571 Clouds 10 1020 87 10000 2.6 140 21:19 27.01.2020
3572 Rain 10 1020 87 10000 1 0 20:57 27.01.2020
3573 Clouds 10 1020 81 10000 2.6 220 20:38 27.01.2020
3574 Clouds 10 1020 81 10000 2.6 220 20:19 27.01.2020
3575 Clouds 10 1020 87 9000 2.6 140 19:56 27.01.2020
3576 Clouds 10 1020 87 10000 2.1 150 19:38 27.01.2020
3577 Clouds 10 1020 87 10000 2.1 150 19:19 27.01.2020
3578 Clouds 11 1020 87 10000 2.1 170 18:40 27.01.2020
3579 Rain 11 1020 87 10000 1 0 18:21 27.01.2020
3580 Rain 11 1020 76 10000 1.5 200 17:58 27.01.2020
3581 Clouds 11 1020 66 10000 1.5 210 17:38 27.01.2020
3582 Clouds 12 1020 66 10000 1.5 210 17:19 27.01.2020
3583 Clouds 12 1020 66 10000 1.5 210 16:56 27.01.2020
3584 Clouds 13 1020 58 10000 2.6 240 16:37 27.01.2020
3585 Clouds 14 1020 58 10000 2.6 240 16:19 27.01.2020
3586 Clouds 14 1020 71 10000 2.6 250 15:41 27.01.2020
3587 Clouds 14 1020 62 10000 1 0 15:20 27.01.2020
3588 Clouds 14 1020 62 10000 1 0 14:57 27.01.2020
3589 Clouds 14 1020 62 10000 1 0 14:39 27.01.2020
3590 Clouds 14 1020 58 10000 1 0 14:20 27.01.2020
3591 Clouds 14 1020 67 10000 1.5 0 13:42 27.01.2020
3592 Clouds 14 1021 66 10000 0.72 188 13:23 27.01.2020
3593 Clouds 13 1021 71 10000 1.5 330 12:58 27.01.2020
3594 Clouds 13 1022 71 6000 0.81 175 12:39 27.01.2020
3595 Clouds 13 1022 71 6000 0.81 175 12:21 27.01.2020
3596 Clouds 12 1021 71 10000 1.5 320 11:43 27.01.2020
3597 Clouds 11 1021 76 10000 2.1 70 11:22 27.01.2020
3598 Clouds 10 1022 87 10000 2.1 360 10:56 27.01.2020
3599 Clouds 10 1022 87 10000 2.1 360 10:38 27.01.2020
3600 Fog 8 1022 100 300 2.1 0 10:20 27.01.2020
3601 Fog 7 1021 87 10000 1 0 09:39 27.01.2020
3602 Clouds 7 1021 93 10000 1 0 09:19 27.01.2020
3603 Fog 6 1021 93 10000 1 0 08:55 27.01.2020
3604 Fog 6 1021 100 50 2.6 360 08:37 27.01.2020
3605 Fog 5 1021 100 50 2.6 360 08:18 27.01.2020
3606 Fog 5 1020 93 7000 0.5 0 07:45 27.01.2020
3607 Clear 5 1020 93 7000 1.5 80 07:25 27.01.2020
3608 Mist 5 1020 93 3000 0.5 0 06:37 27.01.2020
3609 Mist 5 1020 100 3000 1 0 05:43 27.01.2020
3610 Mist 6 1020 93 5000 1 0 04:37 27.01.2020
3611 Clear 5 1020 93 6000 1.93 6 03:35 27.01.2020
3612 Clear 6 1020 100 10000 2.1 90 01:54 27.01.2020
3613 Clear 6 1020 87 6000 1.5 90 01:25 27.01.2020
3614 Clear 6 1020 87 7000 1.5 80 00:41 27.01.2020
3615 Clear 6 1020 87 7000 1.5 80 00:21 27.01.2020
3616 Clear 7 1020 87 10000 1.5 90 23:43 26.01.2020
3617 Clear 7 1020 87 10000 1.5 90 23:22 26.01.2020
3618 Clear 7 1020 93 10000 2.1 100 22:58 26.01.2020
3619 Clear 7 1019 93 10000 2.1 100 22:38 26.01.2020
3620 Clear 7 1019 93 10000 2.1 100 22:20 26.01.2020
3621 Clouds 7 1019 93 10000 1.5 100 21:57 26.01.2020
3622 Clouds 8 1019 87 10000 1 100 21:39 26.01.2020
3623 Clouds 8 1019 87 10000 1 100 21:20 26.01.2020
3624 Clouds 8 1019 87 10000 1 0 20:57 26.01.2020
3625 Clouds 8 1019 87 10000 0.5 0 20:38 26.01.2020
3626 Clouds 8 1019 87 10000 0.5 0 20:38 26.01.2020
3627 Clouds 8 1019 87 10000 0.5 0 20:19 26.01.2020
3628 Clouds 8 1019 87 10000 0.5 0 20:19 26.01.2020
3629 Clouds 8 1019 87 10000 0.5 0 19:57 26.01.2020
3630 Clouds 8 1019 87 10000 0.5 0 19:38 26.01.2020
3631 Clouds 9 1019 81 10000 0.5 0 19:19 26.01.2020
3632 Clouds 9 1019 81 10000 0.5 0 19:19 26.01.2020
3633 Clouds 9 1019 76 10000 1.5 260 18:55 26.01.2020
3634 Clouds 9 1019 76 10000 1.5 260 18:55 26.01.2020
3635 Clouds 10 1019 76 10000 2.1 260 18:36 26.01.2020
3636 Clouds 10 1019 76 10000 2.1 260 18:18 26.01.2020
3637 Clouds 10 1019 76 10000 2.1 260 18:18 26.01.2020
3638 Clouds 11 1018 71 10000 2.1 270 17:55 26.01.2020
3639 Clouds 11 1019 71 10000 2.1 360 17:36 26.01.2020
3640 Clouds 12 1019 71 10000 2.1 360 17:18 26.01.2020
3641 Clouds 12 1018 71 10000 3.1 250 16:55 26.01.2020
3642 Clouds 12 1018 67 10000 2.1 350 16:37 26.01.2020
3643 Clouds 13 1018 67 10000 2.1 350 16:18 26.01.2020
3644 Clouds 13 1015 70 0 1.09 298 15:42 26.01.2020
3645 Clouds 13 1015 70 0 1.09 298 15:19 26.01.2020
3646 Clouds 13 1015 71 0 1.09 298 14:55 26.01.2020
3647 Clouds 13 1015 71 0 1.09 298 14:37 26.01.2020
3648 Clouds 13 1015 72 0 0.9 314 14:18 26.01.2020
3649 Clouds 13 1016 72 0 0.9 314 13:39 26.01.2020
3650 Clouds 13 1034 69 0 2.68 273 13:18 26.01.2020
3651 Clouds 12 1016 73 0 0.68 336 12:43 26.01.2020
3652 Clouds 12 1016 73 0 0.68 336 12:43 26.01.2020
3653 Clouds 12 1016 73 0 0.68 336 12:43 26.01.2020
3654 Clouds 12 1016 75 0 0.68 336 12:25 26.01.2020
3655 Clouds 12 1017 77 0 0.68 336 11:59 26.01.2020
3656 Clouds 11 1017 77 0 0.68 336 11:40 26.01.2020
3657 Fog 10 1021 100 400 2.1 15 11:19 26.01.2020
3658 Fog 9 1021 100 400 2.1 15 10:59 26.01.2020
3659 Clouds 9 1020 93 8000 1.5 20 10:39 26.01.2020
3660 Fog 9 1021 100 400 2.1 15 10:21 26.01.2020
3661 Clouds 9 1020 93 8000 1 0 09:59 26.01.2020
3662 Clouds 9 1020 93 8000 1 0 09:41 26.01.2020
3663 Clouds 8 1020 93 8000 0.5 0 09:22 26.01.2020
3664 Clouds 8 1020 93 8000 1.5 340 08:45 26.01.2020
3665 Clouds 7 1020 100 8000 0.5 0 08:24 26.01.2020
3666 Clouds 8 1020 93 8000 1.5 20 07:59 26.01.2020
3667 Clouds 7 1020 93 8000 1.5 20 07:41 26.01.2020
3668 Clouds 7 1020 93 10000 1 0 07:22 26.01.2020
3669 Clouds 8 1019 93 10000 1 0 06:32 26.01.2020
3670 Clouds 8 1020 87 10000 2.1 90 05:35 26.01.2020
3671 Clear 8 1020 87 10000 2.1 70 04:52 26.01.2020
3672 Clear 8 1021 93 10000 2.1 60 02:59 26.01.2020
3673 Clouds 8 1021 87 10000 1.5 40 01:59 26.01.2020
3674 Clouds 8 1021 87 10000 0.5 0 01:38 26.01.2020
3675 Clouds 8 1021 87 10000 0.5 0 01:19 26.01.2020
3676 Clouds 8 1022 87 10000 0.5 0 00:39 26.01.2020
3677 Clouds 9 1022 87 10000 0.5 0 00:20 26.01.2020
3678 Clouds 8 1022 87 10000 0.5 0 00:20 26.01.2020
3679 Clouds 9 1022 87 10000 0.5 0 00:20 26.01.2020
3680 Clouds 9 1019 83 0 1.82 45 23:37 25.01.2020
3681 Clouds 8 1019 83 0 1.49 78 23:19 25.01.2020
3682 Clouds 9 1019 83 0 1.49 78 22:43 25.01.2020
3683 Clouds 9 1019 83 0 1.49 78 22:43 25.01.2020
3684 Clouds 9 1019 82 0 1.49 78 22:20 25.01.2020
3685 Clouds 9 1019 82 0 1.49 78 21:57 25.01.2020
3686 Clouds 9 1019 82 0 1.49 78 21:39 25.01.2020
3687 Clouds 10 1022 87 0 1.49 78 21:21 25.01.2020
3688 Clouds 10 1022 87 0 1.49 78 20:45 25.01.2020
3689 Clear 11 1022 82 0 1.08 175 20:26 25.01.2020
3690 Clear 10 1019 83 0 1.08 175 19:57 25.01.2020
3691 Rain 10 1019 82 0 1.34 158 19:38 25.01.2020
3692 Clear 10 1005 69 0 1.08 175 19:19 25.01.2020
3693 Clear 10 1005 67 0 1.08 175 18:56 25.01.2020
3694 Clear 11 1034 85 0 1.08 175 18:37 25.01.2020
3695 Clear 11 1034 85 0 1.08 175 18:18 25.01.2020
3696 Clear 11 1034 84 0 1.08 175 17:39 25.01.2020
3697 Rain 12 1018 78 0 0.89 90 17:19 25.01.2020
3698 Rain 12 1018 78 0 0.45 90 16:56 25.01.2020
3699 Rain 13 1018 77 0 0.45 90 16:38 25.01.2020
3700 Rain 13 1019 77 0 0.45 90 16:19 25.01.2020
3701 Rain 13 1018 76 0 0.89 90 15:42 25.01.2020
3702 Rain 13 1018 74 0 0.89 90 15:24 25.01.2020
3703 Rain 14 1018 75 0 0.89 90 14:57 25.01.2020
3704 Rain 14 1018 74 0 0.89 90 14:39 25.01.2020
3705 Rain 14 1034 82 0 3.13 140 14:18 25.01.2020
3706 Rain 13 1019 75 0 1.79 90 13:40 25.01.2020
3707 Rain 13 1019 75 0 0.89 90 13:22 25.01.2020
3708 Clouds 13 1023 71 10000 4.6 150 12:43 25.01.2020
3709 Clouds 13 1023 71 10000 4.6 150 12:43 25.01.2020
3710 Clouds 12 1023 71 10000 4.6 150 12:21 25.01.2020
3711 Clouds 12 1023 71 10000 4.6 150 11:45 25.01.2020
3712 Clouds 12 1023 71 10000 4.6 150 11:45 25.01.2020
3713 Clouds 12 1024 87 10000 4.1 120 11:21 25.01.2020
3714 Clouds 12 1024 87 10000 4.1 120 11:21 25.01.2020
3715 Clouds 11 1023 82 10000 4.6 140 10:57 25.01.2020
3716 Clouds 11 1023 82 10000 4.6 140 10:39 25.01.2020
3717 Clouds 11 1023 87 9000 4.1 120 10:20 25.01.2020
3718 Rain 10 1023 81 5000 5.7 150 09:41 25.01.2020
3719 Clouds 10 1023 87 8000 2.6 120 09:22 25.01.2020
3720 Clouds 10 1022 87 8000 4.6 150 08:44 25.01.2020
3721 Rain 10 1023 87 6000 3.6 120 08:21 25.01.2020
3722 Clouds 10 1022 76 8000 5.7 140 07:42 25.01.2020
3723 Clouds 10 1022 76 8000 5.7 140 07:42 25.01.2020
3724 Clouds 10 1022 76 10000 6.7 140 06:45 25.01.2020
3725 Clouds 10 1022 76 10000 6.7 150 06:25 25.01.2020
3726 Rain 10 1022 76 10000 6.2 140 05:45 25.01.2020
3727 Rain 10 1022 71 10000 6.2 150 04:26 25.01.2020
3728 Rain 10 1022 66 10000 5.1 160 03:50 25.01.2020
3729 Rain 10 1023 66 10000 5.1 160 02:53 25.01.2020
3730 Rain 10 1023 76 10000 4.1 150 01:59 25.01.2020
3731 Rain 10 1023 76 10000 4.1 150 01:59 25.01.2020
3732 Rain 10 1023 66 10000 4.6 150 01:37 25.01.2020
3733 Rain 10 1023 66 10000 4.6 150 01:37 25.01.2020
3734 Clouds 11 1023 66 10000 5.1 160 00:42 25.01.2020
3735 Clouds 11 1024 66 10000 5.1 150 00:23 25.01.2020
3736 Clouds 11 1024 62 10000 3.1 160 23:57 24.01.2020
3737 Clouds 11 1024 62 10000 3.1 160 23:38 24.01.2020
3738 Clouds 11 1024 62 10000 3.6 150 23:20 24.01.2020
3739 Clouds 11 1024 62 10000 2.6 140 22:42 24.01.2020
3740 Clouds 11 1024 62 10000 2.6 140 22:24 24.01.2020
3741 Clouds 11 1024 71 10000 1.5 110 21:42 24.01.2020
3742 Clouds 11 1024 71 10000 1.5 90 21:20 24.01.2020
3743 Clouds 11 1025 71 10000 1 0 20:56 24.01.2020
3744 Clouds 11 1025 66 10000 2.6 260 20:37 24.01.2020
3745 Clouds 11 1025 66 10000 2.6 260 20:18 24.01.2020
3746 Clouds 11 1024 66 10000 4.1 130 19:55 24.01.2020
3747 Clouds 11 1024 66 10000 4.6 130 19:37 24.01.2020
3748 Clouds 11 1024 66 10000 4.6 130 19:19 24.01.2020
3749 Clouds 11 1025 66 10000 3.6 160 18:42 24.01.2020
3750 Clouds 11 1025 66 10000 3.1 170 18:22 24.01.2020
3751 Clouds 11 1025 66 10000 3.1 160 17:46 24.01.2020
3752 Clouds 12 1025 71 6000 3.6 160 17:23 24.01.2020
3753 Clouds 12 1025 71 10000 3.6 160 16:58 24.01.2020
3754 Clouds 12 1025 76 6000 1.5 0 16:39 24.01.2020
3755 Clouds 12 1025 76 6000 1.5 0 16:19 24.01.2020
3756 Clouds 12 1025 71 10000 2.1 140 15:42 24.01.2020
3757 Clouds 12 1026 81 6000 1 0 15:22 24.01.2020
3758 Clouds 13 1025 66 9000 3.1 170 14:55 24.01.2020
3759 Mist 13 1026 76 5000 1 0 14:37 24.01.2020
3760 Mist 13 1026 76 5000 1 0 14:19 24.01.2020
3761 Clouds 13 1026 62 9000 2.6 160 13:41 24.01.2020
3762 Mist 13 1027 76 5000 1.5 0 13:22 24.01.2020
3763 Mist 13 1027 76 5000 1.5 0 13:22 24.01.2020
3764 Clouds 12 1026 62 9000 3.1 130 12:43 24.01.2020
3765 Clear 12 1027 81 6000 2.6 340 12:21 24.01.2020
3766 Clouds 11 1027 66 8000 3.1 150 11:45 24.01.2020
3767 Clear 11 1028 87 6000 2.6 350 11:19 24.01.2020
3768 Clouds 10 1027 71 7000 3.1 160 10:58 24.01.2020
3769 Clouds 9 1027 71 7000 3.1 160 10:40 24.01.2020
3770 Mist 8 1028 100 5000 3.1 360 10:19 24.01.2020
3771 Clouds 8 1027 81 8000 1.5 330 09:41 24.01.2020
3772 Mist 7 1028 100 4000 3.1 350 09:23 24.01.2020
3773 Clouds 6 1027 86 6000 0.5 0 08:41 24.01.2020
3774 Mist 5 1028 100 2000 2.1 350 08:21 24.01.2020
3775 Clouds 5 1026 93 6000 2.1 120 07:59 24.01.2020
3776 Clouds 5 1026 93 6000 2.1 120 07:41 24.01.2020
3777 Clear 5 1026 87 6000 2.1 110 06:55 24.01.2020
3778 Clear 5 1026 87 8000 2.1 130 06:35 24.01.2020
3779 Clear 5 1026 81 8000 2.6 130 05:59 24.01.2020
3780 Clear 5 1026 81 8000 1.5 120 05:20 24.01.2020
3781 Clear 5 1027 93 8000 0.5 0 02:56 24.01.2020
3782 Clear 5 1027 93 8000 0.5 0 02:38 24.01.2020
3783 Clear 5 1027 93 8000 1 350 02:18 24.01.2020
3784 Clear 5 1027 86 8000 1 120 01:37 24.01.2020
3785 Clear 6 1027 86 8000 1 0 00:39 24.01.2020
3786 Clear 6 1027 81 8000 1.5 90 23:58 23.01.2020
3787 Clear 6 1027 81 8000 2.1 90 23:40 23.01.2020
3788 Clear 6 1027 81 8000 2.1 90 23:21 23.01.2020
3789 Clear 7 1027 81 7000 2.1 100 22:55 23.01.2020
3790 Clear 7 1027 81 7000 2.1 100 22:55 23.01.2020
3791 Clear 7 1027 81 7000 2.1 80 22:36 23.01.2020
3792 Clear 7 1027 81 7000 2.1 80 22:36 23.01.2020
3793 Clear 7 1027 81 7000 2.1 80 22:18 23.01.2020
3794 Clear 7 1027 81 7000 2.1 80 22:18 23.01.2020
3795 Clear 7 1027 81 7000 2.1 100 21:54 23.01.2020
3796 Clear 7 1027 81 7000 2.1 100 21:36 23.01.2020
3797 Clear 7 1027 81 7000 2.1 100 21:18 23.01.2020
3798 Clear 8 1027 87 7000 1.5 110 20:40 23.01.2020
3799 Clear 8 1027 81 7000 2.1 120 20:22 23.01.2020
3800 Clear 8 1027 81 7000 1.5 110 19:57 23.01.2020
3801 Clear 8 1027 81 7000 1.5 110 19:38 23.01.2020
3802 Clear 8 1027 81 7000 1.5 110 19:38 23.01.2020
3803 Clear 9 1027 81 10000 2.1 120 19:20 23.01.2020
3804 Clear 9 1027 76 10000 1 130 18:56 23.01.2020
3805 Clear 9 1027 71 10000 1 170 18:37 23.01.2020
3806 Clear 10 1027 71 10000 1 170 18:19 23.01.2020
3807 Clear 11 1027 66 10000 0.5 0 17:44 23.01.2020
3808 Clear 12 1027 58 10000 0.09 91 17:21 23.01.2020
3809 Clear 13 1027 58 10000 1 0 16:58 23.01.2020
3810 Clear 14 1027 54 10000 1 0 16:38 23.01.2020
3811 Clear 14 1027 54 10000 1 0 16:19 23.01.2020
3812 Clear 14 1027 62 10000 1.5 340 15:57 23.01.2020
3813 Clear 15 1027 54 10000 1 0 15:38 23.01.2020
3814 Clear 15 1027 54 10000 1 0 15:19 23.01.2020
3815 Clear 15 1027 58 10000 1 0 14:57 23.01.2020
3816 Clear 15 1027 58 10000 1 0 14:39 23.01.2020
3817 Clear 15 1028 62 8000 0.5 0 14:21 23.01.2020
3818 Clear 14 1028 62 10000 1.5 360 13:45 23.01.2020
3819 Clear 14 1029 66 10000 1 0 13:21 23.01.2020
3820 Clear 14 1029 66 10000 2.1 30 12:56 23.01.2020
3821 Clear 13 1030 76 10000 2.6 350 12:38 23.01.2020
3822 Clear 13 1030 76 10000 2.6 350 12:20 23.01.2020
3823 Clear 12 1029 71 10000 2.6 20 11:43 23.01.2020
3824 Clear 12 1030 93 8000 2.6 340 11:24 23.01.2020
3825 Clear 10 1030 81 10000 2.6 10 10:58 23.01.2020
3826 Mist 10 1031 100 5000 2.1 360 10:40 23.01.2020
3827 Mist 9 1031 100 5000 2.1 360 10:18 23.01.2020
3828 Clear 8 1030 93 10000 1.5 340 09:41 23.01.2020
3829 Clear 8 1030 93 10000 1.5 340 09:41 23.01.2020
3830 Fog 7 1031 100 0 1 0 09:21 23.01.2020
3831 Clear 6 1029 93 7000 2.1 10 08:56 23.01.2020
3832 Clear 5 1029 93 7000 2.1 10 08:37 23.01.2020
3833 Fog 4 1030 100 200 2.6 360 08:18 23.01.2020
3834 Fog 4 1029 93 8000 1.5 20 07:37 23.01.2020
3835 Fog 4 1029 93 8000 1.5 20 07:18 23.01.2020
3836 Fog 5 1028 93 300 1.5 10 06:44 23.01.2020
3837 Fog 5 1028 93 8000 1.5 20 06:18 23.01.2020
3838 Clear 5 1028 93 10000 0.5 0 04:25 23.01.2020
3839 Clear 5 1029 87 10000 2.6 70 03:23 23.01.2020
3840 Clear 6 1030 87 10000 1.5 110 01:53 23.01.2020
3841 Clear 6 1030 87 10000 1.5 90 00:44 23.01.2020
3842 Clear 6 1030 87 10000 2.6 110 00:22 23.01.2020
3843 Clear 6 1030 81 10000 2.6 90 23:46 22.01.2020
3844 Mist 6 1030 87 5000 2.1 100 23:28 22.01.2020
3845 Clear 7 1030 81 6000 1 0 22:43 22.01.2020
3846 Clear 7 1030 87 6000 2.6 100 22:25 22.01.2020
3847 Clear 7 1030 93 6000 2.1 110 21:58 22.01.2020
3848 Clear 7 1030 93 6000 2.6 110 21:36 22.01.2020
3849 Clear 7 1030 93 6000 2.6 110 21:36 22.01.2020
3850 Clear 7 1030 93 6000 2.6 110 21:18 22.01.2020
3851 Clear 8 1030 87 6000 2.1 120 20:42 22.01.2020
3852 Clear 8 1030 87 6000 2.1 120 20:23 22.01.2020
3853 Clear 8 1030 87 8000 2.1 130 19:59 22.01.2020
3854 Clear 9 1030 87 8000 2.1 130 19:41 22.01.2020
3855 Clear 9 1030 87 10000 2.6 130 19:21 22.01.2020
3856 Clear 9 1030 87 10000 1.5 150 18:58 22.01.2020
3857 Clear 9 1030 87 10000 1.5 150 18:39 22.01.2020
3858 Clear 10 1030 81 10000 1.5 210 18:21 22.01.2020
3859 Clear 10 1030 66 10000 0.5 0 17:57 22.01.2020
3860 Clear 11 1031 58 10000 0.86 303 17:39 22.01.2020
3861 Clear 12 1031 58 10000 0.27 234 17:19 22.01.2020
3862 Clear 13 1030 58 10000 2.1 310 16:54 22.01.2020
3863 Clear 14 1031 51 10000 0.27 234 16:36 22.01.2020
3864 Clear 14 1031 51 10000 0.27 234 16:18 22.01.2020
3865 Clear 14 1031 58 10000 1.5 290 15:41 22.01.2020
3866 Clear 15 1032 48 10000 0.27 234 15:23 22.01.2020
3867 Clear 15 1031 51 10000 0.5 0 14:58 22.01.2020
3868 Clear 14 1032 58 10000 1 0 14:37 22.01.2020
3869 Clouds 14 1032 58 10000 1 0 14:19 22.01.2020
3870 Clouds 14 1032 58 10000 1 0 13:56 22.01.2020
3871 Clouds 14 1032 58 10000 1 0 13:56 22.01.2020
3872 Clouds 14 1033 54 10000 0.73 26 13:37 22.01.2020
3873 Clouds 14 1033 54 10000 0.74 32 13:19 22.01.2020
3874 Clouds 13 1033 58 10000 1.5 350 12:56 22.01.2020
3875 Clouds 13 1033 58 10000 1.5 350 12:37 22.01.2020
3876 Clouds 13 1035 66 10000 1.5 0 12:18 22.01.2020
3877 Clouds 13 1034 66 10000 2.1 360 11:56 22.01.2020
3878 Clouds 12 1034 66 10000 2.1 360 11:38 22.01.2020
3879 Clouds 11 1035 75 10000 2.1 10 11:19 22.01.2020
3880 Clouds 10 1034 70 10000 1.5 20 10:44 22.01.2020
3881 Clouds 9 1035 70 10000 1.5 0 10:21 22.01.2020
3882 Clouds 8 1034 80 10000 2.1 10 09:45 22.01.2020
3883 Clouds 8 1035 93 10000 1.5 0 09:26 22.01.2020
3884 Clouds 6 1034 86 10000 3.1 10 08:59 22.01.2020
3885 Clouds 6 1034 86 10000 3.1 10 08:40 22.01.2020
3886 Clouds 4 1035 93 10000 1.5 0 08:21 22.01.2020
3887 Clouds 4 1034 76 10000 1 0 07:58 22.01.2020
3888 Clouds 4 1034 76 10000 1 0 07:58 22.01.2020
3889 Clouds 5 1034 80 10000 4.1 30 07:40 22.01.2020
3890 Clouds 4 1034 80 10000 4.1 30 07:21 22.01.2020
3891 Clouds 4 1034 80 10000 2.6 20 06:31 22.01.2020
3892 Clouds 5 1034 80 10000 2.1 20 05:41 22.01.2020
3893 Clouds 5 1035 86 10000 2.6 360 04:20 22.01.2020
3894 Clouds 5 1035 80 10000 1.5 30 03:23 22.01.2020
3895 Clouds 5 1035 80 10000 1.5 30 03:23 22.01.2020
3896 Clouds 5 1035 75 10000 2.1 10 02:27 22.01.2020
3897 Clouds 7 1035 61 10000 2.6 80 00:46 22.01.2020
3898 Clouds 7 1035 61 10000 2.6 70 00:26 22.01.2020
3899 Clouds 7 1035 61 10000 3.1 80 23:39 21.01.2020
3900 Clouds 7 1035 61 10000 2.1 100 23:21 21.01.2020
3901 Clouds 7 1035 61 10000 2.1 120 22:59 21.01.2020
3902 Clouds 7 1035 61 10000 2.1 120 22:39 21.01.2020
3903 Clouds 8 1035 65 10000 1 0 22:20 21.01.2020
3904 Clouds 8 1035 61 10000 1.5 110 21:56 21.01.2020
3905 Clouds 8 1035 61 10000 1.5 110 21:38 21.01.2020
3906 Clouds 8 1035 70 10000 1 0 21:19 21.01.2020
3907 Clouds 8 1035 65 10000 1.5 110 20:56 21.01.2020
3908 Clouds 8 1035 70 10000 1 0 20:37 21.01.2020
3909 Clouds 8 1035 70 10000 1 0 20:18 21.01.2020
3910 Clouds 8 1035 70 10000 1 0 20:18 21.01.2020
3911 Clouds 9 1035 53 10000 1 0 19:56 21.01.2020
3912 Clouds 9 1035 57 10000 1.5 60 19:37 21.01.2020
3913 Clouds 9 1035 57 10000 1.5 60 19:37 21.01.2020
3914 Clouds 9 1035 57 10000 1.5 60 19:18 21.01.2020
3915 Clouds 9 1035 61 10000 1.5 40 18:55 21.01.2020
3916 Clouds 9 1035 61 10000 2.6 40 18:36 21.01.2020
3917 Clouds 9 1035 61 10000 2.6 40 18:18 21.01.2020
3918 Clouds 11 1035 50 10000 1.5 0 17:42 21.01.2020
3919 Clouds 11 1035 50 10000 1.5 0 17:19 21.01.2020
3920 Clouds 11 1035 54 10000 2.6 10 16:57 21.01.2020
3921 Clouds 12 1036 50 10000 2.6 40 16:36 21.01.2020
3922 Clouds 12 1036 50 10000 2.6 40 16:36 21.01.2020
3923 Clouds 12 1036 50 10000 2.6 40 16:18 21.01.2020
3924 Clouds 13 1036 50 10000 2.6 30 15:40 21.01.2020
3925 Clouds 13 1036 50 10000 2.6 30 15:20 21.01.2020
3926 Clouds 13 1035 44 10000 4.1 350 14:57 21.01.2020
3927 Clouds 13 1036 54 10000 1 0 14:37 21.01.2020
3928 Clouds 13 1036 54 10000 1 0 14:18 21.01.2020
3929 Clouds 13 1036 47 10000 3.1 350 13:39 21.01.2020
3930 Clouds 13 1037 54 10000 3.1 30 13:18 21.01.2020
3931 Clouds 13 1037 44 10000 3.1 340 12:43 21.01.2020
3932 Clouds 12 1038 57 10000 3.6 30 12:25 21.01.2020
3933 Clouds 12 1037 46 10000 3.1 360 11:57 21.01.2020
3934 Clouds 12 1037 46 10000 3.1 360 11:38 21.01.2020
3935 Clouds 11 1039 61 10000 2.6 20 11:19 21.01.2020
3936 Clouds 9 1037 50 10000 4.1 60 10:44 21.01.2020
3937 Clouds 9 1039 81 10000 1 0 10:23 21.01.2020
3938 Clouds 8 1037 67 10000 3.1 20 09:59 21.01.2020
3939 Clouds 7 1037 67 10000 3.1 20 09:40 21.01.2020
3940 Clouds 7 1038 93 10000 1 0 09:21 21.01.2020
3941 Clouds 6 1037 60 10000 3.6 10 08:47 21.01.2020
3942 Clouds 5 1038 93 10000 1 0 08:27 21.01.2020
3943 Clouds 5 1036 65 10000 4.1 20 07:56 21.01.2020
3944 Clouds 5 1036 65 10000 4.1 30 07:37 21.01.2020
3945 Clouds 5 1036 65 10000 4.1 30 07:19 21.01.2020
3946 Clouds 5 1036 65 10000 4.6 20 06:44 21.01.2020
3947 Clouds 5 1036 60 10000 4.1 20 06:23 21.01.2020
3948 Clear 5 1037 81 10000 3.6 20 05:41 21.01.2020
3949 Clear 5 1037 87 10000 4.6 10 04:39 21.01.2020
3950 Clear 5 1037 87 10000 4.6 10 04:39 21.01.2020
3951 Clouds 6 1036 45 10000 5.7 60 02:34 21.01.2020
3952 Clouds 7 1036 45 10000 4.1 60 01:37 21.01.2020
3953 Clouds 7 1036 45 10000 3.6 40 00:52 21.01.2020
3954 Clouds 7 1036 45 10000 4.6 30 00:29 21.01.2020
3955 Clouds 7 1036 49 10000 4.1 40 23:57 20.01.2020
3956 Clouds 7 1036 49 10000 4.1 40 23:36 20.01.2020
3957 Clouds 7 1036 49 10000 4.1 40 23:18 20.01.2020
3958 Clouds 7 1036 45 10000 4.6 40 22:55 20.01.2020
3959 Clouds 8 1036 49 10000 5.1 30 22:36 20.01.2020
3960 Clouds 8 1036 49 10000 5.1 30 22:18 20.01.2020
3961 Clouds 8 1035 49 10000 5.1 30 21:55 20.01.2020
3962 Clouds 8 1035 49 10000 5.1 50 21:36 20.01.2020
3963 Clouds 8 1035 49 10000 5.1 50 21:18 20.01.2020
3964 Clouds 8 1035 46 10000 5.7 60 20:43 20.01.2020
3965 Clouds 8 1035 46 10000 5.7 60 20:20 20.01.2020
3966 Clouds 8 1034 46 10000 4.6 40 19:59 20.01.2020
3967 Clouds 8 1034 46 10000 4.6 40 19:59 20.01.2020
3968 Clouds 8 1034 46 10000 4.6 40 19:41 20.01.2020
3969 Clouds 8 1034 64 10000 4.1 60 19:19 20.01.2020
3970 Clouds 9 1034 64 10000 4.1 30 18:56 20.01.2020
3971 Clouds 9 1033 64 10000 5.1 30 18:38 20.01.2020
3972 Clouds 9 1033 64 10000 5.1 30 18:19 20.01.2020
3973 Clouds 10 1033 64 10000 5.7 20 17:39 20.01.2020
3974 Clouds 10 1034 53 10000 3.6 20 17:19 20.01.2020
3975 Clouds 10 1033 59 10000 3.6 20 16:47 20.01.2020
3976 Clouds 10 1033 59 10000 3.6 20 16:47 20.01.2020
3977 Clouds 10 1034 50 10000 3.6 20 16:26 20.01.2020
3978 Clouds 11 1033 59 10000 5.1 20 15:59 20.01.2020
3979 Clouds 11 1033 59 10000 5.1 20 15:59 20.01.2020
3980 Clouds 11 1034 50 10000 4.6 30 15:40 20.01.2020
3981 Clouds 11 1034 50 10000 4.6 30 15:22 20.01.2020
3982 Clouds 11 1033 50 10000 3.1 20 14:59 20.01.2020
3983 Clouds 11 1033 50 10000 3.1 20 14:40 20.01.2020
3984 Clouds 11 1033 50 10000 5.7 20 14:21 20.01.2020
3985 Clouds 11 1033 56 10000 4.6 20 13:56 20.01.2020
3986 Clouds 11 1033 56 10000 4.6 20 13:38 20.01.2020
3987 Clouds 11 1033 56 10000 4.6 20 13:38 20.01.2020
3988 Clouds 11 1033 53 10000 6.2 30 13:18 20.01.2020
3989 Clouds 11 1033 53 10000 3.1 20 12:42 20.01.2020
3990 Clouds 11 1033 53 10000 3.1 20 12:23 20.01.2020
3991 Clouds 10 1032 57 10000 3.6 40 11:55 20.01.2020
3992 Clouds 10 1033 57 10000 4.1 30 11:36 20.01.2020
3993 Clouds 10 1033 57 10000 4.1 30 11:18 20.01.2020
3994 Clouds 10 1032 71 10000 4.1 30 10:46 20.01.2020
3995 Clouds 9 1032 57 10000 4.1 20 10:20 20.01.2020
3996 Clouds 9 1031 46 10000 5.7 30 09:42 20.01.2020
3997 Clouds 8 1032 57 10000 3.1 20 09:24 20.01.2020
3998 Clouds 8 1031 49 10000 3.1 30 08:56 20.01.2020
3999 Clouds 8 1032 61 10000 2.1 50 08:34 20.01.2020
4000 Clouds 8 1030 49 10000 3.6 30 07:59 20.01.2020
4001 Clouds 8 1030 49 10000 3.6 30 07:41 20.01.2020
4002 Clouds 8 1030 45 10000 4.1 30 07:21 20.01.2020
4003 Clouds 8 1029 43 10000 4.6 60 06:42 20.01.2020
4004 Clouds 8 1029 43 10000 4.1 70 06:21 20.01.2020
4005 Clouds 8 1029 49 10000 2.6 40 05:38 20.01.2020
4006 Clouds 8 1029 49 10000 3.6 20 05:19 20.01.2020
4007 Clouds 8 1028 49 10000 4.6 40 04:23 20.01.2020
4008 Clouds 8 1027 78 10000 4.6 70 01:59 20.01.2020
4009 Clouds 8 1027 78 10000 4.6 70 01:40 20.01.2020
4010 Clouds 9 1027 79 10000 5.1 70 01:18 20.01.2020
4011 Clouds 9 1027 79 10000 5.7 60 00:42 20.01.2020
4012 Clouds 8 1027 79 10000 5.7 40 00:20 20.01.2020
4013 Clouds 8 1026 79 10000 7.7 60 23:38 19.01.2020
4014 Clouds 9 1026 76 10000 7.7 60 23:19 19.01.2020
4015 Clouds 9 1026 76 10000 5.7 40 22:56 19.01.2020
4016 Clouds 9 1026 61 10000 3.6 360 22:37 19.01.2020
4017 Clouds 9 1026 61 10000 3.6 360 22:19 19.01.2020
4018 Clouds 9 1025 57 10000 2.6 10 21:56 19.01.2020
4019 Clouds 9 1025 57 10000 4.1 50 21:38 19.01.2020
4020 Clouds 9 1025 57 10000 4.1 50 21:19 19.01.2020
4021 Clouds 9 1025 61 10000 3.6 40 20:56 19.01.2020
4022 Clouds 9 1025 62 10000 3.6 90 20:38 19.01.2020
4023 Rain 10 1025 62 10000 3.6 90 20:19 19.01.2020
4024 Rain 10 1025 62 10000 2.6 60 19:55 19.01.2020
4025 Clouds 10 1025 76 10000 1.5 110 19:37 19.01.2020
4026 Clouds 10 1025 76 10000 1.5 110 19:19 19.01.2020
4027 Clouds 10 1024 71 10000 1.5 70 18:55 19.01.2020
4028 Clouds 10 1024 71 10000 1.5 80 18:37 19.01.2020
4029 Clouds 10 1024 71 10000 1.5 80 18:19 19.01.2020
4030 Clouds 10 1023 71 10000 1.5 80 17:57 19.01.2020
4031 Clouds 10 1023 71 10000 1.5 80 17:57 19.01.2020
4032 Clouds 10 1023 71 10000 1.5 80 17:38 19.01.2020
4033 Clouds 11 1023 71 10000 1 0 17:20 19.01.2020
4034 Clouds 11 1023 66 10000 2.6 30 16:57 19.01.2020
4035 Clouds 12 1023 66 10000 1.21 296 16:37 19.01.2020
4036 Clouds 12 1023 66 10000 1.21 296 16:19 19.01.2020
4037 Clouds 12 1022 62 10000 3.1 30 15:56 19.01.2020
4038 Clouds 12 1022 66 10000 1.5 0 15:37 19.01.2020
4039 Clouds 12 1022 66 10000 1.5 0 15:19 19.01.2020
4040 Clouds 12 1021 66 10000 2.6 10 14:56 19.01.2020
4041 Clouds 13 1022 66 10000 1.21 296 14:37 19.01.2020
4042 Clouds 13 1022 66 10000 0.92 40 14:18 19.01.2020
4043 Clouds 12 1021 71 10000 2.6 30 13:54 19.01.2020
4044 Clouds 12 1022 76 10000 1.5 0 13:36 19.01.2020
4045 Clouds 12 1022 76 10000 1.5 0 13:18 19.01.2020
4046 Clouds 11 1022 76 10000 1.5 0 12:42 19.01.2020
4047 Clouds 11 1022 87 10000 2.6 40 12:23 19.01.2020
4048 Clouds 10 1022 81 10000 1.5 320 11:57 19.01.2020
4049 Clouds 10 1022 81 10000 1.5 320 11:39 19.01.2020
4050 Clouds 9 1023 87 10000 2.1 90 11:19 19.01.2020
4051 Clear 9 1022 81 10000 1.5 10 10:54 19.01.2020
4052 Clear 8 1022 93 10000 3.6 30 10:36 19.01.2020
4053 Clear 8 1022 93 10000 3.6 30 10:18 19.01.2020
4054 Clear 6 1022 81 10000 1.5 0 09:41 19.01.2020
4055 Clear 6 1022 81 10000 1.5 0 09:23 19.01.2020
4056 Clouds 6 1021 93 8000 3.1 30 08:56 19.01.2020
4057 Clouds 6 1021 93 8000 3.1 30 08:38 19.01.2020
4058 Clear 5 1021 100 10000 2.54 12 08:19 19.01.2020
4059 Clouds 5 1020 93 7000 3.1 20 07:30 19.01.2020
4060 Clear 5 1020 87 10000 2.6 20 06:56 19.01.2020
4061 Mist 5 1020 93 5000 3.6 20 06:25 19.01.2020
4062 Mist 6 1020 93 4000 2.6 30 04:41 19.01.2020
4063 Mist 7 1021 93 2500 2.1 20 02:37 19.01.2020
4064 Mist 7 1021 93 2500 2.1 20 02:19 19.01.2020
4065 Clouds 7 1020 87 10000 2.6 30 01:24 19.01.2020
4066 Clouds 7 1020 93 10000 1.5 60 00:45 19.01.2020
4067 Clouds 7 1020 93 10000 1.5 140 00:27 19.01.2020
4068 Clouds 6 1020 93 10000 1.5 140 23:55 18.01.2020
4069 Clouds 7 1020 93 10000 1 0 23:36 18.01.2020
4070 Clouds 7 1020 93 10000 1 0 23:18 18.01.2020
4071 Clouds 7 1020 93 10000 1 0 23:18 18.01.2020
4072 Clouds 7 1020 93 10000 2.1 130 22:54 18.01.2020
4073 Clouds 7 1020 93 10000 1.5 160 22:36 18.01.2020
4074 Clouds 7 1020 93 10000 1.5 160 22:18 18.01.2020
4075 Clouds 7 1020 93 10000 1 0 21:56 18.01.2020
4076 Clouds 7 1020 87 10000 1 180 21:36 18.01.2020
4077 Clouds 8 1020 87 10000 1 180 21:18 18.01.2020
4078 Clouds 8 1020 93 10000 2.1 120 20:41 18.01.2020
4079 Clouds 8 1020 87 10000 1 0 20:20 18.01.2020
4080 Clouds 8 1020 87 10000 1 160 19:54 18.01.2020
4081 Clouds 8 1020 87 10000 1.5 130 19:36 18.01.2020
4082 Clouds 8 1020 87 10000 1.5 130 19:18 18.01.2020
4083 Clouds 8 1020 93 10000 1.5 150 18:40 18.01.2020
4084 Clouds 8 1020 93 10000 1.5 150 18:40 18.01.2020
4085 Clouds 9 1020 87 10000 1 160 18:21 18.01.2020
4086 Clouds 9 1020 87 10000 1.5 140 17:41 18.01.2020
4087 Clouds 9 1020 87 10000 1.5 0 17:21 18.01.2020
4088 Rain 10 1020 87 10000 1 270 16:57 18.01.2020
4089 Clouds 10 1020 87 9000 1 0 16:39 18.01.2020
4090 Clouds 10 1020 87 9000 1 0 16:39 18.01.2020
4091 Clouds 10 1020 87 9000 1 0 16:21 18.01.2020
4092 Rain 10 1020 87 10000 1.5 140 15:57 18.01.2020
4093 Rain 10 1020 87 10000 1.5 140 15:39 18.01.2020
4094 Clouds 10 1020 87 8000 0.74 152 15:20 18.01.2020
4095 Rain 10 1020 87 6000 0.5 0 14:42 18.01.2020
4096 Rain 10 1020 87 6000 0.5 0 14:20 18.01.2020
4097 Clouds 10 1020 76 10000 3.1 170 13:58 18.01.2020
4098 Clouds 10 1020 76 10000 3.1 170 13:39 18.01.2020
4099 Rain 11 1020 81 4000 3.6 100 13:20 18.01.2020
4100 Clouds 10 1020 76 10000 3.6 150 12:54 18.01.2020
4101 Clouds 10 1020 76 10000 3.6 150 12:54 18.01.2020
4102 Clouds 10 1021 81 8000 4.1 120 12:36 18.01.2020
4103 Clouds 10 1021 81 8000 4.1 120 12:18 18.01.2020
4104 Clouds 9 1021 76 10000 5.1 140 11:43 18.01.2020
4105 Clouds 9 1022 93 8000 4.1 120 11:21 18.01.2020
4106 Rain 9 1021 81 10000 4.1 150 10:43 18.01.2020
4107 Rain 8 1021 93 8000 6.7 90 10:22 18.01.2020
4108 Rain 8 1021 81 8000 4.1 150 09:57 18.01.2020
4109 Rain 8 1021 81 8000 4.1 150 09:39 18.01.2020
4110 Rain 8 1022 93 3000 3.1 140 09:19 18.01.2020
4111 Rain 8 1021 81 7000 3.1 140 08:42 18.01.2020
4112 Rain 8 1022 93 3000 3.1 130 08:20 18.01.2020
4113 Rain 7 1022 87 9000 1 150 07:59 18.01.2020
4114 Rain 8 1022 81 10000 3.6 150 07:39 18.01.2020
4115 Rain 7 1022 87 10000 4.1 140 06:52 18.01.2020
4116 Clouds 7 1022 87 10000 3.6 160 06:33 18.01.2020
4117 Rain 7 1022 81 10000 4.6 190 05:52 18.01.2020
4118 Clouds 7 1022 81 10000 3.6 140 04:25 18.01.2020
4119 Clouds 7 1024 81 10000 2.1 100 02:34 18.01.2020
4120 Clouds 7 1024 81 10000 2.6 110 01:40 18.01.2020
4121 Clouds 7 1024 81 10000 2.1 110 00:39 18.01.2020
4122 Clouds 7 1025 81 10000 3.1 90 00:19 18.01.2020
4123 Clouds 7 1025 81 10000 3.1 100 23:58 17.01.2020
4124 Clouds 7 1025 81 10000 3.1 100 23:38 17.01.2020
4125 Clouds 7 1025 75 10000 2.6 100 23:18 17.01.2020
4126 Clouds 6 1025 81 10000 2.1 100 22:41 17.01.2020
4127 Clouds 7 1025 75 10000 1.5 100 22:19 17.01.2020
4128 Clouds 7 1026 81 10000 2.1 110 21:55 17.01.2020
4129 Clouds 7 1026 87 10000 2.6 110 21:37 17.01.2020
4130 Clouds 7 1026 87 10000 2.6 110 21:19 17.01.2020
4131 Clouds 8 1026 81 10000 1 0 20:41 17.01.2020
4132 Clouds 8 1026 81 10000 1 0 20:21 17.01.2020
4133 Clouds 8 1026 87 10000 1 0 19:58 17.01.2020
4134 Clouds 8 1026 87 10000 1 0 19:38 17.01.2020
4135 Clouds 8 1026 87 10000 1 0 19:20 17.01.2020
4136 Clouds 9 1025 87 10000 1.5 120 18:58 17.01.2020
4137 Clouds 9 1025 87 10000 1.5 120 18:39 17.01.2020
4138 Clouds 9 1025 76 9000 0.5 0 18:21 17.01.2020
4139 Clouds 10 1025 81 10000 2.1 270 17:40 17.01.2020
4140 Clouds 11 1025 66 10000 2.6 260 17:22 17.01.2020
4141 Clouds 11 1025 66 10000 2.1 270 16:57 17.01.2020
4142 Clouds 12 1025 66 10000 3.6 270 16:38 17.01.2020
4143 Clouds 12 1025 66 10000 3.6 270 16:19 17.01.2020
4144 Clouds 13 1025 54 10000 2.1 330 15:45 17.01.2020
4145 Clouds 13 1025 54 10000 0.7 344 15:26 17.01.2020
4146 Clouds 13 1025 54 10000 2.1 330 14:45 17.01.2020
4147 Clouds 13 1026 58 10000 1 0 14:27 17.01.2020
4148 Clouds 12 1026 53 10000 2.1 10 13:58 17.01.2020
4149 Clouds 12 1026 53 10000 2.1 10 13:58 17.01.2020
4150 Clouds 12 1027 66 10000 1 0 13:38 17.01.2020
4151 Clouds 12 1027 66 10000 1 0 13:19 17.01.2020
4152 Clouds 12 1027 57 10000 2.1 360 12:44 17.01.2020
4153 Clouds 11 1028 70 10000 1 0 12:22 17.01.2020
4154 Clouds 10 1028 93 10000 1.5 0 11:40 17.01.2020
4155 Clouds 9 1028 93 10000 1.5 0 11:19 17.01.2020
4156 Clouds 8 1028 81 10000 2.6 70 10:44 17.01.2020
4157 Clouds 7 1028 100 10000 0.5 0 10:23 17.01.2020
4158 Clouds 7 1027 80 10000 1.5 360 09:58 17.01.2020
4159 Clouds 7 1027 80 10000 1.5 360 09:40 17.01.2020
4160 Clouds 6 1027 69 10000 1 20 09:20 17.01.2020
4161 Clouds 4 1027 69 10000 2.1 70 08:45 17.01.2020
4162 Fog 3 1028 100 1500 1.74 19 08:25 17.01.2020
4163 Clouds 2 1027 80 10000 2.1 340 07:55 17.01.2020
4164 Clouds 3 1027 86 10000 2.6 60 07:32 17.01.2020
4165 Clouds 3 1027 86 10000 2.6 60 07:32 17.01.2020
4166 Clouds 3 1027 86 10000 1 0 06:59 17.01.2020
4167 Clouds 3 1027 86 10000 2.1 30 06:41 17.01.2020
4168 Clouds 3 1027 93 10000 1 0 05:56 17.01.2020
4169 Clouds 3 1005 100 0 2.04 11 03:39 17.01.2020
4170 Clouds 3 1005 99 0 2.04 11 02:53 17.01.2020
4171 Clouds 4 1005 99 0 2.05 7 01:47 17.01.2020
4172 Clouds 3 1005 99 0 2.05 7 01:29 17.01.2020
4173 Clouds 4 1005 98 0 2.05 5 00:51 17.01.2020
4174 Clear 4 1028 93 10000 2.1 30 00:28 17.01.2020
4175 Clouds 5 1028 81 10000 2.6 90 23:46 16.01.2020
4176 Clouds 5 1028 81 10000 2.6 90 23:26 16.01.2020
4177 Clouds 5 1028 81 10000 2.6 80 22:58 16.01.2020
4178 Clouds 5 1028 81 10000 2.6 80 22:40 16.01.2020
4179 Clouds 6 1028 81 10000 2.6 90 22:20 16.01.2020
4180 Clouds 6 1028 81 10000 2.1 90 21:55 16.01.2020
4181 Clouds 6 1028 75 10000 2.1 100 21:37 16.01.2020
4182 Clouds 6 1028 75 10000 2.1 100 21:18 16.01.2020
4183 Clouds 6 1028 75 10000 2.1 100 20:56 16.01.2020
4184 Clouds 6 1028 75 10000 2.1 100 20:36 16.01.2020
4185 Clouds 6 1028 75 10000 2.1 100 20:18 16.01.2020
4186 Clouds 7 1028 70 10000 2.1 100 19:41 16.01.2020
4187 Clouds 7 1028 75 10000 2.6 100 19:22 16.01.2020
4188 Clouds 7 1028 70 10000 2.6 100 18:58 16.01.2020
4189 Clouds 8 1028 70 10000 2.6 100 18:39 16.01.2020
4190 Clouds 8 1028 70 10000 2.1 110 18:21 16.01.2020
4191 Clouds 9 1028 61 10000 0.5 0 17:59 16.01.2020
4192 Clouds 9 1028 61 10000 0.5 0 17:41 16.01.2020
4193 Clouds 10 1028 71 10000 1 0 17:21 16.01.2020
4194 Clouds 11 1028 57 10000 2.6 360 16:56 16.01.2020
4195 Clouds 11 1028 66 10000 0.5 0 16:36 16.01.2020
4196 Clouds 12 1028 66 10000 0.5 0 16:18 16.01.2020
4197 Clouds 12 1028 58 10000 3.1 350 15:42 16.01.2020
4198 Clouds 12 1028 62 10000 1.5 0 15:21 16.01.2020
4199 Clouds 12 1028 57 10000 3.1 340 14:45 16.01.2020
4200 Clouds 12 1029 66 10000 2.1 340 14:24 16.01.2020
4201 Clouds 12 1029 53 10000 3.1 360 13:57 16.01.2020
4202 Clouds 12 1029 53 10000 3.1 360 13:39 16.01.2020
4203 Clouds 12 1030 66 10000 2.1 10 13:21 16.01.2020
4204 Clouds 12 1029 57 10000 2.6 10 12:43 16.01.2020
4205 Clouds 12 1030 71 10000 0.5 0 12:25 16.01.2020
4206 Clouds 11 1030 57 10000 2.6 10 11:54 16.01.2020
4207 Clouds 10 1031 81 10000 1 0 11:36 16.01.2020
4208 Clouds 9 1031 81 10000 1 0 11:18 16.01.2020
4209 Clouds 8 1031 100 10000 0.5 0 10:38 16.01.2020
4210 Clouds 7 1031 100 10000 0.5 0 10:20 16.01.2020
4211 Clouds 7 1030 80 10000 1.5 30 09:56 16.01.2020
4212 Clouds 6 1030 70 10000 3.1 30 09:37 16.01.2020
4213 Clouds 5 1030 70 10000 3.1 30 09:19 16.01.2020
4214 Clouds 4 1030 70 10000 2.6 30 08:49 16.01.2020
4215 Clouds 3 1029 80 9000 1 0 08:29 16.01.2020
4216 Clouds 3 1029 80 9000 2.1 40 07:57 16.01.2020
4217 Clouds 3 1029 83 10000 3.1 50 07:37 16.01.2020
4218 Clouds 2 1029 83 10000 3.1 50 07:18 16.01.2020
4219 Clouds 3 1029 83 10000 2.1 360 06:42 16.01.2020
4220 Clouds 3 1029 83 10000 1 50 05:58 16.01.2020
4221 Clouds 3 1029 83 10000 1 50 05:40 16.01.2020
4222 Clouds 3 1029 84 10000 1 0 04:37 16.01.2020
4223 Clouds 3 1030 84 8000 1 0 03:28 16.01.2020
4224 Clouds 4 1029 84 10000 1.5 330 02:42 16.01.2020
4225 Clouds 4 1029 75 10000 1 0 00:53 16.01.2020
4226 Clouds 4 1029 80 10000 2.1 90 00:24 16.01.2020
4227 Clouds 4 1029 80 10000 2.6 100 23:50 15.01.2020
4228 Clouds 5 1029 80 10000 2.1 100 23:23 15.01.2020
4229 Clouds 4 1029 80 10000 2.6 110 22:57 15.01.2020
4230 Clouds 5 1029 80 10000 2.6 110 22:39 15.01.2020
4231 Clouds 5 1029 80 10000 2.6 110 22:19 15.01.2020
4232 Clouds 5 1029 75 10000 2.1 100 21:57 15.01.2020
4233 Clouds 5 1029 75 10000 2.1 100 21:38 15.01.2020
4234 Clouds 6 1029 75 10000 2.1 110 21:20 15.01.2020
4235 Clouds 5 1029 75 10000 2.6 110 20:58 15.01.2020
4236 Clouds 5 1029 75 10000 2.6 110 20:58 15.01.2020
4237 Clouds 5 1029 75 10000 2.6 110 20:58 15.01.2020
4238 Clouds 6 1029 75 10000 2.6 110 20:40 15.01.2020
4239 Clear 6 1029 75 10000 2.6 100 20:20 15.01.2020
4240 Clear 6 1029 70 10000 2.1 100 19:55 15.01.2020
4241 Clear 7 1029 70 10000 1.5 150 19:37 15.01.2020
4242 Clear 6 1029 70 10000 1.5 150 19:19 15.01.2020
4243 Clear 8 1029 70 10000 2.1 110 18:56 15.01.2020
4244 Clear 8 1029 70 10000 2.1 110 18:56 15.01.2020
4245 Clear 8 1029 70 10000 2.1 110 18:38 15.01.2020
4246 Clear 8 1028 61 10000 1.5 110 18:19 15.01.2020
4247 Clear 9 1028 53 10000 0.5 0 17:57 15.01.2020
4248 Clear 10 1028 43 10000 1.5 0 17:38 15.01.2020
4249 Clear 11 1028 43 10000 1.5 0 17:19 15.01.2020
4250 Clear 12 1028 53 10000 2.1 330 16:41 15.01.2020
4251 Clear 12 1028 38 10000 0.5 0 16:22 15.01.2020
4252 Clear 13 1028 43 10000 1.5 0 15:58 15.01.2020
4253 Clear 13 1028 44 10000 1 0 15:39 15.01.2020
4254 Clear 13 1028 44 10000 1 0 15:20 15.01.2020
4255 Clear 13 1028 47 10000 0.5 0 14:43 15.01.2020
4256 Clear 13 1028 54 10000 1 0 14:21 15.01.2020
4257 Clear 12 1028 54 10000 1 0 13:55 15.01.2020
4258 Clear 13 1029 62 10000 1 0 13:37 15.01.2020
4259 Clear 12 1029 62 10000 1 0 13:18 15.01.2020
4260 Clear 12 1029 57 10000 1 0 12:41 15.01.2020
4261 Clear 12 1030 66 10000 1 0 12:20 15.01.2020
4262 Clear 11 1029 66 10000 1 0 11:58 15.01.2020
4263 Clear 10 1030 87 10000 1 0 11:38 15.01.2020
4264 Clear 10 1030 87 10000 1 0 11:19 15.01.2020
4265 Clear 9 1029 75 10000 1 350 10:46 15.01.2020
4266 Clear 8 1030 93 8000 1.5 0 10:28 15.01.2020
4267 Clear 7 1029 80 10000 2.1 10 09:54 15.01.2020
4268 Clear 7 1028 67 10000 1.5 360 09:36 15.01.2020
4269 Clear 6 1028 67 10000 1.5 360 09:18 15.01.2020
4270 Clear 5 1028 67 10000 1.5 10 08:41 15.01.2020
4271 Clear 3 1028 67 10000 1.5 40 08:23 15.01.2020
4272 Clear 3 1029 93 10000 2.6 80 07:53 15.01.2020
4273 Clear 3 1028 82 10000 2.1 30 07:32 15.01.2020
4274 Clear 3 1028 82 10000 2.1 30 06:47 15.01.2020
4275 Clear 3 1028 82 10000 2.1 10 06:21 15.01.2020
4276 Clear 3 1028 93 10000 2.1 360 04:45 15.01.2020
4277 Clear 4 1028 81 10000 1 0 02:39 15.01.2020
4278 Clear 4 1028 75 10000 2.6 100 01:28 15.01.2020
4279 Clear 4 1028 75 10000 2.6 100 01:28 15.01.2020
4280 Clear 4 1028 75 10000 2.6 100 00:59 15.01.2020
4281 Clear 4 1028 81 10000 3.1 100 00:36 15.01.2020
4282 Clear 4 1028 81 10000 3.1 100 00:18 15.01.2020
4283 Clear 4 1028 80 10000 2.6 100 23:45 14.01.2020
4284 Clear 5 1028 86 10000 2.1 100 23:24 14.01.2020
4285 Clear 5 1028 80 10000 2.1 30 22:41 14.01.2020
4286 Clear 5 1027 81 10000 2.1 110 22:19 14.01.2020
4287 Clear 6 1027 75 10000 2.6 100 21:59 14.01.2020
4288 Clear 6 1027 75 10000 2.6 100 21:40 14.01.2020
4289 Clear 6 1027 75 10000 2.6 100 21:22 14.01.2020
4290 Clear 6 1027 75 10000 2.6 110 20:59 14.01.2020
4291 Clear 6 1027 70 10000 2.6 110 20:40 14.01.2020
4292 Clouds 7 1027 70 10000 2.6 110 20:20 14.01.2020
4293 Clouds 6 1027 70 10000 2.6 110 19:56 14.01.2020
4294 Clouds 7 1027 75 10000 1.5 80 19:38 14.01.2020
4295 Clouds 7 1027 75 10000 1.5 80 19:18 14.01.2020
4296 Clouds 7 1027 70 10000 2.1 110 18:56 14.01.2020
4297 Clouds 8 1026 61 10000 0.5 0 18:37 14.01.2020
4298 Clouds 9 1026 61 10000 0.5 0 18:18 14.01.2020
4299 Clouds 9 1026 62 10000 1 0 17:38 14.01.2020
4300 Clouds 10 1026 62 10000 1 0 17:19 14.01.2020
4301 Clear 11 1026 54 10000 1.5 310 16:55 14.01.2020
4302 Clouds 12 1026 47 10000 1.31 26 16:37 14.01.2020
4303 Clouds 12 1026 47 10000 1.31 26 16:19 14.01.2020
4304 Clear 13 1025 50 10000 2.1 320 15:43 14.01.2020
4305 Clouds 13 1026 54 10000 1 0 15:19 14.01.2020
4306 Clear 13 1025 54 10000 2.1 280 14:47 14.01.2020
4307 Clear 13 1025 54 10000 2.1 280 14:47 14.01.2020
4308 Clouds 13 1026 62 10000 1.19 43 14:23 14.01.2020
4309 Clouds 13 1025 47 10000 1.5 10 13:59 14.01.2020
4310 Clouds 13 1025 47 10000 1.5 10 13:41 14.01.2020
4311 Clouds 12 1026 66 10000 1.5 0 13:19 14.01.2020
4312 Clouds 12 1026 66 10000 0.5 0 12:43 14.01.2020
4313 Clouds 11 1027 76 10000 2.1 360 12:24 14.01.2020
4314 Clouds 10 1027 76 10000 1.5 350 11:58 14.01.2020
4315 Clouds 10 1027 76 10000 1.5 350 11:40 14.01.2020
4316 Clouds 10 1027 87 8000 1.5 0 11:22 14.01.2020
4317 Clouds 9 1026 81 10000 1 350 10:56 14.01.2020
4318 Clouds 8 1027 100 8000 2.1 360 10:37 14.01.2020
4319 Clouds 8 1027 100 8000 2.1 360 10:19 14.01.2020
4320 Clouds 7 1026 81 10000 1 0 09:43 14.01.2020
4321 Clouds 6 1026 80 10000 2.1 10 09:24 14.01.2020
4322 Clouds 6 1025 86 10000 1.5 20 08:58 14.01.2020
4323 Clouds 5 1025 86 10000 1 350 08:39 14.01.2020
4324 Mist 4 1026 100 5000 2.06 9 08:20 14.01.2020
4325 Clouds 5 1025 80 10000 2.6 60 07:51 14.01.2020
4326 Clouds 5 1025 80 10000 1.5 360 07:18 14.01.2020
4327 Clouds 5 1025 86 10000 1 0 06:42 14.01.2020
4328 Clouds 5 1025 86 10000 1.5 10 05:57 14.01.2020
4329 Clouds 5 1025 80 10000 1 0 04:49 14.01.2020
4330 Clouds 5 1025 93 10000 1 30 03:45 14.01.2020
4331 Clouds 6 1024 75 10000 2.1 100 02:33 14.01.2020
4332 Clouds 6 1025 75 10000 2.1 100 01:19 14.01.2020
4333 Clouds 6 1025 75 10000 2.6 100 00:47 14.01.2020
4334 Clouds 6 1025 75 10000 2.6 100 00:21 14.01.2020
4335 Clouds 6 1025 81 10000 2.6 100 23:44 13.01.2020
4336 Clouds 6 1025 75 10000 2.6 110 23:19 13.01.2020
4337 Clouds 5 1025 81 10000 2.6 100 22:57 13.01.2020
4338 Clouds 5 1025 81 10000 2.6 100 22:39 13.01.2020
4339 Clouds 6 1025 70 10000 2.6 100 22:19 13.01.2020
4340 Clouds 6 1025 75 10000 2.6 110 21:55 13.01.2020
4341 Clouds 5 1025 81 10000 2.1 100 21:36 13.01.2020
4342 Clouds 5 1025 81 10000 2.1 100 21:18 13.01.2020
4343 Clouds 6 1024 75 10000 2.6 110 20:55 13.01.2020
4344 Clouds 6 1025 75 10000 2.6 110 20:37 13.01.2020
4345 Clouds 6 1025 75 10000 2.6 110 20:37 13.01.2020
4346 Clear 6 1025 75 10000 2.6 110 20:19 13.01.2020
4347 Clear 6 1025 75 10000 2.6 110 20:19 13.01.2020
4348 Clear 6 1025 75 10000 2.1 100 19:41 13.01.2020
4349 Clear 6 1025 75 10000 2.1 100 19:20 13.01.2020
4350 Clear 7 1024 75 10000 2.1 100 18:58 13.01.2020
4351 Clear 8 1024 70 10000 2.6 120 18:38 13.01.2020
4352 Clear 8 1024 70 10000 2.6 120 18:19 13.01.2020
4353 Clear 9 1024 66 10000 1 0 17:58 13.01.2020
4354 Clear 9 1024 66 10000 1 0 17:39 13.01.2020
4355 Clouds 10 1024 61 10000 1 0 17:20 13.01.2020
4356 Clear 11 1022 54 0 0.61 306 16:42 13.01.2020
4357 Clear 11 1022 55 0 0.61 306 16:23 13.01.2020
4358 Clear 12 1022 54 0 0.61 306 15:59 13.01.2020
4359 Clear 12 1022 54 0 0.61 306 15:41 13.01.2020
4360 Clear 13 1022 53 0 0.45 225 15:21 13.01.2020
4361 Clear 13 1022 54 0 0.89 225 14:43 13.01.2020
4362 Clear 13 1022 54 0 0.45 270 14:24 13.01.2020
4363 Clear 13 1022 51 0 1.08 45 13:59 13.01.2020
4364 Clear 13 1022 53 0 0.89 337 13:40 13.01.2020
4365 Clear 13 1022 56 0 0.89 22 13:22 13.01.2020
4366 Clear 12 1023 57 0 1.11 43 12:57 13.01.2020
4367 Clouds 12 1026 66 10000 2.1 310 12:39 13.01.2020
4368 Clouds 11 1026 66 10000 2.1 310 12:21 13.01.2020
4369 Clear 11 1027 81 10000 2.6 360 11:40 13.01.2020
4370 Clear 10 1027 81 10000 2.6 360 11:20 13.01.2020
4371 Clear 10 1027 81 10000 2.6 360 11:20 13.01.2020
4372 Clear 9 1026 70 10000 2.1 350 10:58 13.01.2020
4373 Clear 8 1027 93 10000 1.5 0 10:39 13.01.2020
4374 Clear 7 1027 93 10000 1.5 0 10:20 13.01.2020
4375 Clear 7 1027 93 10000 1.5 0 10:20 13.01.2020
4376 Clouds 6 1026 80 10000 1 0 09:59 13.01.2020
4377 Clouds 6 1026 80 10000 1 0 09:40 13.01.2020
4378 Clouds 5 1027 71 10000 2.1 10 09:21 13.01.2020
4379 Clear 4 1025 71 10000 2.1 20 08:41 13.01.2020
4380 Clouds 2 1026 84 10000 2.6 350 08:20 13.01.2020
4381 Clear 2 1025 86 10000 2.1 10 07:48 13.01.2020
4382 Clear 2 1025 84 9000 2.1 360 07:27 13.01.2020
4383 Clear 3 1025 84 8000 1.5 340 06:43 13.01.2020
4384 Clear 3 1025 93 10000 0.5 0 06:22 13.01.2020
4385 Clear 3 1025 86 10000 2.1 340 05:27 13.01.2020
4386 Clear 4 1025 83 10000 1 0 03:57 13.01.2020
4387 Clear 4 1025 80 10000 1 360 03:25 13.01.2020
4388 Clear 4 1025 80 10000 1.5 360 02:47 13.01.2020
4389 Clear 4 1025 83 10000 1 0 02:28 13.01.2020
4390 Clear 4 1025 83 10000 1.5 130 01:21 13.01.2020
4391 Clear 5 1025 83 10000 1.5 340 00:41 13.01.2020
4392 Clear 5 1025 83 10000 2.1 50 00:23 13.01.2020
4393 Clear 5 1025 70 10000 2.1 100 23:54 12.01.2020
4394 Clear 6 1025 70 10000 2.6 90 23:36 12.01.2020
4395 Clear 5 1025 70 10000 2.6 90 23:18 12.01.2020
4396 Clear 5 1025 75 10000 1.5 100 22:42 12.01.2020
4397 Clear 5 1025 70 10000 2.1 80 22:23 12.01.2020
4398 Clear 5 1025 70 10000 2.6 80 21:57 12.01.2020
4399 Clear 5 1025 70 10000 2.6 80 21:38 12.01.2020
4400 Clear 6 1025 70 10000 3.1 90 21:19 12.01.2020
4401 Clear 6 1025 75 10000 2.1 100 20:56 12.01.2020
4402 Clear 6 1025 75 10000 2.1 100 20:38 12.01.2020
4403 Clear 7 1025 75 10000 2.6 100 20:20 12.01.2020
4404 Clear 7 1025 75 10000 2.1 90 19:56 12.01.2020
4405 Clear 8 1025 70 10000 2.1 100 19:37 12.01.2020
4406 Clear 8 1025 70 10000 2.1 100 19:18 12.01.2020
4407 Clear 8 1025 70 10000 1 0 18:57 12.01.2020
4408 Clear 8 1025 70 10000 1 0 18:57 12.01.2020
4409 Clear 8 1025 70 10000 1 0 18:39 12.01.2020
4410 Clear 8 1025 66 10000 1 0 18:21 12.01.2020
4411 Clear 9 1024 61 10000 1.5 260 17:54 12.01.2020
4412 Clear 10 1025 54 10000 2.1 10 17:36 12.01.2020
4413 Clear 11 1025 54 10000 2.1 10 17:18 12.01.2020
4414 Clear 12 1024 54 10000 1.5 10 16:40 12.01.2020
4415 Clear 13 1024 47 10000 2.1 350 16:21 12.01.2020
4416 Clear 13 1024 47 10000 2.1 350 16:21 12.01.2020
4417 Clear 13 1024 50 10000 2.1 350 15:58 12.01.2020
4418 Clear 14 1024 54 10000 1 0 15:39 12.01.2020
4419 Clear 14 1024 54 10000 1 0 15:21 12.01.2020
4420 Clear 13 1024 50 10000 2.1 20 14:44 12.01.2020
4421 Clear 13 1025 58 10000 1 0 14:25 12.01.2020
4422 Clear 13 1025 58 10000 2.6 10 13:58 12.01.2020
4423 Clear 12 1025 58 10000 2.6 10 13:40 12.01.2020
4424 Clear 12 1026 62 10000 1.5 0 13:22 12.01.2020
4425 Clear 12 1025 61 10000 2.6 360 12:57 12.01.2020
4426 Clear 12 1026 76 10000 1.6 10 12:38 12.01.2020
4427 Clear 12 1026 76 10000 1.6 10 12:19 12.01.2020
4428 Clear 11 1027 87 10000 0.5 0 11:42 12.01.2020
4429 Clear 10 1027 87 10000 0.5 0 11:22 12.01.2020
4430 Clear 9 1026 75 10000 4.1 10 10:58 12.01.2020
4431 Clear 9 1026 75 10000 4.1 10 10:40 12.01.2020
4432 Mist 8 1027 100 5000 2.35 15 10:20 12.01.2020
4433 Clear 8 1026 75 10000 1.5 30 09:43 12.01.2020
4434 Clear 7 1026 80 10000 2.6 30 09:24 12.01.2020
4435 Clear 6 1026 72 10000 3.1 60 08:57 12.01.2020
4436 Clear 5 1026 72 10000 3.1 60 08:38 12.01.2020
4437 Clear 4 1026 83 10000 3.6 40 08:19 12.01.2020
4438 Clear 4 1026 83 10000 1.5 30 07:38 12.01.2020
4439 Clear 4 1026 83 10000 1.5 30 07:19 12.01.2020
4440 Clear 4 1025 83 10000 2.1 10 06:41 12.01.2020
4441 Clear 4 1025 83 10000 2.1 360 05:58 12.01.2020
4442 Clear 4 1025 100 10000 5.1 10 05:20 12.01.2020
4443 Clear 4 1026 80 10000 2.1 70 03:44 12.01.2020
4444 Clear 5 1025 75 10000 2.1 60 02:55 12.01.2020
4445 Clear 5 1025 70 10000 3.1 70 02:30 12.01.2020
4446 Clear 5 1025 70 10000 2.6 70 01:40 12.01.2020
4447 Clear 5 1025 86 10000 2.1 50 01:21 12.01.2020
4448 Clear 6 1025 86 10000 1.5 60 00:40 12.01.2020
4449 Clear 5 1025 86 10000 1.5 30 00:18 12.01.2020
4450 Clear 6 1025 86 7000 1 0 23:41 11.01.2020
4451 Clear 6 1025 86 9000 1 0 23:19 11.01.2020
4452 Clear 5 1025 81 9000 2.6 10 22:57 11.01.2020
4453 Clear 5 1024 81 10000 3.1 110 22:38 11.01.2020
4454 Clear 6 1024 81 10000 3.1 110 22:20 11.01.2020
4455 Clear 6 1024 81 10000 2.6 100 21:54 11.01.2020
4456 Clear 6 1024 81 10000 3.1 100 21:36 11.01.2020
4457 Clear 6 1024 81 10000 3.1 100 21:18 11.01.2020
4458 Clear 6 1024 75 10000 2.6 90 20:40 11.01.2020
4459 Clear 6 1024 75 10000 2.6 90 20:20 11.01.2020
4460 Clear 7 1024 75 10000 2.1 90 19:58 11.01.2020
4461 Clear 7 1024 75 10000 2.1 90 19:38 11.01.2020
4462 Clear 7 1024 81 10000 2.1 90 19:20 11.01.2020
4463 Clear 7 1024 81 10000 2.1 100 18:56 11.01.2020
4464 Clear 7 1024 75 10000 2.1 120 18:37 11.01.2020
4465 Clear 8 1024 75 10000 2.1 120 18:19 11.01.2020
4466 Clear 8 1023 66 10000 1 90 17:57 11.01.2020
4467 Clear 9 1026 66 10000 1.29 9 17:39 11.01.2020
4468 Clear 11 1026 66 10000 0.61 32 17:18 11.01.2020
4469 Clear 12 1023 62 10000 1.5 30 16:44 11.01.2020
4470 Clear 12 1023 66 10000 0.61 32 16:25 11.01.2020
4471 Clear 13 1023 62 10000 1.5 20 15:57 11.01.2020
4472 Clear 13 1024 58 10000 1 0 15:39 11.01.2020
4473 Clear 13 1024 58 10000 1 0 15:20 11.01.2020
4474 Clear 13 1023 62 10000 2.1 30 14:46 11.01.2020
4475 Clear 13 1024 62 10000 2.1 350 14:25 11.01.2020
4476 Clear 13 1024 66 10000 2.1 360 13:58 11.01.2020
4477 Clear 13 1025 66 10000 2.6 360 13:38 11.01.2020
4478 Clear 13 1025 66 10000 2.6 360 13:20 11.01.2020
4479 Clear 12 1025 66 10000 2.1 20 12:56 11.01.2020
4480 Clear 12 1026 76 10000 1.5 0 12:37 11.01.2020
4481 Clear 12 1026 76 10000 1.5 0 12:19 11.01.2020
4482 Clouds 11 1025 70 10000 2.1 360 11:42 11.01.2020
4483 Clear 10 1026 87 10000 1.5 0 11:24 11.01.2020
4484 Clear 9 1025 75 10000 2.6 340 10:46 11.01.2020
4485 Clear 8 1026 100 10000 0.5 0 10:25 11.01.2020
4486 Clear 8 1025 70 10000 1 0 09:43 11.01.2020
4487 Clear 7 1025 70 10000 3.6 50 09:21 11.01.2020
4488 Clear 7 1025 70 10000 3.6 50 09:21 11.01.2020
4489 Clear 6 1025 80 10000 2.1 40 08:57 11.01.2020
4490 Clear 5 1025 80 10000 2.1 60 08:38 11.01.2020
4491 Clear 4 1025 80 10000 2.1 60 08:19 11.01.2020
4492 Clear 3 1025 86 10000 2.6 70 07:42 11.01.2020
4493 Clear 3 1025 93 10000 3.1 10 07:24 11.01.2020
4494 Clear 4 1024 86 10000 2.6 50 06:43 11.01.2020
4495 Clear 4 1024 86 10000 1.5 80 05:29 11.01.2020
4496 Clear 4 1025 80 10000 2.1 10 04:40 11.01.2020
4497 Clear 4 1025 80 10000 2.1 10 04:21 11.01.2020
4498 Clear 4 1025 86 10000 2.1 30 02:46 11.01.2020
4499 Clear 5 1025 86 10000 1.5 360 01:47 11.01.2020
4500 Clear 5 1025 86 10000 1.5 30 01:27 11.01.2020
4501 Clear 5 1025 80 10000 1 0 00:52 11.01.2020
4502 Clear 6 1025 75 10000 2.6 80 00:25 11.01.2020
4503 Clear 6 1025 75 10000 1.5 80 23:58 10.01.2020
4504 Clear 6 1025 75 10000 1.5 80 23:39 10.01.2020
4505 Clear 6 1025 81 7000 1 0 23:20 10.01.2020
4506 Clear 6 1025 75 7000 2.6 70 22:41 10.01.2020
4507 Clear 6 1025 75 7000 2.6 70 22:22 10.01.2020
4508 Clear 6 1025 75 7000 2.1 80 21:59 10.01.2020
4509 Clear 6 1025 75 7000 2.1 80 21:41 10.01.2020
4510 Clear 7 1024 75 10000 2.6 110 21:20 10.01.2020
4511 Clear 7 1024 75 10000 2.6 100 20:57 10.01.2020
4512 Clear 7 1024 81 10000 2.1 90 20:38 10.01.2020
4513 Clear 7 1024 81 10000 2.1 90 20:38 10.01.2020
4514 Clouds 7 1024 81 10000 2.1 90 20:20 10.01.2020
4515 Clouds 7 1024 81 10000 1.5 90 19:41 10.01.2020
4516 Clouds 8 1024 75 10000 2.1 100 19:21 10.01.2020
4517 Clouds 8 1024 70 10000 1.5 140 18:57 10.01.2020
4518 Clouds 8 1024 66 10000 1 0 18:39 10.01.2020
4519 Clouds 9 1024 66 10000 1 0 18:18 10.01.2020
4520 Clouds 10 1024 57 10000 1 60 17:56 10.01.2020
4521 Clouds 10 1024 58 10000 1 0 17:38 10.01.2020
4522 Clouds 10 1024 58 10000 1 0 17:38 10.01.2020
4523 Clouds 10 1024 58 10000 1 0 17:19 10.01.2020
4524 Clouds 10 1024 58 10000 1 0 17:19 10.01.2020
4525 Clouds 12 1024 50 10000 1.5 320 16:43 10.01.2020
4526 Clouds 13 1024 51 10000 1 0 16:21 10.01.2020
4527 Clouds 13 1024 50 10000 2.1 300 15:58 10.01.2020
4528 Clouds 13 1025 54 10000 1.13 325 15:39 10.01.2020
4529 Clouds 13 1025 54 10000 1.13 325 15:20 10.01.2020
4530 Clouds 14 1024 50 10000 2.1 320 14:59 10.01.2020
4531 Clouds 14 1025 58 10000 1.5 0 14:40 10.01.2020
4532 Clouds 13 1025 58 10000 1.5 0 14:19 10.01.2020
4533 Clouds 13 1024 54 10000 2.6 320 13:57 10.01.2020
4534 Clouds 13 1025 58 10000 3.1 50 13:38 10.01.2020
4535 Clouds 13 1025 58 10000 3.1 50 13:19 10.01.2020
4536 Clear 12 1025 58 10000 2.1 10 12:56 10.01.2020
4537 Clouds 12 1026 61 10000 1.5 0 12:38 10.01.2020
4538 Clouds 12 1026 61 10000 1.5 0 12:18 10.01.2020
4539 Clear 11 1026 66 10000 2.1 30 11:42 10.01.2020
4540 Clouds 10 1027 70 10000 2.1 350 11:22 10.01.2020
4541 Clear 9 1026 81 10000 2.6 330 10:59 10.01.2020
4542 Clouds 8 1027 86 10000 1.5 0 10:38 10.01.2020
4543 Clouds 8 1027 86 10000 1.5 0 10:20 10.01.2020
4544 Clear 8 1026 81 10000 1.5 40 09:48 10.01.2020
4545 Clouds 7 1026 86 10000 2.1 330 09:27 10.01.2020
4546 Clouds 5 1026 93 10000 1.5 0 08:59 10.01.2020
4547 Clouds 4 1027 69 10000 1 0 08:39 10.01.2020
4548 Clouds 3 1027 79 10000 1 0 08:20 10.01.2020
4549 Clouds 4 1026 81 10000 2.6 90 07:44 10.01.2020
4550 Clouds 4 1026 87 10000 3.6 80 07:22 10.01.2020
4551 Clouds 4 1026 93 10000 1 0 06:43 10.01.2020
4552 Clear 3 1026 93 10000 1.5 70 06:24 10.01.2020
4553 Clouds 3 1026 80 10000 2.6 90 05:33 10.01.2020
4554 Clear 3 1027 78 10000 1 0 03:34 10.01.2020
4555 Clear 3 1027 78 10000 1 0 03:34 10.01.2020
4556 Clear 3 1027 78 10000 1 0 02:57 10.01.2020
4557 Clear 4 1027 86 10000 0.5 0 02:36 10.01.2020
4558 Clear 4 1027 80 10000 2.6 100 01:34 10.01.2020
4559 Clear 3 1027 80 10000 3.1 90 00:56 10.01.2020
4560 Clear 4 1027 80 10000 3.1 90 00:38 10.01.2020
4561 Clear 4 1027 80 10000 2.6 100 23:57 09.01.2020
4562 Clear 4 1027 80 10000 2.6 100 23:57 09.01.2020
4563 Clear 4 1028 80 10000 3.1 100 23:37 09.01.2020
4564 Clear 4 1028 80 10000 3.1 100 23:19 09.01.2020
4565 Clear 4 1028 80 10000 2.6 100 22:57 09.01.2020
4566 Clear 5 1027 86 10000 3.1 100 22:37 09.01.2020
4567 Clear 5 1027 86 10000 3.1 100 22:18 09.01.2020
4568 Clear 5 1028 86 10000 2.6 110 21:56 09.01.2020
4569 Clear 5 1028 80 10000 2.6 110 21:37 09.01.2020
4570 Clear 5 1028 80 10000 2.6 110 21:37 09.01.2020
4571 Clear 5 1028 80 10000 2.6 110 21:37 09.01.2020
4572 Clear 5 1028 80 10000 2.6 110 21:37 09.01.2020
4573 Clear 5 1028 80 10000 2.6 110 21:18 09.01.2020
4574 Clear 6 1028 80 10000 2.6 110 20:56 09.01.2020
4575 Clear 6 1028 80 10000 2.6 110 20:38 09.01.2020
4576 Clear 6 1027 70 10000 2.6 110 20:19 09.01.2020
4577 Clear 7 1027 70 10000 2.6 110 19:54 09.01.2020
4578 Clear 7 1027 70 10000 2.6 110 19:36 09.01.2020
4579 Clear 7 1027 70 10000 2.1 100 19:18 09.01.2020
4580 Clear 7 1027 70 10000 2.1 130 18:41 09.01.2020
4581 Clear 8 1027 65 10000 1 0 18:22 09.01.2020
4582 Clear 8 1027 65 10000 1 0 17:58 09.01.2020
4583 Clear 9 1027 53 10000 1 0 17:40 09.01.2020
4584 Clear 10 1027 50 10000 1 30 17:18 09.01.2020
4585 Clear 10 1027 50 10000 1 30 17:18 09.01.2020
4586 Clear 11 1027 50 10000 1.5 340 16:47 09.01.2020
4587 Clear 12 1027 46 10000 2.1 350 16:22 09.01.2020
4588 Clear 12 1027 59 10000 2.1 320 15:44 09.01.2020
4589 Clear 13 1027 59 10000 2.1 360 15:25 09.01.2020
4590 Clear 13 1027 59 10000 2.1 360 14:59 09.01.2020
4591 Clear 13 1027 59 10000 1.5 320 14:41 09.01.2020
4592 Clear 12 1027 40 10000 1.5 310 14:21 09.01.2020
4593 Clear 12 1027 40 10000 1.5 310 13:57 09.01.2020
4594 Clear 12 1028 50 10000 1.5 340 13:39 09.01.2020
4595 Clear 12 1028 50 10000 1.5 310 13:20 09.01.2020
4596 Clear 11 1028 50 10000 1.5 310 12:58 09.01.2020
4597 Clear 12 1028 50 10000 1 0 12:38 09.01.2020
4598 Clear 11 1029 50 10000 1.5 320 12:19 09.01.2020
4599 Clear 10 1029 57 10000 1 0 11:43 09.01.2020
4600 Clear 9 1029 57 10000 1 0 11:25 09.01.2020
4601 Clear 9 1029 57 10000 1 0 11:25 09.01.2020
4602 Clear 8 1029 64 10000 1.5 10 10:59 09.01.2020
4603 Clear 7 1029 65 10000 2.6 20 10:41 09.01.2020
4604 Clear 6 1029 64 10000 2.1 10 10:22 09.01.2020
4605 Clear 6 1029 74 10000 2.1 10 09:49 09.01.2020
4606 Clear 6 1029 74 10000 2.1 10 09:25 09.01.2020
4607 Clear 4 1029 74 10000 1.5 10 08:59 09.01.2020
4608 Clear 4 1029 80 10000 1.5 10 08:40 09.01.2020
4609 Clear 3 1029 86 10000 1 110 08:22 09.01.2020
4610 Clear 3 1029 86 10000 1 110 07:55 09.01.2020
4611 Clear 2 1029 80 10000 1.5 360 07:35 09.01.2020
4612 Clear 3 1029 80 10000 1 0 06:54 09.01.2020
4613 Clear 3 1029 80 10000 1 0 06:32 09.01.2020
4614 Clear 3 1028 78 10000 1 0 05:52 09.01.2020
4615 Clear 3 1028 78 10000 1 0 05:28 09.01.2020
4616 Clear 3 1028 74 10000 0.5 80 04:41 09.01.2020
4617 Clear 3 1029 80 10000 1 0 03:28 09.01.2020
4618 Clear 3 1029 80 10000 1 0 02:47 09.01.2020
4619 Clear 4 1029 69 10000 1 0 01:42 09.01.2020
4620 Clear 4 1029 83 10000 2.1 90 01:18 09.01.2020
4621 Clear 4 1029 83 10000 2.1 100 00:39 09.01.2020
4622 Clear 4 1029 65 10000 2.6 100 00:19 09.01.2020
4623 Clear 5 1029 65 10000 2.6 90 23:41 08.01.2020
4624 Clear 5 1029 65 10000 2.1 100 23:23 08.01.2020
4625 Clear 5 1029 65 10000 2.1 100 22:56 08.01.2020
4626 Clear 5 1029 65 10000 2.6 90 22:38 08.01.2020
4627 Clear 5 1029 65 10000 1.5 90 22:19 08.01.2020
4628 Clear 6 1029 65 10000 1.5 90 21:55 08.01.2020
4629 Clear 5 1029 60 10000 2.6 100 21:37 08.01.2020
4630 Clear 6 1029 83 10000 3.1 110 21:18 08.01.2020
4631 Clear 6 1029 83 10000 3.1 110 20:41 08.01.2020
4632 Clear 6 1029 60 10000 3.1 100 20:21 08.01.2020
4633 Clear 6 1029 60 10000 3.1 100 19:59 08.01.2020
4634 Clear 6 1029 60 10000 2.6 110 19:38 08.01.2020
4635 Clear 7 1029 78 10000 2.6 110 19:20 08.01.2020
4636 Clear 7 1029 78 10000 2.6 110 18:58 08.01.2020
4637 Clear 7 1029 78 10000 2.6 110 18:39 08.01.2020
4638 Clear 9 1028 78 10000 2.1 120 18:19 08.01.2020
4639 Clear 9 1028 78 10000 2.1 120 17:57 08.01.2020
4640 Clear 9 1028 78 10000 1.5 150 17:38 08.01.2020
4641 Clear 10 1028 43 10000 0.5 0 17:19 08.01.2020
4642 Clear 10 1028 43 10000 0.5 0 17:19 08.01.2020
4643 Clear 11 1028 43 10000 0.5 0 16:56 08.01.2020
4644 Clear 12 1028 40 10000 1 0 16:38 08.01.2020
4645 Clear 13 1028 40 10000 2.1 320 16:19 08.01.2020
4646 Clear 14 1027 37 10000 2.1 340 15:45 08.01.2020
4647 Clear 13 1027 37 10000 2.1 330 15:22 08.01.2020
4648 Clear 13 1027 37 10000 2.1 330 14:59 08.01.2020
4649 Clear 13 1027 40 10000 1.5 360 14:40 08.01.2020
4650 Clear 13 1027 46 10000 2.1 350 14:21 08.01.2020
4651 Clear 12 1027 50 10000 3.1 350 13:42 08.01.2020
4652 Clear 12 1027 53 10000 2.6 10 13:22 08.01.2020
4653 Clear 12 1027 53 10000 2.6 10 12:55 08.01.2020
4654 Clear 12 1028 57 10000 1.5 350 12:37 08.01.2020
4655 Clear 11 1028 53 10000 3.1 350 12:18 08.01.2020
4656 Clear 11 1028 53 10000 1.5 350 11:48 08.01.2020
4657 Clear 11 1028 53 10000 1.5 350 11:48 08.01.2020
4658 Clear 9 1028 62 10000 1.5 360 11:19 08.01.2020
4659 Clear 9 1028 62 10000 1.5 360 10:59 08.01.2020
4660 Clear 9 1028 62 10000 2.6 350 10:40 08.01.2020
4661 Clear 7 1027 60 10000 2.1 350 10:21 08.01.2020
4662 Clear 8 1027 65 10000 2.6 340 09:43 08.01.2020
4663 Clear 6 1027 60 10000 2.6 80 09:20 08.01.2020
4664 Clear 6 1027 60 10000 2.6 80 08:59 08.01.2020
4665 Clear 5 1027 64 10000 3.1 40 08:41 08.01.2020
4666 Clouds 4 1027 69 10000 3.1 20 08:22 08.01.2020
4667 Clouds 4 1026 64 10000 3.6 30 07:58 08.01.2020
4668 Clouds 4 1026 64 10000 3.6 30 07:39 08.01.2020
4669 Clouds 4 1026 74 10000 2.6 30 07:18 08.01.2020
4670 Clouds 4 1025 80 10000 1 0 06:41 08.01.2020
4671 Clouds 5 1025 74 10000 1 0 05:56 08.01.2020
4672 Clouds 4 1025 70 10000 2.1 360 05:26 08.01.2020
4673 Clouds 5 1025 67 10000 1.5 10 04:36 08.01.2020
4674 Clouds 4 1025 67 8000 2.6 10 02:46 08.01.2020
4675 Clouds 4 1025 67 8000 2.6 10 02:28 08.01.2020
4676 Clouds 4 1025 70 8000 2.1 80 01:57 08.01.2020
4677 Clouds 4 1024 71 7000 2.6 110 01:32 08.01.2020
4678 Clouds 4 1024 74 6000 1 0 00:51 08.01.2020
4679 Clouds 4 1024 69 7000 1.5 90 00:22 08.01.2020
4680 Clouds 4 1024 69 7000 2.1 30 23:46 07.01.2020
4681 Clouds 4 1024 74 10000 1.5 30 23:21 07.01.2020
4682 Clouds 4 1024 69 10000 1.5 90 22:43 07.01.2020
4683 Clouds 4 1024 69 10000 1 0 22:21 07.01.2020
4684 Clouds 4 1024 69 10000 1 0 21:59 07.01.2020
4685 Clouds 4 1024 69 10000 2.1 100 21:41 07.01.2020
4686 Clouds 4 1024 65 10000 2.1 100 21:21 07.01.2020
4687 Clouds 4 1024 65 10000 2.1 100 21:21 07.01.2020
4688 Clouds 4 1024 65 10000 2.1 100 20:58 07.01.2020
4689 Clouds 5 1024 66 10000 2.1 90 20:39 07.01.2020
4690 Clouds 5 1024 55 10000 2.1 100 20:21 07.01.2020
4691 Clouds 5 1024 55 10000 2.1 100 19:57 07.01.2020
4692 Clouds 5 1024 55 10000 2.1 100 19:37 07.01.2020
4693 Clouds 5 1024 75 10000 1 0 19:19 07.01.2020
4694 Clouds 5 1024 75 10000 1 0 19:19 07.01.2020
4695 Clouds 6 1024 75 10000 1 0 18:56 07.01.2020
4696 Clouds 5 1024 55 10000 1 100 18:37 07.01.2020
4697 Clouds 7 1024 70 10000 1 0 18:18 07.01.2020
4698 Clouds 7 1024 55 10000 1.5 70 17:42 07.01.2020
4699 Clouds 8 1024 52 10000 1 0 17:23 07.01.2020
4700 Clouds 8 1024 52 10000 1 0 16:58 07.01.2020
4701 Clouds 9 1024 49 10000 1.5 280 16:39 07.01.2020
4702 Clouds 9 1024 49 10000 1 0 16:20 07.01.2020
4703 Clouds 10 1024 49 10000 1 0 15:59 07.01.2020
4704 Clouds 10 1024 49 10000 1.5 280 15:41 07.01.2020
4705 Clouds 10 1024 49 10000 2.1 320 15:23 07.01.2020
4706 Clouds 10 1024 49 10000 2.1 320 14:57 07.01.2020
4707 Clouds 10 1024 49 10000 1 0 14:37 07.01.2020
4708 Clouds 10 1024 37 10000 1.5 40 14:19 07.01.2020
4709 Clouds 10 1024 37 10000 1.5 40 14:19 07.01.2020
4710 Clouds 10 1025 37 10000 2.1 360 13:40 07.01.2020
4711 Clouds 10 1025 36 10000 1 0 13:20 07.01.2020
4712 Clouds 10 1025 36 10000 1 0 12:54 07.01.2020
4713 Clouds 10 1025 52 10000 0.5 0 12:36 07.01.2020
4714 Clouds 9 1026 52 10000 2.1 10 12:18 07.01.2020
4715 Clouds 9 1026 48 10000 1.5 10 11:41 07.01.2020
4716 Clear 7 1026 52 10000 1 0 11:21 07.01.2020
4717 Clear 6 1026 55 10000 1 0 10:43 07.01.2020
4718 Clear 5 1026 48 10000 2.1 350 10:24 07.01.2020
4719 Clear 5 1026 48 10000 2.1 350 09:59 07.01.2020
4720 Clear 5 1025 59 10000 1.5 360 09:38 07.01.2020
4721 Clear 4 1025 64 10000 0.5 0 09:20 07.01.2020
4722 Clear 3 1025 64 10000 1 0 08:47 07.01.2020
4723 Clear 3 1025 64 10000 1 0 08:27 07.01.2020
4724 Clear 1 1025 59 10000 1 0 07:55 07.01.2020
4725 Clear 1 1025 59 10000 1.5 80 07:34 07.01.2020
4726 Clear 2 1025 59 10000 1.5 40 06:54 07.01.2020
4727 Clear 2 1025 59 10000 1.5 40 06:35 07.01.2020
4728 Clear 2 1025 59 10000 2.6 50 05:58 07.01.2020
4729 Clear 2 1025 59 10000 2.6 30 05:38 07.01.2020
4730 Clear 2 1025 59 10000 2.1 30 03:44 07.01.2020
4731 Clear 2 1026 59 10000 1.5 40 02:25 07.01.2020
4732 Clear 3 1026 59 10000 3.6 50 01:57 07.01.2020
4733 Clear 3 1026 59 10000 2.1 30 01:34 07.01.2020
4734 Clear 3 1026 59 10000 2.6 50 00:40 07.01.2020
4735 Clear 3 1026 64 10000 2.6 20 00:20 07.01.2020
4736 Clear 3 1026 55 10000 1.5 40 23:55 06.01.2020
4737 Clear 3 1026 55 10000 1.5 40 23:36 06.01.2020
4738 Clear 4 1026 59 10000 1 0 23:18 06.01.2020
4739 Clear 4 1026 59 10000 1 0 23:18 06.01.2020
4740 Clear 4 1026 55 10000 2.1 50 22:43 06.01.2020
4741 Clear 4 1026 55 10000 2.1 50 22:23 06.01.2020
4742 Clear 4 1026 55 10000 2.6 80 21:58 06.01.2020
4743 Clear 4 1026 52 10000 2.6 60 21:39 06.01.2020
4744 Clear 4 1025 52 10000 3.6 50 21:20 06.01.2020
4745 Clear 4 1025 52 10000 3.6 50 21:20 06.01.2020
4746 Clear 4 1025 52 10000 3.6 50 21:20 06.01.2020
4747 Clear 4 1025 52 10000 3.6 50 21:20 06.01.2020
4748 Clear 4 1025 52 10000 3.6 50 20:57 06.01.2020
4749 Clear 5 1026 48 10000 2.1 50 20:38 06.01.2020
4750 Clear 5 1026 48 10000 3.1 20 20:20 06.01.2020
4751 Clear 5 1026 48 10000 3.1 20 19:56 06.01.2020
4752 Clear 5 1026 48 10000 3.1 20 19:38 06.01.2020
4753 Clear 6 1026 45 10000 2.6 40 19:20 06.01.2020
4754 Clear 6 1026 45 10000 1 0 18:47 06.01.2020
4755 Clear 7 1026 39 10000 1 0 18:22 06.01.2020
4756 Clear 7 1026 39 10000 1 0 17:58 06.01.2020
4757 Clear 7 1025 39 10000 3.1 20 17:38 06.01.2020
4758 Clear 9 1025 39 10000 2.6 350 17:18 06.01.2020
4759 Clear 9 1025 39 10000 2.6 350 17:18 06.01.2020
4760 Clear 10 1025 37 10000 3.6 360 16:44 06.01.2020
4761 Clear 11 1025 37 10000 3.6 360 16:25 06.01.2020
4762 Clear 11 1025 32 10000 3.6 360 15:59 06.01.2020
4763 Clear 11 1025 32 10000 4.6 10 15:39 06.01.2020
4764 Clear 11 1025 34 10000 4.6 360 15:19 06.01.2020
4765 Clear 11 1025 34 10000 4.6 360 14:57 06.01.2020
4766 Clear 11 1025 32 10000 4.1 360 14:39 06.01.2020
4767 Clear 11 1025 32 10000 4.6 10 14:18 06.01.2020
4768 Clear 11 1026 37 10000 4.6 10 13:42 06.01.2020
4769 Clear 10 1026 37 10000 6.7 20 13:22 06.01.2020
4770 Clear 10 1026 37 10000 6.7 20 12:59 06.01.2020
4771 Clear 10 1026 42 10000 5.7 20 12:41 06.01.2020
4772 Clear 10 1027 49 10000 4.1 20 12:20 06.01.2020
4773 Clear 9 1027 49 10000 4.1 20 11:56 06.01.2020
4774 Clear 9 1027 49 10000 3.6 40 11:38 06.01.2020
4775 Clear 7 1028 52 10000 4.6 30 11:20 06.01.2020
4776 Clear 7 1028 52 10000 4.6 30 11:20 06.01.2020
4777 Clear 7 1028 52 10000 4.6 30 10:42 06.01.2020
4778 Clear 7 1028 52 10000 4.1 20 10:21 06.01.2020
4779 Clear 6 1028 55 10000 4.6 320 09:42 06.01.2020
4780 Clear 5 1028 59 10000 3.6 20 09:24 06.01.2020
4781 Clear 5 1028 59 10000 3.6 20 08:58 06.01.2020
4782 Clear 4 1028 59 10000 3.1 70 08:40 06.01.2020
4783 Clear 4 1028 64 10000 3.1 40 08:21 06.01.2020
4784 Clear 4 1027 59 10000 3.6 40 07:48 06.01.2020
4785 Clear 3 1027 55 10000 3.6 40 07:21 06.01.2020
4786 Clear 3 1027 55 10000 3.1 30 06:44 06.01.2020
4787 Clear 4 1027 55 10000 2.6 20 05:52 06.01.2020
4788 Clear 3 1027 55 10000 2.6 20 05:33 06.01.2020
4789 Clear 4 1027 55 10000 2.6 20 04:26 06.01.2020
4790 Clear 4 1028 59 10000 1.5 360 03:53 06.01.2020
4791 Clear 4 1028 69 10000 1.5 130 02:32 06.01.2020
4792 Clear 5 1028 69 10000 1 0 01:56 06.01.2020
4793 Clear 5 1028 64 10000 0.5 0 01:32 06.01.2020
4794 Clear 5 1028 55 10000 0.5 0 00:57 06.01.2020
4795 Clear 5 1028 55 10000 2.1 140 00:39 06.01.2020
4796 Clear 5 1028 48 10000 1.5 320 00:18 06.01.2020
4797 Clear 6 1028 44 10000 2.1 310 23:40 05.01.2020
4798 Clear 6 1028 39 10000 3.1 20 23:21 05.01.2020
4799 Clear 7 1028 39 10000 2.6 30 22:40 05.01.2020
4800 Clear 7 1028 33 10000 3.6 30 22:21 05.01.2020
4801 Clear 7 1028 33 10000 3.6 30 21:59 05.01.2020
4802 Clear 7 1028 36 10000 4.6 40 21:40 05.01.2020
4803 Clear 8 1028 34 10000 4.1 40 21:20 05.01.2020
4804 Clear 8 1028 34 10000 4.1 40 20:58 05.01.2020
4805 Clear 8 1028 34 10000 4.6 40 20:39 05.01.2020
4806 Clear 8 1028 36 10000 4.6 50 20:20 05.01.2020
4807 Clear 8 1028 36 10000 4.6 50 19:59 05.01.2020
4808 Clear 8 1028 36 10000 3.1 40 19:40 05.01.2020
4809 Clear 9 1027 36 10000 3.1 50 19:21 05.01.2020
4810 Clear 9 1027 36 10000 3.1 50 18:56 05.01.2020
4811 Clear 9 1027 34 10000 3.1 50 18:38 05.01.2020
4812 Clear 10 1027 29 10000 3.6 40 18:19 05.01.2020
4813 Clear 10 1027 29 10000 3.6 40 17:58 05.01.2020
4814 Clear 11 1026 34 10000 2.6 30 17:39 05.01.2020
4815 Clear 11 1026 34 10000 2.6 30 17:39 05.01.2020
4816 Clear 11 1026 30 10000 3.6 40 17:20 05.01.2020
4817 Clear 12 1026 30 10000 3.6 40 16:57 05.01.2020
4818 Clear 13 1025 32 10000 4.1 60 16:39 05.01.2020
4819 Clear 13 1025 43 10000 2.6 30 16:20 05.01.2020
4820 Clear 14 1025 44 10000 3.6 330 15:40 05.01.2020
4821 Clear 14 1024 44 10000 4.1 330 15:21 05.01.2020
4822 Clear 14 1024 44 10000 4.1 330 14:57 05.01.2020
4823 Clear 14 1024 44 10000 3.1 320 14:38 05.01.2020
4824 Clear 14 1024 47 10000 2.6 340 14:20 05.01.2020
4825 Clear 14 1024 47 10000 2.6 340 13:57 05.01.2020
4826 Clear 14 1024 50 10000 2.1 330 13:38 05.01.2020
4827 Clear 14 1024 50 10000 2.1 330 13:38 05.01.2020
4828 Clear 14 1024 50 10000 2.6 360 13:19 05.01.2020
4829 Clear 14 1024 50 10000 2.6 360 13:19 05.01.2020
4830 Clear 13 1024 50 10000 2.6 360 12:56 05.01.2020
4831 Clear 13 1024 50 10000 2.6 360 12:56 05.01.2020
4832 Clear 13 1024 50 10000 3.1 50 12:37 05.01.2020
4833 Clear 12 1025 66 10000 4.1 30 12:19 05.01.2020
4834 Clear 12 1025 66 10000 5.1 20 11:44 05.01.2020
4835 Clear 10 1025 70 10000 4.1 30 11:20 05.01.2020
4836 Clear 10 1025 70 10000 4.1 30 10:59 05.01.2020
4837 Clear 9 1025 75 10000 4.6 20 10:40 05.01.2020
4838 Clear 9 1024 87 10000 4.6 10 10:19 05.01.2020
4839 Clear 8 1024 87 10000 5.1 20 09:42 05.01.2020
4840 Clear 7 1023 86 10000 5.1 20 09:22 05.01.2020
4841 Clear 6 1023 86 10000 4.1 30 08:52 05.01.2020
4842 Clear 6 1023 86 10000 4.1 30 08:32 05.01.2020
4843 Clear 4 1023 93 7000 4.1 50 07:59 05.01.2020
4844 Clear 5 1023 86 8000 4.6 40 07:39 05.01.2020
4845 Clear 5 1023 86 8000 4.6 40 07:39 05.01.2020
4846 Clear 5 1022 93 10000 3.6 30 07:20 05.01.2020
4847 Clear 5 1022 86 10000 3.6 50 06:40 05.01.2020
4848 Clear 5 1021 93 10000 2.1 20 05:34 05.01.2020
4849 Clear 5 1022 93 10000 1.5 30 04:49 05.01.2020
4850 Clear 6 1022 93 9000 2.1 330 04:18 05.01.2020
4851 Clear 6 1022 93 9000 2.1 330 04:18 05.01.2020
4852 Clear 6 1022 87 10000 2.1 30 03:18 05.01.2020
4853 Clear 6 1022 93 10000 2.6 20 02:32 05.01.2020
4854 Clouds 6 1021 87 10000 2.6 40 01:49 05.01.2020
4855 Clouds 6 1022 87 9000 3.1 40 01:20 05.01.2020
4856 Clouds 6 1022 87 9000 3.1 40 00:56 05.01.2020
4857 Clouds 6 1021 87 8000 1.5 30 00:37 05.01.2020
4858 Clouds 6 1022 93 8000 1.5 40 00:19 05.01.2020
4859 Clouds 6 1022 93 8000 1.5 40 23:40 04.01.2020
4860 Clouds 6 1022 93 7000 1 350 23:20 04.01.2020
4861 Clouds 7 1022 93 8000 0.5 0 22:40 04.01.2020
4862 Clouds 7 1022 87 8000 1 0 22:22 04.01.2020
4863 Clouds 7 1022 87 8000 1 0 21:58 04.01.2020
4864 Clouds 7 1022 87 8000 1 0 21:40 04.01.2020
4865 Clouds 8 1022 87 10000 1 70 21:22 04.01.2020
4866 Clouds 8 1022 87 10000 1 70 20:59 04.01.2020
4867 Clouds 8 1022 81 8000 1 0 20:40 04.01.2020
4868 Clouds 8 1022 87 8000 1 90 20:22 04.01.2020
4869 Clouds 8 1022 87 8000 1 90 19:57 04.01.2020
4870 Clouds 8 1022 76 10000 1 60 19:38 04.01.2020
4871 Clouds 9 1022 87 10000 2.1 20 19:20 04.01.2020
4872 Clouds 9 1022 76 10000 1 90 18:56 04.01.2020
4873 Clouds 9 1022 76 10000 1 90 18:37 04.01.2020
4874 Clouds 10 1022 76 10000 1.5 40 18:19 04.01.2020
4875 Clouds 10 1022 71 10000 2.1 60 17:41 04.01.2020
4876 Clouds 11 1022 66 10000 1 0 17:23 04.01.2020
4877 Clouds 11 1022 66 10000 1 0 16:59 04.01.2020
4878 Clouds 11 1022 66 10000 1.5 10 16:40 04.01.2020
4879 Clouds 12 1022 62 10000 2.6 10 16:21 04.01.2020
4880 Clouds 12 1022 62 10000 2.6 360 15:56 04.01.2020
4881 Clouds 12 1022 62 10000 2.6 360 15:38 04.01.2020
4882 Clouds 12 1022 66 10000 3.6 350 15:18 04.01.2020
4883 Clouds 12 1022 58 10000 3.1 330 14:42 04.01.2020
4884 Clouds 12 1022 58 10000 2.6 360 14:20 04.01.2020
4885 Clouds 13 1022 58 10000 2.6 360 13:59 04.01.2020
4886 Clouds 12 1023 62 10000 2.6 360 13:39 04.01.2020
4887 Clouds 12 1023 62 9000 2.6 30 13:20 04.01.2020
4888 Clouds 12 1023 62 9000 2.6 30 12:57 04.01.2020
4889 Clouds 12 1023 62 9000 2.6 30 12:57 04.01.2020
4890 Clouds 12 1024 66 10000 3.1 20 12:39 04.01.2020
4891 Clouds 11 1024 66 10000 3.1 360 12:19 04.01.2020
4892 Clouds 11 1024 66 10000 3.1 360 11:57 04.01.2020
4893 Clouds 11 1024 66 10000 3.1 360 11:57 04.01.2020
4894 Clouds 10 1024 66 10000 2.1 350 11:38 04.01.2020
4895 Clouds 10 1024 66 10000 2.1 350 11:38 04.01.2020
4896 Clouds 9 1024 76 10000 1.5 40 11:18 04.01.2020
4897 Clouds 8 1024 87 10000 1.5 360 10:41 04.01.2020
4898 Clouds 8 1024 81 10000 2.1 340 10:22 04.01.2020
4899 Clouds 8 1024 76 10000 2.1 110 09:48 04.01.2020
4900 Clouds 7 1024 75 10000 2.6 80 09:26 04.01.2020
4901 Clouds 6 1024 87 9000 3.1 70 08:49 04.01.2020
4902 Clouds 6 1024 87 9000 3.1 70 08:29 04.01.2020
4903 Clouds 5 1024 81 9000 1.5 30 07:59 04.01.2020
4904 Clouds 5 1024 86 9000 1 0 07:40 04.01.2020
4905 Clouds 5 1024 81 10000 1 0 06:46 04.01.2020
4906 Clouds 5 1024 86 10000 1.5 20 05:59 04.01.2020
4907 Clouds 5 1025 86 10000 1 60 04:53 04.01.2020
4908 Clouds 5 1025 86 10000 1 60 04:32 04.01.2020
4909 Clouds 5 1025 93 10000 1 90 03:37 04.01.2020
4910 Clouds 5 1025 93 10000 1 0 03:18 04.01.2020
4911 Clouds 5 1026 86 10000 1.5 100 02:20 04.01.2020
4912 Clouds 5 1026 80 10000 0.5 0 01:51 04.01.2020
4913 Clouds 5 1026 80 10000 0.5 0 01:30 04.01.2020
4914 Clouds 5 1026 86 10000 2.1 80 00:30 04.01.2020
4915 Clouds 5 1026 86 10000 1.5 80 23:59 03.01.2020
4916 Clouds 5 1026 81 10000 1.5 60 23:37 03.01.2020
4917 Clear 5 1026 81 10000 2.1 70 23:19 03.01.2020
4918 Clear 6 1026 81 10000 2.1 0 22:41 03.01.2020
4919 Clear 6 1026 86 10000 2.1 90 22:19 03.01.2020
4920 Clear 6 1026 86 10000 2.1 90 21:58 03.01.2020
4921 Clear 7 1026 87 10000 1.5 90 21:38 03.01.2020
4922 Clear 7 1026 87 10000 1.5 90 21:38 03.01.2020
4923 Clear 7 1026 87 10000 2.1 90 21:19 03.01.2020
4924 Clear 7 1026 87 10000 2.1 90 21:19 03.01.2020
4925 Clear 7 1026 81 10000 1.5 80 20:56 03.01.2020
4926 Clear 7 1026 81 10000 1.5 80 20:38 03.01.2020
4927 Clouds 7 1027 75 10000 2.1 70 20:18 03.01.2020
4928 Clouds 7 1027 81 10000 2.1 100 19:55 03.01.2020
4929 Clouds 7 1027 81 10000 2.1 100 19:37 03.01.2020
4930 Clouds 8 1027 81 10000 1.5 90 19:18 03.01.2020
4931 Clouds 8 1027 81 10000 1 0 18:40 03.01.2020
4932 Clouds 9 1027 76 10000 1 0 18:21 03.01.2020
4933 Clouds 9 1027 76 10000 1 0 17:54 03.01.2020
4934 Clouds 9 1026 70 10000 1 290 17:36 03.01.2020
4935 Clouds 10 1026 62 10000 1 50 17:18 03.01.2020
4936 Clouds 11 1027 58 10000 1.5 50 16:42 03.01.2020
4937 Clouds 12 1027 58 10000 1.5 40 16:22 03.01.2020
4938 Clouds 13 1027 58 10000 2.1 30 15:43 03.01.2020
4939 Clouds 13 1027 54 10000 2.6 20 15:19 03.01.2020
4940 Clouds 13 1027 54 10000 2.6 20 15:19 03.01.2020
4941 Clouds 13 1027 54 10000 2.6 20 14:56 03.01.2020
4942 Clouds 13 1027 54 10000 3.1 360 14:37 03.01.2020
4943 Clouds 12 1027 53 10000 2.6 350 14:19 03.01.2020
4944 Clouds 12 1027 51 10000 2.6 350 13:41 03.01.2020
4945 Clouds 12 1027 51 10000 2.6 350 13:23 03.01.2020
4946 Clouds 12 1028 43 10000 2.6 360 12:57 03.01.2020
4947 Clouds 12 1028 51 10000 2.1 330 12:38 03.01.2020
4948 Clouds 11 1028 57 10000 2.6 330 12:20 03.01.2020
4949 Clouds 11 1029 51 10000 2.6 360 11:44 03.01.2020
4950 Clouds 9 1029 58 10000 2.6 0 11:19 03.01.2020
4951 Clouds 8 1029 58 10000 3.1 30 10:44 03.01.2020
4952 Clouds 8 1029 58 10000 3.1 30 10:25 03.01.2020
4953 Clouds 7 1029 80 10000 3.1 30 09:57 03.01.2020
4954 Clouds 6 1029 80 10000 2.6 20 09:38 03.01.2020
4955 Clouds 6 1029 86 10000 1.5 360 09:20 03.01.2020
4956 Clouds 5 1029 86 10000 1.5 360 08:56 03.01.2020
4957 Clouds 5 1029 57 10000 1.5 350 08:36 03.01.2020
4958 Clouds 4 1028 65 10000 2.1 40 08:18 03.01.2020
4959 Clouds 4 1028 80 10000 2.1 70 07:39 03.01.2020
4960 Clouds 4 1028 65 10000 2.1 60 07:18 03.01.2020
4961 Clouds 4 1028 65 10000 2.1 60 07:18 03.01.2020
4962 Clouds 4 1028 65 10000 3.1 30 06:42 03.01.2020
4963 Clouds 4 1028 86 10000 1.5 40 06:24 03.01.2020
4964 Clouds 4 1028 86 10000 3.6 50 05:28 03.01.2020
4965 Clouds 4 1028 93 10000 3.6 330 03:55 03.01.2020
4966 Clouds 4 1028 87 10000 3.6 80 02:55 03.01.2020
4967 Clouds 4 1029 93 10000 1.5 60 01:57 03.01.2020
4968 Clouds 4 1029 93 10000 1.5 340 01:38 03.01.2020
4969 Clouds 4 1030 86 10000 1.5 60 00:46 03.01.2020
4970 Clouds 4 1030 86 10000 1.5 60 00:26 03.01.2020
4971 Clouds 5 1030 87 10000 2.1 90 23:55 02.01.2020
4972 Clouds 5 1030 87 10000 2.1 90 23:37 02.01.2020
4973 Clouds 5 1030 93 10000 1 0 23:18 02.01.2020
4974 Clouds 5 1030 87 10000 2.6 100 22:42 02.01.2020
4975 Clouds 6 1030 87 10000 2.6 100 22:20 02.01.2020
4976 Clouds 6 1030 87 10000 2.6 100 21:57 02.01.2020
4977 Clouds 6 1030 81 10000 2.6 90 21:57 02.01.2020
4978 Clouds 6 1030 81 10000 2.6 90 21:38 02.01.2020
4979 Clouds 6 1030 81 10000 2.6 90 21:20 02.01.2020
4980 Clouds 6 1030 81 10000 2.6 90 20:56 02.01.2020
4981 Clouds 6 1030 81 10000 2.6 90 20:38 02.01.2020
4982 Clear 6 1030 81 10000 2.6 90 20:20 02.01.2020
4983 Clear 7 1030 81 10000 2.6 90 19:55 02.01.2020
4984 Clear 7 1030 81 10000 2.1 100 19:36 02.01.2020
4985 Clear 7 1030 75 10000 2.1 90 19:18 02.01.2020
4986 Clear 7 1030 75 10000 2.1 90 18:54 02.01.2020
4987 Clear 7 1030 70 10000 2.1 90 18:36 02.01.2020
4988 Clear 9 1030 70 10000 2.1 90 18:18 02.01.2020
4989 Clear 9 1030 70 10000 2.1 90 17:55 02.01.2020
4990 Clear 9 1030 66 10000 1.5 0 17:36 02.01.2020
4991 Clear 11 1030 57 10000 1 30 17:18 02.01.2020
4992 Clear 12 1030 54 10000 2.1 20 16:41 02.01.2020
4993 Clear 13 1030 54 10000 1.5 20 16:20 02.01.2020
4994 Clear 14 1030 54 10000 1.5 20 15:58 02.01.2020
4995 Clear 14 1030 50 10000 2.1 20 15:40 02.01.2020
4996 Clear 14 1030 47 10000 1.02 47 15:22 02.01.2020
4997 Clear 14 1029 50 10000 1.5 350 14:57 02.01.2020
4998 Clear 14 1029 50 10000 1.5 350 14:36 02.01.2020
4999 Clear 14 1030 47 10000 1 0 14:18 02.01.2020
5000 Clear 14 1030 50 10000 1.5 340 13:50 02.01.2020
5001 Clear 13 1030 50 10000 1.5 340 13:31 02.01.2020
5002 Clear 13 1030 50 10000 2.1 360 12:46 02.01.2020
5003 Clear 13 1030 50 10000 2.1 360 12:28 02.01.2020
5004 Clear 12 1031 49 10000 2.1 20 11:59 02.01.2020
5005 Clear 11 1031 49 10000 2.1 20 11:40 02.01.2020
5006 Clear 10 1031 52 10000 2.6 10 11:20 02.01.2020
5007 Clear 9 1031 52 10000 2.1 10 10:45 02.01.2020
5008 Clear 8 1031 52 10000 2.1 10 10:26 02.01.2020
5009 Clear 8 1030 60 10000 2.1 30 09:52 02.01.2020
5010 Clear 8 1030 60 10000 2.1 30 09:33 02.01.2020
5011 Clear 6 1030 69 10000 1.5 30 08:48 02.01.2020
5012 Clear 5 1030 69 10000 1.5 30 08:27 02.01.2020
5013 Clear 4 1029 64 10000 1.5 90 07:54 02.01.2020
5014 Clear 4 1029 69 10000 1.5 70 07:31 02.01.2020
5015 Clear 4 1029 69 10000 1.5 90 06:55 02.01.2020
5016 Clear 4 1029 69 10000 1.5 90 06:55 02.01.2020
5017 Clear 4 1029 69 10000 3.1 60 06:36 02.01.2020
5018 Clear 4 1029 64 10000 1.5 40 05:36 02.01.2020
5019 Clear 4 1029 69 10000 0.5 0 04:33 02.01.2020
5020 Clear 4 1029 60 10000 2.6 50 02:55 02.01.2020
5021 Clear 4 1029 65 10000 3.1 60 02:20 02.01.2020
5022 Clear 4 1029 60 10000 1.5 50 01:46 02.01.2020
5023 Clear 5 1029 69 10000 1.5 10 01:19 02.01.2020
5024 Clear 4 1029 74 10000 2.1 320 00:34 02.01.2020
5025 Clear 4 1029 60 10000 2.6 30 23:58 01.01.2020
5026 Clear 5 1029 69 10000 1.5 350 23:40 01.01.2020
5027 Clear 5 1029 56 10000 2.1 50 23:19 01.01.2020
5028 Clear 5 1029 52 10000 2.6 60 22:38 01.01.2020
5029 Clear 5 1029 52 10000 2.6 60 22:38 01.01.2020
5030 Clear 5 1029 48 10000 2.6 40 22:20 01.01.2020
5031 Clear 5 1029 48 10000 2.6 40 22:20 01.01.2020
5032 Clear 5 1029 48 10000 2.6 40 22:20 01.01.2020
5033 Clear 5 1029 48 10000 2.6 40 21:56 01.01.2020
5034 Clear 5 1029 60 10000 1.5 50 21:38 01.01.2020
5035 Clear 6 1029 65 10000 1.5 50 21:19 01.01.2020
5036 Clear 6 1029 60 10000 2.1 70 20:56 01.01.2020
5037 Clear 6 1029 65 10000 1.5 50 20:56 01.01.2020
5038 Clear 6 1029 60 10000 2.1 70 20:38 01.01.2020
5039 Clear 7 1029 69 10000 1.5 70 20:19 01.01.2020
5040 Clear 7 1029 69 10000 1.5 70 19:55 01.01.2020
5041 Clear 7 1029 65 10000 1.5 60 19:37 01.01.2020
5042 Clear 7 1029 60 10000 0.5 0 19:19 01.01.2020
5043 Clear 7 1029 60 10000 0.5 0 18:55 01.01.2020
5044 Clear 8 1029 60 10000 1 0 18:36 01.01.2020
5045 Clear 8 1029 52 10000 1 0 18:18 01.01.2020
5046 Clear 8 1029 52 10000 1 0 17:56 01.01.2020
5047 Clear 9 1028 45 10000 1 10 17:38 01.01.2020
5048 Clear 10 1028 39 10000 1.5 10 17:18 01.01.2020
5049 Clear 11 1028 37 10000 1.5 40 16:41 01.01.2020
5050 Clear 12 1028 40 10000 1.5 340 16:22 01.01.2020
5051 Clear 12 1028 40 10000 1.5 340 15:58 01.01.2020
5052 Clear 13 1028 34 10000 2.1 20 15:40 01.01.2020
5053 Clear 13 1028 37 10000 1.5 320 15:21 01.01.2020
5054 Clear 13 1028 37 10000 1.5 320 14:58 01.01.2020
5055 Clear 13 1028 34 10000 1 0 14:40 01.01.2020
5056 Clear 13 1028 43 10000 2.1 330 14:21 01.01.2020
5057 Clear 13 1028 43 10000 2.1 330 13:56 01.01.2020
5058 Clear 12 1028 43 10000 1.5 320 13:37 01.01.2020
5059 Clear 12 1028 43 10000 1.5 320 13:37 01.01.2020
5060 Clear 12 1028 43 10000 1.5 320 13:37 01.01.2020
5061 Clear 12 1028 43 10000 1.5 320 13:37 01.01.2020
5062 Clear 12 1029 39 10000 1 0 13:18 01.01.2020
5063 Clear 12 1029 39 10000 1 0 12:55 01.01.2020
5064 Clear 12 1029 42 10000 1 0 12:37 01.01.2020
5065 Clear 12 1030 49 10000 2.1 30 12:18 01.01.2020
5066 Clear 11 1030 42 10000 1 0 11:43 01.01.2020
5067 Clear 9 1030 52 10000 2.1 20 11:22 01.01.2020
5068 Clear 9 1030 52 10000 2.1 20 10:59 01.01.2020
5069 Clear 9 1030 56 10000 2.6 20 10:40 01.01.2020
5070 Clear 6 1030 60 10000 2.1 10 10:20 01.01.2020
5071 Clear 6 1030 60 10000 2.1 10 10:20 01.01.2020
5072 Clear 6 1030 60 10000 2.1 10 09:57 01.01.2020
5073 Clear 7 1029 55 10000 1.5 20 09:37 01.01.2020
5074 Clear 6 1029 55 10000 2.6 30 09:18 01.01.2020
5075 Clear 6 1029 55 10000 2.6 30 09:18 01.01.2020
5076 Clear 5 1029 55 10000 2.6 30 08:55 01.01.2020
5077 Clear 4 1029 59 10000 2.6 30 08:36 01.01.2020
5078 Clear 4 1029 59 10000 2.6 30 08:36 01.01.2020
5079 Clear 4 1029 59 10000 2.6 30 08:36 01.01.2020
5080 Clear 4 1029 59 10000 2.6 30 08:36 01.01.2020
5081 Clouds 2 1028 64 10000 2.6 10 08:18 01.01.2020
5082 Clouds 2 1028 64 10000 1.5 50 07:48 01.01.2020
5083 Clouds 2 1028 64 10000 1.5 50 07:30 01.01.2020
5084 Clouds 2 1028 59 10000 1.5 70 06:44 01.01.2020
5085 Clouds 2 1028 59 10000 1.5 70 06:20 01.01.2020
5086 Clouds 2 1028 69 9000 2.1 20 05:21 01.01.2020
5087 Clouds 2 1028 74 7000 1.5 60 03:43 01.01.2020
5088 Clouds 2 1028 69 8000 1.5 330 03:22 01.01.2020
5089 Clouds 3 1028 69 9000 1 0 02:56 01.01.2020
5090 Clouds 3 1028 69 9000 1 0 02:33 01.01.2020
5091 Clouds 3 1029 69 8000 1.5 30 01:45 01.01.2020
5092 Clouds 3 1029 69 8000 1.5 30 01:25 01.01.2020
5093 Clouds 3 1029 69 8000 1 0 00:57 01.01.2020
5094 Clouds 3 1028 69 10000 1.5 70 00:38 01.01.2020
5095 Clouds 3 1029 69 10000 2.1 90 00:20 01.01.2020
5096 Clouds 3 1029 64 10000 1 0 23:40 31.12.2019
5097 Clouds 4 1029 60 10000 1.5 100 23:21 31.12.2019
5098 Clouds 4 1029 60 10000 1.5 100 22:57 31.12.2019
5099 Clouds 4 1029 64 10000 0.5 0 22:38 31.12.2019
5100 Clouds 4 1029 64 10000 1 80 22:18 31.12.2019
5101 Clouds 4 1029 64 10000 1 80 21:54 31.12.2019
5102 Clouds 4 1029 56 10000 1.5 0 21:36 31.12.2019
5103 Clouds 4 1029 56 10000 2.1 90 21:18 31.12.2019
5104 Clouds 4 1029 56 10000 2.6 90 20:40 31.12.2019
5105 Clear 4 1029 74 10000 2.1 120 20:22 31.12.2019
5106 Clear 4 1029 69 10000 2.6 90 19:59 31.12.2019
5107 Clear 4 1029 69 10000 2.6 90 19:40 31.12.2019
5108 Clear 5 1029 64 10000 1.5 80 19:22 31.12.2019
5109 Clear 5 1029 64 10000 1.5 80 19:22 31.12.2019
5110 Clear 5 1029 64 10000 1.5 80 18:58 31.12.2019
5111 Clear 5 1029 64 10000 1.5 100 18:40 31.12.2019
5112 Clear 6 1029 64 10000 1 350 18:20 31.12.2019
5113 Clear 7 1029 64 10000 1 350 17:56 31.12.2019
5114 Clear 7 1029 64 10000 1 300 17:38 31.12.2019
5115 Clear 8 1029 58 10000 2.1 280 17:19 31.12.2019
5116 Clear 9 1029 45 10000 1 0 16:57 31.12.2019
5117 Clear 9 1029 45 10000 1 0 16:38 31.12.2019
5118 Clear 9 1029 49 10000 2.1 350 16:19 31.12.2019
5119 Clear 10 1029 49 10000 2.1 350 15:56 31.12.2019
5120 Clear 10 1029 46 10000 2.1 330 15:38 31.12.2019
5121 Clear 10 1029 43 10000 2.1 330 15:20 31.12.2019
5122 Clear 11 1029 43 10000 2.1 330 14:58 31.12.2019
5123 Clear 11 1029 46 10000 2.6 340 14:38 31.12.2019
5124 Clear 11 1029 43 10000 2.6 10 14:19 31.12.2019
5125 Clear 11 1029 43 10000 2.6 10 14:19 31.12.2019
5126 Clear 11 1029 43 10000 2.6 10 13:57 31.12.2019
5127 Clear 11 1030 42 10000 2.6 360 13:39 31.12.2019
5128 Clear 10 1030 39 10000 2.1 10 13:20 31.12.2019
5129 Clear 10 1030 39 10000 2.1 10 12:56 31.12.2019
5130 Clear 10 1030 42 10000 2.1 340 12:38 31.12.2019
5131 Clear 9 1031 45 10000 1.5 340 12:19 31.12.2019
5132 Clear 9 1031 45 10000 1.5 340 11:56 31.12.2019
5133 Clear 9 1031 45 10000 1.5 340 11:56 31.12.2019
5134 Clear 9 1031 45 10000 1.5 340 11:56 31.12.2019
5135 Clear 9 1031 45 10000 1.5 340 11:56 31.12.2019
5136 Clear 9 1031 48 10000 1.5 20 11:38 31.12.2019
5137 Clear 6 1031 52 10000 3.1 20 11:19 31.12.2019
5138 Clear 6 1031 52 10000 3.1 20 10:57 31.12.2019
5139 Clear 6 1031 52 10000 3.1 20 10:57 31.12.2019
5140 Clear 6 1031 55 10000 3.6 20 10:38 31.12.2019
5141 Clear 4 1031 59 10000 3.6 20 10:20 31.12.2019
5142 Clear 5 1031 59 10000 3.6 20 09:58 31.12.2019
5143 Clear 4 1031 59 10000 3.1 30 09:39 31.12.2019
5144 Clear 3 1031 59 10000 2.6 30 09:20 31.12.2019
5145 Clear 2 1031 59 10000 2.6 30 08:57 31.12.2019
5146 Clear 2 1031 64 10000 3.1 40 08:37 31.12.2019
5147 Clear 1 1031 73 10000 2.6 30 08:18 31.12.2019
5148 Clear 1 1031 74 10000 2.6 20 07:41 31.12.2019
5149 Clear 1 1031 73 10000 1.5 10 07:19 31.12.2019
5150 Clear 1 1030 64 10000 1.5 350 06:48 31.12.2019
5151 Clear 1 1030 64 10000 2.6 40 05:54 31.12.2019
5152 Clear 1 1031 64 10000 3.6 40 04:27 31.12.2019
5153 Clear 2 1031 64 10000 2.6 30 03:27 31.12.2019
5154 Clear 2 1030 55 10000 1 50 02:43 31.12.2019
5155 Clear 2 1030 64 10000 1.5 60 01:53 31.12.2019
5156 Clear 2 1030 74 10000 1.5 0 01:34 31.12.2019
5157 Clear 2 1031 64 10000 1.5 50 00:56 31.12.2019
5158 Clear 2 1031 64 10000 1 0 00:38 31.12.2019
5159 Clear 2 1031 69 10000 1 0 00:18 31.12.2019
5160 Clear 2 1031 64 10000 1.5 70 23:56 30.12.2019
5161 Clear 3 1031 64 10000 1.5 70 23:37 30.12.2019
5162 Clear 3 1030 64 10000 1 0 23:19 30.12.2019
5163 Clear 3 1030 64 10000 1 0 22:56 30.12.2019
5164 Clear 3 1030 64 10000 1 0 22:56 30.12.2019
5165 Clear 3 1030 59 10000 3.1 60 22:37 30.12.2019
5166 Clear 4 1030 60 10000 3.6 40 22:18 30.12.2019
5167 Clear 4 1030 60 10000 3.6 40 21:55 30.12.2019
5168 Clear 4 1030 64 10000 1 0 21:37 30.12.2019
5169 Clear 4 1030 64 10000 2.6 90 21:18 30.12.2019
5170 Clear 4 1030 64 10000 2.6 90 20:55 30.12.2019
5171 Clear 4 1030 64 10000 2.6 90 20:55 30.12.2019
5172 Clear 4 1030 64 10000 2.6 90 20:55 30.12.2019
5173 Clear 4 1030 64 10000 1.5 0 20:37 30.12.2019
5174 Clear 5 1030 56 10000 1 0 20:18 30.12.2019
5175 Clear 5 1030 56 10000 1 0 19:55 30.12.2019
5176 Clear 6 1029 56 10000 1 0 19:36 30.12.2019
5177 Clear 6 1029 56 10000 4.1 360 19:18 30.12.2019
5178 Clear 6 1029 60 10000 2.6 360 18:42 30.12.2019
5179 Clear 7 1029 52 10000 2.1 30 18:21 30.12.2019
5180 Clear 7 1029 52 10000 2.1 30 17:59 30.12.2019
5181 Clear 7 1029 52 10000 2.1 30 17:59 30.12.2019
5182 Clear 7 1029 52 10000 2.6 10 17:41 30.12.2019
5183 Clear 8 1029 52 10000 3.1 20 17:20 30.12.2019
5184 Clear 8 1029 52 10000 3.1 20 17:00 30.12.2019
5185 Clear 8 1028 52 10000 3.1 10 16:40 30.12.2019
5186 Clear 9 1028 49 10000 4.6 340 16:20 30.12.2019
5187 Clear 10 1028 49 10000 4.6 340 15:57 30.12.2019
5188 Clear 10 1028 43 10000 4.1 360 15:39 30.12.2019
5189 Clear 10 1028 39 10000 5.7 360 15:19 30.12.2019
5190 Clear 10 1028 39 10000 5.7 360 14:55 30.12.2019
5191 Clear 10 1027 37 10000 6.2 20 14:37 30.12.2019
5192 Clear 10 1028 34 10000 5.1 30 14:18 30.12.2019
5193 Clear 10 1028 34 10000 5.7 30 13:42 30.12.2019
5194 Clear 9 1028 39 10000 5.7 10 13:24 30.12.2019
5195 Clear 9 1028 39 10000 5.7 10 12:58 30.12.2019
5196 Clear 9 1028 39 10000 5.1 30 12:40 30.12.2019
5197 Clear 9 1029 42 10000 5.7 30 12:19 30.12.2019
5198 Clear 9 1029 42 10000 5.7 30 11:56 30.12.2019
5199 Clear 8 1029 45 10000 5.1 30 11:37 30.12.2019
5200 Clear 7 1029 39 10000 6.2 30 11:18 30.12.2019
5201 Clear 7 1029 52 10000 4.1 40 10:42 30.12.2019
5202 Clear 5 1029 55 10000 5.1 30 10:20 30.12.2019
5203 Clear 5 1029 55 10000 4.6 40 09:44 30.12.2019
5204 Clear 4 1029 59 10000 3.6 50 09:22 30.12.2019
5205 Clear 3 1029 59 10000 3.6 50 08:58 30.12.2019
5206 Clear 3 1029 59 10000 4.1 40 08:39 30.12.2019
5207 Clear 2 1029 59 10000 4.1 50 08:21 30.12.2019
5208 Clear 1 1028 55 10000 4.6 40 07:49 30.12.2019
5209 Clear 1 1028 55 10000 4.6 40 07:25 30.12.2019
5210 Clear 2 1028 51 10000 5.7 30 06:39 30.12.2019
5211 Clear 2 1028 51 10000 5.1 30 04:32 30.12.2019
5212 Clear 2 1028 55 10000 4.6 30 03:52 30.12.2019
5213 Clear 2 1029 59 10000 2.6 60 02:47 30.12.2019
5214 Clear 2 1029 59 10000 2.6 60 02:29 30.12.2019
5215 Clear 3 1028 51 10000 3.1 0 01:43 30.12.2019
5216 Clear 3 1028 55 10000 1.5 10 01:19 30.12.2019
5217 Clear 3 1028 59 10000 4.1 10 00:42 30.12.2019
5218 Clear 3 1028 59 10000 3.1 60 23:58 29.12.2019
5219 Clear 3 1029 64 10000 1 0 23:38 29.12.2019
5220 Clear 3 1028 59 10000 2.6 30 23:19 29.12.2019
5221 Clear 3 1029 55 10000 2.6 30 22:41 29.12.2019
5222 Clear 3 1029 51 10000 2.1 360 22:22 29.12.2019
5223 Clear 3 1029 51 10000 2.1 360 21:56 29.12.2019
5224 Clear 3 1028 48 10000 3.1 40 21:38 29.12.2019
5225 Clear 3 1028 51 10000 3.6 40 21:19 29.12.2019
5226 Clear 3 1028 51 10000 3.6 40 20:56 29.12.2019
5227 Clear 3 1028 51 10000 4.1 40 20:38 29.12.2019
5228 Clear 4 1027 51 10000 4.1 20 20:18 29.12.2019
5229 Clear 4 1027 48 10000 1.5 60 19:56 29.12.2019
5230 Clear 4 1027 48 10000 1.5 60 19:38 29.12.2019
5231 Clear 4 1027 48 10000 2.6 10 19:19 29.12.2019
5232 Clear 4 1027 48 10000 2.6 10 18:55 29.12.2019
5233 Clear 4 1026 45 10000 2.1 20 18:37 29.12.2019
5234 Clear 5 1026 45 10000 3.1 10 18:18 29.12.2019
5235 Clear 5 1026 42 10000 6.2 360 17:56 29.12.2019
5236 Clear 6 1026 42 10000 6.2 360 17:38 29.12.2019
5237 Clear 7 1026 45 10000 4.1 350 17:19 29.12.2019
5238 Clear 7 1025 42 10000 5.7 350 16:56 29.12.2019
5239 Clear 8 1025 42 10000 5.7 350 16:36 29.12.2019
5240 Clear 8 1025 36 10000 6.2 360 16:18 29.12.2019
5241 Clear 9 1025 34 10000 5.7 350 15:56 29.12.2019
5242 Clear 9 1025 34 10000 5.7 350 15:56 29.12.2019
5243 Clear 9 1025 34 10000 5.7 350 15:38 29.12.2019
5244 Clear 9 1026 34 10000 5.1 340 15:18 29.12.2019
5245 Clear 9 1026 34 10000 4.6 350 14:55 29.12.2019
5246 Clear 9 1026 34 10000 4.6 350 14:37 29.12.2019
5247 Clouds 9 1026 37 10000 5.7 360 14:18 29.12.2019
5248 Clouds 9 1026 37 10000 5.7 360 13:55 29.12.2019
5249 Clouds 9 1026 34 10000 5.7 360 13:37 29.12.2019
5250 Clear 9 1027 36 10000 5.1 360 13:18 29.12.2019
5251 Clear 9 1027 39 10000 3.6 20 12:41 29.12.2019
5252 Clear 8 1028 39 10000 1 0 12:23 29.12.2019
5253 Clear 8 1029 45 10000 2.1 360 11:55 29.12.2019
5254 Clear 8 1029 45 10000 2.1 360 11:37 29.12.2019
5255 Clear 6 1029 45 10000 4.1 350 11:19 29.12.2019
5256 Clear 6 1029 48 10000 3.1 10 10:41 29.12.2019
5257 Clear 6 1029 51 10000 3.6 10 10:21 29.12.2019
5258 Clear 5 1029 51 10000 3.6 10 09:54 29.12.2019
5259 Clear 5 1029 51 10000 4.1 10 09:36 29.12.2019
5260 Clear 4 1029 55 10000 1.5 280 09:18 29.12.2019
5261 Clear 3 1029 51 10000 1.5 320 08:46 29.12.2019
5262 Clouds 2 1029 51 10000 1.5 320 08:24 29.12.2019
5263 Clear 2 1028 44 10000 4.6 40 07:54 29.12.2019
5264 Clear 2 1028 51 10000 4.1 40 07:28 29.12.2019
5265 Clear 2 1028 51 10000 3.1 360 06:53 29.12.2019
5266 Clear 2 1028 51 10000 3.1 20 06:23 29.12.2019
5267 Clear 2 1028 55 10000 3.6 20 05:50 29.12.2019
5268 Clear 3 1028 51 10000 3.1 40 04:35 29.12.2019
5269 Clear 3 1029 59 10000 2.1 360 03:40 29.12.2019
5270 Clear 3 1029 64 10000 2.6 340 03:19 29.12.2019
5271 Clear 4 1029 55 10000 3.1 30 02:20 29.12.2019
5272 Clear 4 1029 55 10000 2.6 40 01:31 29.12.2019
5273 Clear 4 1029 55 10000 2.6 40 01:31 29.12.2019
5274 Clear 4 1029 55 10000 2.6 40 01:31 29.12.2019
5275 Clear 3 1029 55 10000 3.6 10 00:55 29.12.2019
5276 Clear 3 1029 55 10000 1 30 00:36 29.12.2019
5277 Clear 3 1029 59 10000 1.5 260 00:18 29.12.2019
5278 Clear 4 1029 51 10000 2.6 40 23:41 28.12.2019
5279 Clear 4 1029 51 10000 3.1 30 23:18 28.12.2019
5280 Clear 4 1029 59 10000 1.5 150 22:39 28.12.2019
5281 Clear 4 1029 51 10000 1.5 140 22:20 28.12.2019
5282 Clear 4 1029 51 10000 1.5 140 21:57 28.12.2019
5283 Clear 4 1028 51 10000 1 0 21:38 28.12.2019
5284 Clear 4 1028 48 10000 1.5 0 21:20 28.12.2019
5285 Clear 4 1028 48 10000 1.5 0 20:55 28.12.2019
5286 Clear 4 1028 45 10000 6.2 360 20:37 28.12.2019
5287 Clear 5 1028 45 10000 5.7 350 20:18 28.12.2019
5288 Clear 5 1028 45 10000 5.7 350 19:55 28.12.2019
5289 Clear 5 1027 48 10000 6.2 340 19:36 28.12.2019
5290 Clear 5 1027 45 10000 4.6 340 19:18 28.12.2019
5291 Clear 6 1027 42 10000 6.7 360 18:55 28.12.2019
5292 Clear 6 1027 42 10000 6.7 360 18:37 28.12.2019
5293 Clear 7 1027 42 10000 4.6 10 18:18 28.12.2019
5294 Clear 7 1027 39 10000 4.6 20 17:42 28.12.2019
5295 Clouds 8 1026 31 10000 8.2 10 17:21 28.12.2019
5296 Clouds 8 1026 31 10000 8.7 10 16:55 28.12.2019
5297 Clouds 9 1026 31 10000 8.7 10 16:37 28.12.2019
5298 Clouds 9 1025 29 10000 8.2 10 16:19 28.12.2019
5299 Clouds 10 1026 29 10000 7.7 10 15:43 28.12.2019
5300 Clouds 10 1025 27 10000 8.7 10 15:21 28.12.2019
5301 Clouds 11 1025 29 10000 8.7 360 14:48 28.12.2019
5302 Clouds 11 1025 29 10000 8.7 360 14:26 28.12.2019
5303 Clouds 11 1025 29 10000 8.2 10 13:58 28.12.2019
5304 Clouds 11 1026 34 10000 6.7 10 13:40 28.12.2019
5305 Clouds 11 1026 43 10000 7.2 10 13:20 28.12.2019
5306 Clouds 11 1026 43 10000 7.2 10 12:57 28.12.2019
5307 Clear 11 1026 37 10000 6.7 360 12:39 28.12.2019
5308 Clear 11 1026 37 10000 6.2 30 12:20 28.12.2019
5309 Clear 11 1026 43 10000 5.1 50 11:40 28.12.2019
5310 Clear 10 1026 61 10000 4.6 340 11:21 28.12.2019
5311 Clear 10 1026 61 10000 4.6 340 11:21 28.12.2019
5312 Clear 9 1026 61 10000 4.6 340 10:56 28.12.2019
5313 Clear 9 1026 65 10000 4.1 340 10:37 28.12.2019
5314 Clear 8 1026 70 10000 3.6 340 10:18 28.12.2019
5315 Clear 8 1025 65 10000 3.1 30 09:45 28.12.2019
5316 Clear 7 1025 65 10000 3.1 30 09:24 28.12.2019
5317 Clear 7 1025 80 10000 1 0 08:58 28.12.2019
5318 Clear 6 1025 86 10000 1.5 50 08:39 28.12.2019
5319 Clear 6 1025 80 10000 2.1 30 08:20 28.12.2019
5320 Clear 5 1024 80 10000 3.6 350 07:43 28.12.2019
5321 Clear 6 1024 86 10000 3.1 30 06:59 28.12.2019
5322 Clear 5 1023 93 10000 3.1 40 05:43 28.12.2019
5323 Clear 6 1023 86 10000 3.6 30 03:48 28.12.2019
5324 Clear 6 1023 87 10000 3.6 40 02:50 28.12.2019
5325 Clear 6 1022 87 10000 3.1 40 02:20 28.12.2019
5326 Clear 6 1022 87 10000 3.1 40 01:53 28.12.2019
5327 Clear 6 1022 87 10000 2.1 40 01:22 28.12.2019
5328 Clear 6 1022 93 10000 1 0 00:44 28.12.2019
5329 Clear 6 1022 93 10000 1 0 00:26 28.12.2019
5330 Clear 6 1022 87 10000 0.5 30 23:56 27.12.2019
5331 Clear 7 1022 87 10000 1 60 23:36 27.12.2019
5332 Clear 6 1022 87 10000 1 0 23:18 27.12.2019
5333 Clear 7 1022 87 10000 1.5 70 22:55 27.12.2019
5334 Clear 7 1022 87 10000 1.5 70 22:37 27.12.2019
5335 Clear 6 1022 87 10000 2.1 90 22:19 27.12.2019
5336 Clear 7 1021 87 10000 2.6 100 21:41 27.12.2019
5337 Clear 7 1021 87 10000 2.6 100 21:23 27.12.2019
5338 Clear 7 1021 81 10000 2.6 110 20:44 27.12.2019
5339 Clouds 8 1021 81 10000 2.6 110 20:26 27.12.2019
5340 Clouds 8 1021 81 10000 2.6 110 19:57 27.12.2019
5341 Clouds 8 1021 81 10000 2.1 110 19:38 27.12.2019
5342 Clouds 9 1021 87 10000 2.1 110 19:19 27.12.2019
5343 Clouds 9 1021 87 10000 2.1 110 18:55 27.12.2019
5344 Clouds 9 1021 87 10000 2.1 110 18:36 27.12.2019
5345 Clouds 10 1020 81 10000 2.1 110 18:18 27.12.2019
5346 Clouds 10 1020 81 10000 1 0 17:42 27.12.2019
5347 Clouds 11 1020 76 10000 1 320 17:20 27.12.2019
5348 Clouds 11 1020 76 10000 1 320 16:59 27.12.2019
5349 Clouds 12 1020 66 10000 1 290 16:41 27.12.2019
5350 Clouds 12 1020 66 10000 1 290 16:41 27.12.2019
5351 Clouds 12 1020 66 10000 1 0 16:22 27.12.2019
5352 Clouds 13 1020 66 10000 1 0 15:57 27.12.2019
5353 Clouds 13 1020 62 10000 0.5 0 15:37 27.12.2019
5354 Clouds 13 1020 62 10000 0.5 0 15:37 27.12.2019
5355 Clouds 13 1020 62 10000 1 0 15:18 27.12.2019
5356 Clouds 13 1020 62 10000 1 0 14:55 27.12.2019
5357 Clouds 13 1020 66 10000 1 0 14:37 27.12.2019
5358 Clouds 13 1020 66 10000 1.5 30 14:19 27.12.2019
5359 Clouds 13 1020 66 10000 1.5 10 13:44 27.12.2019
5360 Clouds 13 1020 66 10000 1.5 10 13:22 27.12.2019
5361 Clouds 13 1021 66 10000 1.5 10 12:48 27.12.2019
5362 Clouds 12 1021 66 10000 1.5 10 12:29 27.12.2019
5363 Clouds 12 1021 71 10000 2.1 10 11:59 27.12.2019
5364 Clouds 12 1021 71 10000 1.5 20 11:41 27.12.2019
5365 Clouds 10 1022 76 10000 1 0 11:20 27.12.2019
5366 Clouds 10 1022 76 10000 1 0 11:20 27.12.2019
5367 Clouds 10 1022 76 10000 1 0 11:20 27.12.2019
5368 Clouds 10 1022 81 10000 2.1 340 10:46 27.12.2019
5369 Clouds 10 1022 81 10000 2.1 340 10:24 27.12.2019
5370 Clouds 8 1022 81 10000 1.5 350 09:55 27.12.2019
5371 Clouds 8 1022 81 10000 1 0 09:37 27.12.2019
5372 Clouds 7 1021 87 10000 1 0 09:19 27.12.2019
5373 Clouds 7 1021 87 10000 1 0 09:19 27.12.2019
5374 Clouds 6 1021 86 10000 1 40 08:43 27.12.2019
5375 Clouds 6 1021 86 10000 1 40 08:25 27.12.2019
5376 Clouds 6 1021 86 10000 1 0 07:38 27.12.2019
5377 Clouds 6 1021 86 10000 1 10 07:19 27.12.2019
5378 Clouds 6 1021 86 10000 1 0 06:25 27.12.2019
5379 Clouds 6 1021 76 10000 2.6 100 04:39 27.12.2019
5380 Clouds 6 1022 81 10000 2.6 110 02:29 27.12.2019
5381 Clouds 6 1022 81 10000 3.1 100 01:45 27.12.2019
5382 Clouds 6 1022 75 10000 3.1 100 01:23 27.12.2019
5383 Clouds 7 1022 81 10000 2.6 100 00:47 27.12.2019
5384 Clouds 7 1022 81 10000 2.6 100 00:27 27.12.2019
5385 Clouds 7 1022 81 10000 2.6 100 23:56 26.12.2019
5386 Clouds 7 1022 81 10000 2.6 100 23:38 26.12.2019
5387 Clouds 7 1022 81 10000 2.6 110 23:19 26.12.2019
5388 Clouds 8 1022 81 10000 2.1 100 22:40 26.12.2019
5389 Clouds 8 1022 81 10000 2.6 100 22:18 26.12.2019
5390 Clouds 8 1022 81 10000 2.6 100 21:40 26.12.2019
5391 Clouds 8 1022 81 10000 2.6 100 21:21 26.12.2019
5392 Clouds 8 1022 81 10000 2.6 100 20:58 26.12.2019
5393 Clouds 8 1022 81 10000 2.6 100 20:39 26.12.2019
5394 Clouds 8 1022 81 10000 2.6 100 20:39 26.12.2019
5395 Clear 8 1022 81 10000 2.6 110 20:21 26.12.2019
5396 Clear 8 1022 81 10000 2.6 100 19:56 26.12.2019
5397 Clear 8 1022 81 10000 2.6 100 19:38 26.12.2019
5398 Clear 9 1022 81 10000 2.6 100 19:19 26.12.2019
5399 Clear 9 1022 81 10000 2.6 100 18:57 26.12.2019
5400 Clear 9 1022 81 10000 2.1 110 18:36 26.12.2019
5401 Clear 9 1022 81 10000 2.1 140 18:18 26.12.2019
5402 Clear 10 1022 76 10000 0.5 0 17:41 26.12.2019
5403 Clear 10 1022 76 10000 0.5 0 17:41 26.12.2019
5404 Clear 11 1021 66 10000 1 0 17:21 26.12.2019
5405 Clear 12 1021 62 10000 1.5 0 16:50 26.12.2019
5406 Clear 13 1021 62 10000 1.5 0 16:27 26.12.2019
5407 Clear 13 1021 62 10000 1.5 30 15:58 26.12.2019
5408 Clear 14 1021 62 10000 1 0 15:39 26.12.2019
5409 Clear 14 1021 62 10000 1 0 15:19 26.12.2019
5410 Clear 14 1020 66 10000 1.5 360 14:41 26.12.2019
5411 Clear 14 1020 66 10000 1.5 360 14:23 26.12.2019
5412 Clear 14 1021 66 10000 2.1 320 13:57 26.12.2019
5413 Clear 14 1021 66 10000 1.5 350 13:39 26.12.2019
5414 Clear 14 1021 66 10000 1.5 350 13:39 26.12.2019
5415 Clear 14 1021 66 10000 2.1 20 13:18 26.12.2019
5416 Clear 14 1021 71 10000 1.5 350 12:45 26.12.2019
5417 Clear 13 1021 62 10000 1.5 320 12:26 26.12.2019
5418 Clear 13 1021 62 10000 1.5 320 11:59 26.12.2019
5419 Clear 13 1021 66 10000 1.5 350 11:40 26.12.2019
5420 Clear 11 1021 71 10000 1.5 340 11:22 26.12.2019
5421 Clear 11 1021 75 10000 1 320 10:50 26.12.2019
5422 Clear 10 1021 75 10000 1 320 10:27 26.12.2019
5423 Clear 9 1021 75 10000 0.5 0 09:55 26.12.2019
5424 Clear 9 1020 75 10000 1.5 20 09:36 26.12.2019
5425 Clear 8 1020 75 10000 1.5 70 09:18 26.12.2019
5426 Clear 7 1019 86 10000 1 0 08:39 26.12.2019
5427 Clear 5 1019 80 10000 1.5 60 08:21 26.12.2019
5428 Clear 5 1019 64 10000 0.5 0 07:41 26.12.2019
5429 Clear 5 1018 86 10000 1.5 110 07:19 26.12.2019
5430 Clear 5 1018 64 10000 2.1 50 06:38 26.12.2019
5431 Clear 5 1018 86 10000 3.1 360 06:20 26.12.2019
5432 Clear 5 1017 64 10000 0.5 0 05:42 26.12.2019
5433 Clear 5 1017 81 10000 1.5 90 04:33 26.12.2019
5434 Clear 6 1017 75 10000 0.5 0 03:31 26.12.2019
5435 Clear 7 1016 70 10000 3.1 50 02:46 26.12.2019
5436 Clear 7 1016 70 10000 3.1 50 02:27 26.12.2019
5437 Clouds 7 1016 75 10000 1 100 01:44 26.12.2019
5438 Clouds 6 1016 75 10000 1 100 01:25 26.12.2019
5439 Clouds 6 1016 75 10000 2.1 70 00:44 26.12.2019
5440 Clouds 6 1016 75 10000 2.1 70 00:23 26.12.2019
5441 Clouds 6 1016 75 10000 2.1 70 00:23 26.12.2019
5442 Clouds 7 1016 81 10000 1.5 80 23:57 25.12.2019
5443 Clouds 7 1016 93 10000 0.5 0 23:37 25.12.2019
5444 Clouds 7 1016 93 10000 1.5 50 23:18 25.12.2019
5445 Clouds 7 1016 93 10000 1.5 50 22:56 25.12.2019
5446 Clouds 8 1016 81 10000 1.5 50 22:37 25.12.2019
5447 Clouds 7 1016 87 10000 1.5 60 22:18 25.12.2019
5448 Clouds 8 1016 76 10000 2.1 50 21:55 25.12.2019
5449 Clouds 8 1016 76 10000 2.1 50 21:37 25.12.2019
5450 Clouds 8 1015 76 10000 3.1 70 21:18 25.12.2019
5451 Clouds 8 1015 76 10000 3.6 70 20:40 25.12.2019
5452 Clear 8 1015 70 10000 3.1 80 20:20 25.12.2019
5453 Clear 9 1015 70 10000 3.1 80 19:59 25.12.2019
5454 Clear 8 1015 70 10000 2.1 90 19:40 25.12.2019
5455 Clear 9 1015 75 10000 2.1 100 19:21 25.12.2019
5456 Clear 9 1015 76 10000 2.1 90 18:39 25.12.2019
5457 Clear 10 1015 87 10000 2.1 100 18:20 25.12.2019
5458 Clear 10 1015 87 10000 2.1 100 18:20 25.12.2019
5459 Clear 10 1015 87 10000 2.1 100 17:57 25.12.2019
5460 Clear 11 1015 76 10000 0.5 0 17:39 25.12.2019
5461 Clear 12 1015 76 10000 0.5 0 17:18 25.12.2019
5462 Clear 13 1015 71 10000 1 0 16:39 25.12.2019
5463 Clear 14 1015 67 10000 0.5 0 16:20 25.12.2019
5464 Clear 14 1015 67 10000 0.5 0 15:58 25.12.2019
5465 Clear 15 1015 62 10000 0.5 0 15:40 25.12.2019
5466 Clear 15 1015 62 10000 0.5 0 15:21 25.12.2019
5467 Clear 15 1015 62 10000 0.5 0 14:59 25.12.2019
5468 Clear 15 1015 67 10000 1.5 20 14:40 25.12.2019
5469 Clouds 14 1015 62 10000 1.5 10 14:22 25.12.2019
5470 Clouds 14 1015 62 10000 1.5 10 13:57 25.12.2019
5471 Clouds 14 1015 62 10000 1.5 10 13:57 25.12.2019
5472 Clouds 14 1015 66 10000 2.1 30 13:39 25.12.2019
5473 Clouds 14 1016 66 10000 2.1 350 13:19 25.12.2019
5474 Clouds 14 1016 66 10000 2.1 340 12:43 25.12.2019
5475 Clouds 14 1016 71 10000 1.5 30 12:21 25.12.2019
5476 Clouds 14 1016 71 10000 1.5 30 12:21 25.12.2019
5477 Clouds 13 1016 71 10000 1.5 30 11:57 25.12.2019
5478 Clouds 13 1016 71 10000 2.1 10 11:39 25.12.2019
5479 Clouds 12 1016 66 10000 2.6 20 11:19 25.12.2019
5480 Clouds 11 1017 71 10000 2.6 20 10:39 25.12.2019
5481 Clouds 11 1016 71 10000 2.1 40 10:21 25.12.2019
5482 Clouds 10 1016 71 10000 2.1 40 09:51 25.12.2019
5483 Clouds 10 1016 71 10000 2.1 40 09:33 25.12.2019
5484 Clouds 8 1016 75 10000 0.5 0 08:51 25.12.2019
5485 Clouds 7 1016 75 10000 0.5 0 08:31 25.12.2019
5486 Clear 7 1015 75 10000 2.6 10 07:53 25.12.2019
5487 Clear 7 1015 75 10000 2.6 10 07:34 25.12.2019
5488 Clear 7 1015 75 10000 2.6 30 06:58 25.12.2019
5489 Clear 7 1015 70 10000 2.6 40 06:23 25.12.2019
5490 Clear 7 1015 80 10000 1.5 10 05:43 25.12.2019
5491 Clear 7 1015 93 10000 1.5 60 04:39 25.12.2019
5492 Clear 7 1015 75 10000 2.1 350 04:20 25.12.2019
5493 Clear 7 1015 75 10000 2.1 350 04:20 25.12.2019
5494 Clouds 8 1015 87 10000 1 90 03:43 25.12.2019
5495 Clear 8 1015 66 10000 3.1 50 02:57 25.12.2019
5496 Clear 8 1015 70 10000 3.1 50 02:28 25.12.2019
5497 Clouds 7 1015 80 10000 2.1 50 01:26 25.12.2019
5498 Clouds 7 1015 75 10000 1.5 40 00:56 25.12.2019
5499 Clouds 7 1015 75 10000 1.5 40 00:33 25.12.2019
5500 Clouds 7 1016 70 10000 2.6 70 23:59 24.12.2019
5501 Clouds 7 1016 65 10000 1 0 23:39 24.12.2019
5502 Clouds 7 1016 65 10000 2.6 80 23:20 24.12.2019
5503 Clouds 7 1016 70 10000 2.6 80 22:41 24.12.2019
5504 Clouds 7 1016 70 10000 2.6 100 22:23 24.12.2019
5505 Clouds 7 1016 65 10000 3.1 80 21:55 24.12.2019
5506 Clouds 7 1016 65 10000 3.1 80 21:36 24.12.2019
5507 Clouds 8 1016 70 10000 3.1 90 21:18 24.12.2019
5508 Clouds 8 1017 75 10000 2.6 100 20:41 24.12.2019
5509 Clouds 8 1017 70 10000 2.1 100 20:19 24.12.2019
5510 Clouds 8 1017 70 10000 2.1 100 19:46 24.12.2019
5511 Clouds 9 1017 75 10000 2.1 100 19:22 24.12.2019
5512 Clouds 9 1017 75 10000 2.1 100 18:58 24.12.2019
5513 Clouds 9 1017 75 10000 2.1 120 18:40 24.12.2019
5514 Clouds 10 1017 70 10000 1.5 170 18:18 24.12.2019
5515 Clouds 10 1017 70 10000 2.1 120 17:42 24.12.2019
5516 Clouds 11 1017 58 10000 0.5 0 17:21 24.12.2019
5517 Clouds 12 1017 58 10000 0.5 0 16:58 24.12.2019
5518 Clouds 12 1017 58 10000 0.5 0 16:58 24.12.2019
5519 Clouds 12 1017 58 10000 1 0 16:39 24.12.2019
5520 Clouds 13 1017 62 10000 2.1 60 16:20 24.12.2019
5521 Clouds 13 1017 54 10000 2.6 30 15:56 24.12.2019
5522 Clouds 14 1017 54 10000 2.6 30 15:36 24.12.2019
5523 Clouds 14 1017 54 10000 1.5 320 15:18 24.12.2019
5524 Clouds 14 1017 54 10000 1.5 320 14:57 24.12.2019
5525 Clouds 14 1017 54 10000 1.5 320 14:57 24.12.2019
5526 Clouds 14 1017 58 10000 3.1 340 14:38 24.12.2019
5527 Clouds 14 1017 54 10000 2.1 360 14:20 24.12.2019
5528 Clouds 14 1017 54 10000 2.1 360 13:55 24.12.2019
5529 Clouds 14 1018 54 10000 1.5 0 13:37 24.12.2019
5530 Clear 13 1018 62 10000 2.1 10 13:19 24.12.2019
5531 Clear 13 1018 62 10000 2.1 10 12:55 24.12.2019
5532 Clear 13 1018 57 10000 2.1 10 12:36 24.12.2019
5533 Clear 12 1019 57 10000 2.6 20 12:18 24.12.2019
5534 Clear 12 1019 57 10000 2.6 20 11:55 24.12.2019
5535 Clear 12 1019 61 10000 3.1 30 11:37 24.12.2019
5536 Clear 10 1019 66 10000 2.1 50 11:18 24.12.2019
5537 Clear 10 1019 66 10000 2.1 50 10:56 24.12.2019
5538 Clear 10 1019 70 10000 2.6 40 10:37 24.12.2019
5539 Clear 8 1019 81 10000 1 0 10:19 24.12.2019
5540 Clear 8 1019 81 10000 1 0 09:54 24.12.2019
5541 Clear 8 1018 86 10000 2.6 30 09:36 24.12.2019
5542 Clear 8 1018 86 10000 2.1 10 09:18 24.12.2019
5543 Clear 6 1017 81 10000 1 0 08:44 24.12.2019
5544 Clear 6 1017 81 10000 2.6 50 08:20 24.12.2019
5545 Clear 6 1017 81 10000 2.6 50 07:45 24.12.2019
5546 Clear 5 1017 81 10000 2.6 50 07:25 24.12.2019
5547 Clear 6 1017 86 10000 2.1 40 06:57 24.12.2019
5548 Clear 6 1016 86 10000 2.1 70 06:38 24.12.2019
5549 Clear 6 1016 93 10000 1.5 50 06:18 24.12.2019
5550 Clear 6 1015 86 10000 1.5 30 05:20 24.12.2019
5551 Clear 6 1015 86 10000 1 10 04:44 24.12.2019
5552 Clear 7 1015 81 10000 1.5 60 03:50 24.12.2019
5553 Clear 7 1015 81 10000 1 0 02:59 24.12.2019
5554 Clear 8 1014 87 10000 2.6 90 02:21 24.12.2019
5555 Clear 8 1014 87 10000 2.1 90 01:42 24.12.2019
5556 Clear 8 1014 87 10000 1 0 01:20 24.12.2019
5557 Clear 8 1014 87 10000 2.6 90 00:43 24.12.2019
5558 Clear 8 1014 87 10000 2.6 90 00:23 24.12.2019
5559 Clear 8 1013 87 10000 1.5 100 23:56 23.12.2019
5560 Clear 9 1013 87 10000 1.5 100 23:37 23.12.2019
5561 Clear 9 1013 87 10000 1.5 100 23:19 23.12.2019
5562 Clear 9 1012 87 10000 0.5 0 22:55 23.12.2019
5563 Clear 9 1013 87 10000 1.5 100 22:55 23.12.2019
5564 Clear 9 1012 87 10000 0.5 0 22:36 23.12.2019
5565 Clear 9 1012 87 10000 0.5 0 22:36 23.12.2019
5566 Clear 9 1012 87 10000 0.5 0 22:36 23.12.2019
5567 Clear 10 1012 87 10000 0.5 0 22:18 23.12.2019
5568 Clear 9 1012 87 10000 1.5 130 21:55 23.12.2019
5569 Clear 10 1012 87 10000 1.5 130 21:36 23.12.2019
5570 Clear 10 1011 76 10000 1.5 140 21:18 23.12.2019
5571 Clear 10 1011 76 10000 1.5 140 20:56 23.12.2019
5572 Clear 10 1011 71 10000 1.5 10 20:38 23.12.2019
5573 Clear 11 1011 71 10000 2.1 30 20:18 23.12.2019
5574 Clear 11 1011 71 10000 2.1 30 19:54 23.12.2019
5575 Clear 11 1010 71 10000 3.1 310 19:36 23.12.2019
5576 Clear 11 1010 66 10000 3.6 300 19:18 23.12.2019
5577 Clear 12 1010 66 10000 3.6 300 18:55 23.12.2019
5578 Clear 12 1009 66 10000 3.6 300 18:36 23.12.2019
5579 Clear 12 1009 62 10000 3.1 290 18:18 23.12.2019
5580 Clear 12 1008 66 10000 3.6 300 17:55 23.12.2019
5581 Clear 13 1008 66 10000 3.6 300 17:37 23.12.2019
5582 Clear 13 1008 66 10000 5.1 280 17:18 23.12.2019
5583 Clear 14 1007 62 10000 3.6 270 16:42 23.12.2019
5584 Clear 14 1007 51 10000 3.6 290 16:19 23.12.2019
5585 Clear 14 1007 51 10000 3.6 290 15:58 23.12.2019
5586 Clouds 15 1006 51 10000 4.6 300 15:38 23.12.2019
5587 Clouds 15 1006 47 10000 5.7 310 15:19 23.12.2019
5588 Clouds 15 1006 47 10000 5.7 310 14:58 23.12.2019
5589 Clouds 15 1006 58 10000 5.1 340 14:39 23.12.2019
5590 Clouds 15 1006 58 10000 7.2 330 14:21 23.12.2019
5591 Clouds 15 1006 58 10000 7.2 330 13:58 23.12.2019
5592 Clouds 15 1006 58 10000 4.6 320 13:40 23.12.2019
5593 Clouds 15 1006 54 10000 6.2 320 13:21 23.12.2019
5594 Clouds 14 1006 62 10000 4.6 330 12:55 23.12.2019
5595 Clouds 15 1006 62 10000 4.6 330 12:37 23.12.2019
5596 Clouds 14 1006 62 10000 4.1 310 12:19 23.12.2019
5597 Clouds 13 1006 66 10000 2.6 340 11:44 23.12.2019
5598 Clouds 13 1006 66 10000 2.6 340 11:25 23.12.2019
5599 Clouds 12 1006 76 10000 2.1 330 10:57 23.12.2019
5600 Clouds 12 1005 76 10000 2.1 310 10:39 23.12.2019
5601 Clouds 12 1005 81 10000 1.5 280 10:20 23.12.2019
5602 Clouds 11 1005 81 10000 1.5 280 10:20 23.12.2019
5603 Clouds 11 1005 81 10000 1.5 280 09:59 23.12.2019
5604 Clouds 11 1004 81 10000 1 0 09:39 23.12.2019
5605 Clouds 10 1003 87 10000 1 0 09:20 23.12.2019
5606 Clouds 10 1003 87 10000 1.5 70 08:55 23.12.2019
5607 Clouds 9 1003 87 10000 1.5 70 08:37 23.12.2019
5608 Clouds 9 1002 81 10000 2.1 60 08:19 23.12.2019
5609 Clouds 9 1002 81 10000 1 0 07:43 23.12.2019
5610 Clouds 10 1001 93 10000 1 0 07:20 23.12.2019
5611 Clouds 10 1000 87 10000 1 0 06:51 23.12.2019
5612 Rain 9 1000 87 8000 1 0 06:24 23.12.2019
5613 Rain 10 999 87 10000 1.5 0 05:49 23.12.2019
5614 Clouds 10 999 87 10000 1 0 05:26 23.12.2019
5615 Rain 10 999 87 10000 2.6 160 04:27 23.12.2019
5616 Clouds 11 999 81 10000 1.5 200 02:56 23.12.2019
5617 Clouds 11 999 81 10000 1.5 200 02:32 23.12.2019
5618 Clouds 11 999 71 10000 2.6 110 01:56 23.12.2019
5619 Clouds 11 999 62 10000 1.5 230 01:38 23.12.2019
5620 Clouds 12 1000 66 10000 1.5 0 01:19 23.12.2019
5621 Clouds 12 999 58 10000 3.1 350 00:41 23.12.2019
5622 Clouds 12 1000 66 10000 1 0 00:19 23.12.2019
5623 Clouds 12 1000 66 10000 2.1 280 23:39 22.12.2019
5624 Clouds 12 1000 66 10000 1 0 23:20 22.12.2019
5625 Clouds 12 1000 66 10000 1 0 23:20 22.12.2019
5626 Clouds 12 1000 66 10000 1 0 22:58 22.12.2019
5627 Rain 12 1000 71 10000 1 0 22:38 22.12.2019
5628 Clouds 12 999 58 10000 3.6 290 22:19 22.12.2019
5629 Clouds 12 999 58 10000 3.6 290 21:57 22.12.2019
5630 Clouds 12 999 66 10000 4.6 320 21:39 22.12.2019
5631 Clouds 12 999 71 10000 1 0 21:20 22.12.2019
5632 Clouds 12 998 81 10000 1.5 0 20:56 22.12.2019
5633 Clouds 12 998 81 10000 1.5 0 20:38 22.12.2019
5634 Clouds 12 998 71 10000 1.5 0 20:18 22.12.2019
5635 Clouds 12 997 82 10000 1 0 19:54 22.12.2019
5636 Clouds 12 997 82 10000 1 0 19:36 22.12.2019
5637 Clouds 12 997 87 10000 2.1 220 19:18 22.12.2019
5638 Clouds 12 996 82 10000 2.1 230 18:39 22.12.2019
5639 Clouds 12 996 82 10000 2.1 230 18:39 22.12.2019
5640 Clouds 12 996 87 10000 1.5 180 18:21 22.12.2019
5641 Clouds 13 996 87 10000 1.5 200 17:55 22.12.2019
5642 Clouds 13 996 87 10000 1.5 200 17:37 22.12.2019
5643 Clouds 13 995 87 10000 2.6 260 17:18 22.12.2019
5644 Clouds 13 995 87 10000 2.6 260 16:56 22.12.2019
5645 Clouds 13 995 87 10000 4.1 260 16:37 22.12.2019
5646 Clouds 13 994 76 10000 5.1 260 16:19 22.12.2019
5647 Clouds 13 994 76 10000 5.1 260 15:55 22.12.2019
5648 Rain 13 994 81 10000 4.6 270 15:36 22.12.2019
5649 Rain 13 994 76 9000 7.2 300 15:18 22.12.2019
5650 Clouds 14 993 67 9000 7.7 270 14:54 22.12.2019
5651 Clouds 14 993 67 9000 7.7 270 14:36 22.12.2019
5652 Clouds 15 993 72 10000 8.2 260 14:18 22.12.2019
5653 Clouds 14 993 72 10000 8.2 260 13:54 22.12.2019
5654 Clouds 15 993 72 10000 8.2 260 13:36 22.12.2019
5655 Clouds 14 993 67 10000 9.3 260 13:18 22.12.2019
5656 Clouds 14 993 67 10000 9.3 260 12:54 22.12.2019
5657 Clouds 14 993 67 10000 7.7 260 12:36 22.12.2019
5658 Clouds 15 993 67 10000 9.3 250 12:18 22.12.2019
5659 Clouds 14 993 67 10000 9.3 260 11:39 22.12.2019
5660 Clouds 13 993 67 10000 9.8 260 11:20 22.12.2019
5661 Clouds 13 993 67 10000 9.8 260 10:58 22.12.2019
5662 Clouds 14 993 71 10000 9.8 260 10:40 22.12.2019
5663 Clouds 13 993 71 10000 10.8 250 10:21 22.12.2019
5664 Clouds 13 993 71 10000 10.8 250 09:58 22.12.2019
5665 Clouds 13 992 67 8000 10.3 250 09:40 22.12.2019
5666 Clouds 13 992 67 8000 10.3 250 09:21 22.12.2019
5667 Clouds 13 992 67 8000 10.3 250 08:55 22.12.2019
5668 Clouds 13 992 67 8000 7.2 250 08:37 22.12.2019
5669 Clouds 13 993 71 8000 4.6 240 08:18 22.12.2019
5670 Clouds 13 993 76 8000 4.1 230 07:36 22.12.2019
5671 Clouds 13 992 71 10000 6.2 220 07:18 22.12.2019
5672 Rain 12 991 76 10000 6.7 210 06:40 22.12.2019
5673 Rain 13 991 93 4000 9.3 190 05:49 22.12.2019
5674 Rain 15 992 93 7000 7.7 180 05:21 22.12.2019
5675 Rain 14 993 93 8000 6.7 180 04:27 22.12.2019
5676 Rain 14 994 93 7000 6.7 170 03:28 22.12.2019
5677 Rain 14 996 87 10000 8.2 160 02:35 22.12.2019
5678 Rain 14 998 93 7000 6.2 170 01:33 22.12.2019
5679 Rain 13 999 93 7000 6.7 160 00:59 22.12.2019
5680 Rain 13 1000 82 7000 6.2 160 00:41 22.12.2019
5681 Rain 13 1001 82 10000 6.7 150 00:21 22.12.2019
5682 Clouds 13 1001 72 10000 6.7 140 23:42 21.12.2019
5683 Clouds 13 1001 72 10000 6.7 140 23:24 21.12.2019
5684 Clouds 13 1002 72 10000 5.7 160 22:58 21.12.2019
5685 Clouds 13 1002 67 10000 6.2 150 22:39 21.12.2019
5686 Clear 12 1002 67 10000 4.1 150 22:19 21.12.2019
5687 Clear 12 1002 67 10000 4.1 150 21:56 21.12.2019
5688 Clear 12 1002 76 10000 3.1 160 21:37 21.12.2019
5689 Clear 12 1003 71 10000 4.6 150 21:19 21.12.2019
5690 Clear 12 1003 71 10000 4.6 150 20:57 21.12.2019
5691 Clear 12 1003 67 10000 3.6 160 20:38 21.12.2019
5692 Clouds 12 1003 71 10000 3.1 180 20:20 21.12.2019
5693 Clouds 12 1003 71 10000 3.1 180 19:57 21.12.2019
5694 Clouds 12 1003 71 10000 3.1 180 19:57 21.12.2019
5695 Clouds 12 1003 71 10000 3.1 180 19:57 21.12.2019
5696 Clouds 12 1003 76 10000 3.6 160 19:39 21.12.2019
5697 Clouds 13 1003 82 10000 3.1 160 19:19 21.12.2019
5698 Clouds 13 1002 76 10000 3.1 180 18:42 21.12.2019
5699 Clouds 13 1002 76 10000 3.1 180 18:24 21.12.2019
5700 Clouds 13 1002 76 10000 3.6 190 17:57 21.12.2019
5701 Clouds 14 1002 77 10000 3.6 190 17:39 21.12.2019
5702 Clouds 15 1001 77 10000 3.6 200 17:21 21.12.2019
5703 Clouds 15 1001 77 10000 3.6 200 16:57 21.12.2019
5704 Clouds 15 1001 77 10000 3.6 200 16:57 21.12.2019
5705 Clouds 15 1001 77 10000 4.6 230 16:39 21.12.2019
5706 Clouds 15 1001 82 10000 4.6 210 16:18 21.12.2019
5707 Clouds 15 1001 82 10000 4.6 210 15:56 21.12.2019
5708 Clouds 15 1001 77 10000 5.1 210 15:38 21.12.2019
5709 Clouds 16 1000 82 10000 5.7 200 15:19 21.12.2019
5710 Clouds 16 1000 87 10000 6.7 190 14:44 21.12.2019
5711 Clouds 16 1000 87 10000 6.7 190 14:25 21.12.2019
5712 Clouds 16 1000 87 8000 6.7 180 13:59 21.12.2019
5713 Clouds 15 1000 87 7000 7.2 190 13:40 21.12.2019
5714 Rain 15 1001 87 6000 6.7 190 13:20 21.12.2019
5715 Rain 16 1001 87 6000 6.7 190 12:57 21.12.2019
5716 Clouds 16 1001 87 7000 7.7 190 12:39 21.12.2019
5717 Rain 15 1001 93 6000 8.2 190 12:21 21.12.2019
5718 Rain 15 1001 93 6000 8.2 190 11:57 21.12.2019
5719 Rain 15 1001 93 4000 9.3 190 11:39 21.12.2019
5720 Rain 15 1002 87 5000 8.7 190 11:21 21.12.2019
5721 Rain 15 1002 87 2000 8.2 190 10:42 21.12.2019
5722 Rain 15 1002 87 6000 7.7 190 10:23 21.12.2019
5723 Rain 15 1002 87 6000 7.7 190 09:59 21.12.2019
5724 Rain 15 1001 93 6000 9.3 190 09:41 21.12.2019
5725 Rain 14 1001 93 3000 8.7 190 09:20 21.12.2019
5726 Rain 14 1001 93 2500 8.2 190 08:55 21.12.2019
5727 Rain 14 1001 93 2500 8.2 190 08:36 21.12.2019
5728 Rain 14 1002 93 4000 8.2 190 08:18 21.12.2019
5729 Rain 14 1002 87 6000 7.2 180 07:41 21.12.2019
5730 Rain 14 1002 93 6000 7.7 190 07:21 21.12.2019
5731 Rain 13 1003 93 6000 7.7 190 06:42 21.12.2019
5732 Rain 13 1003 93 6000 7.2 190 06:24 21.12.2019
5733 Clouds 13 1004 93 6000 6.2 180 05:45 21.12.2019
5734 Clouds 13 1004 93 8000 6.2 180 04:57 21.12.2019
5735 Clouds 13 1005 93 8000 6.7 160 03:56 21.12.2019
5736 Rain 12 1006 93 8000 9.3 150 02:40 21.12.2019
5737 Rain 13 1007 87 8000 8.2 160 01:55 21.12.2019
5738 Rain 13 1007 87 8000 8.2 160 01:27 21.12.2019
5739 Rain 13 1007 82 8000 8.7 160 00:52 21.12.2019
5740 Rain 13 1007 82 8000 8.7 160 00:31 21.12.2019
5741 Rain 13 1008 87 8000 8.7 160 23:57 20.12.2019
5742 Rain 13 1009 87 8000 6.2 170 23:37 20.12.2019
5743 Rain 13 1009 87 10000 6.7 170 23:18 20.12.2019
5744 Rain 14 1009 87 8000 6.2 170 22:40 20.12.2019
5745 Rain 14 1009 82 10000 7.2 170 22:21 20.12.2019
5746 Rain 14 1009 82 10000 7.2 170 21:58 20.12.2019
5747 Rain 14 1009 77 10000 9.8 150 21:39 20.12.2019
5748 Clouds 14 1009 77 10000 8.7 150 21:20 20.12.2019
5749 Clouds 14 1009 77 10000 10.3 150 20:41 20.12.2019
5750 Clouds 13 1009 77 10000 9.3 150 20:20 20.12.2019
5751 Clouds 13 1009 77 10000 9.3 150 19:59 20.12.2019
5752 Clouds 13 1010 82 10000 8.7 150 19:40 20.12.2019
5753 Clouds 14 1010 82 10000 9.3 150 19:20 20.12.2019
5754 Clouds 13 1011 76 10000 8.7 150 18:54 20.12.2019
5755 Clouds 13 1010 82 10000 9.3 150 18:54 20.12.2019
5756 Clouds 13 1011 76 10000 8.7 150 18:36 20.12.2019
5757 Clouds 13 1011 76 10000 8.7 150 18:36 20.12.2019
5758 Clouds 13 1011 76 10000 8.2 150 18:18 20.12.2019
5759 Clouds 13 1012 76 9000 5.1 160 17:42 20.12.2019
5760 Clouds 13 1012 76 9000 5.1 160 17:42 20.12.2019
5761 Clouds 13 1012 76 9000 5.1 160 17:21 20.12.2019
5762 Clouds 13 1012 76 10000 7.7 150 16:59 20.12.2019
5763 Clouds 13 1012 76 10000 7.7 150 16:39 20.12.2019
5764 Clouds 13 1013 76 9000 6.2 150 16:20 20.12.2019
5765 Clouds 13 1013 76 9000 6.2 150 16:20 20.12.2019
5766 Clouds 13 1012 76 10000 7.2 150 15:57 20.12.2019
5767 Clouds 13 1012 76 10000 7.2 150 15:38 20.12.2019
5768 Clouds 13 1013 77 10000 4.6 170 15:19 20.12.2019
5769 Clouds 13 1013 76 10000 6.7 150 14:57 20.12.2019
5770 Clouds 14 1014 82 10000 5.1 160 14:39 20.12.2019
5771 Clouds 14 1014 82 10000 5.1 160 14:20 20.12.2019
5772 Clouds 14 1014 76 10000 6.7 160 13:41 20.12.2019
5773 Clouds 14 1014 77 9000 4.6 160 13:21 20.12.2019
5774 Clouds 14 1015 72 10000 6.2 150 12:59 20.12.2019
5775 Clouds 14 1015 72 10000 6.2 150 12:40 20.12.2019
5776 Clouds 14 1015 87 10000 1 0 12:19 20.12.2019
5777 Clouds 13 1016 71 10000 5.1 150 11:59 20.12.2019
5778 Clouds 13 1016 100 10000 5.89 159 11:39 20.12.2019
5779 Clear 12 1016 100 10000 2.22 163 11:20 20.12.2019
5780 Clouds 12 1016 67 10000 4.6 150 10:58 20.12.2019
5781 Clouds 12 1016 67 10000 4.6 150 10:58 20.12.2019
5782 Clouds 12 1016 67 10000 4.6 150 10:40 20.12.2019
5783 Clouds 11 1016 100 9000 1.5 0 10:20 20.12.2019
5784 Clear 10 1016 76 10000 2.6 140 09:55 20.12.2019
5785 Clouds 10 1016 100 6000 2.1 10 09:37 20.12.2019
5786 Clouds 9 1016 100 6000 2.1 10 09:19 20.12.2019
5787 Clouds 8 1016 87 10000 2.6 120 08:42 20.12.2019
5788 Clouds 8 1017 100 6000 2.1 30 08:22 20.12.2019
5789 Clouds 8 1016 87 10000 3.1 130 07:58 20.12.2019
5790 Clouds 7 1017 87 10000 3.1 120 07:40 20.12.2019
5791 Clouds 7 1017 87 10000 3.1 120 07:19 20.12.2019
5792 Clouds 7 1016 87 10000 2.6 110 06:51 20.12.2019
5793 Clouds 7 1016 87 10000 1.5 80 06:31 20.12.2019
5794 Clouds 8 1017 87 10000 1.5 330 05:53 20.12.2019
5795 Clear 8 1015 93 10000 1 150 05:34 20.12.2019
5796 Clouds 8 1016 87 10000 1 120 04:30 20.12.2019
5797 Clear 8 1016 87 10000 1 90 03:30 20.12.2019
5798 Clear 8 1017 87 10000 1.5 350 02:42 20.12.2019
5799 Clouds 8 1017 93 10000 1.5 20 01:47 20.12.2019
5800 Clouds 9 1016 71 10000 3.6 100 01:29 20.12.2019
5801 Clear 9 1017 76 10000 2.6 100 00:42 20.12.2019
5802 Clear 9 1017 81 10000 0.5 0 00:20 20.12.2019
5803 Clear 9 1017 76 10000 2.1 50 23:43 19.12.2019
5804 Clear 9 1018 76 10000 3.1 60 23:24 19.12.2019
5805 Clouds 10 1018 76 10000 2.1 40 22:59 19.12.2019
5806 Clouds 10 1018 76 10000 2.1 40 22:59 19.12.2019
5807 Clouds 10 1018 76 10000 2.6 20 22:36 19.12.2019
5808 Clouds 10 1018 76 10000 2.6 20 22:18 19.12.2019
5809 Clouds 10 1018 76 10000 2.6 20 22:18 19.12.2019
5810 Clouds 9 1018 71 10000 2.6 80 21:55 19.12.2019
5811 Clouds 9 1018 76 10000 1.5 100 21:37 19.12.2019
5812 Clouds 9 1018 76 10000 1.5 30 21:18 19.12.2019
5813 Clouds 9 1018 76 10000 1.5 30 20:55 19.12.2019
5814 Clouds 9 1017 71 10000 1.5 0 20:36 19.12.2019
5815 Clouds 10 1017 71 10000 1.5 0 20:18 19.12.2019
5816 Clouds 10 1017 71 10000 2.1 110 19:54 19.12.2019
5817 Clouds 10 1017 71 10000 1.5 110 19:36 19.12.2019
5818 Clouds 10 1017 71 10000 1.5 110 19:18 19.12.2019
5819 Clouds 11 1017 71 10000 3.1 90 18:41 19.12.2019
5820 Clouds 10 1017 71 10000 3.1 90 18:21 19.12.2019
5821 Clouds 11 1017 71 10000 1 0 17:57 19.12.2019
5822 Clouds 11 1018 87 10000 1.5 0 17:39 19.12.2019
5823 Rain 12 1017 66 10000 3.1 110 17:19 19.12.2019
5824 Rain 12 1017 66 10000 3.1 110 16:57 19.12.2019
5825 Clouds 12 1018 87 9000 2.1 50 16:39 19.12.2019
5826 Clouds 12 1018 87 9000 2.1 50 16:20 19.12.2019
5827 Clouds 12 1017 66 10000 2.1 110 15:58 19.12.2019
5828 Clouds 12 1017 66 10000 2.1 110 15:39 19.12.2019
5829 Clouds 12 1018 76 8000 3.1 110 15:19 19.12.2019
5830 Clouds 12 1017 71 10000 3.1 120 14:58 19.12.2019
5831 Clouds 12 1017 71 10000 3.1 120 14:40 19.12.2019
5832 Clouds 12 1019 87 8000 2.6 120 14:18 19.12.2019
5833 Rain 12 1018 81 8000 3.6 70 13:56 19.12.2019
5834 Rain 12 1019 93 6000 2.6 20 13:37 19.12.2019
5835 Rain 12 1019 93 6000 2.6 20 13:18 19.12.2019
5836 Clouds 12 1018 76 10000 1 0 12:54 19.12.2019
5837 Clouds 12 1019 93 6000 1.5 0 12:36 19.12.2019
5838 Clouds 12 1019 93 6000 1.5 0 12:18 19.12.2019
5839 Clouds 12 1019 93 6000 1.5 0 12:18 19.12.2019
5840 Clouds 12 1019 93 6000 1.5 0 12:18 19.12.2019
5841 Clouds 12 1019 93 6000 1.5 0 12:18 19.12.2019
5842 Rain 12 1018 67 10000 5.1 110 11:42 19.12.2019
5843 Rain 12 1020 87 6000 2.6 60 11:20 19.12.2019
5844 Rain 12 1018 72 9000 6.2 110 10:59 19.12.2019
5845 Rain 12 1019 87 3000 4.1 110 10:39 19.12.2019
5846 Rain 12 1019 87 3000 4.1 110 10:20 19.12.2019
5847 Rain 12 1019 87 4000 6.2 120 09:57 19.12.2019
5848 Rain 12 1019 87 6000 3.1 100 09:38 19.12.2019
5849 Rain 12 1019 87 6000 3.1 100 09:20 19.12.2019
5850 Rain 13 1018 82 7000 3.6 90 08:56 19.12.2019
5851 Rain 13 1018 100 6000 9.3 100 08:37 19.12.2019
5852 Rain 13 1018 100 6000 9.3 100 08:18 19.12.2019
5853 Rain 13 1018 76 9000 2.6 80 07:54 19.12.2019
5854 Rain 13 1018 76 10000 3.6 100 07:36 19.12.2019
5855 Rain 14 1018 76 10000 3.6 100 07:18 19.12.2019
5856 Clouds 14 1018 59 10000 6.7 130 06:42 19.12.2019
5857 Clouds 14 1018 59 10000 6.7 130 06:24 19.12.2019
5858 Clouds 14 1018 55 10000 6.2 130 05:47 19.12.2019
5859 Clouds 14 1018 51 10000 5.1 120 05:27 19.12.2019
5860 Clouds 15 1019 51 10000 3.1 120 04:41 19.12.2019
5861 Clouds 14 1019 67 10000 1.5 80 02:30 19.12.2019
5862 Clouds 14 1019 67 10000 1 0 01:46 19.12.2019
5863 Clouds 14 1019 67 10000 1 0 01:21 19.12.2019
5864 Clouds 14 1019 59 10000 2.6 110 00:39 19.12.2019
5865 Clouds 14 1019 59 10000 2.6 110 00:39 19.12.2019
5866 Clouds 14 1019 59 10000 2.6 110 00:19 19.12.2019
5867 Clouds 14 1019 59 10000 2.1 80 23:45 18.12.2019
5868 Clouds 14 1019 62 10000 2.1 60 23:19 18.12.2019
5869 Clouds 14 1020 59 10000 2.1 60 22:58 18.12.2019
5870 Clouds 14 1020 59 10000 2.1 60 22:40 18.12.2019
5871 Clouds 14 1020 62 10000 2.1 80 22:22 18.12.2019
5872 Clouds 15 1020 59 10000 1.5 110 21:59 18.12.2019
5873 Clouds 14 1020 59 10000 1.5 110 21:41 18.12.2019
5874 Clouds 14 1020 67 10000 2.6 80 21:21 18.12.2019
5875 Clouds 14 1020 63 10000 2.6 90 20:58 18.12.2019
5876 Clouds 14 1020 59 10000 3.1 110 20:39 18.12.2019
5877 Clouds 14 1020 59 10000 3.1 110 20:20 18.12.2019
5878 Clouds 14 1020 67 10000 1.5 60 19:57 18.12.2019
5879 Clouds 14 1020 67 10000 1.5 60 19:39 18.12.2019
5880 Clouds 14 1020 67 10000 1.5 60 19:39 18.12.2019
5881 Clouds 14 1020 71 10000 2.1 40 19:19 18.12.2019
5882 Clouds 14 1020 67 10000 1 0 18:59 18.12.2019
5883 Clouds 14 1020 67 10000 1 0 18:41 18.12.2019
5884 Clouds 14 1020 72 10000 1 0 18:22 18.12.2019
5885 Clouds 14 1020 67 10000 1 0 17:56 18.12.2019
5886 Clouds 14 1020 82 10000 3.1 30 17:38 18.12.2019
5887 Clouds 14 1020 82 10000 3.1 30 17:19 18.12.2019
5888 Clouds 15 1020 63 10000 1.5 0 16:43 18.12.2019
5889 Clouds 15 1020 63 10000 1.5 0 16:24 18.12.2019
5890 Clouds 15 1020 63 10000 0.5 0 15:59 18.12.2019
5891 Clouds 15 1020 63 10000 2.1 150 15:40 18.12.2019
5892 Clouds 15 1020 77 10000 2.6 70 15:21 18.12.2019
5893 Clouds 15 1020 77 10000 2.6 70 14:58 18.12.2019
5894 Clouds 16 1020 67 10000 1.5 50 14:40 18.12.2019
5895 Clouds 16 1020 63 10000 2.1 90 14:20 18.12.2019
5896 Clouds 16 1020 63 10000 2.1 90 13:56 18.12.2019
5897 Clouds 16 1020 63 10000 3.6 130 13:56 18.12.2019
5898 Clouds 16 1020 63 10000 3.6 130 13:37 18.12.2019
5899 Clouds 16 1021 63 10000 4.1 130 13:19 18.12.2019
5900 Clouds 16 1021 63 10000 4.1 130 12:57 18.12.2019
5901 Clouds 16 1021 67 10000 3.1 130 12:37 18.12.2019
5902 Clouds 16 1021 67 10000 4.1 130 12:19 18.12.2019
5903 Clouds 15 1021 67 10000 3.6 120 11:54 18.12.2019
5904 Clouds 16 1021 67 10000 3.6 120 11:36 18.12.2019
5905 Clouds 15 1021 67 10000 4.1 120 11:18 18.12.2019
5906 Clouds 15 1021 72 10000 4.6 130 10:55 18.12.2019
5907 Clouds 15 1021 72 10000 4.6 130 10:37 18.12.2019
5908 Clouds 14 1022 72 10000 4.1 130 10:18 18.12.2019
5909 Clouds 13 1021 67 10000 4.6 130 09:21 18.12.2019
5910 Clouds 13 1021 67 10000 4.6 130 08:58 18.12.2019
5911 Clouds 13 1021 67 10000 4.1 130 08:39 18.12.2019
5912 Clouds 13 1021 72 10000 4.1 130 08:21 18.12.2019
5913 Clouds 13 1020 72 10000 3.6 140 07:43 18.12.2019
5914 Clouds 13 1020 72 10000 4.1 140 07:22 18.12.2019
5915 Clouds 13 1020 67 10000 4.6 150 06:53 18.12.2019
5916 Clouds 13 1020 67 10000 3.1 130 06:26 18.12.2019
5917 Clouds 13 1020 63 10000 4.6 140 05:43 18.12.2019
5918 Clouds 13 1020 63 10000 4.6 130 04:37 18.12.2019
5919 Clouds 13 1020 63 10000 8.2 140 02:50 18.12.2019
5920 Clouds 13 1020 63 10000 8.2 140 02:30 18.12.2019
5921 Clouds 13 1020 81 10000 1.5 70 01:57 18.12.2019
5922 Clouds 12 1020 81 10000 1 0 01:37 18.12.2019
5923 Clouds 13 1020 81 10000 1 0 01:19 18.12.2019
5924 Clouds 13 1020 81 10000 1 0 00:40 18.12.2019
5925 Clouds 13 1020 76 10000 1 0 00:21 18.12.2019
5926 Clouds 13 1020 76 10000 1.5 110 23:54 17.12.2019
5927 Clouds 13 1020 76 10000 1.5 110 23:36 17.12.2019
5928 Clouds 13 1021 87 10000 1 0 23:18 17.12.2019
5929 Clouds 13 1021 87 10000 1 0 22:54 17.12.2019
5930 Clouds 13 1021 87 10000 1 0 22:36 17.12.2019
5931 Clouds 13 1021 82 10000 2.1 240 22:18 17.12.2019
5932 Clouds 13 1021 82 10000 2.1 240 21:55 17.12.2019
5933 Clouds 13 1021 82 10000 2.1 350 21:36 17.12.2019
5934 Clouds 14 1021 71 10000 1.5 30 21:18 17.12.2019
5935 Clouds 13 1021 71 10000 1.5 30 20:55 17.12.2019
5936 Clouds 13 1020 67 10000 1.5 160 20:36 17.12.2019
5937 Clouds 13 1021 67 10000 2.1 210 20:18 17.12.2019
5938 Clouds 13 1020 63 10000 4.1 130 19:41 17.12.2019
5939 Clouds 13 1020 63 10000 4.1 130 19:41 17.12.2019
5940 Clouds 13 1020 72 10000 5.1 120 19:20 17.12.2019
5941 Clouds 14 1020 72 10000 5.1 120 18:58 17.12.2019
5942 Clouds 14 1020 72 10000 4.1 140 18:40 17.12.2019
5943 Clouds 14 1020 77 10000 4.1 140 18:21 17.12.2019
5944 Clouds 14 1020 82 10000 2.6 180 17:56 17.12.2019
5945 Clouds 14 1020 82 10000 2.6 180 17:38 17.12.2019
5946 Clouds 15 1020 82 10000 4.6 150 17:18 17.12.2019
5947 Clouds 15 1020 82 10000 3.1 200 16:55 17.12.2019
5948 Clouds 15 1020 82 10000 3.1 200 16:37 17.12.2019
5949 Clouds 15 1020 82 10000 3.1 200 16:37 17.12.2019
5950 Clouds 15 1019 77 8000 4.1 160 16:18 17.12.2019
5951 Clouds 15 1019 77 10000 3.6 170 15:54 17.12.2019
5952 Clouds 16 1019 77 10000 3.6 170 15:36 17.12.2019
5953 Clouds 16 1019 77 10000 5.1 160 15:18 17.12.2019
5954 Clouds 16 1019 77 10000 6.2 160 14:54 17.12.2019
5955 Clouds 17 1019 77 10000 6.2 160 14:36 17.12.2019
5956 Clouds 17 1019 77 10000 5.7 160 14:18 17.12.2019
5957 Clouds 17 1019 67 10000 6.2 150 13:41 17.12.2019
5958 Clouds 18 1019 59 10000 5.7 150 13:20 17.12.2019
5959 Clouds 18 1019 59 10000 5.7 150 12:59 17.12.2019
5960 Clouds 18 1019 59 10000 6.7 150 12:39 17.12.2019
5961 Clouds 17 1019 52 10000 6.7 160 12:19 17.12.2019
5962 Clouds 17 1019 52 10000 6.7 160 11:59 17.12.2019
5963 Clouds 17 1019 48 10000 4.6 160 11:37 17.12.2019
5964 Clouds 17 1019 48 10000 5.7 140 11:19 17.12.2019
5965 Clouds 17 1019 48 10000 5.7 140 10:59 17.12.2019
5966 Clouds 17 1019 45 10000 7.7 150 10:40 17.12.2019
5967 Clouds 15 1019 45 10000 6.7 150 10:21 17.12.2019
5968 Clouds 16 1019 45 10000 6.7 150 09:59 17.12.2019
5969 Clouds 15 1019 45 10000 5.7 150 09:40 17.12.2019
5970 Clouds 15 1019 42 10000 6.2 150 09:19 17.12.2019
5971 Clouds 14 1019 42 10000 5.7 150 08:56 17.12.2019
5972 Clouds 14 1019 42 10000 5.7 150 08:38 17.12.2019
5973 Clouds 14 1019 45 10000 6.2 140 08:19 17.12.2019
5974 Clouds 14 1018 48 10000 6.7 140 07:45 17.12.2019
5975 Clouds 14 1018 48 10000 6.7 140 07:26 17.12.2019
5976 Clouds 14 1018 48 10000 6.7 140 06:56 17.12.2019
5977 Clouds 14 1018 48 10000 6.7 140 06:34 17.12.2019
5978 Clouds 14 1018 48 10000 5.7 140 05:52 17.12.2019
5979 Clouds 14 1018 48 10000 5.7 140 05:34 17.12.2019
5980 Clouds 14 1018 51 10000 6.2 130 04:30 17.12.2019
5981 Clouds 14 1018 45 10000 5.1 150 02:33 17.12.2019
5982 Clouds 14 1018 55 10000 6.2 130 01:54 17.12.2019
5983 Clear 14 1018 48 10000 4.6 150 00:58 17.12.2019
5984 Clear 14 1018 48 10000 5.1 150 00:37 17.12.2019
5985 Clear 14 1019 45 10000 5.1 150 00:18 17.12.2019
5986 Clear 14 1019 71 10000 4.1 100 23:41 16.12.2019
5987 Clear 14 1019 76 10000 4.1 100 23:19 16.12.2019
5988 Clear 14 1019 76 10000 4.1 100 23:19 16.12.2019
5989 Clear 14 1019 76 10000 4.1 90 22:56 16.12.2019
5990 Clear 13 1019 76 10000 4.1 90 22:37 16.12.2019
5991 Clear 13 1019 81 10000 3.6 90 22:19 16.12.2019
5992 Clear 14 1019 51 10000 4.6 130 21:55 16.12.2019
5993 Clear 14 1019 51 10000 4.6 130 21:37 16.12.2019
5994 Clear 14 1019 51 10000 4.6 130 21:18 16.12.2019
5995 Clear 13 1019 76 10000 3.1 90 20:56 16.12.2019
5996 Clear 14 1019 71 10000 4.1 100 20:56 16.12.2019
5997 Clear 14 1019 76 10000 3.1 90 20:37 16.12.2019
5998 Clouds 13 1019 87 10000 2.6 90 20:19 16.12.2019
5999 Clouds 13 1020 59 10000 4.1 130 19:55 16.12.2019
6000 Clouds 13 1020 59 10000 4.1 130 19:36 16.12.2019
6001 Clouds 14 1020 55 10000 4.1 140 19:18 16.12.2019
6002 Clouds 14 1020 55 10000 4.1 140 18:55 16.12.2019
6003 Clouds 14 1020 59 10000 4.1 130 18:37 16.12.2019
6004 Clouds 14 1020 62 10000 3.1 130 18:19 16.12.2019
6005 Clouds 14 1020 59 10000 3.1 140 17:56 16.12.2019
6006 Clouds 14 1020 59 10000 3.1 140 17:37 16.12.2019
6007 Clear 14 1020 67 10000 2.6 160 17:19 16.12.2019
6008 Clear 15 1020 63 10000 3.6 140 16:55 16.12.2019
6009 Clear 15 1020 63 10000 3.6 140 16:37 16.12.2019
6010 Clear 16 1020 67 10000 2.6 150 16:18 16.12.2019
6011 Clear 16 1020 67 10000 2.6 150 15:55 16.12.2019
6012 Clear 16 1020 63 10000 2.6 160 15:37 16.12.2019
6013 Clouds 16 1020 63 10000 4.6 150 15:19 16.12.2019
6014 Clouds 16 1020 63 10000 4.6 150 14:54 16.12.2019
6015 Clouds 16 1020 63 10000 5.1 150 14:36 16.12.2019
6016 Clouds 16 1020 63 10000 5.1 150 14:18 16.12.2019
6017 Clouds 16 1020 63 10000 5.1 150 13:55 16.12.2019
6018 Clouds 16 1021 63 10000 5.1 140 13:36 16.12.2019
6019 Clouds 16 1021 67 10000 4.6 150 13:18 16.12.2019
6020 Clouds 16 1021 67 10000 4.6 150 13:18 16.12.2019
6021 Clouds 16 1021 63 10000 4.6 130 12:54 16.12.2019
6022 Clouds 16 1021 63 10000 4.6 130 12:36 16.12.2019
6023 Clouds 15 1022 67 10000 3.6 130 12:18 16.12.2019
6024 Clouds 15 1022 67 10000 5.1 150 11:55 16.12.2019
6025 Clouds 15 1022 67 10000 5.1 150 11:37 16.12.2019
6026 Clouds 14 1022 72 10000 5.1 150 11:19 16.12.2019
6027 Clouds 14 1022 67 10000 3.6 140 10:40 16.12.2019
6028 Clouds 14 1022 77 10000 4.6 140 10:21 16.12.2019
6029 Clouds 13 1022 77 10000 4.6 140 09:55 16.12.2019
6030 Clouds 13 1022 77 10000 3.6 150 09:37 16.12.2019
6031 Clouds 13 1022 82 10000 4.6 150 09:19 16.12.2019
6032 Clouds 12 1021 82 10000 4.6 150 08:39 16.12.2019
6033 Clouds 12 1021 87 10000 4.1 150 08:19 16.12.2019
6034 Clouds 12 1021 87 10000 4.6 150 07:51 16.12.2019
6035 Clouds 12 1021 87 10000 4.6 150 07:31 16.12.2019
6036 Clouds 12 1020 82 10000 4.1 150 06:49 16.12.2019
6037 Clouds 12 1020 82 10000 4.6 150 06:27 16.12.2019
6038 Clouds 12 1020 82 10000 4.6 150 05:58 16.12.2019
6039 Clouds 13 1020 82 10000 4.6 150 05:39 16.12.2019
6040 Clouds 13 1020 82 10000 4.1 150 05:21 16.12.2019
6041 Clouds 12 1020 82 10000 4.6 150 02:59 16.12.2019
6042 Clouds 12 1020 82 10000 4.1 150 01:45 16.12.2019
6043 Clouds 12 1020 76 10000 2.1 160 00:56 16.12.2019
6044 Clouds 12 1020 76 10000 2.1 160 00:38 16.12.2019
6045 Clouds 12 1020 76 10000 3.6 140 00:18 16.12.2019
6046 Clouds 12 1020 76 10000 4.1 140 23:41 15.12.2019
6047 Clouds 12 1019 82 10000 4.1 150 23:22 15.12.2019
6048 Clouds 12 1019 82 10000 3.6 150 22:57 15.12.2019
6049 Clouds 12 1019 82 10000 3.6 150 22:38 15.12.2019
6050 Clouds 13 1019 82 10000 3.6 150 22:19 15.12.2019
6051 Clouds 12 1019 82 10000 3.6 150 21:58 15.12.2019
6052 Clouds 12 1019 82 10000 4.1 150 21:38 15.12.2019
6053 Clouds 12 1019 76 10000 4.1 140 21:20 15.12.2019
6054 Clouds 13 1019 76 10000 4.1 140 20:58 15.12.2019
6055 Clouds 13 1019 76 10000 2.6 130 20:39 15.12.2019
6056 Clouds 13 1019 76 10000 2.6 130 20:39 15.12.2019
6057 Clouds 13 1019 76 10000 3.6 140 20:21 15.12.2019
6058 Clouds 13 1019 76 10000 3.6 140 19:58 15.12.2019
6059 Clouds 13 1019 82 10000 4.1 140 19:40 15.12.2019
6060 Clouds 13 1019 82 10000 3.6 150 19:20 15.12.2019
6061 Clouds 13 1019 82 10000 3.6 150 18:58 15.12.2019
6062 Clouds 13 1019 82 10000 4.1 160 18:39 15.12.2019
6063 Clouds 13 1019 82 10000 3.1 160 18:19 15.12.2019
6064 Clouds 13 1019 82 10000 3.1 160 18:19 15.12.2019
6065 Clouds 13 1018 82 10000 3.1 160 17:56 15.12.2019
6066 Clouds 13 1018 82 10000 3.1 160 17:56 15.12.2019
6067 Clouds 13 1018 82 10000 3.1 160 17:38 15.12.2019
6068 Clouds 14 1018 82 10000 2.6 160 17:19 15.12.2019
6069 Clouds 14 1018 77 10000 3.1 150 16:57 15.12.2019
6070 Clouds 14 1018 77 10000 3.1 150 16:39 15.12.2019
6071 Clouds 15 1018 72 10000 2.1 160 16:20 15.12.2019
6072 Clouds 15 1018 72 10000 2.1 160 15:55 15.12.2019
6073 Clouds 15 1018 72 10000 2.6 160 15:37 15.12.2019
6074 Clouds 15 1018 72 10000 3.1 170 15:18 15.12.2019
6075 Clouds 15 1018 72 10000 3.1 170 14:55 15.12.2019
6076 Clouds 15 1018 72 10000 3.1 170 14:37 15.12.2019
6077 Clouds 16 1018 72 10000 4.6 160 14:18 15.12.2019
6078 Clouds 16 1018 72 10000 4.6 160 13:56 15.12.2019
6079 Clouds 16 1018 72 10000 4.1 160 13:37 15.12.2019
6080 Clouds 15 1018 72 10000 4.6 160 13:19 15.12.2019
6081 Clouds 15 1018 72 10000 4.6 160 13:19 15.12.2019
6082 Clouds 15 1018 72 10000 1.5 330 12:56 15.12.2019
6083 Clouds 15 1018 72 10000 1.5 330 12:38 15.12.2019
6084 Clouds 15 1018 76 10000 1 0 12:20 15.12.2019
6085 Clouds 14 1018 82 10000 2.1 340 11:39 15.12.2019
6086 Clouds 13 1018 82 10000 1 0 11:20 15.12.2019
6087 Clouds 12 1018 82 10000 1 0 10:59 15.12.2019
6088 Clouds 12 1018 82 10000 1 0 10:41 15.12.2019
6089 Clouds 12 1017 87 10000 1 10 10:20 15.12.2019
6090 Clouds 11 1017 87 10000 1 10 09:59 15.12.2019
6091 Clouds 11 1017 87 10000 2.1 330 09:39 15.12.2019
6092 Clouds 11 1017 82 10000 2.1 140 09:20 15.12.2019
6093 Clouds 10 1016 82 10000 4.6 150 08:56 15.12.2019
6094 Clouds 10 1016 82 10000 4.6 150 08:38 15.12.2019
6095 Clouds 9 1016 87 10000 4.6 150 08:20 15.12.2019
6096 Clouds 9 1016 81 10000 3.6 150 07:55 15.12.2019
6097 Clouds 9 1016 81 10000 3.6 150 07:33 15.12.2019
6098 Clouds 9 1016 93 10000 2.1 140 06:31 15.12.2019
6099 Clouds 8 1015 87 10000 2.6 110 05:51 15.12.2019
6100 Clouds 8 1015 81 10000 3.1 110 05:25 15.12.2019
6101 Clouds 8 1015 87 10000 3.1 110 04:24 15.12.2019
6102 Clouds 8 1015 100 10000 2.6 90 03:22 15.12.2019
6103 Clouds 8 1014 87 10000 1.5 120 02:32 15.12.2019
6104 Clouds 8 1014 93 10000 2.1 120 01:43 15.12.2019
6105 Clouds 8 1014 87 10000 1 0 01:20 15.12.2019
6106 Clouds 8 1014 81 10000 2.1 110 00:53 15.12.2019
6107 Clouds 8 1014 81 10000 2.1 110 00:34 15.12.2019
6108 Clouds 8 1013 93 10000 2.1 140 23:58 14.12.2019
6109 Clouds 8 1013 93 10000 2.1 140 23:38 14.12.2019
6110 Clear 8 1013 87 10000 2.1 130 23:18 14.12.2019
6111 Clear 8 1012 81 10000 2.6 100 22:56 14.12.2019
6112 Clear 8 1012 81 10000 2.6 100 22:37 14.12.2019
6113 Clear 9 1012 81 10000 1.5 120 22:19 14.12.2019
6114 Clear 9 1012 81 10000 1.5 120 21:55 14.12.2019
6115 Clear 9 1012 75 10000 1.5 260 21:37 14.12.2019
6116 Clear 9 1012 70 10000 2.6 70 21:18 14.12.2019
6117 Clear 9 1012 70 10000 2.6 70 21:18 14.12.2019
6118 Clear 10 1012 75 10000 1.5 100 20:42 14.12.2019
6119 Clear 10 1011 75 10000 2.1 110 20:20 14.12.2019
6120 Clear 10 1011 75 10000 2.1 110 19:59 14.12.2019
6121 Clear 10 1011 75 10000 2.1 120 19:39 14.12.2019
6122 Clear 10 1011 75 10000 1.5 140 19:21 14.12.2019
6123 Clear 10 1011 75 10000 1.5 140 18:57 14.12.2019
6124 Clear 10 1010 75 10000 2.1 120 18:38 14.12.2019
6125 Clear 10 1010 75 10000 2.1 120 18:38 14.12.2019
6126 Clear 11 1009 66 10000 0.5 0 18:20 14.12.2019
6127 Clear 11 1009 66 10000 2.6 320 17:57 14.12.2019
6128 Clear 11 1009 66 10000 2.6 320 17:38 14.12.2019
6129 Clear 12 1008 54 10000 2.1 340 17:20 14.12.2019
6130 Clear 13 1007 54 10000 2.6 20 16:41 14.12.2019
6131 Clear 14 1007 50 10000 2.6 20 16:19 14.12.2019
6132 Clear 14 1007 50 10000 2.6 20 15:55 14.12.2019
6133 Clear 14 1007 44 10000 2.6 350 15:36 14.12.2019
6134 Clear 14 1007 44 10000 3.6 10 15:18 14.12.2019
6135 Clear 14 1007 47 10000 2.1 10 14:40 14.12.2019
6136 Clear 14 1006 55 10000 3.1 340 14:22 14.12.2019
6137 Clear 14 1006 55 10000 3.1 340 13:59 14.12.2019
6138 Clear 13 1006 43 10000 3.6 10 13:41 14.12.2019
6139 Clear 13 1006 43 10000 3.6 10 13:41 14.12.2019
6140 Clear 13 1005 55 10000 3.1 360 13:19 14.12.2019
6141 Clear 13 1005 55 10000 4.1 30 12:57 14.12.2019
6142 Clear 13 1005 55 10000 4.1 30 12:38 14.12.2019
6143 Clear 12 1004 50 10000 3.6 20 12:20 14.12.2019
6144 Clear 12 1004 50 10000 3.6 20 12:20 14.12.2019
6145 Clear 12 1004 53 10000 4.6 30 11:56 14.12.2019
6146 Clear 12 1004 53 10000 4.6 30 11:38 14.12.2019
6147 Clear 11 1004 53 10000 3.6 40 11:19 14.12.2019
6148 Clear 10 1004 61 10000 3.1 30 10:56 14.12.2019
6149 Clear 9 1004 61 10000 3.1 30 10:38 14.12.2019
6150 Clear 9 1003 61 10000 2.6 20 10:19 14.12.2019
6151 Clear 8 1003 72 10000 2.6 10 09:43 14.12.2019
6152 Clear 7 1002 72 10000 3.1 320 09:23 14.12.2019
6153 Clear 7 1002 71 10000 3.1 320 08:57 14.12.2019
6154 Clear 7 1001 56 10000 5.7 40 08:38 14.12.2019
6155 Clear 6 1001 60 10000 4.1 40 08:19 14.12.2019
6156 Clear 5 1001 65 10000 3.6 30 07:40 14.12.2019
6157 Clear 5 1000 72 10000 3.6 40 07:21 14.12.2019
6158 Clear 5 1000 72 10000 2.6 30 06:45 14.12.2019
6159 Clear 5 999 72 10000 2.6 40 06:22 14.12.2019
6160 Clear 6 998 80 10000 1 20 05:43 14.12.2019
6161 Clear 6 996 75 10000 3.1 10 03:44 14.12.2019
6162 Clear 7 995 80 10000 2.6 10 02:24 14.12.2019
6163 Clouds 7 993 75 10000 3.1 30 01:44 14.12.2019
6164 Clouds 7 992 75 10000 2.6 20 01:20 14.12.2019
6165 Clouds 8 992 70 10000 3.1 30 00:41 14.12.2019
6166 Clouds 8 991 70 10000 3.6 20 00:20 14.12.2019
6167 Clouds 8 990 65 10000 4.1 360 23:41 13.12.2019
6168 Clouds 9 990 66 10000 5.7 350 23:19 13.12.2019
6169 Clouds 9 990 66 10000 5.7 350 22:57 13.12.2019
6170 Clouds 9 989 70 10000 5.1 350 22:38 13.12.2019
6171 Clouds 9 989 66 10000 7.2 330 22:18 13.12.2019
6172 Clouds 9 988 66 10000 6.7 340 21:44 13.12.2019
6173 Clouds 10 988 61 10000 6.7 320 21:22 13.12.2019
6174 Clouds 10 988 61 10000 6.7 320 20:59 13.12.2019
6175 Clouds 10 987 66 10000 8.2 330 20:40 13.12.2019
6176 Clouds 10 987 66 10000 5.7 330 20:20 13.12.2019
6177 Clouds 10 987 66 10000 5.7 330 19:56 13.12.2019
6178 Clouds 10 986 62 10000 5.1 300 19:38 13.12.2019
6179 Clouds 10 986 62 10000 5.1 300 19:19 13.12.2019
6180 Clouds 10 986 62 10000 6.7 310 18:55 13.12.2019
6181 Thunderstorm 10 986 66 10000 5.1 260 18:36 13.12.2019
6182 Thunderstorm 11 986 66 10000 5.1 260 18:18 13.12.2019
6183 Thunderstorm 12 985 82 3500 5.7 250 17:40 13.12.2019
6184 Thunderstorm 13 985 82 3500 5.7 250 17:19 13.12.2019
6185 Clouds 13 986 82 7000 6.7 230 16:57 13.12.2019
6186 Clouds 13 986 82 7000 6.7 230 16:57 13.12.2019
6187 Clouds 13 985 87 4000 6.2 240 16:38 13.12.2019
6188 Clouds 13 985 87 4000 6.2 240 16:20 13.12.2019
6189 Rain 13 987 87 8000 6.2 220 15:43 13.12.2019
6190 Rain 12 986 93 8000 8.2 230 15:22 13.12.2019
6191 Rain 12 989 87 7000 5.7 200 14:57 13.12.2019
6192 Clouds 12 989 87 6000 7.2 220 14:38 13.12.2019
6193 Clouds 12 989 87 6000 7.2 220 14:19 13.12.2019
6194 Clouds 11 990 87 8000 10.8 240 13:44 13.12.2019
6195 Clouds 11 990 87 8000 10.8 240 13:44 13.12.2019
6196 Rain 11 991 93 800 4.6 200 13:26 13.12.2019
6197 Rain 10 992 93 7000 5.1 170 12:58 13.12.2019
6198 Rain 10 992 93 7000 5.1 170 12:40 13.12.2019
6199 Rain 10 993 100 4000 3.6 160 12:19 13.12.2019
6200 Rain 10 993 100 4000 3.6 160 12:19 13.12.2019
6201 Clouds 9 995 87 10000 6.7 160 11:45 13.12.2019
6202 Clouds 9 995 100 4000 4.6 110 11:26 13.12.2019
6203 Rain 8 995 87 4000 7.2 160 10:57 13.12.2019
6204 Rain 8 997 93 8000 9.3 200 10:39 13.12.2019
6205 Rain 8 997 93 8000 9.3 200 10:21 13.12.2019
6206 Rain 7 996 87 6000 6.2 160 09:42 13.12.2019
6207 Rain 7 997 100 3000 2.1 100 09:21 13.12.2019
6208 Rain 7 997 81 6000 7.2 140 08:55 13.12.2019
6209 Rain 7 997 81 6000 7.2 140 08:55 13.12.2019
6210 Rain 6 998 100 3000 1 0 08:36 13.12.2019
6211 Rain 6 998 100 3000 1 0 08:18 13.12.2019
6212 Rain 7 998 70 10000 6.2 150 07:42 13.12.2019
6213 Rain 7 998 70 10000 6.2 150 07:19 13.12.2019
6214 Clouds 7 999 66 10000 3.6 140 06:39 13.12.2019
6215 Clouds 6 999 66 10000 3.6 140 06:20 13.12.2019
6216 Rain 5 1000 81 10000 3.1 130 05:37 13.12.2019
6217 Clouds 5 1000 81 10000 3.1 130 05:19 13.12.2019
6218 Clouds 4 1002 86 10000 2.6 110 03:55 13.12.2019
6219 Clouds 4 1003 86 10000 2.6 110 02:56 13.12.2019
6220 Clouds 4 1003 93 10000 2.6 110 02:30 13.12.2019
6221 Clouds 4 1003 86 10000 2.6 110 01:34 13.12.2019
6222 Clouds 4 1004 86 10000 2.6 100 00:50 13.12.2019
6223 Clouds 5 1004 86 10000 2.6 110 00:28 13.12.2019
6224 Clouds 5 1004 93 10000 1.5 100 23:43 12.12.2019
6225 Clouds 6 1004 93 10000 2.1 120 23:25 12.12.2019
6226 Clouds 6 1004 93 10000 1.5 100 22:57 12.12.2019
6227 Clouds 6 1004 87 10000 1.5 100 22:39 12.12.2019
6228 Clouds 6 1004 87 10000 1.5 100 22:21 12.12.2019
6229 Clouds 6 1004 87 10000 2.1 130 21:56 12.12.2019
6230 Clouds 6 1004 87 10000 2.1 120 21:37 12.12.2019
6231 Clouds 7 1004 87 10000 2.1 120 21:19 12.12.2019
6232 Clouds 7 1004 93 10000 1.5 120 20:59 12.12.2019
6233 Clouds 6 1004 87 10000 1.5 140 20:40 12.12.2019
6234 Clouds 6 1004 87 10000 1.5 140 20:21 12.12.2019
6235 Clouds 6 1004 87 10000 1 0 19:56 12.12.2019
6236 Rain 6 1004 87 10000 2.1 260 19:37 12.12.2019
6237 Rain 6 1004 87 10000 2.1 260 19:18 12.12.2019
6238 Clouds 7 1003 81 10000 1 0 18:56 12.12.2019
6239 Clouds 7 1003 81 10000 1 0 18:37 12.12.2019
6240 Clouds 7 1003 81 10000 1 0 18:37 12.12.2019
6241 Clouds 7 1003 81 10000 1 0 18:19 12.12.2019
6242 Clouds 7 1003 81 10000 1.5 90 17:56 12.12.2019
6243 Clouds 7 1004 93 10000 1.49 315 17:38 12.12.2019
6244 Clouds 8 1004 93 10000 2.21 58 17:19 12.12.2019
6245 Rain 8 1003 76 10000 1 0 16:54 12.12.2019
6246 Clouds 8 1004 87 10000 1.5 0 16:36 12.12.2019
6247 Clouds 8 1004 87 10000 1.5 0 16:18 12.12.2019
6248 Clouds 8 1003 76 7000 3.6 50 15:42 12.12.2019
6249 Clouds 8 1004 87 10000 0.5 0 15:20 12.12.2019
6250 Clouds 8 1004 81 10000 4.1 30 14:57 12.12.2019
6251 Rain 8 1004 87 10000 3.6 30 14:37 12.12.2019
6252 Rain 8 1004 87 10000 3.6 30 14:19 12.12.2019
6253 Clouds 9 1004 93 10000 5.7 30 13:55 12.12.2019
6254 Rain 9 1005 75 8000 4.1 320 13:37 12.12.2019
6255 Rain 9 1005 75 8000 4.1 320 13:19 12.12.2019
6256 Clouds 10 1004 62 10000 3.1 180 12:55 12.12.2019
6257 Clouds 10 1005 81 10000 1 0 12:37 12.12.2019
6258 Clouds 10 1005 81 10000 1 0 12:18 12.12.2019
6259 Clouds 9 1005 70 10000 0.5 0 11:40 12.12.2019
6260 Clouds 8 1006 86 10000 1.5 0 11:22 12.12.2019
6261 Clouds 7 1005 81 10000 2.6 320 10:59 12.12.2019
6262 Clouds 7 1005 81 10000 2.6 320 10:59 12.12.2019
6263 Clouds 7 1005 81 10000 2.6 320 10:41 12.12.2019
6264 Clouds 7 1006 86 10000 1.5 0 10:22 12.12.2019
6265 Clouds 7 1005 70 10000 1.5 20 09:57 12.12.2019
6266 Rain 7 1006 86 8000 1.5 0 09:39 12.12.2019
6267 Rain 6 1006 86 8000 1.5 0 09:20 12.12.2019
6268 Clouds 6 1005 80 10000 1 0 08:50 12.12.2019
6269 Clouds 5 1005 86 8000 2.6 10 08:29 12.12.2019
6270 Clouds 5 1005 80 10000 1.5 20 07:59 12.12.2019
6271 Clouds 5 1005 80 10000 1.5 20 07:39 12.12.2019
6272 Clouds 5 1004 75 10000 0.5 0 07:21 12.12.2019
6273 Clouds 5 1004 75 10000 1.5 120 06:42 12.12.2019
6274 Clouds 5 1004 76 10000 1.5 120 06:23 12.12.2019
6275 Clouds 5 1005 80 10000 2.6 70 05:34 12.12.2019
6276 Clouds 5 1006 86 10000 1.5 20 04:48 12.12.2019
6277 Clouds 5 1007 80 10000 1 250 02:44 12.12.2019
6278 Clouds 5 1007 76 10000 0.5 0 02:25 12.12.2019
6279 Clouds 5 1007 70 10000 1.5 60 01:59 12.12.2019
6280 Clouds 5 1008 70 10000 1.5 30 01:36 12.12.2019
6281 Clouds 5 1008 80 10000 1 0 00:50 12.12.2019
6282 Clouds 5 1008 72 10000 1 0 00:22 12.12.2019
6283 Clouds 5 1009 72 10000 1 290 23:58 11.12.2019
6284 Clouds 5 1008 72 10000 1.5 30 23:39 11.12.2019
6285 Clouds 5 1008 67 10000 1.5 30 23:19 11.12.2019
6286 Clouds 5 1009 65 10000 1.5 20 22:57 11.12.2019
6287 Clouds 5 1009 67 10000 1.5 30 22:38 11.12.2019
6288 Clouds 5 1009 67 10000 1.5 30 22:38 11.12.2019
6289 Clouds 5 1009 67 10000 1.5 30 22:19 11.12.2019
6290 Clouds 5 1009 67 10000 1.5 50 21:55 11.12.2019
6291 Clouds 5 1009 67 10000 1.5 50 21:55 11.12.2019
6292 Clouds 5 1009 67 10000 1.5 50 21:37 11.12.2019
6293 Clouds 6 1009 67 10000 1.5 50 21:19 11.12.2019
6294 Clouds 6 1009 70 10000 1.5 60 20:55 11.12.2019
6295 Clouds 6 1009 65 10000 2.1 80 20:37 11.12.2019
6296 Clear 6 1009 65 10000 2.1 80 20:18 11.12.2019
6297 Clear 6 1010 70 10000 1 80 19:43 11.12.2019
6298 Clear 6 1009 70 10000 1 0 19:23 11.12.2019
6299 Clear 7 1009 59 10000 1.5 60 18:59 11.12.2019
6300 Clear 7 1009 59 10000 1.5 60 18:40 11.12.2019
6301 Clear 7 1010 59 10000 2.1 40 18:20 11.12.2019
6302 Clear 8 1010 59 10000 2.1 60 17:57 11.12.2019
6303 Clear 8 1010 57 10000 2.1 10 17:38 11.12.2019
6304 Clear 8 1010 57 10000 2.1 10 17:18 11.12.2019
6305 Clear 10 1010 60 10000 2.6 10 16:56 11.12.2019
6306 Clear 11 1010 50 10000 2.6 360 16:37 11.12.2019
6307 Clear 11 1010 50 10000 2.6 360 16:19 11.12.2019
6308 Clear 12 1009 60 10000 3.6 350 15:57 11.12.2019
6309 Clear 12 1010 46 10000 4.1 360 15:37 11.12.2019
6310 Clear 12 1010 46 10000 4.1 360 15:19 11.12.2019
6311 Clouds 12 1010 60 10000 3.6 360 14:55 11.12.2019
6312 Clear 12 1011 46 10000 3.6 350 14:37 11.12.2019
6313 Clear 12 1011 46 10000 3.6 350 14:18 11.12.2019
6314 Clear 11 1010 46 10000 3.6 10 13:44 11.12.2019
6315 Clear 11 1011 50 10000 3.6 20 13:23 11.12.2019
6316 Clear 11 1011 50 10000 4.1 10 12:59 11.12.2019
6317 Clear 11 1012 50 10000 4.1 0 12:40 11.12.2019
6318 Clear 11 1012 50 10000 4.1 0 12:22 11.12.2019
6319 Clear 11 1012 57 10000 4.6 20 11:58 11.12.2019
6320 Clear 10 1013 53 10000 4.1 10 11:39 11.12.2019
6321 Clear 10 1013 53 10000 4.1 10 11:19 11.12.2019
6322 Clear 9 1012 60 10000 5.7 10 10:59 11.12.2019
6323 Clear 9 1013 57 10000 4.6 10 10:40 11.12.2019
6324 Clear 8 1013 57 10000 4.6 10 10:21 11.12.2019
6325 Clear 9 1013 57 10000 4.6 10 10:21 11.12.2019
6326 Clear 8 1012 60 10000 5.1 30 09:57 11.12.2019
6327 Clear 8 1013 65 10000 2.6 350 09:38 11.12.2019
6328 Clear 7 1013 65 10000 2.6 350 09:19 11.12.2019
6329 Clear 7 1012 60 10000 3.6 40 08:55 11.12.2019
6330 Clear 6 1013 60 10000 5.1 360 08:36 11.12.2019
6331 Clear 5 1013 68 10000 5.1 360 08:18 11.12.2019
6332 Clear 5 1012 67 10000 3.1 50 07:43 11.12.2019
6333 Clear 5 1012 65 10000 3.6 30 07:24 11.12.2019
6334 Clear 5 1012 65 10000 3.6 30 07:24 11.12.2019
6335 Clear 5 1012 65 10000 3.1 40 06:46 11.12.2019
6336 Clear 5 1012 65 10000 3.1 40 06:25 11.12.2019
6337 Clear 5 1012 67 10000 3.6 30 05:55 11.12.2019
6338 Clear 5 1012 67 10000 4.1 30 05:35 11.12.2019
6339 Clear 6 1012 66 10000 4.1 20 04:51 11.12.2019
6340 Clear 6 1013 70 10000 5.1 30 03:26 11.12.2019
6341 Clear 7 1013 70 10000 4.1 30 02:35 11.12.2019
6342 Clouds 7 1013 70 10000 3.6 30 01:22 11.12.2019
6343 Clear 7 1013 65 10000 4.6 30 00:38 11.12.2019
6344 Clear 8 1013 65 10000 4.6 30 00:19 11.12.2019
6345 Clear 8 1013 65 10000 4.6 30 23:45 10.12.2019
6346 Clouds 8 1013 70 10000 4.1 30 23:26 10.12.2019
6347 Clouds 8 1013 65 10000 4.6 20 22:56 10.12.2019
6348 Clouds 8 1013 65 10000 4.1 30 22:38 10.12.2019
6349 Clouds 8 1013 65 10000 4.1 30 22:20 10.12.2019
6350 Clouds 8 1013 65 10000 4.6 10 21:54 10.12.2019
6351 Clouds 9 1013 65 10000 4.1 20 21:36 10.12.2019
6352 Clouds 8 1013 65 10000 4.1 20 21:18 10.12.2019
6353 Clouds 8 1013 61 10000 3.6 20 20:55 10.12.2019
6354 Clouds 8 1012 66 10000 4.1 30 20:36 10.12.2019
6355 Clouds 9 1012 66 10000 4.1 30 20:18 10.12.2019
6356 Clouds 9 1012 66 10000 4.1 30 20:18 10.12.2019
6357 Clouds 9 1012 66 10000 5.1 30 19:44 10.12.2019
6358 Clouds 9 1012 61 10000 5.7 20 19:25 10.12.2019
6359 Clouds 10 1011 57 10000 4.1 20 18:57 10.12.2019
6360 Clouds 10 1011 53 10000 3.1 30 18:39 10.12.2019
6361 Clouds 11 1011 53 10000 3.1 30 18:19 10.12.2019
6362 Clouds 11 1010 53 10000 3.6 40 17:54 10.12.2019
6363 Clouds 11 1010 53 10000 3.6 40 17:54 10.12.2019
6364 Clouds 11 1011 58 10000 6.7 10 17:36 10.12.2019
6365 Clouds 11 1011 58 10000 6.7 10 17:18 10.12.2019
6366 Clouds 12 1010 54 10000 7.2 30 16:42 10.12.2019
6367 Clouds 13 1010 54 10000 7.2 30 16:20 10.12.2019
6368 Clouds 13 1010 54 10000 7.2 30 16:20 10.12.2019
6369 Clouds 13 1009 47 10000 6.7 360 15:54 10.12.2019
6370 Clouds 14 1010 54 10000 5.7 10 15:36 10.12.2019
6371 Clouds 14 1010 54 10000 5.7 10 15:18 10.12.2019
6372 Clouds 14 1010 54 10000 5.7 10 15:18 10.12.2019
6373 Clouds 14 1009 54 10000 6.2 350 14:42 10.12.2019
6374 Clouds 14 1010 58 10000 7.2 350 14:24 10.12.2019
6375 Clouds 14 1009 50 10000 6.2 360 13:59 10.12.2019
6376 Clouds 14 1010 62 10000 6.7 10 13:40 10.12.2019
6377 Clouds 14 1010 62 10000 6.7 10 13:20 10.12.2019
6378 Clouds 13 1009 62 10000 5.7 10 12:57 10.12.2019
6379 Clouds 13 1010 66 10000 6.7 360 12:38 10.12.2019
6380 Clouds 13 1010 66 10000 6.7 360 12:20 10.12.2019
6381 Clouds 12 1009 71 10000 5.1 10 11:41 10.12.2019
6382 Clouds 12 1010 71 10000 5.7 10 11:23 10.12.2019
6383 Clouds 11 1009 76 10000 4.1 360 10:55 10.12.2019
6384 Clouds 10 1009 87 10000 2.6 360 10:37 10.12.2019
6385 Clouds 10 1009 87 10000 2.6 360 10:18 10.12.2019
6386 Clouds 9 1008 93 10000 5.1 20 09:54 10.12.2019
6387 Clouds 9 1009 100 10000 5.16 16 09:36 10.12.2019
6388 Clouds 8 1009 100 10000 5.16 16 09:18 10.12.2019
6389 Clouds 7 1008 93 10000 4.1 30 08:41 10.12.2019
6390 Clouds 6 1008 100 10000 1.5 0 08:22 10.12.2019
6391 Clouds 6 1007 93 10000 3.6 30 07:57 10.12.2019
6392 Clouds 6 1007 93 10000 3.6 30 07:39 10.12.2019
6393 Clouds 6 1007 93 10000 3.1 20 07:39 10.12.2019
6394 Clouds 6 1007 93 10000 3.1 20 07:20 10.12.2019
6395 Clouds 6 1007 93 10000 3.1 360 06:46 10.12.2019
6396 Clouds 6 1006 93 10000 3.1 40 06:19 10.12.2019
6397 Clouds 6 1006 93 10000 3.1 40 06:19 10.12.2019
6398 Clouds 6 1007 93 10000 3.1 20 05:52 10.12.2019
6399 Clouds 6 1007 93 10000 2.6 10 04:50 10.12.2019
6400 Clouds 7 1007 93 10000 1.5 350 03:32 10.12.2019
6401 Clouds 7 1007 93 10000 1.5 20 02:40 10.12.2019
6402 Rain 7 1007 87 10000 0.5 0 01:44 10.12.2019
6403 Rain 7 1007 87 10000 1.5 330 01:20 10.12.2019
6404 Clouds 8 1007 81 10000 2.1 90 00:40 10.12.2019
6405 Clouds 8 1007 81 10000 2.1 90 00:19 10.12.2019
6406 Clouds 8 1007 87 10000 1.5 90 23:41 09.12.2019
6407 Clouds 8 1007 87 10000 1.5 90 23:41 09.12.2019
6408 Clouds 8 1007 87 10000 1.5 90 23:22 09.12.2019
6409 Clouds 8 1008 87 10000 1.5 140 22:58 09.12.2019
6410 Clouds 8 1008 87 10000 1.5 140 22:39 09.12.2019
6411 Clouds 9 1008 87 10000 1 0 22:19 09.12.2019
6412 Clouds 8 1008 87 10000 2.1 120 21:56 09.12.2019
6413 Clouds 9 1008 87 10000 1.5 80 21:38 09.12.2019
6414 Clouds 9 1008 87 10000 1.5 80 21:18 09.12.2019
6415 Clouds 9 1008 81 10000 1.5 60 20:56 09.12.2019
6416 Clouds 9 1008 81 10000 2.1 330 20:38 09.12.2019
6417 Clouds 10 1008 81 10000 2.1 330 20:20 09.12.2019
6418 Clouds 10 1008 87 10000 1.5 0 19:55 09.12.2019
6419 Clouds 11 1008 87 10000 1.5 0 19:55 09.12.2019
6420 Clouds 11 1008 81 10000 1 0 19:37 09.12.2019
6421 Clouds 11 1008 81 10000 1 0 19:19 09.12.2019
6422 Clouds 11 1008 81 10000 1.5 180 18:56 09.12.2019
6423 Clouds 11 1007 81 10000 2.1 160 18:37 09.12.2019
6424 Clouds 11 1007 81 10000 2.1 160 18:19 09.12.2019
6425 Clouds 12 1007 82 10000 2.1 170 17:57 09.12.2019
6426 Rain 12 1007 82 10000 1.5 0 17:38 09.12.2019
6427 Rain 12 1007 82 10000 1.5 0 17:20 09.12.2019
6428 Clouds 13 1008 76 10000 2.1 200 16:56 09.12.2019
6429 Clouds 13 1008 82 10000 1.5 230 16:37 09.12.2019
6430 Clouds 13 1008 82 10000 1.5 230 16:18 09.12.2019
6431 Clouds 14 1008 82 10000 2.1 190 15:55 09.12.2019
6432 Clouds 14 1008 82 10000 2.1 190 15:36 09.12.2019
6433 Clouds 14 1008 82 10000 2.1 190 15:36 09.12.2019
6434 Clouds 14 1008 82 10000 2.1 190 15:18 09.12.2019
6435 Clouds 14 1008 82 10000 3.6 170 14:42 09.12.2019
6436 Clouds 14 1008 82 10000 2.6 180 14:19 09.12.2019
6437 Clouds 14 1009 82 10000 3.1 170 13:58 09.12.2019
6438 Clouds 14 1010 77 10000 3.1 200 13:38 09.12.2019
6439 Clouds 14 1010 77 10000 3.1 200 13:19 09.12.2019
6440 Clouds 14 1011 77 10000 3.6 180 12:57 09.12.2019
6441 Clouds 14 1012 82 10000 3.6 150 12:38 09.12.2019
6442 Clouds 14 1012 82 10000 3.6 150 12:19 09.12.2019
6443 Clouds 13 1012 87 10000 2.6 190 11:57 09.12.2019
6444 Clouds 13 1013 93 10000 3.1 130 11:37 09.12.2019
6445 Clouds 12 1013 93 10000 3.1 130 11:18 09.12.2019
6446 Rain 12 1013 82 10000 3.6 170 10:41 09.12.2019
6447 Clouds 12 1013 93 10000 1 0 10:20 09.12.2019
6448 Clouds 11 1012 82 10000 3.6 160 09:59 09.12.2019
6449 Clouds 11 1013 100 10000 3.6 120 09:41 09.12.2019
6450 Clouds 11 1013 100 10000 3.6 120 09:21 09.12.2019
6451 Clouds 11 1013 81 10000 3.1 140 08:54 09.12.2019
6452 Clouds 11 1013 100 8000 2.1 130 08:36 09.12.2019
6453 Clouds 10 1013 100 8000 2.1 130 08:18 09.12.2019
6454 Clouds 10 1013 100 8000 2.1 130 08:18 09.12.2019
6455 Clouds 10 1013 87 10000 2.6 140 07:42 09.12.2019
6456 Clouds 10 1013 93 10000 2.1 140 07:23 09.12.2019
6457 Clouds 10 1014 93 10000 2.1 130 06:49 09.12.2019
6458 Clouds 10 1014 93 10000 2.1 120 06:25 09.12.2019
6459 Clouds 11 1015 87 8000 2.6 200 05:29 09.12.2019
6460 Clouds 10 1015 93 10000 2.1 220 04:49 09.12.2019
6461 Clouds 11 1015 82 10000 2.6 170 03:45 09.12.2019
6462 Clouds 10 1016 82 10000 3.1 150 02:24 09.12.2019
6463 Clouds 10 1017 87 10000 2.6 150 01:44 09.12.2019
6464 Clouds 10 1017 87 10000 2.1 130 00:53 09.12.2019
6465 Clouds 10 1018 87 10000 2.1 150 00:32 09.12.2019
6466 Clouds 10 1018 93 10000 3.1 130 23:44 08.12.2019
6467 Clouds 11 1018 87 10000 2.6 140 23:24 08.12.2019
6468 Clouds 11 1018 87 10000 2.6 120 22:58 08.12.2019
6469 Clouds 11 1018 87 10000 2.6 120 22:39 08.12.2019
6470 Clouds 11 1018 87 10000 2.1 120 22:20 08.12.2019
6471 Clouds 11 1019 87 10000 1.5 140 21:58 08.12.2019
6472 Clouds 11 1019 87 10000 1.5 130 21:40 08.12.2019
6473 Clouds 11 1019 87 10000 1.5 130 21:40 08.12.2019
6474 Clouds 12 1019 87 10000 1.5 130 21:22 08.12.2019
6475 Clouds 12 1019 93 10000 2.6 130 20:57 08.12.2019
6476 Clouds 12 1019 93 10000 2.6 130 20:38 08.12.2019
6477 Clouds 11 1019 87 10000 1.5 120 20:20 08.12.2019
6478 Clouds 12 1019 87 10000 2.1 130 19:59 08.12.2019
6479 Clouds 12 1019 87 10000 1 0 19:41 08.12.2019
6480 Clouds 12 1019 87 10000 1 0 19:23 08.12.2019
6481 Drizzle 12 1019 76 10000 1 190 18:55 08.12.2019
6482 Drizzle 13 1019 76 10000 1 190 18:55 08.12.2019
6483 Clouds 12 1019 76 10000 0.5 0 18:37 08.12.2019
6484 Clouds 13 1019 76 10000 0.5 0 18:19 08.12.2019
6485 Clouds 13 1019 76 10000 1.5 140 17:57 08.12.2019
6486 Clouds 13 1020 82 10000 1 0 17:38 08.12.2019
6487 Clouds 13 1020 82 10000 1 0 17:20 08.12.2019
6488 Clouds 13 1020 82 10000 1 0 17:20 08.12.2019
6489 Clouds 13 1020 82 10000 1 0 17:20 08.12.2019
6490 Clouds 13 1020 82 10000 1 0 17:20 08.12.2019
6491 Clouds 13 1020 82 10000 1 0 17:20 08.12.2019
6492 Clouds 14 1020 76 10000 1 190 16:57 08.12.2019
6493 Clouds 14 1020 72 10000 2.6 240 16:39 08.12.2019
6494 Clouds 14 1020 72 10000 2.6 240 16:20 08.12.2019
6495 Clouds 14 1020 63 10000 2.6 220 15:55 08.12.2019
6496 Clouds 14 1020 77 10000 2.6 210 15:36 08.12.2019
6497 Clouds 15 1020 77 10000 2.6 210 15:18 08.12.2019
6498 Clouds 14 1020 77 10000 2.6 180 14:43 08.12.2019
6499 Clouds 15 1020 82 10000 2.6 200 14:24 08.12.2019
6500 Clouds 14 1020 77 10000 2.1 200 13:58 08.12.2019
6501 Clouds 14 1020 77 10000 2.1 200 13:40 08.12.2019
6502 Clouds 14 1021 82 10000 2.93 227 13:21 08.12.2019
6503 Clouds 14 1021 77 10000 2.1 190 12:56 08.12.2019
6504 Clouds 15 1021 87 10000 2.93 227 12:38 08.12.2019
6505 Clouds 14 1021 87 10000 2.93 227 12:18 08.12.2019
6506 Clouds 14 1021 72 10000 2.6 180 11:55 08.12.2019
6507 Clouds 14 1022 93 10000 1 0 11:37 08.12.2019
6508 Clouds 13 1022 93 10000 1 0 11:19 08.12.2019
6509 Clouds 13 1022 93 10000 1 0 11:19 08.12.2019
6510 Clouds 13 1022 93 10000 1 0 11:19 08.12.2019
6511 Clouds 13 1021 77 10000 2.6 170 10:40 08.12.2019
6512 Clouds 12 1022 100 10000 0.5 0 10:21 08.12.2019
6513 Clouds 12 1021 77 10000 2.6 150 09:58 08.12.2019
6514 Clouds 12 1021 77 10000 2.6 150 09:39 08.12.2019
6515 Clouds 11 1022 100 10000 2.1 350 09:20 08.12.2019
6516 Clouds 11 1021 82 10000 2.6 150 08:59 08.12.2019
6517 Clouds 11 1021 100 8000 0.5 0 08:39 08.12.2019
6518 Clouds 10 1021 100 8000 0.5 0 08:21 08.12.2019
6519 Clouds 10 1021 100 8000 0.5 0 08:21 08.12.2019
6520 Clouds 10 1021 87 10000 1.5 120 07:45 08.12.2019
6521 Clouds 10 1020 87 10000 2.1 110 07:20 08.12.2019
6522 Clouds 10 1020 93 10000 1.5 120 06:52 08.12.2019
6523 Clouds 10 1020 93 10000 2.1 110 06:23 08.12.2019
6524 Clouds 10 1020 87 10000 2.6 120 05:52 08.12.2019
6525 Clouds 11 1020 87 10000 1.5 120 05:19 08.12.2019
6526 Clouds 11 1021 93 10000 2.6 90 03:55 08.12.2019
6527 Clouds 11 1021 93 10000 2.6 110 03:37 08.12.2019
6528 Clouds 11 1021 93 10000 1.5 100 02:40 08.12.2019
6529 Clouds 10 1021 93 10000 2.1 100 01:56 08.12.2019
6530 Clouds 10 1021 93 10000 2.1 110 01:33 08.12.2019
6531 Rain 10 1021 93 10000 2.1 100 00:43 08.12.2019
6532 Rain 10 1021 93 10000 2.1 110 00:21 08.12.2019
6533 Rain 10 1021 93 10000 2.6 120 23:55 07.12.2019
6534 Clouds 10 1021 93 10000 2.6 120 23:36 07.12.2019
6535 Clouds 10 1021 93 10000 2.6 120 23:18 07.12.2019
6536 Clouds 10 1021 87 10000 2.1 130 22:54 07.12.2019
6537 Clouds 10 1021 87 10000 2.1 130 22:54 07.12.2019
6538 Clouds 10 1021 93 10000 2.1 130 22:36 07.12.2019
6539 Clouds 10 1021 93 10000 2.1 130 22:36 07.12.2019
6540 Clouds 11 1021 93 10000 2.1 130 22:18 07.12.2019
6541 Clouds 11 1021 93 10000 2.6 130 21:54 07.12.2019
6542 Clouds 11 1021 87 10000 2.1 140 21:36 07.12.2019
6543 Clouds 11 1021 87 10000 2.1 140 21:18 07.12.2019
6544 Clouds 11 1021 93 10000 1.5 150 20:37 07.12.2019
6545 Clouds 11 1021 93 10000 1.5 150 20:19 07.12.2019
6546 Clouds 12 1021 93 10000 2.1 130 19:57 07.12.2019
6547 Clouds 12 1021 93 10000 2.1 130 19:38 07.12.2019
6548 Clouds 12 1020 87 10000 2.6 120 19:20 07.12.2019
6549 Clouds 12 1020 93 10000 2.1 130 18:55 07.12.2019
6550 Clouds 12 1020 93 10000 1.5 150 18:36 07.12.2019
6551 Clouds 12 1020 93 10000 1.5 150 18:18 07.12.2019
6552 Clouds 13 1020 93 10000 1.5 140 17:42 07.12.2019
6553 Clouds 13 1020 87 10000 0.5 0 17:24 07.12.2019
6554 Clouds 14 1020 82 10000 1 0 16:58 07.12.2019
6555 Clouds 14 1019 77 10000 3.6 220 16:39 07.12.2019
6556 Clouds 14 1019 77 10000 3.6 220 16:21 07.12.2019
6557 Clouds 14 1020 82 10000 2.1 230 15:58 07.12.2019
6558 Clouds 15 1020 82 10000 2.1 230 15:39 07.12.2019
6559 Clouds 15 1019 77 10000 3.6 220 15:20 07.12.2019
6560 Clouds 15 1020 87 10000 1.5 190 14:42 07.12.2019
6561 Clouds 15 1020 77 10000 2.1 210 14:19 07.12.2019
6562 Clouds 15 1020 77 10000 2.1 200 13:58 07.12.2019
6563 Clouds 15 1020 82 10000 1.5 0 13:39 07.12.2019
6564 Clouds 15 1020 82 10000 1.5 0 13:39 07.12.2019
6565 Clouds 15 1020 82 10000 1.5 0 13:19 07.12.2019
6566 Clouds 15 1021 77 6000 0.5 0 12:41 07.12.2019
6567 Clouds 15 1021 77 6000 0.5 0 12:23 07.12.2019
6568 Clouds 15 1021 77 6000 0.5 0 12:23 07.12.2019
6569 Clouds 14 1021 82 10000 0.5 0 11:59 07.12.2019
6570 Clouds 14 1021 87 6000 3.15 197 11:41 07.12.2019
6571 Clouds 14 1021 87 6000 3.15 197 11:41 07.12.2019
6572 Clouds 14 1021 87 6000 1.87 143 11:22 07.12.2019
6573 Mist 13 1021 100 3000 1.87 143 10:39 07.12.2019
6574 Mist 13 1021 100 3000 1.87 143 10:20 07.12.2019
6575 Clouds 12 1021 82 10000 1.5 150 09:59 07.12.2019
6576 Clouds 12 1021 93 10000 2.1 130 09:38 07.12.2019
6577 Clouds 12 1021 93 10000 2.1 130 09:38 07.12.2019
6578 Mist 11 1021 100 1500 1 0 09:20 07.12.2019
6579 Clouds 11 1021 93 10000 1.5 130 08:45 07.12.2019
6580 Clouds 11 1021 93 10000 1.5 130 08:22 07.12.2019
6581 Clouds 10 1020 93 10000 1 110 07:47 07.12.2019
6582 Clouds 10 1020 93 10000 1.5 120 07:28 07.12.2019
6583 Clouds 10 1020 93 10000 1 110 06:52 07.12.2019
6584 Clouds 10 1020 93 10000 2.1 110 06:26 07.12.2019
6585 Clouds 10 1020 93 10000 2.1 110 05:47 07.12.2019
6586 Clear 11 1020 93 10000 2.1 130 04:41 07.12.2019
6587 Clear 11 1020 87 10000 2.1 150 03:49 07.12.2019
6588 Clouds 11 1020 87 10000 2.6 130 02:22 07.12.2019
6589 Clouds 11 1021 93 10000 2.1 110 01:37 07.12.2019
6590 Clouds 11 1021 93 10000 2.1 110 01:18 07.12.2019
6591 Clouds 11 1021 93 10000 2.1 160 00:21 07.12.2019
6592 Clouds 11 1021 87 10000 2.1 130 23:57 06.12.2019
6593 Clouds 11 1021 93 10000 2.1 140 23:38 06.12.2019
6594 Clouds 10 1021 93 10000 2.1 140 23:19 06.12.2019
6595 Clouds 10 1021 93 10000 2.1 130 22:39 06.12.2019
6596 Rain 10 1021 87 10000 2.1 110 22:21 06.12.2019
6597 Rain 11 1021 87 10000 2.6 120 21:58 06.12.2019
6598 Rain 11 1021 87 10000 2.6 120 21:40 06.12.2019
6599 Rain 10 1021 93 10000 2.6 130 21:20 06.12.2019
6600 Rain 11 1021 87 10000 2.6 130 20:46 06.12.2019
6601 Clouds 11 1021 93 9000 2.1 140 20:26 06.12.2019
6602 Clouds 11 1021 87 8000 2.6 130 19:59 06.12.2019
6603 Clouds 11 1021 81 8000 2.1 120 19:40 06.12.2019
6604 Clouds 11 1021 81 8000 2.1 120 19:22 06.12.2019
6605 Clouds 11 1021 87 7000 2.1 140 18:58 06.12.2019
6606 Clouds 12 1021 81 10000 1.5 120 18:40 06.12.2019
6607 Clouds 11 1021 81 10000 1.5 120 18:20 06.12.2019
6608 Clouds 12 1021 82 10000 1.5 150 17:57 06.12.2019
6609 Clouds 12 1021 81 10000 1 0 17:39 06.12.2019
6610 Clouds 13 1021 81 10000 1 0 17:20 06.12.2019
6611 Clouds 14 1021 72 10000 1.5 180 16:55 06.12.2019
6612 Clouds 14 1022 76 10000 1 0 16:37 06.12.2019
6613 Clouds 14 1022 76 10000 1 0 16:18 06.12.2019
6614 Clouds 15 1021 67 10000 0.5 0 15:41 06.12.2019
6615 Clouds 15 1022 67 10000 1.5 0 15:19 06.12.2019
6616 Clouds 15 1022 67 10000 1.5 0 15:19 06.12.2019
6617 Clouds 15 1022 67 10000 0.5 0 14:57 06.12.2019
6618 Clouds 15 1022 71 10000 2.1 360 14:39 06.12.2019
6619 Clouds 15 1022 71 10000 2.1 360 14:19 06.12.2019
6620 Clouds 15 1022 62 10000 1 0 13:44 06.12.2019
6621 Clouds 15 1023 76 10000 1.5 0 13:26 06.12.2019
6622 Clouds 14 1023 67 10000 1.5 10 12:43 06.12.2019
6623 Clouds 14 1024 76 10000 2.6 0 12:23 06.12.2019
6624 Clouds 14 1024 76 10000 2.6 0 12:23 06.12.2019
6625 Clouds 14 1023 71 10000 1.5 360 11:58 06.12.2019
6626 Clouds 13 1024 81 10000 1.5 0 11:39 06.12.2019
6627 Clouds 13 1024 81 10000 1.5 0 11:21 06.12.2019
6628 Clouds 12 1024 71 10000 1 0 10:44 06.12.2019
6629 Clouds 12 1024 81 10000 2.1 350 10:22 06.12.2019
6630 Clouds 11 1023 87 10000 1 0 09:59 06.12.2019
6631 Clouds 10 1024 93 10000 1.91 19 09:38 06.12.2019
6632 Clouds 10 1024 93 10000 1.91 19 09:20 06.12.2019
6633 Clouds 8 1023 81 10000 1 0 08:55 06.12.2019
6634 Clouds 8 1024 93 9000 1.5 0 08:36 06.12.2019
6635 Clouds 8 1024 93 9000 1.5 0 08:18 06.12.2019
6636 Clouds 8 1023 81 10000 2.1 20 07:36 06.12.2019
6637 Clouds 8 1023 81 10000 2.1 20 07:18 06.12.2019
6638 Clouds 9 1023 81 10000 1.5 30 06:30 06.12.2019
6639 Clouds 8 1023 87 10000 2.1 20 05:54 06.12.2019
6640 Clouds 9 1023 87 10000 1.5 10 05:34 06.12.2019
6641 Clouds 9 1023 81 10000 1.5 20 02:19 06.12.2019
6642 Clouds 9 1023 81 10000 1.5 20 02:19 06.12.2019
6643 Clouds 9 1023 81 10000 2.1 20 01:34 06.12.2019
6644 Clouds 9 1024 81 10000 2.1 360 00:46 06.12.2019
6645 Clouds 9 1023 70 10000 1.5 40 00:21 06.12.2019
6646 Clouds 9 1023 76 10000 1 0 23:47 05.12.2019
6647 Clear 9 1023 81 10000 1.5 20 23:19 05.12.2019
6648 Clear 9 1023 70 10000 1.5 30 22:57 05.12.2019
6649 Clear 9 1023 70 10000 2.1 0 22:38 05.12.2019
6650 Clear 10 1023 70 10000 2.1 0 22:18 05.12.2019
6651 Clear 10 1023 75 10000 1.5 30 21:44 05.12.2019
6652 Clear 10 1023 70 10000 2.1 20 21:25 05.12.2019
6653 Clouds 10 1023 76 10000 1 20 20:59 05.12.2019
6654 Clouds 10 1023 76 10000 1 20 20:40 05.12.2019
6655 Clouds 10 1023 76 10000 1 20 20:40 05.12.2019
6656 Clouds 10 1023 70 10000 1.5 60 20:21 05.12.2019
6657 Clouds 10 1023 70 10000 1.5 60 19:58 05.12.2019
6658 Clouds 10 1023 70 10000 1.5 60 19:58 05.12.2019
6659 Clouds 10 1023 70 10000 1.5 60 19:58 05.12.2019
6660 Clouds 10 1023 70 10000 1 0 19:40 05.12.2019
6661 Clouds 11 1023 66 10000 2.1 20 19:20 05.12.2019
6662 Clouds 11 1023 66 10000 2.1 20 18:57 05.12.2019
6663 Clouds 11 1022 66 10000 1.5 30 18:38 05.12.2019
6664 Clouds 11 1022 62 10000 1.5 10 18:20 05.12.2019
6665 Clouds 11 1022 62 10000 3.1 40 17:40 05.12.2019
6666 Clouds 12 1022 62 10000 4.1 50 17:20 05.12.2019
6667 Clouds 12 1022 62 10000 4.1 50 16:57 05.12.2019
6668 Clouds 12 1022 62 10000 2.1 20 16:39 05.12.2019
6669 Clouds 13 1022 62 10000 2.6 360 16:21 05.12.2019
6670 Clouds 13 1022 62 10000 2.6 360 15:57 05.12.2019
6671 Clouds 13 1021 58 10000 2.6 350 15:38 05.12.2019
6672 Clouds 14 1021 54 10000 2.1 330 15:20 05.12.2019
6673 Clouds 14 1021 54 10000 2.1 330 14:55 05.12.2019
6674 Clouds 14 1021 54 10000 2.1 350 14:37 05.12.2019
6675 Clouds 14 1021 54 10000 3.1 350 14:19 05.12.2019
6676 Clouds 13 1021 54 10000 3.1 350 13:56 05.12.2019
6677 Clouds 13 1021 58 10000 3.1 330 13:38 05.12.2019
6678 Clouds 13 1021 50 10000 1.5 330 13:19 05.12.2019
6679 Clouds 13 1021 50 10000 1.5 320 12:56 05.12.2019
6680 Clouds 13 1021 50 10000 1.5 320 12:38 05.12.2019
6681 Clouds 13 1021 50 10000 1 320 12:19 05.12.2019
6682 Clouds 13 1021 50 10000 2.1 330 11:39 05.12.2019
6683 Clouds 11 1021 54 10000 1 0 11:21 05.12.2019
6684 Clouds 11 1021 54 10000 1 0 11:21 05.12.2019
6685 Clouds 11 1021 57 10000 2.1 360 10:58 05.12.2019
6686 Clouds 11 1021 57 10000 2.1 360 10:40 05.12.2019
6687 Clouds 10 1021 66 10000 1.5 360 10:19 05.12.2019
6688 Clouds 9 1021 65 10000 2.1 40 09:55 05.12.2019
6689 Clouds 9 1021 65 10000 2.1 40 09:36 05.12.2019
6690 Clouds 8 1020 70 10000 2.6 10 09:18 05.12.2019
6691 Clouds 7 1020 70 10000 2.1 10 08:39 05.12.2019
6692 Clouds 8 1020 70 10000 2.6 360 08:20 05.12.2019
6693 Clouds 8 1020 70 10000 2.6 360 08:20 05.12.2019
6694 Clouds 8 1020 70 10000 2.6 360 07:57 05.12.2019
6695 Clouds 8 1020 70 10000 2.1 20 07:36 05.12.2019
6696 Clouds 8 1019 70 10000 2.1 10 07:18 05.12.2019
6697 Clouds 7 1019 70 10000 2.1 10 06:42 05.12.2019
6698 Clouds 7 1019 70 10000 2.6 10 06:21 05.12.2019
6699 Clouds 8 1018 70 10000 2.1 350 05:48 05.12.2019
6700 Clouds 8 1018 65 10000 2.6 10 05:23 05.12.2019
6701 Clouds 8 1018 65 10000 4.1 20 04:25 05.12.2019
6702 Clouds 8 1018 65 10000 4.1 20 04:25 05.12.2019
6703 Clouds 7 1018 65 10000 3.1 10 02:54 05.12.2019
6704 Clouds 7 1018 70 10000 2.6 20 02:25 05.12.2019
6705 Clouds 7 1018 70 10000 2.1 40 01:55 05.12.2019
6706 Clouds 8 1018 65 10000 1 0 01:27 05.12.2019
6707 Clouds 8 1018 65 10000 1 0 01:27 05.12.2019
6708 Clouds 7 1019 75 10000 1 0 00:54 05.12.2019
6709 Clouds 7 1018 70 10000 1.5 120 00:36 05.12.2019
6710 Clouds 8 1018 65 10000 1 0 00:18 05.12.2019
6711 Clouds 8 1018 43 10000 1.5 30 23:40 04.12.2019
6712 Clouds 8 1017 71 10000 4.1 60 23:22 04.12.2019
6713 Clouds 8 1017 71 10000 4.1 60 22:57 04.12.2019
6714 Clouds 8 1017 71 10000 3.6 70 2